GFSGL_prec_precacc12_015.txt.gz
Total_Precipitation_Accumulation
0.00 0.00 0.00 0.00 0.00 0.00 0.00 0.00 0.00 0.00 0.00 0.00 0.00 0.00 0.00 0.00 0.00 0.00 0.00 0.00 0.00 0.00 0.00 0.00 0.00 0.00 0.00 0.00 0.00 0.00 0.00 0.01 0.00 0.00 0.00 0.00 0.00 0.00 0.00 0.00 0.00 0.00 0.00
0.00 0.00 0.00 0.00 0.00 0.00 0.00 0.00 0.00 0.00 0.00 0.00 0.00 0.00 0.00 0.00 0.00 0.00 0.00 0.00 0.00 0.00 0.00 0.00 0.00 0.00 0.02 0.01 0.00 0.00 0.00 0.01 0.01 0.00 0.00 0.00 0.00 0.00 0.00 0.00 0.00 0.00 0.00
0.00 0.00 0.00 0.00 0.00 0.00 0.00 0.01 0.01 0.00 0.00 0.00 0.00 0.00 0.00 0.00 0.00 0.00 0.00 0.00 0.00 0.00 0.00 0.00 0.00 0.01 0.02 0.01 0.02 0.00 0.00 0.01 0.03 0.02 0.00 0.00 0.00 0.00 0.00 0.00 0.00 0.00 0.00
0.00 0.00 0.00 0.00 0.00 0.00 0.00 0.01 0.00 0.00 0.01 0.02 0.02 0.01 0.00 0.00 0.00 0.00 0.00 0.00 0.00 0.00 0.00 0.00 0.01 0.01 0.01 0.02 0.02 0.03 0.02 0.04 0.02 0.04 0.02 0.00 0.00 0.00 0.00 0.00 0.00 0.00 0.00
0.00 0.00 0.00 0.00 0.00 0.00 0.01 0.04 0.01 0.02 0.04 0.04 0.02 0.00 0.00 0.00 0.01 0.00 0.00 0.00 0.00 0.00 0.00 0.00 0.00 0.00 0.00 0.01 0.04 0.02 0.03 0.04 0.01 0.00 0.00 0.00 0.00 0.00 0.01 0.00 0.00 0.00 0.00
0.00 0.00 0.00 0.00 0.00 0.01 0.04 0.06 0.07 0.08 0.11 0.15 0.09 0.04 0.02 0.02 0.03 0.00 0.01 0.00 0.00 0.00 0.02 0.04 0.03 0.02 0.04 0.14 0.14 0.03 0.02 0.02 0.05 0.03 0.00 0.02 0.04 0.03 0.04 0.04 0.02 0.01 0.00
0.00 0.00 0.00 0.00 0.00 0.00 0.00 0.01 0.09 0.16 0.22 0.12 0.05 0.03 0.03 0.07 0.20 0.09 0.03 0.00 0.00 0.03 0.07 0.09 0.07 0.03 0.08 0.04 0.10 0.13 0.09 0.04 0.04 0.05 0.02 0.04 0.06 0.04 0.05 0.03 0.02 0.02 0.00
0.00 0.00 0.00 0.00 0.00 0.00 0.00 0.01 0.01 0.04 0.04 0.05 0.09 0.13 0.09 0.10 0.11 0.08 0.03 0.00 0.01 0.04 0.09 0.12 0.12 0.11 0.13 0.05 0.11 0.12 0.07 0.06 0.06 0.06 0.05 0.02 0.02 0.01 0.00 0.00 0.00 0.00 0.00
0.00 0.00 0.00 0.00 0.00 0.00 0.00 0.00 0.01 0.01 0.01 0.03 0.09 0.08 0.10 0.09 0.16 0.10 0.06 0.01 0.01 0.02 0.07 0.10 0.15 0.10 0.17 0.23 0.14 0.16 0.07 0.02 0.02 0.02 0.01 0.01 0.00 0.00 0.00 0.00 0.00 0.00 0.00
0.00 0.00 0.00 0.00 0.00 0.00 0.00 0.01 0.04 0.11 0.13 0.07 0.02 0.03 0.06 0.06 0.08 0.04 0.02 0.00 0.02 0.08 0.11 0.12 0.13 0.06 0.22 0.23 0.10 0.10 0.03 0.01 0.01 0.00 0.01 0.00 0.00 0.00 0.00 0.00 0.00 0.02 0.03
0.00 0.00 0.00 0.00 0.00 0.00 0.05 0.16 0.19 0.10 0.03 0.02 0.02 0.02 0.03 0.06 0.12 0.04 0.01 0.02 0.05 0.09 0.14 0.20 0.20 0.26 0.19 0.16 0.11 0.04 0.01 0.01 0.00 0.00 0.00 0.00 0.00 0.00 0.00 0.00 0.01 0.02 0.01
0.00 0.00 0.00 0.00 0.00 0.02 0.18 0.15 0.07 0.02 0.02 0.02 0.03 0.09 0.13 0.19 0.16 0.06 0.01 0.01 0.06 0.06 0.11 0.14 0.21 0.17 0.12 0.12 0.09 0.03 0.00 0.00 0.00 0.00 0.00 0.00 0.00 0.00 0.00 0.00 0.00 0.00 0.00
0.00 0.00 0.00 0.00 0.01 0.05 0.13 0.09 0.02 0.01 0.02 0.03 0.05 0.11 0.20 0.24 0.20 0.14 0.13 0.04 0.03 0.03 0.05 0.16 0.13 0.12 0.08 0.04 0.02 0.01 0.00 0.00 0.00 0.00 0.00 0.00 0.00 0.00 0.00 0.00 0.00 0.00 0.00
0.00 0.00 0.01 0.01 0.02 0.02 0.03 0.02 0.01 0.01 0.01 0.06 0.11 0.16 0.12 0.10 0.04 0.02 0.03 0.03 0.00 0.01 0.03 0.04 0.02 0.01 0.00 0.00 0.00 0.00 0.00 0.00 0.00 0.00 0.00 0.00 0.00 0.00 0.00 0.00 0.00 0.00 0.00
0.02 0.04 0.02 0.01 0.01 0.01 0.01 0.01 0.00 0.01 0.01 0.03 0.04 0.04 0.02 0.03 0.04 0.03 0.00 0.00 0.00 0.00 0.00 0.00 0.00 0.00 0.00 0.00 0.00 0.00 0.00 0.00 0.00 0.00 0.00 0.00 0.00 0.00 0.00 0.00 0.00 0.00 0.00
0.09 0.04 0.00 0.00 0.00 0.00 0.00 0.00 0.00 0.00 0.00 0.00 0.00 0.02 0.04 0.03 0.04 0.01 0.00 0.01 0.00 0.00 0.00 0.00 0.00 0.00 0.00 0.00 0.00 0.00 0.00 0.00 0.00 0.00 0.00 0.00 0.00 0.00 0.00 0.00 0.00 0.00 0.00
0.01 0.01 0.00 0.00 0.00 0.00 0.00 0.00 0.00 0.00 0.00 0.00 0.00 0.00 0.00 0.00 0.00 0.00 0.00 0.00 0.00 0.00 0.00 0.00 0.00 0.00 0.00 0.00 0.00 0.00 0.00 0.00 0.00 0.00 0.00 0.00 0.00 0.00 0.00 0.00 0.00 0.00 0.00
0.00 0.00 0.00 0.00 0.00 0.00 0.00 0.00 0.00 0.00 0.00 0.00 0.00 0.00 0.00 0.00 0.00 0.00 0.00 0.00 0.00 0.00 0.00 0.00 0.00 0.00 0.00 0.00 0.00 0.00 0.00 0.00 0.00 0.00 0.00 0.00 0.00 0.00 0.00 0.00 0.00 0.00 0.00
0.00 0.00 0.00 0.00 0.00 0.00 0.00 0.00 0.00 0.00 0.00 0.01 0.00 0.00 0.00 0.00 0.00 0.00 0.00 0.00 0.00 0.00 0.00 0.00 0.00 0.00 0.00 0.00 0.00 0.00 0.00 0.00 0.00 0.00 0.00 0.00 0.00 0.00 0.00 0.00 0.00 0.00 0.00
0.05 0.01 0.00 0.00 0.04 0.02 0.00 0.00 0.00 0.00 0.00 0.01 0.00 0.00 0.00 0.00 0.00 0.00 0.00 0.00 0.00 0.00 0.00 0.00 0.00 0.00 0.00 0.00 0.00 0.00 0.00 0.00 0.00 0.00 0.00 0.00 0.00 0.00 0.00 0.00 0.00 0.00 0.00
0.06 0.07 0.02 0.01 0.04 0.02 0.00 0.00 0.00 0.00 0.00 0.00 0.00 0.00 0.00 0.00 0.00 0.00 0.00 0.00 0.00 0.00 0.00 0.00 0.00 0.00 0.00 0.00 0.00 0.00 0.00 0.00 0.00 0.00 0.00 0.00 0.00 0.00 0.00 0.00 0.00 0.00 0.00
0.00 0.01 0.00 0.00 0.01 0.01 0.01 0.00 0.00 0.00 0.00 0.00 0.02 0.01 0.00 0.00 0.00 0.00 0.00 0.00 0.00 0.00 0.00 0.00 0.00 0.00 0.00 0.00 0.00 0.00 0.00 0.00 0.00 0.00 0.00 0.00 0.00 0.00 0.00 0.00 0.00 0.00 0.00
0.00 0.00 0.00 0.00 0.00 0.03 0.03 0.01 0.00 0.01 0.01 0.01 0.01 0.00 0.00 0.00 0.00 0.00 0.00 0.00 0.00 0.00 0.00 0.00 0.00 0.00 0.00 0.00 0.00 0.00 0.00 0.00 0.00 0.00 0.00 0.00 0.00 0.00 0.00 0.00 0.00 0.00 0.00
0.01 0.01 0.02 0.01 0.03 0.04 0.02 0.03 0.04 0.04 0.04 0.03 0.02 0.00 0.00 0.00 0.00 0.00 0.00 0.00 0.00 0.00 0.00 0.00 0.00 0.00 0.00 0.00 0.00 0.00 0.00 0.00 0.00 0.00 0.00 0.00 0.00 0.00 0.00 0.00 0.00 0.00 0.00
0.01 0.01 0.04 0.04 0.02 0.02 0.01 0.01 0.01 0.01 0.00 0.00 0.00 0.00 0.00 0.00 0.00 0.00 0.00 0.00 0.00 0.00 0.00 0.00 0.00 0.00 0.00 0.00 0.00 0.00 0.00 0.00 0.00 0.00 0.00 0.00 0.00 0.00 0.00 0.00 0.00 0.00 0.00
0.00 0.00 0.00 0.00 0.01 0.00 0.00 0.00 0.00 0.00 0.01 0.00 0.00 0.00 0.00 0.00 0.00 0.00 0.00 0.00 0.00 0.00 0.00 0.00 0.00 0.00 0.00 0.00 0.00 0.00 0.00 0.00 0.00 0.00 0.00 0.00 0.00 0.00 0.00 0.00 0.00 0.00 0.00

GFSGL_prec_precacc12_018.txt.gz
Total_Precipitation_Accumulation
0.00 0.00 0.00 0.00 0.00 0.00 0.00 0.00 0.00 0.00 0.00 0.00 0.00 0.00 0.00 0.00 0.00 0.00 0.00 0.00 0.00 0.00 0.00 0.00 0.00 0.00 0.00 0.00 0.00 0.00 0.00 0.00 0.00 0.00 0.00 0.00 0.00 0.00 0.00 0.00 0.00 0.00 0.00
0.00 0.00 0.00 0.00 0.00 0.00 0.00 0.00 0.00 0.00 0.00 0.00 0.00 0.00 0.00 0.00 0.00 0.00 0.00 0.00 0.00 0.00 0.00 0.00 0.00 0.00 0.01 0.00 0.00 0.00 0.00 0.00 0.00 0.00 0.00 0.00 0.00 0.00 0.00 0.00 0.00 0.00 0.00
0.00 0.00 0.00 0.00 0.00 0.00 0.00 0.00 0.00 0.00 0.00 0.00 0.00 0.00 0.00 0.00 0.00 0.00 0.00 0.00 0.00 0.00 0.00 0.00 0.00 0.00 0.01 0.01 0.01 0.00 0.00 0.00 0.02 0.01 0.00 0.00 0.00 0.00 0.00 0.00 0.00 0.00 0.00
0.00 0.00 0.00 0.00 0.00 0.00 0.00 0.00 0.00 0.00 0.00 0.00 0.00 0.00 0.00 0.00 0.00 0.00 0.00 0.00 0.00 0.00 0.00 0.00 0.00 0.00 0.01 0.02 0.02 0.03 0.02 0.04 0.02 0.03 0.01 0.00 0.00 0.00 0.00 0.00 0.00 0.00 0.00
0.00 0.00 0.00 0.00 0.00 0.00 0.00 0.00 0.00 0.00 0.00 0.00 0.00 0.00 0.00 0.00 0.01 0.00 0.00 0.00 0.02 0.00 0.00 0.00 0.00 0.00 0.00 0.01 0.04 0.02 0.03 0.03 0.01 0.06 0.04 0.01 0.00 0.00 0.01 0.00 0.00 0.00 0.00
0.00 0.00 0.00 0.00 0.00 0.00 0.00 0.00 0.00 0.01 0.02 0.04 0.05 0.03 0.02 0.02 0.03 0.01 0.03 0.08 0.07 0.03 0.02 0.01 0.01 0.02 0.03 0.13 0.14 0.03 0.05 0.07 0.17 0.16 0.05 0.01 0.02 0.02 0.02 0.03 0.01 0.00 0.00
0.00 0.00 0.00 0.00 0.00 0.00 0.00 0.00 0.00 0.03 0.09 0.09 0.04 0.03 0.03 0.08 0.26 0.13 0.17 0.11 0.07 0.03 0.03 0.04 0.01 0.04 0.07 0.04 0.09 0.17 0.20 0.16 0.12 0.12 0.04 0.04 0.03 0.03 0.04 0.01 0.01 0.01 0.00
0.00 0.00 0.00 0.00 0.00 0.00 0.00 0.00 0.00 0.00 0.01 0.04 0.09 0.16 0.15 0.14 0.14 0.12 0.08 0.05 0.02 0.02 0.04 0.06 0.05 0.08 0.13 0.10 0.16 0.19 0.14 0.12 0.14 0.15 0.08 0.03 0.03 0.01 0.00 0.00 0.00 0.00 0.00
0.00 0.00 0.00 0.00 0.00 0.00 0.00 0.00 0.00 0.00 0.02 0.05 0.24 0.39 0.23 0.16 0.16 0.11 0.07 0.03 0.01 0.01 0.02 0.05 0.12 0.10 0.21 0.29 0.21 0.22 0.11 0.06 0.08 0.05 0.03 0.01 0.00 0.00 0.01 0.00 0.00 0.00 0.00
0.00 0.00 0.00 0.00 0.00 0.00 0.00 0.00 0.04 0.12 0.16 0.09 0.07 0.08 0.07 0.07 0.10 0.06 0.06 0.01 0.02 0.05 0.08 0.11 0.12 0.08 0.28 0.31 0.17 0.15 0.04 0.02 0.04 0.03 0.02 0.00 0.00 0.00 0.00 0.00 0.00 0.01 0.02
0.00 0.00 0.00 0.00 0.00 0.00 0.04 0.16 0.22 0.22 0.09 0.02 0.04 0.11 0.07 0.09 0.14 0.06 0.02 0.02 0.05 0.09 0.12 0.17 0.18 0.26 0.22 0.22 0.15 0.11 0.08 0.08 0.04 0.01 0.00 0.00 0.00 0.00 0.00 0.00 0.01 0.01 0.01
0.00 0.00 0.00 0.00 0.00 0.02 0.18 0.22 0.15 0.11 0.18 0.21 0.19 0.10 0.12 0.19 0.15 0.05 0.01 0.01 0.05 0.04 0.09 0.14 0.20 0.17 0.16 0.17 0.19 0.12 0.05 0.01 0.00 0.00 0.00 0.00 0.00 0.00 0.00 0.00 0.00 0.00 0.00
0.00 0.00 0.00 0.00 0.01 0.05 0.17 0.15 0.15 0.12 0.12 0.09 0.07 0.11 0.17 0.24 0.19 0.14 0.13 0.04 0.02 0.02 0.06 0.16 0.14 0.16 0.15 0.14 0.09 0.05 0.00 0.00 0.00 0.00 0.00 0.00 0.00 0.00 0.00 0.00 0.00 0.00 0.00
0.00 0.00 0.00 0.00 0.01 0.03 0.13 0.21 0.05 0.11 0.06 0.07 0.11 0.14 0.11 0.09 0.04 0.02 0.02 0.02 0.00 0.01 0.04 0.04 0.04 0.02 0.01 0.00 0.00 0.00 0.00 0.00 0.00 0.00 0.00 0.00 0.00 0.00 0.00 0.00 0.00 0.00 0.00
0.03 0.11 0.15 0.16 0.16 0.18 0.20 0.27 0.17 0.11 0.04 0.03 0.04 0.04 0.01 0.01 0.02 0.02 0.00 0.00 0.00 0.00 0.01 0.00 0.00 0.00 0.00 0.00 0.00 0.00 0.00 0.00 0.00 0.00 0.00 0.00 0.00 0.00 0.00 0.00 0.00 0.00 0.00
0.22 0.37 0.42 0.40 0.46 0.39 0.29 0.23 0.15 0.05 0.00 0.00 0.00 0.00 0.00 0.00 0.03 0.01 0.00 0.01 0.00 0.00 0.00 0.00 0.00 0.00 0.00 0.00 0.00 0.00 0.00 0.00 0.00 0.00 0.00 0.00 0.00 0.00 0.00 0.00 0.00 0.00 0.00
0.23 0.16 0.14 0.23 0.29 0.18 0.08 0.05 0.00 0.00 0.00 0.00 0.00 0.00 0.00 0.00 0.00 0.00 0.00 0.00 0.00 0.00 0.00 0.00 0.00 0.00 0.00 0.00 0.00 0.00 0.00 0.00 0.00 0.00 0.00 0.00 0.00 0.00 0.00 0.00 0.00 0.00 0.00
0.20 0.17 0.04 0.04 0.02 0.01 0.01 0.00 0.00 0.00 0.00 0.00 0.00 0.00 0.00 0.00 0.00 0.00 0.00 0.00 0.00 0.00 0.00 0.00 0.00 0.00 0.00 0.00 0.00 0.00 0.00 0.00 0.00 0.00 0.00 0.00 0.00 0.00 0.00 0.00 0.00 0.00 0.00
0.10 0.05 0.02 0.00 0.00 0.00 0.00 0.00 0.00 0.00 0.00 0.00 0.00 0.00 0.00 0.00 0.00 0.00 0.00 0.00 0.00 0.00 0.00 0.00 0.00 0.00 0.00 0.00 0.00 0.00 0.00 0.00 0.00 0.00 0.00 0.00 0.00 0.00 0.00 0.00 0.00 0.00 0.00
0.06 0.02 0.00 0.00 0.05 0.03 0.01 0.00 0.00 0.00 0.00 0.00 0.00 0.00 0.00 0.00 0.00 0.00 0.00 0.00 0.00 0.00 0.00 0.00 0.00 0.00 0.00 0.00 0.00 0.00 0.00 0.00 0.00 0.00 0.00 0.00 0.00 0.00 0.00 0.00 0.00 0.00 0.00
0.11 0.09 0.06 0.02 0.09 0.12 0.06 0.02 0.01 0.00 0.00 0.00 0.00 0.00 0.00 0.00 0.00 0.00 0.00 0.00 0.00 0.00 0.00 0.00 0.00 0.00 0.00 0.00 0.00 0.00 0.00 0.00 0.00 0.00 0.00 0.00 0.00 0.00 0.00 0.00 0.00 0.00 0.00
0.05 0.06 0.04 0.02 0.05 0.05 0.08 0.08 0.05 0.01 0.00 0.01 0.02 0.01 0.00 0.00 0.00 0.00 0.00 0.00 0.00 0.00 0.00 0.00 0.00 0.00 0.00 0.00 0.00 0.00 0.00 0.00 0.00 0.00 0.00 0.00 0.00 0.00 0.00 0.00 0.00 0.00 0.00
0.01 0.01 0.03 0.02 0.02 0.04 0.03 0.02 0.01 0.02 0.02 0.06 0.06 0.02 0.00 0.00 0.00 0.00 0.00 0.00 0.00 0.00 0.00 0.00 0.00 0.00 0.00 0.00 0.00 0.00 0.00 0.00 0.00 0.00 0.00 0.00 0.00 0.00 0.00 0.00 0.00 0.00 0.00
0.02 0.01 0.02 0.04 0.06 0.07 0.04 0.06 0.06 0.04 0.04 0.03 0.03 0.02 0.00 0.00 0.00 0.00 0.00 0.00 0.00 0.00 0.00 0.00 0.00 0.00 0.00 0.00 0.00 0.00 0.00 0.00 0.00 0.00 0.00 0.00 0.00 0.00 0.00 0.00 0.00 0.00 0.00
0.02 0.01 0.05 0.05 0.05 0.04 0.03 0.03 0.02 0.01 0.00 0.00 0.00 0.00 0.00 0.00 0.00 0.00 0.00 0.00 0.00 0.00 0.00 0.00 0.00 0.00 0.00 0.00 0.00 0.00 0.00 0.00 0.00 0.00 0.00 0.00 0.00 0.00 0.00 0.00 0.00 0.00 0.00
0.02 0.02 0.01 0.02 0.04 0.02 0.02 0.01 0.00 0.00 0.01 0.00 0.00 0.00 0.00 0.00 0.00 0.00 0.00 0.00 0.00 0.00 0.00 0.00 0.00 0.00 0.00 0.00 0.00 0.00 0.00 0.00 0.00 0.00 0.00 0.00 0.00 0.00 0.00 0.00 0.00 0.00 0.00

GFSGL_prec_precacc12_021.txt.gz
Total_Precipitation_Accumulation
0.00 0.00 0.00 0.00 0.00 0.00 0.00 0.00 0.00 0.00 0.00 0.00 0.00 0.00 0.00 0.00 0.00 0.00 0.00 0.00 0.00 0.00 0.00 0.00 0.00 0.00 0.00 0.00 0.00 0.00 0.00 0.00 0.00 0.00 0.00 0.00 0.00 0.00 0.00 0.00 0.00 0.00 0.00
0.00 0.00 0.00 0.00 0.00 0.00 0.00 0.00 0.00 0.00 0.00 0.00 0.00 0.00 0.00 0.00 0.00 0.00 0.00 0.00 0.00 0.00 0.00 0.00 0.00 0.00 0.01 0.00 0.00 0.00 0.00 0.00 0.00 0.00 0.00 0.00 0.00 0.00 0.00 0.00 0.00 0.00 0.00
0.00 0.00 0.00 0.00 0.00 0.00 0.00 0.00 0.00 0.00 0.00 0.00 0.00 0.00 0.00 0.00 0.00 0.00 0.00 0.00 0.00 0.00 0.00 0.00 0.00 0.00 0.01 0.01 0.01 0.00 0.00 0.00 0.01 0.01 0.00 0.00 0.00 0.00 0.00 0.00 0.00 0.00 0.00
0.00 0.00 0.00 0.00 0.00 0.00 0.00 0.00 0.00 0.00 0.00 0.00 0.00 0.00 0.00 0.00 0.00 0.01 0.01 0.01 0.01 0.01 0.03 0.02 0.00 0.00 0.00 0.01 0.01 0.01 0.01 0.03 0.02 0.03 0.02 0.01 0.00 0.00 0.00 0.00 0.00 0.00 0.00
0.00 0.00 0.00 0.00 0.00 0.00 0.00 0.00 0.00 0.00 0.00 0.00 0.00 0.00 0.00 0.00 0.01 0.00 0.02 0.03 0.09 0.07 0.05 0.05 0.02 0.01 0.00 0.00 0.03 0.01 0.03 0.03 0.04 0.09 0.07 0.02 0.01 0.01 0.02 0.01 0.00 0.00 0.00
0.00 0.00 0.00 0.00 0.00 0.00 0.00 0.00 0.00 0.00 0.01 0.01 0.00 0.00 0.01 0.02 0.03 0.01 0.03 0.14 0.16 0.17 0.10 0.05 0.05 0.02 0.02 0.09 0.11 0.02 0.04 0.06 0.18 0.18 0.09 0.04 0.02 0.03 0.03 0.01 0.00 0.00 0.00
0.00 0.00 0.00 0.00 0.00 0.00 0.00 0.00 0.00 0.00 0.01 0.00 0.01 0.01 0.03 0.06 0.26 0.13 0.18 0.15 0.18 0.13 0.05 0.05 0.03 0.04 0.07 0.04 0.06 0.12 0.19 0.17 0.15 0.15 0.04 0.04 0.03 0.05 0.04 0.00 0.00 0.00 0.00
0.00 0.00 0.00 0.00 0.00 0.00 0.00 0.00 0.00 0.00 0.00 0.01 0.06 0.14 0.13 0.13 0.15 0.14 0.09 0.07 0.06 0.05 0.08 0.07 0.04 0.08 0.13 0.10 0.13 0.16 0.15 0.16 0.17 0.16 0.07 0.03 0.04 0.05 0.04 0.01 0.00 0.00 0.00
0.00 0.00 0.00 0.00 0.00 0.00 0.00 0.00 0.00 0.00 0.02 0.04 0.23 0.38 0.23 0.16 0.16 0.11 0.07 0.05 0.06 0.09 0.11 0.05 0.10 0.09 0.20 0.29 0.22 0.23 0.12 0.08 0.11 0.06 0.03 0.04 0.04 0.05 0.03 0.00 0.00 0.00 0.00
0.00 0.00 0.00 0.00 0.00 0.00 0.00 0.00 0.04 0.11 0.16 0.09 0.07 0.11 0.13 0.15 0.13 0.05 0.06 0.05 0.06 0.05 0.06 0.08 0.09 0.08 0.27 0.30 0.17 0.17 0.08 0.10 0.08 0.05 0.05 0.02 0.00 0.00 0.00 0.00 0.00 0.00 0.01
0.00 0.00 0.00 0.00 0.00 0.00 0.04 0.15 0.22 0.21 0.09 0.02 0.06 0.28 0.26 0.16 0.13 0.07 0.08 0.05 0.07 0.09 0.11 0.15 0.17 0.25 0.22 0.22 0.17 0.15 0.10 0.08 0.05 0.02 0.01 0.00 0.00 0.00 0.00 0.00 0.00 0.01 0.00
0.00 0.00 0.00 0.00 0.00 0.02 0.18 0.21 0.14 0.10 0.17 0.24 0.31 0.23 0.13 0.16 0.10 0.07 0.07 0.03 0.04 0.03 0.07 0.13 0.16 0.14 0.16 0.18 0.19 0.14 0.06 0.01 0.00 0.00 0.00 0.00 0.00 0.00 0.00 0.00 0.00 0.00 0.00
0.00 0.00 0.00 0.00 0.01 0.05 0.16 0.14 0.15 0.12 0.13 0.10 0.08 0.08 0.11 0.12 0.07 0.04 0.10 0.03 0.02 0.02 0.03 0.11 0.12 0.16 0.16 0.14 0.09 0.05 0.01 0.00 0.00 0.00 0.00 0.00 0.00 0.00 0.00 0.00 0.00 0.00 0.00
0.00 0.00 0.00 0.00 0.01 0.03 0.13 0.20 0.06 0.15 0.18 0.19 0.20 0.21 0.12 0.08 0.04 0.01 0.01 0.02 0.00 0.00 0.02 0.03 0.04 0.02 0.01 0.00 0.00 0.00 0.00 0.00 0.00 0.00 0.00 0.00 0.00 0.00 0.00 0.00 0.00 0.00 0.00
0.03 0.11 0.15 0.16 0.15 0.17 0.20 0.31 0.42 0.51 0.45 0.41 0.41 0.28 0.06 0.00 0.00 0.00 0.00 0.00 0.00 0.00 0.01 0.00 0.00 0.00 0.00 0.00 0.00 0.00 0.00 0.00 0.00 0.00 0.00 0.00 0.00 0.00 0.00 0.00 0.00 0.00 0.00
0.22 0.37 0.45 0.52 0.60 0.64 0.73 0.81 0.91 0.74 0.57 0.43 0.29 0.15 0.05 0.01 0.00 0.00 0.00 0.00 0.00 0.00 0.00 0.00 0.00 0.00 0.00 0.00 0.00 0.00 0.00 0.00 0.00 0.00 0.00 0.00 0.00 0.00 0.00 0.00 0.00 0.00 0.00
0.23 0.18 0.17 0.29 0.49 0.57 0.73 0.76 0.65 0.59 0.41 0.16 0.16 0.04 0.00 0.00 0.00 0.00 0.00 0.00 0.00 0.00 0.00 0.00 0.00 0.00 0.00 0.00 0.00 0.00 0.00 0.00 0.00 0.00 0.00 0.00 0.00 0.00 0.00 0.00 0.00 0.00 0.00
0.66 0.80 0.83 0.60 0.42 0.27 0.30 0.45 0.67 0.66 0.38 0.09 0.01 0.00 0.00 0.00 0.00 0.00 0.00 0.00 0.00 0.00 0.00 0.00 0.00 0.00 0.00 0.00 0.00 0.00 0.00 0.00 0.00 0.00 0.00 0.00 0.00 0.00 0.00 0.00 0.00 0.00 0.00
0.97 0.62 0.63 0.82 0.63 0.19 0.06 0.03 0.02 0.04 0.03 0.01 0.00 0.00 0.00 0.00 0.00 0.00 0.00 0.00 0.00 0.00 0.00 0.00 0.00 0.00 0.00 0.00 0.00 0.00 0.00 0.00 0.00 0.00 0.00 0.00 0.00 0.00 0.00 0.00 0.00 0.00 0.00
0.70 0.88 0.38 0.15 0.20 0.16 0.04 0.00 0.00 0.00 0.00 0.00 0.00 0.00 0.00 0.00 0.00 0.00 0.00 0.00 0.00 0.00 0.00 0.00 0.00 0.00 0.00 0.00 0.00 0.00 0.00 0.00 0.00 0.00 0.00 0.00 0.00 0.00 0.00 0.00 0.00 0.00 0.00
0.45 0.33 0.10 0.04 0.11 0.15 0.08 0.03 0.01 0.00 0.00 0.00 0.00 0.00 0.00 0.00 0.00 0.00 0.00 0.00 0.00 0.00 0.00 0.00 0.00 0.00 0.00 0.00 0.00 0.00 0.00 0.00 0.00 0.00 0.00 0.00 0.00 0.00 0.00 0.00 0.00 0.00 0.00
0.13 0.10 0.05 0.07 0.10 0.06 0.08 0.08 0.05 0.01 0.00 0.01 0.01 0.01 0.00 0.00 0.00 0.00 0.00 0.00 0.00 0.00 0.00 0.00 0.00 0.00 0.00 0.00 0.00 0.00 0.00 0.00 0.00 0.00 0.00 0.00 0.00 0.00 0.00 0.00 0.00 0.00 0.00
0.01 0.01 0.04 0.05 0.08 0.09 0.08 0.05 0.03 0.02 0.03 0.06 0.06 0.03 0.00 0.00 0.00 0.00 0.00 0.00 0.00 0.00 0.00 0.00 0.00 0.00 0.00 0.00 0.00 0.00 0.00 0.00 0.00 0.00 0.00 0.00 0.00 0.00 0.00 0.00 0.00 0.00 0.00
0.02 0.01 0.03 0.04 0.08 0.13 0.10 0.11 0.12 0.09 0.10 0.08 0.05 0.03 0.01 0.00 0.00 0.00 0.00 0.00 0.00 0.00 0.00 0.00 0.00 0.00 0.00 0.00 0.00 0.00 0.00 0.00 0.00 0.00 0.00 0.00 0.00 0.00 0.00 0.00 0.00 0.00 0.00
0.02 0.01 0.05 0.05 0.06 0.06 0.07 0.06 0.04 0.02 0.02 0.01 0.01 0.00 0.00 0.00 0.00 0.00 0.00 0.00 0.00 0.00 0.00 0.00 0.00 0.00 0.00 0.00 0.00 0.00 0.00 0.00 0.00 0.00 0.00 0.00 0.00 0.00 0.00 0.00 0.00 0.00 0.00
0.02 0.03 0.02 0.03 0.04 0.02 0.04 0.03 0.01 0.01 0.01 0.00 0.00 0.00 0.00 0.00 0.00 0.00 0.00 0.00 0.00 0.00 0.00 0.00 0.00 0.00 0.00 0.00 0.00 0.00 0.00 0.00 0.00 0.00 0.00 0.00 0.00 0.00 0.00 0.00 0.00 0.00 0.00

GFSGL_prec_precacc12_024.txt.gz
Total_Precipitation_Accumulation
0.00 0.00 0.00 0.00 0.00 0.00 0.00 0.00 0.00 0.00 0.00 0.00 0.00 0.00 0.00 0.00 0.00 0.00 0.00 0.00 0.00 0.00 0.00 0.00 0.00 0.00 0.00 0.00 0.00 0.00 0.00 0.00 0.00 0.00 0.00 0.00 0.00 0.00 0.00 0.00 0.00 0.00 0.00
0.00 0.00 0.00 0.00 0.00 0.00 0.00 0.00 0.00 0.00 0.00 0.00 0.00 0.00 0.00 0.00 0.00 0.00 0.00 0.00 0.00 0.00 0.00 0.00 0.00 0.00 0.00 0.00 0.00 0.00 0.00 0.00 0.00 0.00 0.00 0.00 0.00 0.00 0.00 0.00 0.00 0.00 0.00
0.00 0.00 0.00 0.00 0.00 0.00 0.00 0.00 0.00 0.00 0.00 0.00 0.00 0.00 0.00 0.00 0.00 0.00 0.00 0.00 0.00 0.00 0.00 0.00 0.00 0.00 0.00 0.00 0.00 0.00 0.00 0.00 0.01 0.00 0.00 0.00 0.00 0.00 0.00 0.00 0.00 0.00 0.00
0.00 0.00 0.00 0.00 0.00 0.00 0.00 0.00 0.00 0.00 0.00 0.00 0.00 0.00 0.00 0.00 0.00 0.01 0.01 0.01 0.01 0.02 0.05 0.06 0.02 0.01 0.00 0.00 0.00 0.00 0.00 0.00 0.00 0.00 0.01 0.01 0.00 0.00 0.00 0.00 0.00 0.00 0.00
0.00 0.00 0.00 0.00 0.00 0.00 0.00 0.00 0.00 0.00 0.00 0.00 0.00 0.00 0.00 0.00 0.01 0.00 0.02 0.03 0.09 0.10 0.10 0.11 0.07 0.14 0.05 0.00 0.00 0.00 0.00 0.00 0.03 0.09 0.08 0.02 0.01 0.01 0.02 0.01 0.00 0.00 0.00
0.00 0.00 0.00 0.00 0.00 0.00 0.00 0.00 0.00 0.00 0.00 0.00 0.00 0.00 0.01 0.01 0.03 0.01 0.03 0.14 0.16 0.20 0.14 0.08 0.09 0.10 0.04 0.00 0.01 0.01 0.03 0.06 0.18 0.17 0.09 0.04 0.02 0.02 0.03 0.01 0.00 0.00 0.00
0.00 0.00 0.00 0.00 0.00 0.00 0.00 0.00 0.00 0.00 0.00 0.00 0.00 0.00 0.02 0.06 0.25 0.12 0.17 0.15 0.18 0.16 0.08 0.08 0.06 0.06 0.04 0.03 0.05 0.11 0.18 0.18 0.17 0.15 0.06 0.05 0.03 0.04 0.02 0.01 0.00 0.00 0.00
0.00 0.00 0.00 0.00 0.00 0.00 0.00 0.00 0.00 0.00 0.00 0.01 0.06 0.11 0.09 0.11 0.13 0.11 0.08 0.07 0.06 0.07 0.10 0.08 0.04 0.06 0.09 0.09 0.13 0.16 0.15 0.14 0.16 0.15 0.07 0.03 0.03 0.04 0.04 0.01 0.00 0.00 0.00
0.00 0.00 0.00 0.00 0.00 0.00 0.00 0.00 0.00 0.00 0.01 0.04 0.23 0.35 0.17 0.13 0.09 0.08 0.06 0.05 0.07 0.11 0.13 0.06 0.06 0.09 0.13 0.22 0.20 0.22 0.10 0.08 0.12 0.06 0.03 0.03 0.04 0.05 0.03 0.00 0.00 0.00 0.00
0.00 0.00 0.00 0.00 0.00 0.00 0.00 0.00 0.03 0.11 0.16 0.08 0.07 0.11 0.11 0.13 0.11 0.05 0.06 0.05 0.06 0.04 0.04 0.03 0.03 0.06 0.18 0.25 0.16 0.16 0.09 0.10 0.08 0.05 0.04 0.02 0.00 0.00 0.00 0.00 0.00 0.00 0.00
0.00 0.00 0.00 0.00 0.00 0.00 0.04 0.15 0.21 0.21 0.08 0.02 0.06 0.27 0.25 0.11 0.06 0.06 0.08 0.03 0.03 0.04 0.04 0.04 0.09 0.16 0.16 0.17 0.16 0.15 0.10 0.08 0.05 0.02 0.01 0.00 0.00 0.00 0.00 0.00 0.00 0.00 0.00
0.00 0.00 0.00 0.00 0.00 0.02 0.17 0.20 0.14 0.09 0.17 0.24 0.31 0.21 0.07 0.06 0.05 0.06 0.06 0.03 0.01 0.01 0.01 0.04 0.10 0.09 0.10 0.14 0.19 0.14 0.06 0.01 0.00 0.00 0.00 0.00 0.00 0.00 0.00 0.00 0.00 0.00 0.00
0.00 0.00 0.00 0.00 0.01 0.05 0.16 0.13 0.14 0.11 0.12 0.10 0.09 0.07 0.05 0.04 0.03 0.04 0.04 0.04 0.01 0.00 0.02 0.06 0.09 0.11 0.12 0.13 0.09 0.06 0.01 0.00 0.00 0.00 0.00 0.00 0.00 0.00 0.00 0.00 0.00 0.00 0.00
0.00 0.00 0.00 0.00 0.01 0.03 0.12 0.20 0.06 0.15 0.18 0.22 0.23 0.23 0.28 0.26 0.18 0.09 0.06 0.05 0.01 0.01 0.02 0.01 0.03 0.02 0.01 0.00 0.00 0.00 0.00 0.00 0.00 0.00 0.00 0.00 0.00 0.00 0.00 0.00 0.00 0.00 0.00
0.03 0.11 0.15 0.16 0.15 0.17 0.20 0.31 0.42 0.51 0.47 0.55 0.65 0.68 0.58 0.45 0.31 0.25 0.15 0.06 0.00 0.00 0.01 0.00 0.00 0.00 0.00 0.00 0.00 0.00 0.00 0.00 0.00 0.00 0.00 0.00 0.00 0.00 0.00 0.00 0.00 0.00 0.00
0.22 0.37 0.44 0.52 0.60 0.64 0.73 0.83 1.00 0.92 0.87 1.03 1.00 0.93 1.24 1.68 1.56 0.76 0.40 0.10 0.01 0.00 0.00 0.00 0.00 0.00 0.00 0.00 0.00 0.00 0.00 0.00 0.00 0.00 0.00 0.00 0.00 0.00 0.00 0.00 0.00 0.00 0.00
0.23 0.18 0.17 0.29 0.49 0.57 0.74 0.79 0.82 0.85 0.85 0.96 1.13 1.10 1.04 0.79 0.66 0.44 0.20 0.03 0.00 0.00 0.00 0.00 0.00 0.00 0.00 0.00 0.00 0.00 0.00 0.00 0.00 0.00 0.00 0.00 0.00 0.00 0.00 0.00 0.00 0.00 0.00
0.66 0.82 0.85 0.62 0.46 0.31 0.41 0.59 0.82 0.88 0.84 0.64 0.38 0.33 0.21 0.15 0.14 0.08 0.04 0.00 0.00 0.00 0.00 0.00 0.00 0.00 0.00 0.00 0.00 0.00 0.00 0.00 0.00 0.00 0.00 0.00 0.00 0.00 0.00 0.00 0.00 0.00 0.00
1.05 0.74 0.78 1.00 0.95 0.71 0.55 0.49 0.33 0.22 0.21 0.19 0.14 0.12 0.12 0.09 0.09 0.08 0.06 0.01 0.00 0.00 0.00 0.00 0.00 0.00 0.00 0.00 0.00 0.00 0.00 0.00 0.00 0.00 0.00 0.00 0.00 0.00 0.00 0.00 0.00 0.00 0.00
1.31 1.85 1.61 1.39 1.08 0.68 0.61 0.51 0.47 0.42 0.34 0.32 0.21 0.07 0.02 0.01 0.02 0.01 0.00 0.00 0.00 0.00 0.00 0.00 0.00 0.00 0.00 0.00 0.00 0.00 0.00 0.00 0.00 0.00 0.00 0.00 0.00 0.00 0.00 0.00 0.00 0.00 0.00
0.77 0.80 0.89 1.02 0.96 0.45 0.26 0.18 0.21 0.21 0.16 0.15 0.11 0.07 0.02 0.00 0.00 0.00 0.00 0.00 0.00 0.00 0.00 0.00 0.00 0.00 0.00 0.00 0.00 0.00 0.00 0.00 0.00 0.00 0.00 0.00 0.00 0.00 0.00 0.00 0.00 0.00 0.00
0.31 0.32 0.26 0.28 0.19 0.13 0.14 0.14 0.12 0.11 0.11 0.13 0.09 0.05 0.00 0.00 0.00 0.00 0.00 0.00 0.00 0.00 0.00 0.00 0.00 0.00 0.00 0.00 0.00 0.00 0.00 0.00 0.00 0.00 0.00 0.00 0.00 0.00 0.00 0.00 0.00 0.00 0.00
0.11 0.14 0.13 0.12 0.17 0.17 0.14 0.11 0.10 0.14 0.19 0.18 0.15 0.05 0.01 0.00 0.00 0.00 0.00 0.00 0.00 0.00 0.00 0.00 0.00 0.00 0.00 0.00 0.00 0.00 0.00 0.00 0.00 0.00 0.00 0.00 0.00 0.00 0.00 0.00 0.00 0.00 0.00
0.05 0.07 0.12 0.18 0.24 0.28 0.23 0.20 0.18 0.15 0.16 0.15 0.10 0.06 0.02 0.00 0.00 0.00 0.00 0.00 0.00 0.00 0.00 0.00 0.00 0.00 0.00 0.00 0.00 0.00 0.00 0.00 0.00 0.00 0.00 0.00 0.00 0.00 0.00 0.00 0.00 0.00 0.00
0.03 0.02 0.06 0.09 0.13 0.21 0.28 0.24 0.18 0.13 0.09 0.07 0.06 0.03 0.02 0.01 0.00 0.00 0.00 0.00 0.00 0.00 0.00 0.00 0.00 0.00 0.00 0.00 0.00 0.00 0.00 0.00 0.00 0.00 0.00 0.00 0.00 0.00 0.00 0.00 0.00 0.00 0.00
0.02 0.03 0.02 0.03 0.04 0.05 0.17 0.15 0.08 0.10 0.08 0.05 0.04 0.03 0.02 0.02 0.01 0.02 0.00 0.00 0.00 0.00 0.00 0.00 0.00 0.00 0.00 0.00 0.00 0.00 0.00 0.00 0.00 0.00 0.00 0.00 0.00 0.00 0.00 0.00 0.00 0.00 0.00

GFSGL_prec_precacc12_027.txt.gz
Total_Precipitation_Accumulation
0.00 0.00 0.00 0.00 0.00 0.00 0.00 0.00 0.00 0.00 0.00 0.00 0.00 0.00 0.00 0.00 0.00 0.00 0.00 0.00 0.00 0.00 0.00 0.00 0.00 0.00 0.00 0.00 0.00 0.00 0.00 0.00 0.00 0.00 0.00 0.00 0.00 0.00 0.00 0.00 0.00 0.00 0.00
0.00 0.00 0.00 0.00 0.00 0.00 0.00 0.00 0.00 0.00 0.00 0.00 0.00 0.00 0.00 0.00 0.00 0.00 0.00 0.00 0.00 0.00 0.00 0.00 0.00 0.00 0.00 0.00 0.00 0.00 0.00 0.00 0.00 0.00 0.00 0.00 0.00 0.00 0.00 0.00 0.00 0.00 0.00
0.00 0.00 0.00 0.00 0.00 0.00 0.00 0.00 0.00 0.00 0.00 0.00 0.00 0.00 0.00 0.00 0.00 0.00 0.00 0.00 0.00 0.00 0.00 0.00 0.00 0.00 0.00 0.00 0.00 0.00 0.00 0.00 0.00 0.00 0.00 0.00 0.00 0.00 0.00 0.00 0.00 0.00 0.00
0.00 0.00 0.00 0.00 0.00 0.00 0.00 0.00 0.00 0.00 0.00 0.00 0.00 0.00 0.00 0.00 0.00 0.01 0.01 0.01 0.01 0.02 0.05 0.07 0.02 0.01 0.00 0.00 0.00 0.00 0.00 0.00 0.00 0.00 0.01 0.01 0.00 0.00 0.00 0.00 0.00 0.00 0.00
0.00 0.00 0.00 0.00 0.00 0.00 0.00 0.00 0.00 0.00 0.00 0.00 0.00 0.00 0.00 0.00 0.00 0.00 0.02 0.03 0.09 0.10 0.10 0.11 0.08 0.15 0.07 0.00 0.00 0.00 0.00 0.00 0.03 0.09 0.08 0.02 0.01 0.01 0.02 0.01 0.00 0.00 0.00
0.00 0.00 0.00 0.00 0.00 0.00 0.00 0.00 0.00 0.00 0.00 0.00 0.00 0.00 0.00 0.00 0.00 0.01 0.02 0.14 0.16 0.20 0.14 0.08 0.08 0.11 0.09 0.01 0.00 0.00 0.03 0.06 0.15 0.15 0.09 0.04 0.02 0.02 0.03 0.01 0.00 0.00 0.00
0.00 0.00 0.00 0.00 0.00 0.00 0.00 0.00 0.00 0.00 0.00 0.00 0.00 0.00 0.00 0.01 0.07 0.05 0.15 0.15 0.18 0.16 0.07 0.06 0.05 0.05 0.05 0.02 0.01 0.05 0.13 0.16 0.14 0.12 0.05 0.05 0.03 0.04 0.02 0.01 0.00 0.00 0.00
0.00 0.00 0.00 0.00 0.00 0.00 0.00 0.00 0.00 0.00 0.00 0.00 0.00 0.03 0.05 0.05 0.06 0.06 0.06 0.07 0.06 0.06 0.09 0.04 0.01 0.05 0.08 0.08 0.08 0.08 0.09 0.10 0.14 0.13 0.07 0.04 0.03 0.04 0.04 0.02 0.01 0.00 0.00
0.00 0.00 0.00 0.00 0.00 0.00 0.00 0.00 0.00 0.00 0.00 0.02 0.16 0.31 0.13 0.09 0.02 0.02 0.04 0.04 0.07 0.10 0.12 0.04 0.01 0.07 0.10 0.09 0.08 0.08 0.05 0.06 0.10 0.05 0.03 0.03 0.04 0.05 0.03 0.01 0.00 0.00 0.00
0.00 0.00 0.00 0.00 0.00 0.00 0.00 0.00 0.00 0.01 0.04 0.03 0.05 0.08 0.08 0.09 0.08 0.03 0.06 0.05 0.05 0.03 0.03 0.01 0.01 0.03 0.06 0.08 0.08 0.09 0.07 0.10 0.08 0.04 0.04 0.02 0.00 0.00 0.00 0.00 0.00 0.00 0.00
0.00 0.00 0.00 0.00 0.00 0.00 0.00 0.00 0.03 0.12 0.07 0.01 0.04 0.27 0.24 0.10 0.06 0.06 0.08 0.03 0.03 0.02 0.01 0.00 0.00 0.00 0.03 0.06 0.07 0.11 0.09 0.07 0.05 0.02 0.01 0.00 0.00 0.00 0.00 0.00 0.00 0.00 0.00
0.00 0.00 0.00 0.00 0.00 0.00 0.00 0.07 0.08 0.10 0.17 0.24 0.31 0.21 0.07 0.06 0.05 0.06 0.06 0.03 0.01 0.00 0.00 0.00 0.00 0.01 0.05 0.07 0.11 0.11 0.06 0.01 0.00 0.00 0.00 0.00 0.00 0.00 0.00 0.00 0.00 0.00 0.00
0.00 0.00 0.00 0.00 0.00 0.00 0.04 0.06 0.14 0.13 0.16 0.11 0.09 0.08 0.05 0.04 0.02 0.02 0.01 0.03 0.01 0.01 0.05 0.08 0.07 0.07 0.12 0.12 0.07 0.05 0.01 0.00 0.00 0.00 0.00 0.00 0.00 0.00 0.00 0.00 0.00 0.00 0.00
0.00 0.00 0.00 0.00 0.00 0.01 0.10 0.19 0.06 0.16 0.21 0.23 0.24 0.27 0.32 0.28 0.18 0.11 0.13 0.15 0.13 0.11 0.11 0.10 0.13 0.09 0.01 0.00 0.00 0.00 0.00 0.00 0.00 0.00 0.00 0.00 0.00 0.00 0.00 0.00 0.00 0.00 0.00
0.01 0.08 0.14 0.16 0.15 0.17 0.20 0.31 0.44 0.57 0.50 0.56 0.66 0.70 0.63 0.54 0.49 0.55 0.60 0.54 0.53 0.44 0.22 0.12 0.06 0.01 0.00 0.00 0.00 0.00 0.00 0.00 0.00 0.00 0.00 0.00 0.00 0.00 0.00 0.00 0.00 0.00 0.00
0.13 0.33 0.44 0.52 0.60 0.64 0.73 0.83 1.01 0.94 0.88 1.04 1.02 0.95 1.31 1.91 2.31 2.17 2.36 2.29 1.88 1.29 0.55 0.17 0.04 0.00 0.00 0.00 0.00 0.00 0.00 0.00 0.00 0.00 0.00 0.00 0.00 0.00 0.00 0.00 0.00 0.00 0.00
0.22 0.17 0.17 0.29 0.49 0.57 0.74 0.79 0.82 0.94 0.95 1.00 1.18 1.22 1.18 0.93 0.87 0.87 0.83 0.70 0.70 0.70 0.41 0.14 0.03 0.00 0.00 0.00 0.00 0.00 0.00 0.00 0.00 0.00 0.00 0.00 0.00 0.00 0.00 0.00 0.00 0.00 0.00
0.66 0.83 0.85 0.63 0.46 0.31 0.41 0.60 0.83 0.89 0.89 0.76 0.57 0.57 0.42 0.31 0.25 0.18 0.16 0.11 0.08 0.05 0.04 0.03 0.01 0.00 0.00 0.00 0.00 0.00 0.00 0.00 0.00 0.00 0.00 0.00 0.00 0.00 0.00 0.00 0.00 0.00 0.00
1.05 0.75 0.81 1.06 1.03 0.81 0.62 0.57 0.37 0.24 0.22 0.21 0.17 0.20 0.20 0.19 0.20 0.20 0.16 0.10 0.06 0.03 0.01 0.01 0.00 0.00 0.00 0.00 0.00 0.00 0.00 0.00 0.00 0.00 0.00 0.00 0.00 0.00 0.00 0.00 0.00 0.00 0.00
1.26 1.84 1.61 1.43 1.35 1.33 1.25 1.14 1.02 0.82 0.57 0.40 0.29 0.20 0.14 0.15 0.20 0.22 0.20 0.16 0.12 0.09 0.06 0.01 0.00 0.00 0.00 0.00 0.00 0.00 0.00 0.00 0.00 0.00 0.00 0.00 0.00 0.00 0.00 0.00 0.00 0.00 0.00
0.71 0.74 0.87 1.03 1.38 1.56 1.55 1.62 1.59 1.51 1.39 1.04 0.44 0.30 0.26 0.19 0.17 0.15 0.12 0.09 0.06 0.05 0.01 0.00 0.00 0.00 0.00 0.00 0.00 0.00 0.00 0.00 0.00 0.00 0.00 0.00 0.00 0.00 0.00 0.00 0.00 0.00 0.00
0.31 0.32 0.26 0.29 0.27 0.27 0.30 0.38 0.44 0.41 0.41 0.31 0.14 0.11 0.07 0.04 0.03 0.02 0.01 0.00 0.00 0.00 0.00 0.00 0.00 0.00 0.00 0.00 0.00 0.00 0.00 0.00 0.00 0.00 0.00 0.00 0.00 0.00 0.00 0.00 0.00 0.00 0.00
0.12 0.14 0.13 0.12 0.17 0.18 0.16 0.11 0.10 0.15 0.21 0.22 0.24 0.12 0.04 0.04 0.02 0.01 0.00 0.00 0.00 0.00 0.00 0.00 0.00 0.00 0.00 0.00 0.00 0.00 0.00 0.00 0.00 0.00 0.00 0.00 0.00 0.00 0.00 0.00 0.00 0.00 0.00
0.04 0.08 0.11 0.17 0.23 0.27 0.24 0.21 0.19 0.18 0.21 0.24 0.22 0.14 0.05 0.01 0.00 0.00 0.00 0.00 0.00 0.00 0.00 0.00 0.00 0.00 0.00 0.00 0.00 0.00 0.00 0.00 0.00 0.00 0.00 0.00 0.00 0.00 0.00 0.00 0.00 0.00 0.00
0.02 0.02 0.03 0.07 0.12 0.21 0.29 0.25 0.20 0.15 0.11 0.11 0.14 0.09 0.06 0.05 0.01 0.00 0.00 0.00 0.00 0.00 0.00 0.00 0.00 0.00 0.00 0.00 0.00 0.00 0.00 0.00 0.00 0.00 0.00 0.00 0.00 0.00 0.00 0.00 0.00 0.00 0.00
0.02 0.03 0.02 0.03 0.03 0.05 0.19 0.29 0.28 0.44 0.21 0.10 0.09 0.09 0.08 0.06 0.04 0.03 0.01 0.00 0.00 0.00 0.00 0.00 0.00 0.00 0.00 0.00 0.00 0.00 0.00 0.00 0.00 0.00 0.00 0.00 0.00 0.00 0.00 0.00 0.00 0.00 0.00

GFSGL_prec_precacc12_030.txt.gz
Total_Precipitation_Accumulation
0.00 0.00 0.00 0.00 0.00 0.00 0.00 0.00 0.00 0.00 0.00 0.00 0.00 0.00 0.00 0.00 0.00 0.00 0.00 0.00 0.00 0.00 0.00 0.00 0.00 0.00 0.00 0.00 0.00 0.00 0.00 0.00 0.00 0.00 0.00 0.00 0.00 0.00 0.00 0.00 0.00 0.00 0.00
0.00 0.00 0.00 0.00 0.00 0.00 0.00 0.00 0.00 0.00 0.00 0.00 0.00 0.00 0.00 0.00 0.00 0.00 0.00 0.00 0.00 0.00 0.00 0.00 0.00 0.00 0.00 0.00 0.00 0.00 0.00 0.00 0.00 0.00 0.00 0.00 0.00 0.00 0.00 0.00 0.00 0.00 0.00
0.00 0.00 0.00 0.00 0.00 0.00 0.00 0.00 0.00 0.00 0.00 0.00 0.00 0.00 0.00 0.00 0.00 0.00 0.00 0.00 0.00 0.00 0.00 0.00 0.00 0.00 0.00 0.00 0.00 0.00 0.00 0.00 0.00 0.00 0.00 0.00 0.00 0.00 0.00 0.00 0.00 0.00 0.00
0.00 0.00 0.00 0.00 0.00 0.00 0.00 0.00 0.00 0.00 0.00 0.00 0.00 0.00 0.00 0.00 0.00 0.01 0.01 0.01 0.01 0.02 0.05 0.07 0.02 0.01 0.00 0.00 0.00 0.00 0.00 0.00 0.00 0.00 0.01 0.01 0.00 0.00 0.00 0.00 0.00 0.00 0.00
0.00 0.00 0.00 0.00 0.00 0.00 0.00 0.00 0.00 0.00 0.00 0.00 0.00 0.00 0.00 0.00 0.00 0.00 0.02 0.03 0.07 0.09 0.10 0.11 0.08 0.15 0.06 0.00 0.00 0.00 0.00 0.00 0.03 0.03 0.03 0.01 0.01 0.01 0.02 0.01 0.00 0.00 0.00
0.00 0.00 0.00 0.00 0.00 0.00 0.00 0.00 0.00 0.00 0.00 0.00 0.00 0.00 0.00 0.00 0.00 0.00 0.00 0.06 0.09 0.17 0.13 0.08 0.08 0.11 0.09 0.02 0.01 0.01 0.02 0.01 0.02 0.02 0.04 0.03 0.01 0.02 0.03 0.01 0.00 0.00 0.00
0.00 0.00 0.00 0.00 0.00 0.00 0.00 0.00 0.00 0.00 0.00 0.00 0.00 0.00 0.00 0.00 0.01 0.01 0.01 0.04 0.12 0.14 0.07 0.06 0.05 0.03 0.01 0.00 0.02 0.02 0.03 0.06 0.06 0.04 0.02 0.03 0.03 0.06 0.04 0.01 0.02 0.02 0.01
0.00 0.00 0.00 0.00 0.00 0.00 0.00 0.00 0.00 0.00 0.00 0.00 0.00 0.00 0.00 0.00 0.02 0.02 0.01 0.02 0.04 0.06 0.08 0.04 0.01 0.01 0.01 0.01 0.02 0.01 0.02 0.04 0.06 0.03 0.02 0.03 0.06 0.06 0.04 0.03 0.05 0.01 0.01
0.00 0.00 0.00 0.00 0.00 0.00 0.00 0.00 0.00 0.00 0.00 0.00 0.00 0.00 0.00 0.00 0.00 0.00 0.01 0.02 0.06 0.10 0.12 0.04 0.00 0.02 0.03 0.02 0.01 0.02 0.01 0.02 0.05 0.02 0.01 0.03 0.04 0.05 0.02 0.02 0.02 0.03 0.01
0.00 0.00 0.00 0.00 0.00 0.00 0.00 0.00 0.00 0.00 0.00 0.00 0.00 0.03 0.06 0.08 0.05 0.00 0.02 0.04 0.05 0.03 0.03 0.01 0.00 0.00 0.00 0.01 0.01 0.04 0.06 0.10 0.08 0.03 0.03 0.02 0.00 0.00 0.00 0.02 0.01 0.00 0.00
0.00 0.00 0.00 0.00 0.00 0.00 0.00 0.00 0.00 0.00 0.00 0.00 0.02 0.17 0.20 0.08 0.02 0.03 0.07 0.03 0.03 0.02 0.01 0.00 0.00 0.00 0.00 0.05 0.08 0.12 0.10 0.06 0.04 0.03 0.01 0.00 0.00 0.00 0.00 0.00 0.00 0.00 0.00
0.00 0.00 0.00 0.00 0.00 0.00 0.00 0.00 0.00 0.00 0.01 0.04 0.14 0.16 0.06 0.05 0.04 0.06 0.06 0.03 0.01 0.00 0.00 0.00 0.00 0.00 0.02 0.04 0.08 0.14 0.13 0.05 0.03 0.01 0.01 0.00 0.00 0.00 0.00 0.00 0.00 0.00 0.00
0.00 0.00 0.00 0.00 0.00 0.00 0.00 0.00 0.00 0.02 0.04 0.05 0.05 0.05 0.05 0.04 0.02 0.03 0.01 0.03 0.01 0.01 0.05 0.07 0.07 0.08 0.09 0.10 0.10 0.12 0.07 0.01 0.00 0.00 0.00 0.00 0.00 0.00 0.00 0.00 0.00 0.00 0.00
0.00 0.00 0.00 0.00 0.00 0.00 0.00 0.00 0.01 0.06 0.16 0.20 0.22 0.27 0.32 0.28 0.18 0.11 0.13 0.15 0.15 0.18 0.14 0.14 0.22 0.21 0.19 0.16 0.16 0.11 0.03 0.00 0.00 0.00 0.00 0.00 0.00 0.00 0.00 0.00 0.00 0.00 0.00
0.00 0.00 0.00 0.00 0.00 0.00 0.00 0.04 0.28 0.47 0.48 0.54 0.66 0.70 0.63 0.55 0.49 0.56 0.62 0.57 0.57 0.76 0.80 0.72 0.60 0.36 0.22 0.15 0.10 0.05 0.02 0.00 0.00 0.00 0.00 0.00 0.00 0.00 0.00 0.00 0.00 0.00 0.00
0.00 0.00 0.02 0.12 0.14 0.25 0.44 0.60 0.87 0.88 0.88 1.04 1.02 0.95 1.31 1.92 2.32 2.18 2.38 2.37 2.05 1.76 1.57 1.26 0.77 0.38 0.24 0.22 0.17 0.08 0.01 0.00 0.00 0.00 0.00 0.00 0.00 0.00 0.00 0.00 0.00 0.00 0.00
0.01 0.02 0.03 0.05 0.19 0.39 0.65 0.75 0.82 0.94 0.95 1.01 1.18 1.23 1.18 0.93 0.87 0.89 0.87 0.77 0.78 0.82 0.60 0.31 0.23 0.23 0.23 0.22 0.18 0.09 0.01 0.00 0.00 0.00 0.00 0.00 0.00 0.00 0.00 0.00 0.00 0.00 0.00
0.47 0.66 0.81 0.59 0.44 0.30 0.40 0.60 0.83 0.90 0.89 0.77 0.58 0.58 0.43 0.32 0.27 0.25 0.28 0.19 0.19 0.14 0.13 0.12 0.09 0.08 0.06 0.05 0.04 0.02 0.00 0.00 0.00 0.00 0.00 0.00 0.00 0.00 0.00 0.00 0.00 0.00 0.00
0.95 0.69 0.80 1.06 1.03 0.81 0.63 0.60 0.41 0.29 0.26 0.23 0.20 0.28 0.30 0.29 0.30 0.30 0.23 0.12 0.11 0.10 0.10 0.11 0.09 0.08 0.04 0.00 0.00 0.00 0.00 0.00 0.00 0.00 0.00 0.00 0.00 0.00 0.00 0.00 0.00 0.00 0.00
1.25 1.84 1.61 1.43 1.34 1.31 1.25 1.14 1.04 0.88 0.77 0.72 0.67 0.57 0.55 0.61 0.53 0.42 0.33 0.24 0.19 0.18 0.15 0.10 0.09 0.07 0.02 0.00 0.00 0.00 0.00 0.00 0.00 0.00 0.00 0.00 0.00 0.00 0.00 0.00 0.00 0.00 0.00
0.65 0.71 0.83 1.01 1.33 1.46 1.49 1.60 1.59 1.55 1.57 1.59 1.58 1.63 1.74 1.62 1.47 1.21 0.62 0.21 0.11 0.06 0.04 0.02 0.01 0.01 0.01 0.00 0.00 0.00 0.00 0.00 0.00 0.00 0.00 0.00 0.00 0.00 0.00 0.00 0.00 0.00 0.00
0.26 0.27 0.23 0.27 0.23 0.24 0.23 0.30 0.39 0.41 0.51 0.66 0.68 0.72 0.81 0.93 0.96 0.89 0.43 0.12 0.03 0.02 0.02 0.02 0.01 0.00 0.00 0.00 0.00 0.00 0.00 0.00 0.00 0.00 0.00 0.00 0.00 0.00 0.00 0.00 0.00 0.00 0.00
0.11 0.13 0.11 0.10 0.15 0.16 0.15 0.10 0.09 0.15 0.20 0.17 0.20 0.11 0.09 0.15 0.13 0.14 0.10 0.05 0.04 0.04 0.05 0.03 0.01 0.00 0.00 0.00 0.00 0.00 0.00 0.00 0.00 0.00 0.00 0.00 0.00 0.00 0.00 0.00 0.00 0.00 0.00
0.03 0.08 0.12 0.16 0.20 0.24 0.22 0.19 0.18 0.18 0.22 0.23 0.23 0.17 0.12 0.11 0.16 0.21 0.17 0.11 0.07 0.03 0.00 0.00 0.00 0.00 0.00 0.00 0.00 0.00 0.00 0.00 0.00 0.00 0.00 0.00 0.00 0.00 0.00 0.00 0.00 0.00 0.00
0.01 0.01 0.03 0.05 0.10 0.20 0.27 0.23 0.19 0.15 0.13 0.15 0.20 0.16 0.08 0.05 0.02 0.01 0.00 0.00 0.00 0.00 0.00 0.00 0.00 0.00 0.00 0.00 0.00 0.00 0.00 0.00 0.00 0.00 0.00 0.00 0.00 0.00 0.00 0.00 0.00 0.00 0.00
0.00 0.01 0.01 0.01 0.01 0.03 0.17 0.28 0.29 0.44 0.22 0.11 0.10 0.11 0.09 0.07 0.04 0.03 0.01 0.00 0.00 0.00 0.00 0.00 0.00 0.00 0.00 0.00 0.00 0.00 0.00 0.00 0.00 0.00 0.00 0.00 0.00 0.00 0.00 0.00 0.00 0.00 0.00

GFSGL_prec_precacc12_033.txt.gz
Total_Precipitation_Accumulation
0.00 0.00 0.00 0.00 0.00 0.00 0.00 0.00 0.00 0.00 0.00 0.00 0.00 0.00 0.00 0.00 0.00 0.00 0.00 0.00 0.00 0.00 0.00 0.00 0.00 0.00 0.00 0.00 0.00 0.00 0.00 0.00 0.00 0.00 0.00 0.00 0.00 0.00 0.00 0.00 0.00 0.00 0.00
0.00 0.00 0.00 0.00 0.00 0.00 0.00 0.00 0.00 0.00 0.00 0.00 0.00 0.00 0.00 0.00 0.00 0.00 0.00 0.00 0.00 0.00 0.00 0.00 0.00 0.00 0.00 0.00 0.00 0.00 0.00 0.00 0.00 0.00 0.00 0.00 0.00 0.00 0.00 0.00 0.00 0.00 0.00
0.00 0.00 0.00 0.00 0.00 0.00 0.00 0.00 0.00 0.00 0.00 0.00 0.00 0.00 0.00 0.00 0.00 0.00 0.00 0.00 0.00 0.00 0.00 0.00 0.00 0.00 0.00 0.00 0.00 0.00 0.00 0.00 0.00 0.00 0.00 0.00 0.00 0.00 0.00 0.00 0.00 0.00 0.00
0.00 0.00 0.00 0.00 0.00 0.00 0.00 0.00 0.00 0.00 0.00 0.00 0.00 0.00 0.00 0.00 0.00 0.00 0.00 0.00 0.00 0.01 0.02 0.04 0.02 0.01 0.00 0.00 0.00 0.00 0.00 0.00 0.00 0.00 0.00 0.00 0.00 0.00 0.00 0.00 0.00 0.00 0.00
0.00 0.00 0.00 0.00 0.00 0.00 0.00 0.00 0.00 0.00 0.00 0.00 0.00 0.00 0.00 0.00 0.00 0.00 0.00 0.00 0.00 0.03 0.05 0.05 0.05 0.14 0.06 0.00 0.00 0.00 0.00 0.00 0.00 0.00 0.00 0.00 0.00 0.00 0.00 0.00 0.00 0.00 0.00
0.00 0.00 0.00 0.00 0.00 0.00 0.00 0.00 0.00 0.00 0.00 0.00 0.00 0.00 0.00 0.00 0.00 0.00 0.00 0.00 0.00 0.03 0.05 0.03 0.04 0.09 0.09 0.02 0.01 0.01 0.02 0.01 0.00 0.00 0.00 0.00 0.00 0.00 0.00 0.00 0.00 0.00 0.00
0.00 0.00 0.00 0.00 0.00 0.00 0.00 0.00 0.00 0.00 0.00 0.00 0.00 0.00 0.00 0.00 0.00 0.00 0.00 0.00 0.00 0.04 0.03 0.03 0.04 0.02 0.01 0.00 0.02 0.00 0.01 0.04 0.03 0.02 0.01 0.01 0.01 0.03 0.04 0.04 0.03 0.04 0.03
0.00 0.00 0.00 0.00 0.00 0.00 0.00 0.00 0.00 0.00 0.00 0.00 0.00 0.00 0.00 0.00 0.00 0.00 0.00 0.00 0.00 0.03 0.04 0.02 0.01 0.01 0.00 0.00 0.00 0.00 0.00 0.00 0.07 0.06 0.01 0.02 0.04 0.03 0.02 0.04 0.07 0.03 0.03
0.00 0.00 0.00 0.00 0.00 0.00 0.00 0.00 0.00 0.00 0.00 0.00 0.00 0.00 0.00 0.00 0.00 0.00 0.00 0.00 0.01 0.02 0.03 0.03 0.00 0.02 0.02 0.00 0.00 0.00 0.00 0.01 0.06 0.10 0.03 0.01 0.01 0.00 0.01 0.02 0.05 0.08 0.03
0.00 0.00 0.00 0.00 0.00 0.00 0.00 0.00 0.00 0.00 0.00 0.00 0.00 0.00 0.00 0.00 0.00 0.00 0.00 0.00 0.00 0.01 0.03 0.01 0.00 0.00 0.00 0.01 0.01 0.02 0.02 0.03 0.05 0.07 0.04 0.01 0.02 0.01 0.00 0.02 0.03 0.02 0.00
0.00 0.00 0.00 0.00 0.00 0.00 0.00 0.00 0.00 0.00 0.00 0.00 0.00 0.00 0.00 0.00 0.00 0.00 0.00 0.00 0.00 0.01 0.01 0.00 0.00 0.00 0.00 0.04 0.05 0.08 0.09 0.08 0.11 0.06 0.08 0.07 0.02 0.01 0.00 0.00 0.00 0.00 0.00
0.00 0.00 0.00 0.00 0.00 0.00 0.00 0.00 0.00 0.00 0.01 0.01 0.01 0.00 0.00 0.00 0.00 0.00 0.00 0.00 0.00 0.00 0.00 0.00 0.00 0.00 0.02 0.04 0.07 0.13 0.14 0.13 0.06 0.07 0.06 0.03 0.01 0.00 0.00 0.00 0.00 0.00 0.00
0.00 0.00 0.00 0.00 0.00 0.00 0.00 0.00 0.00 0.02 0.03 0.02 0.02 0.04 0.02 0.02 0.01 0.02 0.01 0.03 0.01 0.01 0.05 0.07 0.07 0.08 0.09 0.10 0.10 0.13 0.15 0.10 0.02 0.01 0.01 0.01 0.00 0.00 0.00 0.00 0.00 0.00 0.00
0.00 0.00 0.00 0.00 0.00 0.00 0.00 0.00 0.00 0.01 0.03 0.05 0.07 0.12 0.25 0.25 0.17 0.11 0.13 0.15 0.15 0.18 0.14 0.14 0.25 0.25 0.21 0.18 0.19 0.19 0.16 0.13 0.03 0.04 0.04 0.05 0.02 0.00 0.00 0.00 0.00 0.00 0.00
0.00 0.00 0.00 0.00 0.00 0.00 0.00 0.00 0.02 0.07 0.06 0.16 0.27 0.44 0.57 0.54 0.49 0.56 0.62 0.57 0.57 0.76 0.80 0.74 0.65 0.49 0.39 0.32 0.27 0.23 0.21 0.14 0.12 0.13 0.20 0.23 0.06 0.00 0.00 0.00 0.00 0.00 0.00
0.00 0.00 0.00 0.00 0.00 0.00 0.00 0.02 0.10 0.19 0.31 0.61 0.74 0.81 1.26 1.90 2.32 2.18 2.38 2.37 2.05 1.76 1.59 1.35 0.87 0.58 0.56 0.50 0.44 0.32 0.23 0.21 0.17 0.15 0.17 0.22 0.05 0.00 0.00 0.00 0.00 0.00 0.00
0.00 0.00 0.00 0.00 0.00 0.00 0.00 0.03 0.17 0.35 0.55 0.85 1.03 1.19 1.18 0.93 0.87 0.89 0.87 0.77 0.79 0.82 0.61 0.34 0.29 0.31 0.37 0.43 0.38 0.26 0.22 0.19 0.09 0.07 0.05 0.03 0.01 0.00 0.00 0.00 0.00 0.00 0.00
0.00 0.02 0.02 0.03 0.04 0.04 0.11 0.15 0.17 0.24 0.51 0.68 0.57 0.58 0.43 0.32 0.27 0.25 0.28 0.20 0.20 0.16 0.14 0.13 0.15 0.27 0.27 0.20 0.16 0.10 0.05 0.03 0.02 0.03 0.03 0.02 0.00 0.00 0.00 0.00 0.00 0.00 0.00
0.08 0.13 0.19 0.24 0.40 0.62 0.57 0.56 0.40 0.24 0.22 0.22 0.20 0.28 0.32 0.33 0.36 0.37 0.31 0.19 0.16 0.14 0.16 0.21 0.22 0.24 0.20 0.11 0.08 0.07 0.03 0.02 0.00 0.01 0.00 0.00 0.00 0.00 0.00 0.00 0.00 0.00 0.00
0.61 0.98 1.23 1.28 1.19 1.19 1.22 1.14 1.03 0.88 0.77 0.72 0.67 0.57 0.55 0.63 0.60 0.59 0.55 0.51 0.47 0.34 0.29 0.23 0.20 0.18 0.10 0.05 0.01 0.01 0.01 0.00 0.00 0.00 0.00 0.00 0.00 0.00 0.00 0.00 0.00 0.00 0.00
0.32 0.47 0.79 1.00 1.30 1.43 1.47 1.60 1.59 1.55 1.57 1.59 1.58 1.63 1.75 1.63 1.53 1.51 1.50 1.49 1.22 1.01 1.01 0.83 0.32 0.11 0.05 0.02 0.00 0.00 0.00 0.00 0.00 0.00 0.00 0.00 0.00 0.00 0.00 0.00 0.00 0.00 0.00
0.18 0.23 0.22 0.22 0.18 0.22 0.23 0.30 0.39 0.41 0.51 0.66 0.68 0.72 0.81 0.94 1.04 1.21 1.24 1.20 1.24 1.38 1.50 1.38 0.84 0.32 0.08 0.01 0.00 0.00 0.00 0.00 0.00 0.00 0.00 0.00 0.00 0.00 0.00 0.00 0.00 0.00 0.00
0.11 0.13 0.09 0.08 0.09 0.09 0.08 0.07 0.08 0.14 0.18 0.17 0.19 0.11 0.10 0.15 0.14 0.16 0.17 0.15 0.16 0.16 0.27 0.24 0.16 0.08 0.05 0.01 0.01 0.00 0.00 0.00 0.00 0.00 0.00 0.00 0.00 0.00 0.00 0.00 0.00 0.00 0.00
0.03 0.09 0.12 0.15 0.18 0.19 0.17 0.14 0.12 0.13 0.16 0.19 0.21 0.16 0.13 0.12 0.18 0.29 0.34 0.28 0.28 0.29 0.19 0.17 0.09 0.04 0.02 0.02 0.00 0.00 0.00 0.00 0.00 0.00 0.00 0.00 0.00 0.00 0.00 0.00 0.00 0.00 0.00
0.01 0.01 0.03 0.05 0.10 0.18 0.24 0.20 0.17 0.14 0.11 0.14 0.19 0.15 0.08 0.05 0.02 0.02 0.03 0.06 0.16 0.34 0.21 0.12 0.04 0.00 0.00 0.00 0.00 0.00 0.00 0.00 0.00 0.00 0.00 0.00 0.00 0.00 0.00 0.00 0.00 0.00 0.00
0.00 0.00 0.00 0.00 0.01 0.03 0.16 0.27 0.28 0.44 0.22 0.11 0.11 0.11 0.09 0.07 0.04 0.03 0.01 0.00 0.00 0.00 0.00 0.00 0.00 0.00 0.00 0.00 0.00 0.00 0.00 0.00 0.00 0.00 0.00 0.00 0.00 0.00 0.00 0.00 0.00 0.00 0.00

GFSGL_prec_precacc12_036.txt.gz
Total_Precipitation_Accumulation
0.00 0.00 0.00 0.00 0.00 0.00 0.00 0.00 0.00 0.00 0.00 0.00 0.00 0.00 0.00 0.00 0.00 0.00 0.00 0.00 0.00 0.00 0.00 0.00 0.00 0.00 0.00 0.00 0.00 0.00 0.00 0.00 0.00 0.00 0.00 0.00 0.00 0.00 0.00 0.00 0.00 0.00 0.00
0.00 0.00 0.00 0.00 0.00 0.00 0.00 0.00 0.00 0.00 0.00 0.00 0.00 0.00 0.00 0.00 0.00 0.00 0.00 0.00 0.00 0.00 0.00 0.00 0.00 0.00 0.00 0.00 0.00 0.00 0.00 0.00 0.00 0.00 0.00 0.00 0.00 0.00 0.00 0.00 0.00 0.00 0.00
0.00 0.00 0.00 0.00 0.00 0.00 0.00 0.00 0.00 0.00 0.00 0.00 0.00 0.00 0.00 0.00 0.00 0.00 0.00 0.00 0.00 0.00 0.00 0.00 0.00 0.00 0.00 0.00 0.00 0.00 0.00 0.00 0.00 0.00 0.00 0.00 0.00 0.00 0.00 0.00 0.00 0.00 0.00
0.00 0.00 0.00 0.00 0.00 0.00 0.00 0.00 0.00 0.00 0.00 0.00 0.00 0.00 0.00 0.00 0.00 0.00 0.00 0.00 0.00 0.00 0.00 0.00 0.00 0.00 0.00 0.00 0.00 0.00 0.00 0.00 0.00 0.00 0.00 0.00 0.00 0.00 0.00 0.00 0.00 0.00 0.00
0.00 0.00 0.00 0.00 0.00 0.00 0.00 0.00 0.00 0.00 0.00 0.00 0.00 0.00 0.00 0.00 0.00 0.00 0.00 0.00 0.00 0.00 0.00 0.00 0.00 0.01 0.02 0.00 0.00 0.00 0.00 0.00 0.00 0.00 0.00 0.00 0.00 0.00 0.00 0.00 0.00 0.00 0.00
0.00 0.00 0.00 0.00 0.00 0.00 0.00 0.00 0.00 0.00 0.00 0.00 0.00 0.00 0.00 0.00 0.00 0.00 0.00 0.00 0.00 0.00 0.00 0.00 0.00 0.01 0.05 0.01 0.01 0.01 0.02 0.01 0.00 0.00 0.00 0.00 0.00 0.00 0.00 0.00 0.00 0.01 0.00
0.00 0.00 0.00 0.00 0.00 0.00 0.00 0.00 0.00 0.00 0.00 0.00 0.00 0.00 0.00 0.00 0.00 0.00 0.00 0.00 0.00 0.00 0.00 0.00 0.00 0.00 0.00 0.00 0.02 0.00 0.01 0.03 0.01 0.01 0.00 0.00 0.02 0.04 0.04 0.04 0.03 0.04 0.03
0.00 0.00 0.00 0.00 0.00 0.00 0.00 0.00 0.00 0.00 0.00 0.00 0.00 0.00 0.00 0.00 0.00 0.00 0.00 0.00 0.00 0.00 0.00 0.00 0.00 0.01 0.00 0.00 0.00 0.00 0.00 0.00 0.05 0.04 0.00 0.02 0.04 0.04 0.02 0.04 0.08 0.03 0.03
0.00 0.00 0.00 0.00 0.00 0.00 0.00 0.00 0.00 0.00 0.00 0.00 0.00 0.00 0.00 0.00 0.00 0.00 0.00 0.00 0.00 0.00 0.00 0.00 0.00 0.02 0.02 0.00 0.00 0.00 0.00 0.00 0.04 0.09 0.03 0.01 0.03 0.05 0.03 0.02 0.05 0.08 0.03
0.00 0.00 0.00 0.00 0.00 0.00 0.00 0.00 0.00 0.00 0.00 0.00 0.00 0.00 0.00 0.00 0.00 0.00 0.00 0.00 0.00 0.00 0.00 0.00 0.00 0.00 0.00 0.01 0.00 0.00 0.00 0.02 0.04 0.07 0.04 0.02 0.04 0.06 0.08 0.04 0.04 0.02 0.00
0.00 0.00 0.00 0.00 0.00 0.00 0.00 0.00 0.00 0.00 0.00 0.00 0.00 0.00 0.00 0.00 0.00 0.00 0.00 0.00 0.00 0.00 0.00 0.00 0.00 0.00 0.00 0.04 0.05 0.08 0.09 0.08 0.11 0.06 0.08 0.09 0.09 0.07 0.08 0.05 0.01 0.00 0.00
0.00 0.00 0.00 0.00 0.00 0.00 0.00 0.00 0.00 0.01 0.01 0.01 0.01 0.00 0.00 0.00 0.00 0.00 0.00 0.00 0.00 0.00 0.00 0.00 0.00 0.00 0.02 0.04 0.07 0.13 0.14 0.13 0.07 0.07 0.06 0.06 0.06 0.05 0.06 0.06 0.05 0.00 0.00
0.00 0.00 0.00 0.00 0.00 0.00 0.00 0.00 0.01 0.03 0.04 0.01 0.00 0.01 0.01 0.01 0.00 0.00 0.00 0.00 0.00 0.01 0.05 0.07 0.07 0.08 0.08 0.10 0.10 0.12 0.15 0.11 0.03 0.02 0.03 0.04 0.05 0.07 0.05 0.04 0.03 0.01 0.02
0.00 0.00 0.00 0.00 0.00 0.00 0.00 0.00 0.00 0.01 0.02 0.02 0.02 0.05 0.05 0.03 0.01 0.03 0.08 0.12 0.14 0.17 0.15 0.14 0.24 0.25 0.23 0.18 0.19 0.19 0.17 0.14 0.06 0.05 0.07 0.14 0.18 0.13 0.10 0.07 0.04 0.02 0.01
0.00 0.00 0.00 0.00 0.00 0.00 0.00 0.00 0.02 0.06 0.03 0.01 0.01 0.02 0.04 0.10 0.18 0.31 0.47 0.50 0.57 0.76 0.80 0.74 0.65 0.50 0.48 0.35 0.31 0.27 0.21 0.15 0.15 0.19 0.30 0.42 0.46 0.40 0.24 0.12 0.06 0.02 0.01
0.00 0.00 0.00 0.00 0.00 0.00 0.00 0.00 0.01 0.01 0.01 0.02 0.03 0.03 0.07 0.24 0.76 1.42 1.99 2.28 2.05 1.77 1.61 1.35 0.87 0.58 0.56 0.56 0.62 0.50 0.36 0.29 0.27 0.31 0.42 0.53 0.45 0.27 0.11 0.05 0.03 0.00 0.00
0.00 0.00 0.00 0.00 0.00 0.00 0.00 0.00 0.01 0.09 0.10 0.05 0.05 0.12 0.14 0.14 0.22 0.45 0.69 0.76 0.79 0.82 0.62 0.35 0.29 0.32 0.37 0.45 0.50 0.44 0.43 0.44 0.47 0.52 0.56 0.47 0.35 0.18 0.04 0.01 0.00 0.00 0.00
0.00 0.00 0.01 0.00 0.00 0.00 0.00 0.00 0.01 0.02 0.05 0.13 0.20 0.25 0.22 0.17 0.14 0.17 0.24 0.20 0.20 0.16 0.15 0.14 0.16 0.27 0.28 0.21 0.19 0.18 0.20 0.33 0.42 0.48 0.34 0.24 0.12 0.04 0.02 0.01 0.00 0.00 0.00
0.00 0.01 0.03 0.06 0.08 0.10 0.08 0.11 0.08 0.06 0.05 0.04 0.06 0.16 0.20 0.24 0.27 0.29 0.26 0.18 0.16 0.15 0.18 0.25 0.27 0.31 0.26 0.18 0.17 0.18 0.16 0.19 0.20 0.15 0.12 0.12 0.09 0.05 0.03 0.01 0.00 0.00 0.00
0.00 0.00 0.00 0.04 0.31 0.66 0.64 0.63 0.57 0.47 0.43 0.40 0.45 0.50 0.53 0.62 0.58 0.58 0.55 0.51 0.48 0.37 0.35 0.34 0.33 0.32 0.25 0.23 0.22 0.24 0.29 0.26 0.17 0.11 0.05 0.02 0.03 0.02 0.01 0.00 0.00 0.00 0.00
0.00 0.00 0.00 0.01 0.45 1.13 1.29 1.44 1.38 1.34 1.41 1.44 1.47 1.56 1.73 1.63 1.53 1.51 1.50 1.49 1.22 1.02 1.04 1.09 1.15 1.24 1.26 1.34 1.39 1.35 1.05 0.55 0.22 0.14 0.02 0.00 0.00 0.00 0.00 0.00 0.00 0.00 0.00
0.00 0.00 0.00 0.00 0.08 0.15 0.17 0.24 0.32 0.32 0.41 0.54 0.60 0.68 0.81 0.94 1.04 1.22 1.25 1.20 1.25 1.41 1.52 1.46 1.35 1.37 1.49 1.50 1.54 1.19 0.74 0.47 0.09 0.02 0.00 0.00 0.00 0.00 0.00 0.00 0.00 0.00 0.00
0.00 0.00 0.00 0.00 0.00 0.02 0.02 0.01 0.01 0.01 0.03 0.04 0.11 0.09 0.09 0.15 0.14 0.16 0.18 0.16 0.17 0.18 0.30 0.29 0.25 0.20 0.17 0.12 0.14 0.14 0.09 0.06 0.05 0.03 0.01 0.00 0.00 0.00 0.00 0.00 0.00 0.00 0.00
0.00 0.02 0.02 0.01 0.01 0.02 0.02 0.04 0.04 0.05 0.09 0.11 0.15 0.14 0.12 0.12 0.18 0.29 0.34 0.29 0.28 0.30 0.22 0.26 0.18 0.15 0.09 0.08 0.09 0.08 0.06 0.04 0.03 0.01 0.00 0.00 0.00 0.00 0.00 0.00 0.00 0.00 0.00
0.00 0.00 0.01 0.01 0.03 0.03 0.02 0.03 0.03 0.03 0.04 0.08 0.14 0.13 0.06 0.04 0.02 0.02 0.03 0.07 0.17 0.35 0.25 0.22 0.12 0.07 0.06 0.06 0.04 0.02 0.01 0.00 0.00 0.00 0.00 0.00 0.00 0.00 0.00 0.00 0.00 0.00 0.00
0.00 0.00 0.00 0.00 0.00 0.00 0.02 0.15 0.21 0.35 0.15 0.06 0.07 0.08 0.07 0.04 0.02 0.01 0.01 0.01 0.01 0.03 0.06 0.05 0.01 0.00 0.00 0.00 0.00 0.00 0.00 0.00 0.00 0.00 0.00 0.00 0.00 0.00 0.00 0.00 0.00 0.00 0.00

GFSGL_prec_precacc12_039.txt.gz
Total_Precipitation_Accumulation
0.00 0.00 0.00 0.00 0.00 0.00 0.00 0.00 0.00 0.00 0.00 0.00 0.00 0.00 0.00 0.00 0.00 0.00 0.00 0.00 0.00 0.00 0.00 0.00 0.00 0.00 0.00 0.00 0.00 0.00 0.00 0.00 0.00 0.00 0.00 0.00 0.00 0.00 0.00 0.00 0.00 0.00 0.00
0.00 0.00 0.00 0.00 0.00 0.00 0.00 0.00 0.00 0.00 0.00 0.00 0.00 0.00 0.00 0.00 0.00 0.00 0.00 0.00 0.00 0.00 0.00 0.00 0.00 0.00 0.00 0.00 0.00 0.00 0.00 0.00 0.00 0.00 0.00 0.00 0.00 0.00 0.00 0.00 0.00 0.00 0.00
0.00 0.00 0.00 0.00 0.00 0.00 0.00 0.00 0.00 0.00 0.00 0.00 0.00 0.00 0.00 0.00 0.00 0.00 0.00 0.00 0.00 0.00 0.00 0.00 0.00 0.00 0.00 0.00 0.00 0.00 0.00 0.00 0.00 0.00 0.00 0.00 0.00 0.00 0.00 0.00 0.00 0.00 0.00
0.00 0.00 0.00 0.00 0.00 0.00 0.00 0.00 0.00 0.00 0.00 0.00 0.00 0.00 0.00 0.00 0.00 0.00 0.00 0.00 0.00 0.00 0.00 0.00 0.00 0.00 0.00 0.00 0.00 0.00 0.00 0.00 0.00 0.00 0.00 0.00 0.00 0.00 0.00 0.00 0.00 0.00 0.00
0.00 0.00 0.00 0.00 0.00 0.00 0.00 0.00 0.00 0.00 0.00 0.00 0.00 0.00 0.00 0.00 0.00 0.00 0.00 0.00 0.00 0.00 0.00 0.00 0.00 0.00 0.00 0.00 0.00 0.00 0.00 0.00 0.00 0.00 0.00 0.00 0.00 0.00 0.00 0.00 0.00 0.00 0.00
0.00 0.00 0.00 0.00 0.00 0.00 0.00 0.00 0.00 0.00 0.00 0.00 0.00 0.00 0.00 0.00 0.00 0.00 0.00 0.00 0.00 0.00 0.00 0.00 0.00 0.00 0.00 0.00 0.01 0.01 0.02 0.01 0.00 0.00 0.00 0.00 0.00 0.00 0.00 0.00 0.00 0.01 0.00
0.00 0.00 0.00 0.00 0.00 0.00 0.00 0.00 0.00 0.00 0.00 0.00 0.00 0.00 0.00 0.00 0.00 0.00 0.00 0.00 0.00 0.00 0.00 0.00 0.00 0.00 0.00 0.00 0.02 0.00 0.01 0.03 0.01 0.01 0.00 0.00 0.01 0.04 0.04 0.04 0.03 0.04 0.02
0.00 0.00 0.00 0.00 0.00 0.00 0.00 0.00 0.00 0.00 0.00 0.00 0.00 0.00 0.00 0.00 0.00 0.00 0.00 0.00 0.00 0.00 0.00 0.00 0.00 0.00 0.00 0.00 0.00 0.00 0.00 0.00 0.05 0.04 0.00 0.01 0.04 0.04 0.02 0.03 0.08 0.04 0.03
0.00 0.00 0.00 0.00 0.00 0.00 0.00 0.00 0.00 0.00 0.00 0.00 0.00 0.00 0.00 0.00 0.00 0.00 0.00 0.00 0.00 0.00 0.00 0.00 0.00 0.00 0.00 0.00 0.00 0.00 0.00 0.00 0.04 0.09 0.03 0.01 0.03 0.05 0.03 0.02 0.06 0.11 0.07
0.00 0.00 0.00 0.00 0.00 0.00 0.00 0.00 0.00 0.00 0.00 0.00 0.00 0.00 0.00 0.00 0.00 0.00 0.00 0.00 0.00 0.00 0.00 0.00 0.00 0.00 0.00 0.01 0.00 0.00 0.00 0.02 0.04 0.07 0.04 0.02 0.05 0.07 0.09 0.05 0.07 0.08 0.05
0.00 0.00 0.00 0.00 0.00 0.00 0.00 0.00 0.00 0.00 0.00 0.00 0.00 0.00 0.00 0.00 0.00 0.00 0.00 0.00 0.00 0.00 0.00 0.00 0.00 0.00 0.00 0.04 0.05 0.08 0.09 0.08 0.11 0.06 0.08 0.09 0.09 0.07 0.08 0.09 0.07 0.06 0.03
0.00 0.00 0.00 0.00 0.00 0.00 0.00 0.00 0.00 0.00 0.00 0.00 0.00 0.00 0.00 0.00 0.00 0.00 0.00 0.00 0.00 0.00 0.00 0.00 0.00 0.00 0.01 0.03 0.06 0.13 0.14 0.13 0.07 0.07 0.06 0.06 0.06 0.05 0.09 0.13 0.12 0.06 0.06
0.00 0.00 0.00 0.00 0.00 0.00 0.00 0.00 0.00 0.01 0.00 0.00 0.00 0.00 0.00 0.00 0.00 0.00 0.00 0.00 0.00 0.00 0.00 0.00 0.02 0.05 0.05 0.08 0.10 0.12 0.15 0.12 0.03 0.03 0.03 0.04 0.05 0.13 0.15 0.12 0.09 0.08 0.08
0.00 0.00 0.00 0.00 0.00 0.00 0.00 0.00 0.00 0.00 0.00 0.01 0.01 0.00 0.00 0.00 0.00 0.00 0.00 0.00 0.02 0.07 0.04 0.05 0.14 0.18 0.22 0.18 0.19 0.20 0.17 0.15 0.07 0.06 0.08 0.14 0.28 0.39 0.31 0.18 0.15 0.16 0.12
0.00 0.00 0.00 0.00 0.00 0.00 0.00 0.00 0.00 0.00 0.00 0.00 0.00 0.00 0.00 0.00 0.00 0.01 0.03 0.02 0.05 0.32 0.59 0.62 0.60 0.49 0.48 0.35 0.31 0.27 0.23 0.19 0.18 0.36 0.53 0.59 0.63 0.69 0.56 0.48 0.44 0.25 0.18
0.00 0.00 0.00 0.00 0.00 0.00 0.00 0.00 0.00 0.00 0.00 0.00 0.01 0.01 0.01 0.01 0.01 0.01 0.03 0.09 0.18 0.47 1.06 1.17 0.83 0.57 0.56 0.56 0.62 0.50 0.37 0.32 0.36 0.66 0.79 0.75 0.78 0.68 0.57 0.51 0.41 0.21 0.11
0.00 0.00 0.00 0.00 0.00 0.00 0.00 0.00 0.00 0.00 0.00 0.00 0.00 0.00 0.00 0.01 0.01 0.03 0.06 0.10 0.12 0.13 0.20 0.20 0.26 0.32 0.38 0.45 0.51 0.45 0.45 0.47 0.58 0.80 0.90 0.78 0.67 0.57 0.55 0.49 0.38 0.22 0.07
0.00 0.00 0.00 0.00 0.00 0.00 0.01 0.01 0.02 0.01 0.01 0.01 0.01 0.01 0.01 0.02 0.02 0.07 0.13 0.10 0.13 0.11 0.11 0.11 0.15 0.28 0.29 0.23 0.21 0.21 0.24 0.38 0.52 0.61 0.55 0.52 0.52 0.46 0.32 0.20 0.20 0.14 0.03
0.00 0.00 0.01 0.01 0.01 0.01 0.03 0.05 0.04 0.04 0.03 0.02 0.02 0.08 0.11 0.14 0.16 0.17 0.16 0.10 0.11 0.12 0.18 0.24 0.28 0.33 0.30 0.23 0.22 0.24 0.22 0.28 0.34 0.35 0.41 0.46 0.42 0.41 0.33 0.26 0.25 0.13 0.04
0.00 0.00 0.00 0.00 0.00 0.00 0.00 0.01 0.01 0.06 0.20 0.32 0.38 0.37 0.41 0.49 0.40 0.37 0.35 0.35 0.36 0.28 0.29 0.32 0.33 0.32 0.25 0.25 0.26 0.31 0.38 0.55 0.61 0.77 0.92 1.07 1.31 1.26 0.82 0.37 0.13 0.05 0.02
0.00 0.00 0.00 0.00 0.00 0.00 0.00 0.00 0.00 0.03 0.19 0.55 1.14 1.33 1.50 1.44 1.35 1.36 1.38 1.40 1.16 0.98 1.03 1.09 1.15 1.25 1.27 1.35 1.40 1.46 1.53 1.50 1.61 1.78 2.23 2.06 1.68 1.19 0.55 0.22 0.09 0.01 0.00
0.00 0.00 0.00 0.00 0.00 0.00 0.00 0.00 0.00 0.02 0.10 0.35 0.54 0.61 0.75 0.89 1.01 1.20 1.23 1.20 1.24 1.41 1.52 1.46 1.35 1.37 1.49 1.51 1.57 1.44 1.09 1.14 1.07 1.13 1.14 0.80 0.49 0.36 0.27 0.11 0.03 0.00 0.00
0.00 0.00 0.00 0.00 0.00 0.00 0.00 0.00 0.00 0.00 0.01 0.00 0.01 0.02 0.06 0.12 0.12 0.15 0.17 0.16 0.17 0.18 0.30 0.29 0.26 0.20 0.17 0.12 0.14 0.14 0.09 0.07 0.10 0.13 0.15 0.20 0.25 0.15 0.07 0.01 0.00 0.00 0.00
0.00 0.01 0.01 0.00 0.00 0.00 0.00 0.01 0.01 0.02 0.03 0.01 0.04 0.06 0.09 0.11 0.18 0.29 0.34 0.29 0.28 0.30 0.22 0.26 0.18 0.15 0.09 0.09 0.10 0.08 0.06 0.05 0.06 0.03 0.01 0.00 0.00 0.00 0.00 0.00 0.00 0.00 0.00
0.00 0.00 0.00 0.00 0.02 0.01 0.00 0.00 0.00 0.01 0.02 0.04 0.06 0.07 0.02 0.01 0.01 0.02 0.03 0.07 0.17 0.35 0.25 0.22 0.12 0.07 0.06 0.07 0.05 0.02 0.01 0.01 0.00 0.00 0.00 0.00 0.00 0.00 0.00 0.00 0.00 0.00 0.00
0.00 0.00 0.00 0.00 0.00 0.00 0.00 0.00 0.01 0.01 0.02 0.01 0.02 0.03 0.01 0.00 0.00 0.00 0.00 0.01 0.01 0.03 0.07 0.06 0.02 0.01 0.00 0.00 0.00 0.00 0.00 0.00 0.00 0.00 0.00 0.00 0.00 0.00 0.00 0.00 0.00 0.00 0.00

GFSGL_prec_precacc12_042.txt.gz
Total_Precipitation_Accumulation
0.00 0.00 0.00 0.00 0.00 0.00 0.00 0.00 0.00 0.00 0.00 0.00 0.00 0.00 0.00 0.00 0.00 0.00 0.00 0.00 0.00 0.00 0.00 0.00 0.00 0.00 0.00 0.00 0.00 0.00 0.00 0.00 0.00 0.00 0.00 0.00 0.00 0.00 0.00 0.00 0.00 0.00 0.00
0.00 0.00 0.00 0.00 0.00 0.00 0.00 0.00 0.00 0.00 0.00 0.00 0.00 0.00 0.00 0.00 0.00 0.00 0.00 0.00 0.00 0.00 0.00 0.00 0.00 0.00 0.00 0.00 0.00 0.00 0.00 0.00 0.00 0.00 0.00 0.00 0.00 0.00 0.00 0.00 0.00 0.00 0.00
0.00 0.00 0.00 0.00 0.00 0.00 0.00 0.00 0.00 0.00 0.00 0.00 0.00 0.00 0.00 0.00 0.00 0.00 0.00 0.00 0.00 0.00 0.00 0.00 0.00 0.00 0.00 0.00 0.00 0.00 0.00 0.00 0.00 0.00 0.00 0.00 0.00 0.00 0.00 0.00 0.00 0.00 0.00
0.00 0.00 0.00 0.00 0.00 0.00 0.00 0.00 0.00 0.00 0.00 0.00 0.00 0.00 0.00 0.00 0.00 0.00 0.00 0.00 0.00 0.00 0.00 0.00 0.00 0.00 0.00 0.00 0.00 0.00 0.00 0.00 0.00 0.00 0.00 0.00 0.00 0.00 0.00 0.00 0.00 0.00 0.00
0.00 0.00 0.00 0.00 0.00 0.00 0.00 0.00 0.00 0.00 0.00 0.00 0.00 0.00 0.00 0.00 0.00 0.00 0.00 0.00 0.00 0.00 0.00 0.00 0.00 0.00 0.00 0.00 0.00 0.00 0.00 0.00 0.00 0.00 0.00 0.00 0.00 0.00 0.00 0.00 0.00 0.00 0.00
0.00 0.00 0.00 0.00 0.00 0.00 0.00 0.00 0.00 0.00 0.00 0.00 0.00 0.00 0.00 0.00 0.00 0.00 0.00 0.00 0.00 0.00 0.00 0.00 0.00 0.00 0.00 0.00 0.00 0.00 0.00 0.00 0.00 0.00 0.00 0.00 0.00 0.00 0.00 0.00 0.00 0.01 0.00
0.00 0.00 0.00 0.00 0.00 0.00 0.00 0.00 0.00 0.00 0.00 0.00 0.00 0.00 0.00 0.00 0.00 0.00 0.00 0.00 0.00 0.00 0.00 0.00 0.00 0.00 0.00 0.00 0.00 0.00 0.00 0.01 0.01 0.01 0.00 0.00 0.01 0.01 0.03 0.03 0.02 0.03 0.02
0.00 0.00 0.00 0.00 0.00 0.00 0.00 0.00 0.00 0.00 0.00 0.00 0.00 0.00 0.00 0.00 0.00 0.00 0.00 0.00 0.00 0.00 0.00 0.00 0.00 0.00 0.00 0.00 0.00 0.00 0.00 0.00 0.05 0.04 0.00 0.00 0.01 0.02 0.02 0.03 0.04 0.03 0.03
0.00 0.00 0.00 0.00 0.00 0.00 0.00 0.00 0.00 0.00 0.00 0.00 0.00 0.00 0.00 0.00 0.00 0.00 0.00 0.00 0.00 0.00 0.00 0.00 0.00 0.00 0.00 0.00 0.00 0.00 0.00 0.00 0.04 0.09 0.03 0.00 0.03 0.05 0.03 0.01 0.04 0.08 0.06
0.00 0.00 0.00 0.00 0.00 0.00 0.00 0.00 0.00 0.00 0.00 0.00 0.00 0.00 0.00 0.00 0.00 0.00 0.00 0.00 0.00 0.00 0.00 0.00 0.00 0.00 0.00 0.00 0.00 0.00 0.00 0.00 0.01 0.06 0.04 0.02 0.05 0.07 0.09 0.03 0.06 0.08 0.06
0.00 0.00 0.00 0.00 0.00 0.00 0.00 0.00 0.00 0.00 0.00 0.00 0.00 0.00 0.00 0.00 0.00 0.00 0.00 0.00 0.00 0.00 0.00 0.00 0.00 0.00 0.00 0.00 0.00 0.00 0.01 0.02 0.08 0.04 0.07 0.09 0.09 0.07 0.08 0.09 0.08 0.07 0.04
0.00 0.00 0.00 0.00 0.00 0.00 0.00 0.00 0.00 0.00 0.00 0.00 0.00 0.00 0.00 0.00 0.00 0.00 0.00 0.00 0.00 0.01 0.00 0.00 0.00 0.00 0.00 0.00 0.00 0.00 0.02 0.08 0.04 0.06 0.06 0.07 0.07 0.06 0.11 0.18 0.27 0.17 0.10
0.00 0.00 0.00 0.00 0.00 0.00 0.00 0.00 0.00 0.00 0.00 0.00 0.00 0.00 0.00 0.00 0.00 0.00 0.00 0.00 0.00 0.01 0.00 0.00 0.00 0.00 0.00 0.00 0.00 0.01 0.09 0.13 0.05 0.04 0.03 0.05 0.07 0.16 0.20 0.35 0.37 0.28 0.26
0.00 0.00 0.00 0.00 0.00 0.00 0.00 0.00 0.00 0.00 0.00 0.01 0.01 0.01 0.00 0.00 0.00 0.00 0.00 0.00 0.00 0.00 0.00 0.00 0.03 0.04 0.05 0.03 0.04 0.09 0.15 0.16 0.08 0.07 0.09 0.16 0.29 0.44 0.45 0.41 0.43 0.52 0.51
0.00 0.00 0.00 0.00 0.00 0.00 0.00 0.00 0.00 0.00 0.00 0.00 0.01 0.01 0.01 0.01 0.00 0.00 0.00 0.00 0.00 0.00 0.01 0.02 0.06 0.15 0.27 0.20 0.21 0.22 0.22 0.20 0.21 0.41 0.62 0.73 0.73 0.78 0.67 0.71 0.80 0.91 0.93
0.00 0.00 0.00 0.00 0.00 0.00 0.00 0.00 0.00 0.00 0.00 0.00 0.00 0.01 0.01 0.00 0.00 0.01 0.01 0.01 0.01 0.02 0.04 0.09 0.10 0.20 0.31 0.34 0.45 0.42 0.36 0.33 0.38 0.74 0.91 0.86 0.88 0.79 0.73 0.77 0.74 0.61 0.61
0.00 0.00 0.00 0.00 0.00 0.00 0.00 0.00 0.00 0.00 0.00 0.00 0.00 0.00 0.00 0.00 0.01 0.01 0.02 0.03 0.04 0.01 0.01 0.03 0.06 0.09 0.14 0.23 0.33 0.38 0.45 0.49 0.60 0.83 0.95 0.83 0.76 0.69 0.75 0.69 0.68 0.67 0.66
0.00 0.00 0.00 0.00 0.00 0.00 0.01 0.01 0.01 0.00 0.00 0.00 0.00 0.00 0.00 0.00 0.00 0.01 0.01 0.01 0.02 0.02 0.02 0.03 0.07 0.19 0.23 0.18 0.18 0.20 0.25 0.41 0.55 0.64 0.59 0.58 0.63 0.59 0.51 0.42 0.49 0.52 0.48
0.00 0.01 0.01 0.02 0.01 0.00 0.03 0.03 0.01 0.00 0.01 0.01 0.00 0.01 0.04 0.05 0.07 0.08 0.09 0.07 0.06 0.05 0.09 0.14 0.19 0.25 0.26 0.23 0.22 0.24 0.22 0.30 0.36 0.39 0.48 0.59 0.65 0.82 1.03 1.35 1.85 2.08 1.62
0.00 0.00 0.00 0.00 0.01 0.00 0.02 0.04 0.02 0.01 0.04 0.03 0.01 0.02 0.02 0.03 0.07 0.18 0.23 0.27 0.29 0.19 0.20 0.23 0.24 0.25 0.23 0.25 0.26 0.31 0.38 0.55 0.62 0.79 1.02 1.35 1.85 2.34 2.77 3.00 2.50 1.81 1.17
0.00 0.00 0.00 0.00 0.00 0.00 0.00 0.01 0.02 0.03 0.02 0.02 0.01 0.01 0.01 0.01 0.05 0.30 0.88 1.28 1.11 0.96 1.00 1.07 1.14 1.23 1.26 1.35 1.40 1.46 1.53 1.50 1.62 1.80 2.29 2.27 2.19 2.31 2.11 1.54 1.08 0.78 0.57
0.00 0.00 0.00 0.00 0.00 0.00 0.00 0.00 0.00 0.01 0.00 0.00 0.00 0.00 0.01 0.01 0.08 0.33 0.82 1.09 1.21 1.39 1.51 1.44 1.33 1.37 1.49 1.51 1.57 1.45 1.09 1.14 1.07 1.14 1.18 1.06 0.87 0.71 0.55 0.41 0.28 0.23 0.16
0.00 0.00 0.00 0.00 0.00 0.00 0.00 0.00 0.00 0.00 0.00 0.00 0.00 0.01 0.01 0.01 0.01 0.03 0.08 0.11 0.13 0.14 0.25 0.26 0.24 0.20 0.17 0.13 0.14 0.14 0.09 0.07 0.10 0.13 0.15 0.20 0.25 0.17 0.12 0.05 0.01 0.02 0.01
0.01 0.01 0.01 0.00 0.00 0.00 0.00 0.00 0.00 0.01 0.01 0.00 0.00 0.01 0.02 0.01 0.01 0.08 0.17 0.18 0.21 0.28 0.22 0.26 0.18 0.15 0.09 0.09 0.10 0.08 0.06 0.05 0.06 0.03 0.01 0.00 0.00 0.00 0.00 0.00 0.00 0.00 0.00
0.03 0.02 0.01 0.01 0.02 0.00 0.00 0.00 0.00 0.01 0.01 0.00 0.00 0.00 0.00 0.01 0.01 0.01 0.03 0.07 0.17 0.35 0.25 0.22 0.12 0.07 0.06 0.07 0.05 0.02 0.01 0.01 0.00 0.00 0.00 0.00 0.00 0.00 0.00 0.00 0.00 0.00 0.00
0.05 0.02 0.01 0.01 0.00 0.00 0.00 0.00 0.00 0.00 0.00 0.00 0.00 0.00 0.00 0.00 0.00 0.00 0.00 0.01 0.01 0.03 0.07 0.06 0.02 0.01 0.00 0.00 0.00 0.00 0.00 0.00 0.00 0.00 0.00 0.00 0.00 0.00 0.00 0.00 0.00 0.00 0.00

GFSGL_prec_precacc12_045.txt.gz
Total_Precipitation_Accumulation
0.00 0.00 0.00 0.00 0.00 0.00 0.00 0.00 0.00 0.00 0.00 0.00 0.00 0.00 0.00 0.00 0.00 0.00 0.00 0.00 0.00 0.00 0.00 0.00 0.00 0.00 0.00 0.00 0.00 0.00 0.00 0.00 0.00 0.00 0.00 0.00 0.00 0.00 0.00 0.00 0.00 0.00 0.00
0.00 0.00 0.00 0.00 0.00 0.00 0.00 0.00 0.00 0.00 0.00 0.00 0.00 0.00 0.00 0.00 0.00 0.00 0.00 0.00 0.00 0.00 0.00 0.00 0.00 0.00 0.00 0.00 0.00 0.00 0.00 0.00 0.00 0.00 0.00 0.00 0.00 0.00 0.00 0.00 0.00 0.00 0.00
0.00 0.00 0.00 0.00 0.00 0.00 0.00 0.00 0.00 0.00 0.00 0.00 0.00 0.00 0.00 0.00 0.00 0.00 0.00 0.00 0.00 0.00 0.00 0.00 0.00 0.00 0.00 0.00 0.00 0.00 0.00 0.00 0.00 0.00 0.00 0.00 0.00 0.00 0.00 0.00 0.00 0.00 0.00
0.00 0.00 0.00 0.00 0.00 0.00 0.00 0.00 0.00 0.00 0.00 0.00 0.00 0.00 0.00 0.00 0.00 0.00 0.00 0.00 0.00 0.00 0.00 0.00 0.00 0.00 0.00 0.00 0.00 0.00 0.00 0.00 0.00 0.00 0.00 0.00 0.00 0.00 0.00 0.00 0.00 0.00 0.00
0.00 0.00 0.00 0.00 0.00 0.00 0.00 0.00 0.00 0.00 0.00 0.00 0.00 0.00 0.00 0.00 0.00 0.00 0.00 0.00 0.00 0.00 0.00 0.00 0.00 0.00 0.00 0.00 0.00 0.00 0.00 0.00 0.00 0.00 0.00 0.00 0.00 0.00 0.00 0.00 0.00 0.00 0.00
0.00 0.00 0.00 0.00 0.00 0.00 0.00 0.00 0.00 0.00 0.00 0.00 0.00 0.00 0.00 0.00 0.00 0.00 0.00 0.00 0.00 0.00 0.00 0.00 0.00 0.00 0.00 0.00 0.00 0.00 0.00 0.00 0.00 0.00 0.00 0.00 0.00 0.00 0.00 0.00 0.00 0.00 0.00
0.00 0.00 0.00 0.00 0.00 0.00 0.00 0.00 0.00 0.00 0.00 0.00 0.00 0.00 0.00 0.00 0.00 0.00 0.00 0.00 0.00 0.00 0.00 0.00 0.00 0.00 0.00 0.00 0.00 0.00 0.00 0.00 0.00 0.00 0.00 0.00 0.01 0.00 0.00 0.00 0.01 0.00 0.00
0.00 0.00 0.00 0.00 0.00 0.00 0.00 0.00 0.00 0.00 0.00 0.00 0.00 0.00 0.00 0.00 0.00 0.00 0.00 0.00 0.00 0.00 0.00 0.00 0.00 0.00 0.00 0.00 0.00 0.00 0.00 0.00 0.00 0.00 0.00 0.00 0.00 0.01 0.00 0.01 0.02 0.01 0.01
0.00 0.00 0.00 0.00 0.00 0.00 0.00 0.00 0.00 0.00 0.00 0.00 0.00 0.00 0.00 0.00 0.00 0.00 0.00 0.00 0.00 0.00 0.00 0.00 0.00 0.00 0.00 0.00 0.00 0.00 0.00 0.00 0.00 0.00 0.00 0.00 0.02 0.05 0.02 0.01 0.02 0.04 0.04
0.00 0.00 0.00 0.00 0.00 0.00 0.00 0.00 0.00 0.00 0.00 0.00 0.00 0.00 0.00 0.00 0.00 0.00 0.00 0.00 0.00 0.00 0.00 0.00 0.00 0.00 0.00 0.00 0.00 0.00 0.00 0.00 0.00 0.00 0.00 0.01 0.03 0.06 0.09 0.03 0.05 0.07 0.06
0.00 0.00 0.00 0.00 0.00 0.00 0.00 0.00 0.00 0.00 0.00 0.00 0.00 0.00 0.00 0.00 0.00 0.00 0.00 0.00 0.00 0.00 0.00 0.00 0.00 0.00 0.00 0.00 0.00 0.00 0.00 0.00 0.01 0.00 0.00 0.03 0.07 0.06 0.11 0.12 0.12 0.16 0.12
0.00 0.00 0.00 0.00 0.00 0.00 0.00 0.00 0.00 0.00 0.00 0.00 0.00 0.00 0.00 0.00 0.00 0.00 0.00 0.00 0.00 0.01 0.00 0.00 0.00 0.00 0.00 0.00 0.00 0.00 0.00 0.01 0.02 0.02 0.02 0.04 0.06 0.06 0.14 0.22 0.39 0.35 0.32
0.00 0.00 0.00 0.00 0.00 0.00 0.00 0.00 0.00 0.00 0.00 0.00 0.00 0.00 0.00 0.00 0.00 0.00 0.00 0.00 0.00 0.01 0.00 0.00 0.00 0.00 0.00 0.00 0.03 0.02 0.03 0.05 0.07 0.06 0.04 0.05 0.07 0.16 0.21 0.36 0.38 0.32 0.37
0.00 0.00 0.00 0.00 0.00 0.00 0.00 0.00 0.00 0.00 0.00 0.01 0.01 0.01 0.00 0.00 0.00 0.01 0.01 0.01 0.01 0.02 0.02 0.01 0.00 0.01 0.04 0.03 0.02 0.01 0.03 0.04 0.06 0.06 0.07 0.13 0.29 0.46 0.48 0.46 0.45 0.55 0.61
0.00 0.00 0.00 0.00 0.00 0.00 0.00 0.00 0.00 0.00 0.00 0.00 0.01 0.01 0.01 0.01 0.00 0.01 0.01 0.01 0.01 0.02 0.02 0.02 0.03 0.04 0.11 0.03 0.05 0.05 0.03 0.05 0.10 0.29 0.44 0.51 0.70 0.84 0.73 0.76 0.87 1.01 1.08
0.00 0.00 0.00 0.00 0.00 0.00 0.00 0.00 0.00 0.00 0.00 0.01 0.00 0.01 0.01 0.01 0.01 0.01 0.01 0.01 0.01 0.02 0.02 0.01 0.00 0.00 0.00 0.06 0.18 0.18 0.15 0.13 0.22 0.60 0.75 0.65 0.85 0.80 0.77 0.84 0.86 0.77 0.75
0.00 0.00 0.00 0.00 0.00 0.00 0.00 0.00 0.00 0.00 0.00 0.00 0.00 0.00 0.00 0.00 0.00 0.01 0.02 0.03 0.04 0.02 0.00 0.00 0.00 0.00 0.01 0.03 0.14 0.21 0.25 0.31 0.52 0.77 0.92 0.82 0.78 0.73 0.83 0.78 0.78 0.76 0.74
0.00 0.00 0.00 0.00 0.00 0.00 0.01 0.01 0.01 0.00 0.00 0.00 0.00 0.00 0.00 0.00 0.00 0.01 0.01 0.01 0.01 0.01 0.01 0.01 0.01 0.01 0.02 0.03 0.06 0.13 0.21 0.38 0.53 0.61 0.56 0.56 0.63 0.61 0.54 0.51 0.70 0.80 0.76
0.00 0.01 0.01 0.02 0.01 0.00 0.03 0.03 0.01 0.01 0.02 0.01 0.01 0.01 0.02 0.01 0.01 0.01 0.01 0.00 0.01 0.01 0.02 0.04 0.06 0.09 0.11 0.13 0.15 0.17 0.19 0.28 0.36 0.38 0.47 0.58 0.65 0.83 1.06 1.42 2.00 2.62 2.83
0.00 0.00 0.00 0.00 0.01 0.00 0.02 0.04 0.02 0.02 0.05 0.04 0.02 0.04 0.03 0.01 0.00 0.00 0.00 0.00 0.01 0.03 0.06 0.10 0.13 0.14 0.16 0.20 0.25 0.29 0.37 0.55 0.62 0.79 1.02 1.35 1.86 2.35 2.78 3.01 2.56 1.95 1.51
0.00 0.00 0.00 0.00 0.00 0.00 0.00 0.02 0.03 0.05 0.05 0.03 0.02 0.04 0.04 0.02 0.01 0.00 0.00 0.00 0.00 0.01 0.03 0.25 0.83 1.13 1.22 1.33 1.40 1.46 1.53 1.50 1.62 1.80 2.29 2.27 2.20 2.31 2.12 1.54 1.09 0.83 0.63
0.00 0.00 0.00 0.00 0.00 0.00 0.00 0.00 0.01 0.02 0.01 0.02 0.01 0.02 0.02 0.01 0.00 0.01 0.01 0.00 0.01 0.03 0.02 0.08 0.51 1.05 1.41 1.50 1.57 1.44 1.09 1.14 1.07 1.14 1.18 1.06 0.87 0.71 0.55 0.41 0.28 0.23 0.16
0.00 0.00 0.00 0.00 0.00 0.00 0.00 0.00 0.00 0.00 0.00 0.00 0.01 0.01 0.00 0.01 0.00 0.00 0.00 0.01 0.01 0.02 0.03 0.04 0.09 0.12 0.12 0.11 0.13 0.14 0.09 0.07 0.10 0.13 0.15 0.20 0.25 0.17 0.12 0.05 0.01 0.02 0.02
0.01 0.00 0.00 0.00 0.00 0.00 0.00 0.00 0.00 0.01 0.00 0.00 0.00 0.00 0.00 0.00 0.00 0.00 0.00 0.00 0.00 0.01 0.04 0.09 0.08 0.11 0.07 0.07 0.09 0.08 0.06 0.05 0.06 0.03 0.01 0.00 0.00 0.00 0.00 0.00 0.00 0.00 0.00
0.03 0.02 0.01 0.01 0.01 0.00 0.00 0.00 0.00 0.00 0.00 0.00 0.00 0.00 0.00 0.00 0.00 0.00 0.01 0.01 0.01 0.01 0.04 0.10 0.09 0.06 0.05 0.06 0.05 0.02 0.01 0.01 0.00 0.00 0.00 0.00 0.00 0.00 0.00 0.00 0.00 0.00 0.00
0.05 0.03 0.02 0.02 0.02 0.02 0.00 0.00 0.00 0.00 0.00 0.00 0.00 0.00 0.00 0.00 0.00 0.00 0.00 0.01 0.01 0.03 0.07 0.06 0.02 0.01 0.00 0.00 0.00 0.00 0.00 0.00 0.00 0.00 0.00 0.00 0.00 0.00 0.01 0.00 0.00 0.00 0.00

GFSGL_prec_precacc12_051.txt.gz
Total_Precipitation_Accumulation
0.00 0.00 0.00 0.00 0.00 0.00 0.00 0.00 0.00 0.00 0.00 0.00 0.00 0.00 0.00 0.00 0.00 0.00 0.00 0.00 0.00 0.00 0.00 0.00 0.00 0.00 0.00 0.00 0.00 0.00 0.00 0.00 0.00 0.00 0.00 0.00 0.00 0.00 0.00 0.00 0.00 0.00 0.00
0.00 0.00 0.00 0.00 0.00 0.00 0.00 0.00 0.00 0.00 0.00 0.00 0.00 0.00 0.00 0.00 0.00 0.00 0.00 0.00 0.00 0.00 0.00 0.00 0.00 0.00 0.00 0.00 0.00 0.00 0.00 0.00 0.00 0.00 0.00 0.00 0.00 0.00 0.00 0.00 0.00 0.00 0.00
0.00 0.00 0.00 0.00 0.00 0.00 0.00 0.00 0.00 0.00 0.00 0.00 0.00 0.00 0.00 0.00 0.00 0.00 0.00 0.00 0.00 0.00 0.00 0.00 0.00 0.00 0.00 0.00 0.00 0.00 0.00 0.00 0.00 0.00 0.00 0.00 0.00 0.00 0.00 0.00 0.00 0.00 0.00
0.00 0.00 0.00 0.00 0.00 0.00 0.00 0.00 0.00 0.00 0.00 0.00 0.00 0.00 0.00 0.00 0.00 0.00 0.00 0.00 0.00 0.00 0.00 0.00 0.00 0.00 0.00 0.00 0.00 0.00 0.00 0.00 0.00 0.00 0.00 0.00 0.00 0.00 0.00 0.00 0.00 0.00 0.00
0.00 0.00 0.00 0.00 0.00 0.00 0.00 0.00 0.00 0.00 0.00 0.00 0.00 0.00 0.00 0.00 0.00 0.00 0.00 0.00 0.00 0.00 0.00 0.00 0.00 0.00 0.00 0.00 0.00 0.00 0.00 0.00 0.00 0.00 0.00 0.00 0.00 0.00 0.00 0.00 0.00 0.00 0.00
0.00 0.00 0.00 0.00 0.00 0.00 0.00 0.00 0.00 0.00 0.00 0.00 0.00 0.00 0.00 0.00 0.00 0.00 0.00 0.00 0.00 0.00 0.00 0.00 0.00 0.00 0.00 0.00 0.00 0.00 0.00 0.00 0.00 0.00 0.00 0.00 0.00 0.00 0.00 0.00 0.00 0.00 0.00
0.00 0.00 0.00 0.00 0.00 0.00 0.00 0.00 0.00 0.00 0.00 0.00 0.00 0.00 0.00 0.00 0.00 0.00 0.00 0.00 0.00 0.00 0.00 0.00 0.00 0.00 0.00 0.00 0.00 0.00 0.00 0.00 0.00 0.00 0.00 0.00 0.00 0.00 0.00 0.00 0.00 0.00 0.00
0.00 0.00 0.00 0.00 0.00 0.00 0.00 0.00 0.00 0.00 0.00 0.00 0.00 0.00 0.00 0.00 0.00 0.00 0.00 0.00 0.00 0.00 0.00 0.00 0.00 0.00 0.00 0.00 0.00 0.00 0.00 0.00 0.00 0.00 0.00 0.00 0.00 0.00 0.00 0.00 0.00 0.00 0.00
0.00 0.00 0.00 0.00 0.00 0.00 0.00 0.00 0.00 0.00 0.00 0.00 0.00 0.00 0.00 0.00 0.00 0.00 0.00 0.00 0.00 0.00 0.00 0.00 0.00 0.00 0.00 0.00 0.00 0.00 0.00 0.00 0.00 0.00 0.00 0.00 0.00 0.00 0.00 0.01 0.01 0.02 0.01
0.00 0.00 0.00 0.00 0.00 0.00 0.00 0.00 0.00 0.00 0.00 0.00 0.00 0.00 0.00 0.00 0.00 0.00 0.00 0.00 0.00 0.00 0.00 0.00 0.00 0.00 0.00 0.00 0.00 0.00 0.00 0.00 0.00 0.00 0.00 0.00 0.00 0.00 0.02 0.01 0.05 0.08 0.04
0.00 0.00 0.00 0.00 0.00 0.00 0.00 0.00 0.00 0.00 0.00 0.00 0.00 0.00 0.00 0.00 0.00 0.00 0.00 0.00 0.00 0.00 0.00 0.00 0.00 0.00 0.00 0.00 0.00 0.00 0.00 0.01 0.02 0.01 0.00 0.00 0.00 0.01 0.04 0.05 0.07 0.17 0.14
0.00 0.00 0.00 0.00 0.00 0.00 0.00 0.00 0.00 0.00 0.00 0.00 0.00 0.00 0.00 0.00 0.00 0.00 0.00 0.00 0.00 0.00 0.00 0.00 0.00 0.00 0.00 0.00 0.00 0.00 0.01 0.02 0.03 0.04 0.03 0.03 0.04 0.03 0.06 0.10 0.28 0.31 0.28
0.00 0.00 0.00 0.00 0.00 0.00 0.00 0.00 0.00 0.00 0.00 0.00 0.00 0.00 0.00 0.00 0.00 0.00 0.00 0.00 0.00 0.01 0.00 0.00 0.00 0.00 0.00 0.01 0.04 0.04 0.04 0.08 0.13 0.16 0.12 0.07 0.05 0.04 0.08 0.26 0.31 0.27 0.32
0.00 0.00 0.00 0.00 0.00 0.00 0.00 0.00 0.00 0.00 0.00 0.00 0.00 0.00 0.00 0.00 0.00 0.01 0.01 0.01 0.01 0.02 0.02 0.02 0.01 0.02 0.03 0.04 0.04 0.04 0.02 0.06 0.13 0.10 0.07 0.04 0.03 0.07 0.18 0.31 0.35 0.43 0.52
0.00 0.00 0.00 0.00 0.00 0.00 0.00 0.00 0.00 0.00 0.00 0.00 0.00 0.00 0.01 0.00 0.00 0.01 0.01 0.02 0.02 0.02 0.04 0.03 0.06 0.08 0.07 0.05 0.02 0.02 0.02 0.04 0.04 0.07 0.10 0.16 0.13 0.16 0.18 0.29 0.47 0.81 0.96
0.00 0.00 0.00 0.00 0.00 0.01 0.00 0.00 0.00 0.00 0.01 0.01 0.01 0.01 0.00 0.01 0.01 0.01 0.02 0.02 0.02 0.03 0.01 0.02 0.03 0.03 0.02 0.01 0.01 0.00 0.01 0.02 0.03 0.09 0.13 0.13 0.13 0.13 0.20 0.33 0.45 0.58 0.67
0.01 0.00 0.00 0.03 0.04 0.02 0.01 0.00 0.00 0.00 0.01 0.00 0.01 0.01 0.01 0.01 0.01 0.01 0.01 0.02 0.02 0.03 0.01 0.02 0.02 0.01 0.00 0.01 0.01 0.02 0.02 0.03 0.03 0.04 0.06 0.06 0.12 0.16 0.29 0.29 0.41 0.56 0.69
0.00 0.00 0.00 0.00 0.01 0.00 0.00 0.00 0.00 0.00 0.00 0.00 0.00 0.00 0.00 0.01 0.01 0.01 0.01 0.01 0.01 0.01 0.00 0.00 0.00 0.00 0.00 0.00 0.01 0.01 0.02 0.02 0.03 0.03 0.04 0.07 0.12 0.15 0.23 0.31 0.50 0.66 0.73
0.00 0.00 0.00 0.01 0.00 0.00 0.01 0.01 0.00 0.01 0.02 0.01 0.01 0.01 0.03 0.03 0.03 0.02 0.01 0.00 0.00 0.01 0.00 0.00 0.00 0.00 0.00 0.00 0.00 0.00 0.01 0.02 0.03 0.04 0.07 0.13 0.24 0.43 0.73 1.16 1.75 2.48 2.79
0.00 0.00 0.00 0.00 0.00 0.00 0.01 0.03 0.02 0.02 0.05 0.04 0.02 0.04 0.03 0.01 0.01 0.01 0.00 0.00 0.00 0.00 0.00 0.00 0.00 0.00 0.00 0.00 0.00 0.00 0.00 0.01 0.01 0.03 0.10 0.28 0.56 1.09 1.97 2.64 2.44 1.90 1.50
0.00 0.00 0.00 0.00 0.00 0.00 0.01 0.02 0.03 0.05 0.05 0.04 0.03 0.04 0.05 0.03 0.02 0.01 0.00 0.00 0.00 0.00 0.00 0.00 0.00 0.00 0.01 0.00 0.00 0.01 0.00 0.00 0.00 0.02 0.06 0.22 0.53 1.12 1.57 1.32 1.00 0.82 0.64
0.00 0.00 0.00 0.00 0.00 0.00 0.00 0.01 0.01 0.02 0.01 0.02 0.02 0.03 0.03 0.01 0.01 0.00 0.00 0.00 0.01 0.01 0.01 0.01 0.00 0.00 0.00 0.00 0.00 0.00 0.00 0.00 0.00 0.01 0.04 0.26 0.39 0.35 0.28 0.30 0.26 0.23 0.16
0.00 0.00 0.00 0.00 0.00 0.00 0.00 0.00 0.00 0.00 0.00 0.00 0.00 0.00 0.00 0.00 0.00 0.00 0.00 0.00 0.00 0.00 0.00 0.00 0.00 0.00 0.00 0.00 0.00 0.00 0.00 0.00 0.00 0.00 0.00 0.00 0.01 0.02 0.05 0.04 0.01 0.03 0.02
0.00 0.00 0.00 0.00 0.00 0.00 0.00 0.00 0.00 0.00 0.00 0.00 0.00 0.00 0.00 0.00 0.00 0.00 0.00 0.00 0.00 0.00 0.00 0.00 0.00 0.00 0.00 0.00 0.00 0.00 0.00 0.00 0.00 0.00 0.00 0.00 0.00 0.01 0.00 0.00 0.00 0.00 0.00
0.02 0.02 0.01 0.01 0.00 0.00 0.00 0.00 0.00 0.00 0.00 0.00 0.00 0.00 0.00 0.00 0.00 0.00 0.00 0.00 0.00 0.00 0.00 0.00 0.00 0.00 0.00 0.00 0.00 0.00 0.00 0.00 0.00 0.00 0.00 0.00 0.00 0.00 0.00 0.00 0.00 0.00 0.00
0.05 0.03 0.02 0.02 0.02 0.02 0.01 0.00 0.00 0.00 0.00 0.00 0.00 0.00 0.00 0.00 0.00 0.00 0.00 0.00 0.00 0.00 0.00 0.00 0.00 0.00 0.00 0.00 0.00 0.00 0.00 0.00 0.00 0.00 0.00 0.00 0.00 0.00 0.01 0.01 0.02 0.01 0.00

GFSGL_prec_precacc12_054.txt.gz
Total_Precipitation_Accumulation
0.00 0.00 0.00 0.00 0.00 0.00 0.00 0.00 0.00 0.00 0.00 0.00 0.00 0.00 0.00 0.00 0.00 0.00 0.00 0.00 0.00 0.00 0.00 0.00 0.00 0.00 0.00 0.00 0.00 0.00 0.00 0.00 0.00 0.00 0.00 0.00 0.00 0.00 0.00 0.00 0.00 0.00 0.00
0.00 0.00 0.00 0.00 0.00 0.00 0.00 0.00 0.00 0.00 0.00 0.00 0.00 0.00 0.00 0.00 0.00 0.00 0.00 0.00 0.00 0.00 0.00 0.00 0.00 0.00 0.00 0.00 0.00 0.00 0.00 0.00 0.00 0.00 0.00 0.00 0.00 0.00 0.00 0.00 0.00 0.00 0.00
0.00 0.00 0.00 0.00 0.00 0.00 0.00 0.00 0.00 0.00 0.00 0.00 0.00 0.00 0.00 0.00 0.00 0.00 0.00 0.00 0.00 0.00 0.00 0.00 0.00 0.00 0.00 0.00 0.00 0.00 0.00 0.00 0.00 0.00 0.00 0.00 0.00 0.00 0.00 0.00 0.00 0.00 0.00
0.00 0.00 0.00 0.00 0.00 0.00 0.00 0.00 0.00 0.00 0.00 0.00 0.00 0.00 0.00 0.00 0.00 0.00 0.00 0.00 0.00 0.00 0.00 0.00 0.00 0.00 0.00 0.00 0.00 0.00 0.00 0.00 0.00 0.00 0.00 0.00 0.00 0.00 0.00 0.00 0.00 0.00 0.00
0.00 0.00 0.00 0.00 0.00 0.00 0.00 0.00 0.00 0.00 0.00 0.00 0.00 0.00 0.00 0.00 0.00 0.00 0.00 0.00 0.00 0.00 0.00 0.00 0.00 0.00 0.00 0.00 0.00 0.00 0.00 0.00 0.00 0.00 0.00 0.00 0.00 0.00 0.00 0.00 0.00 0.00 0.00
0.00 0.00 0.00 0.00 0.00 0.00 0.00 0.00 0.00 0.00 0.00 0.00 0.00 0.00 0.00 0.00 0.00 0.00 0.00 0.00 0.00 0.00 0.00 0.00 0.00 0.00 0.00 0.00 0.00 0.00 0.00 0.00 0.00 0.00 0.00 0.00 0.00 0.00 0.00 0.00 0.00 0.00 0.00
0.00 0.00 0.00 0.00 0.00 0.00 0.00 0.00 0.00 0.00 0.00 0.00 0.00 0.00 0.00 0.00 0.00 0.00 0.00 0.00 0.00 0.00 0.00 0.00 0.00 0.00 0.00 0.00 0.00 0.00 0.00 0.00 0.00 0.00 0.00 0.00 0.00 0.00 0.00 0.00 0.00 0.01 0.01
0.00 0.00 0.00 0.00 0.00 0.00 0.00 0.00 0.00 0.00 0.00 0.00 0.00 0.00 0.00 0.00 0.00 0.00 0.00 0.00 0.00 0.00 0.00 0.00 0.00 0.00 0.00 0.00 0.00 0.00 0.00 0.00 0.00 0.00 0.00 0.00 0.00 0.00 0.00 0.01 0.02 0.01 0.01
0.00 0.00 0.00 0.00 0.00 0.00 0.00 0.00 0.00 0.00 0.00 0.00 0.00 0.00 0.00 0.00 0.00 0.00 0.00 0.00 0.00 0.00 0.00 0.00 0.00 0.00 0.00 0.00 0.00 0.00 0.00 0.00 0.00 0.00 0.00 0.00 0.00 0.00 0.00 0.01 0.01 0.01 0.00
0.00 0.00 0.00 0.00 0.00 0.00 0.00 0.00 0.00 0.00 0.00 0.00 0.00 0.00 0.00 0.00 0.00 0.00 0.00 0.00 0.00 0.00 0.00 0.00 0.00 0.00 0.00 0.00 0.00 0.00 0.00 0.00 0.00 0.00 0.00 0.00 0.00 0.00 0.02 0.01 0.05 0.08 0.04
0.00 0.00 0.00 0.00 0.00 0.00 0.00 0.00 0.00 0.00 0.00 0.00 0.00 0.00 0.00 0.00 0.00 0.00 0.00 0.00 0.00 0.00 0.00 0.00 0.00 0.00 0.00 0.00 0.00 0.00 0.00 0.01 0.02 0.01 0.01 0.01 0.01 0.01 0.04 0.06 0.08 0.17 0.14
0.00 0.00 0.00 0.00 0.00 0.00 0.00 0.00 0.00 0.00 0.00 0.00 0.00 0.00 0.00 0.00 0.00 0.00 0.00 0.00 0.00 0.00 0.00 0.00 0.00 0.00 0.00 0.00 0.00 0.00 0.01 0.01 0.02 0.04 0.03 0.03 0.04 0.05 0.05 0.06 0.16 0.22 0.25
0.00 0.00 0.00 0.00 0.00 0.00 0.00 0.00 0.00 0.00 0.00 0.00 0.00 0.00 0.00 0.00 0.00 0.00 0.00 0.00 0.00 0.00 0.00 0.00 0.00 0.00 0.00 0.02 0.04 0.03 0.04 0.07 0.11 0.15 0.12 0.09 0.06 0.04 0.03 0.04 0.05 0.07 0.14
0.00 0.00 0.00 0.00 0.00 0.00 0.00 0.00 0.00 0.00 0.00 0.00 0.00 0.00 0.00 0.00 0.00 0.00 0.01 0.01 0.01 0.02 0.02 0.02 0.01 0.01 0.03 0.03 0.03 0.04 0.02 0.05 0.13 0.12 0.08 0.05 0.03 0.02 0.04 0.07 0.06 0.06 0.14
0.00 0.00 0.00 0.00 0.00 0.00 0.00 0.00 0.00 0.00 0.00 0.00 0.00 0.00 0.00 0.00 0.00 0.01 0.01 0.02 0.02 0.02 0.03 0.03 0.05 0.07 0.07 0.04 0.02 0.01 0.02 0.03 0.02 0.02 0.02 0.02 0.03 0.06 0.06 0.06 0.10 0.15 0.21
0.00 0.00 0.00 0.00 0.00 0.01 0.00 0.00 0.00 0.00 0.01 0.01 0.01 0.01 0.00 0.01 0.01 0.01 0.01 0.01 0.01 0.02 0.01 0.02 0.03 0.03 0.02 0.01 0.00 0.00 0.01 0.01 0.01 0.01 0.01 0.02 0.02 0.02 0.04 0.08 0.13 0.17 0.17
0.02 0.01 0.00 0.03 0.09 0.09 0.06 0.02 0.01 0.00 0.01 0.00 0.01 0.01 0.01 0.01 0.01 0.01 0.01 0.01 0.02 0.03 0.01 0.02 0.02 0.01 0.00 0.00 0.00 0.00 0.00 0.01 0.01 0.01 0.01 0.02 0.03 0.04 0.09 0.09 0.11 0.12 0.11
0.00 0.03 0.00 0.01 0.11 0.15 0.12 0.04 0.06 0.03 0.02 0.01 0.01 0.01 0.00 0.01 0.01 0.01 0.01 0.01 0.01 0.01 0.00 0.00 0.00 0.00 0.00 0.00 0.00 0.00 0.00 0.00 0.00 0.00 0.00 0.01 0.01 0.01 0.03 0.09 0.21 0.28 0.27
0.00 0.00 0.00 0.01 0.04 0.05 0.02 0.00 0.01 0.01 0.02 0.00 0.00 0.01 0.01 0.03 0.03 0.02 0.01 0.00 0.00 0.01 0.00 0.00 0.00 0.00 0.00 0.00 0.00 0.01 0.00 0.00 0.00 0.00 0.00 0.00 0.01 0.02 0.03 0.07 0.14 0.54 1.22
0.00 0.01 0.00 0.00 0.01 0.03 0.03 0.02 0.01 0.02 0.02 0.02 0.01 0.01 0.02 0.01 0.01 0.01 0.01 0.00 0.00 0.00 0.00 0.00 0.00 0.00 0.01 0.01 0.00 0.00 0.00 0.01 0.01 0.00 0.01 0.00 0.02 0.02 0.01 0.01 0.06 0.15 0.34
0.00 0.00 0.00 0.00 0.00 0.00 0.01 0.01 0.02 0.03 0.04 0.03 0.02 0.04 0.04 0.02 0.02 0.01 0.00 0.00 0.01 0.00 0.00 0.00 0.01 0.01 0.02 0.01 0.01 0.01 0.01 0.00 0.00 0.01 0.00 0.01 0.02 0.01 0.01 0.00 0.01 0.06 0.07
0.00 0.00 0.00 0.00 0.00 0.00 0.00 0.00 0.01 0.02 0.01 0.02 0.02 0.03 0.03 0.01 0.01 0.00 0.00 0.00 0.01 0.01 0.01 0.01 0.01 0.01 0.00 0.00 0.00 0.00 0.00 0.00 0.00 0.00 0.00 0.00 0.01 0.00 0.00 0.00 0.00 0.00 0.01
0.00 0.00 0.00 0.00 0.00 0.00 0.00 0.00 0.00 0.00 0.00 0.00 0.00 0.00 0.00 0.00 0.00 0.00 0.00 0.01 0.00 0.00 0.00 0.00 0.00 0.00 0.00 0.00 0.00 0.00 0.00 0.00 0.00 0.00 0.00 0.00 0.00 0.00 0.00 0.00 0.00 0.01 0.01
0.00 0.00 0.00 0.00 0.00 0.00 0.00 0.00 0.00 0.00 0.00 0.00 0.00 0.00 0.00 0.00 0.00 0.00 0.00 0.00 0.00 0.00 0.00 0.00 0.00 0.00 0.00 0.00 0.00 0.00 0.00 0.00 0.00 0.00 0.00 0.00 0.00 0.01 0.00 0.00 0.00 0.00 0.00
0.00 0.00 0.00 0.00 0.00 0.00 0.00 0.00 0.00 0.00 0.00 0.00 0.00 0.00 0.00 0.00 0.00 0.00 0.00 0.00 0.00 0.00 0.00 0.00 0.00 0.00 0.00 0.00 0.00 0.00 0.00 0.00 0.00 0.00 0.00 0.00 0.00 0.00 0.00 0.01 0.01 0.00 0.00
0.01 0.01 0.01 0.01 0.02 0.02 0.01 0.00 0.00 0.00 0.00 0.00 0.00 0.00 0.00 0.00 0.00 0.00 0.00 0.00 0.00 0.00 0.00 0.00 0.00 0.00 0.00 0.00 0.00 0.00 0.00 0.00 0.00 0.00 0.00 0.00 0.00 0.00 0.01 0.02 0.03 0.03 0.03

GFSGL_prec_precacc12_057.txt.gz
Total_Precipitation_Accumulation
0.00 0.00 0.00 0.00 0.00 0.00 0.00 0.00 0.00 0.00 0.00 0.00 0.00 0.00 0.00 0.00 0.00 0.00 0.00 0.00 0.00 0.00 0.00 0.00 0.00 0.00 0.00 0.00 0.00 0.00 0.00 0.00 0.00 0.00 0.00 0.00 0.00 0.00 0.00 0.00 0.00 0.00 0.00
0.00 0.00 0.00 0.00 0.00 0.00 0.00 0.00 0.00 0.00 0.00 0.00 0.00 0.00 0.00 0.00 0.00 0.00 0.00 0.00 0.00 0.00 0.00 0.00 0.00 0.00 0.00 0.00 0.00 0.00 0.00 0.00 0.00 0.00 0.00 0.00 0.00 0.00 0.00 0.00 0.00 0.00 0.00
0.00 0.00 0.00 0.00 0.00 0.00 0.00 0.00 0.00 0.00 0.00 0.00 0.00 0.00 0.00 0.00 0.00 0.00 0.00 0.00 0.00 0.00 0.00 0.00 0.00 0.00 0.00 0.00 0.00 0.00 0.00 0.00 0.00 0.00 0.00 0.00 0.00 0.00 0.00 0.00 0.00 0.00 0.00
0.00 0.00 0.00 0.00 0.00 0.00 0.00 0.00 0.00 0.00 0.00 0.00 0.00 0.00 0.00 0.00 0.00 0.00 0.00 0.00 0.00 0.00 0.00 0.00 0.00 0.00 0.00 0.00 0.00 0.00 0.00 0.00 0.00 0.00 0.00 0.00 0.00 0.00 0.00 0.00 0.00 0.00 0.00
0.00 0.00 0.00 0.00 0.00 0.00 0.00 0.00 0.00 0.00 0.00 0.00 0.00 0.00 0.00 0.00 0.00 0.00 0.00 0.00 0.00 0.00 0.00 0.00 0.00 0.00 0.00 0.00 0.00 0.00 0.00 0.00 0.00 0.00 0.00 0.00 0.00 0.00 0.00 0.00 0.00 0.00 0.00
0.00 0.00 0.00 0.00 0.00 0.00 0.00 0.00 0.00 0.00 0.00 0.00 0.00 0.00 0.00 0.00 0.00 0.00 0.00 0.00 0.00 0.00 0.00 0.00 0.00 0.00 0.00 0.00 0.00 0.00 0.00 0.00 0.00 0.00 0.00 0.00 0.00 0.00 0.00 0.00 0.00 0.00 0.00
0.00 0.00 0.00 0.00 0.00 0.00 0.00 0.00 0.00 0.00 0.00 0.00 0.00 0.00 0.00 0.00 0.00 0.00 0.00 0.00 0.00 0.00 0.00 0.00 0.00 0.00 0.00 0.00 0.00 0.00 0.00 0.00 0.00 0.00 0.00 0.00 0.00 0.00 0.00 0.00 0.00 0.01 0.01
0.00 0.00 0.00 0.00 0.00 0.00 0.00 0.00 0.00 0.00 0.00 0.00 0.00 0.00 0.00 0.00 0.00 0.00 0.00 0.00 0.00 0.00 0.00 0.00 0.00 0.00 0.00 0.00 0.00 0.00 0.00 0.00 0.00 0.00 0.00 0.00 0.00 0.00 0.00 0.02 0.03 0.02 0.01
0.00 0.00 0.00 0.00 0.00 0.00 0.00 0.00 0.00 0.00 0.00 0.00 0.00 0.00 0.00 0.00 0.00 0.00 0.00 0.00 0.00 0.00 0.00 0.00 0.00 0.00 0.00 0.00 0.00 0.00 0.00 0.00 0.00 0.00 0.00 0.00 0.00 0.00 0.00 0.00 0.00 0.01 0.01
0.00 0.00 0.00 0.00 0.00 0.00 0.00 0.00 0.00 0.00 0.00 0.00 0.00 0.00 0.00 0.00 0.00 0.00 0.00 0.00 0.00 0.00 0.00 0.00 0.00 0.00 0.00 0.00 0.00 0.00 0.00 0.00 0.00 0.00 0.00 0.00 0.01 0.01 0.02 0.02 0.03 0.08 0.05
0.00 0.00 0.00 0.00 0.00 0.00 0.00 0.00 0.00 0.00 0.00 0.00 0.00 0.00 0.00 0.00 0.00 0.00 0.00 0.00 0.00 0.00 0.00 0.00 0.00 0.00 0.00 0.00 0.00 0.00 0.00 0.01 0.01 0.00 0.01 0.01 0.01 0.01 0.05 0.09 0.07 0.11 0.07
0.00 0.00 0.00 0.00 0.00 0.00 0.00 0.00 0.00 0.00 0.00 0.00 0.00 0.00 0.00 0.00 0.00 0.00 0.00 0.00 0.00 0.00 0.00 0.00 0.00 0.00 0.00 0.00 0.00 0.00 0.01 0.01 0.01 0.03 0.02 0.03 0.03 0.05 0.02 0.03 0.05 0.05 0.06
0.00 0.00 0.00 0.00 0.00 0.00 0.00 0.00 0.00 0.00 0.00 0.00 0.00 0.00 0.00 0.00 0.00 0.00 0.00 0.00 0.00 0.00 0.00 0.00 0.00 0.00 0.00 0.01 0.02 0.02 0.02 0.04 0.08 0.13 0.11 0.08 0.06 0.04 0.03 0.03 0.03 0.03 0.02
0.00 0.00 0.00 0.00 0.00 0.00 0.00 0.00 0.00 0.00 0.00 0.00 0.00 0.00 0.00 0.00 0.00 0.00 0.00 0.00 0.00 0.00 0.01 0.01 0.00 0.01 0.01 0.02 0.02 0.03 0.01 0.04 0.11 0.10 0.07 0.04 0.02 0.01 0.01 0.03 0.04 0.03 0.04
0.00 0.00 0.00 0.00 0.00 0.00 0.00 0.00 0.00 0.00 0.01 0.00 0.00 0.00 0.00 0.00 0.00 0.00 0.00 0.00 0.01 0.01 0.01 0.02 0.03 0.05 0.05 0.04 0.02 0.02 0.02 0.03 0.02 0.01 0.01 0.01 0.00 0.01 0.01 0.01 0.03 0.04 0.06
0.01 0.00 0.00 0.00 0.00 0.01 0.00 0.00 0.01 0.02 0.02 0.01 0.04 0.06 0.05 0.01 0.04 0.03 0.01 0.01 0.01 0.01 0.01 0.01 0.03 0.03 0.02 0.01 0.01 0.01 0.01 0.01 0.01 0.00 0.00 0.01 0.00 0.00 0.00 0.00 0.01 0.02 0.03
0.03 0.01 0.00 0.03 0.09 0.09 0.06 0.02 0.01 0.05 0.05 0.01 0.05 0.12 0.19 0.22 0.12 0.12 0.14 0.04 0.01 0.01 0.01 0.02 0.02 0.02 0.01 0.01 0.00 0.00 0.00 0.00 0.00 0.00 0.00 0.00 0.00 0.00 0.00 0.00 0.01 0.02 0.03
0.01 0.04 0.01 0.02 0.12 0.17 0.15 0.05 0.08 0.09 0.04 0.01 0.01 0.01 0.04 0.12 0.20 0.18 0.16 0.06 0.01 0.01 0.00 0.01 0.01 0.00 0.00 0.00 0.00 0.00 0.00 0.00 0.00 0.00 0.00 0.00 0.00 0.00 0.00 0.00 0.00 0.00 0.00
0.05 0.03 0.03 0.05 0.07 0.09 0.07 0.04 0.03 0.04 0.09 0.05 0.02 0.01 0.02 0.05 0.08 0.05 0.06 0.01 0.01 0.02 0.04 0.02 0.00 0.01 0.01 0.00 0.00 0.01 0.01 0.01 0.00 0.00 0.00 0.00 0.00 0.00 0.00 0.00 0.00 0.00 0.00
0.07 0.08 0.02 0.02 0.04 0.04 0.04 0.02 0.01 0.02 0.02 0.04 0.02 0.00 0.01 0.00 0.04 0.01 0.02 0.01 0.03 0.15 0.11 0.08 0.02 0.02 0.01 0.01 0.00 0.00 0.00 0.01 0.00 0.00 0.01 0.00 0.01 0.01 0.00 0.00 0.00 0.00 0.00
0.04 0.03 0.01 0.03 0.04 0.01 0.01 0.02 0.02 0.02 0.03 0.02 0.01 0.01 0.01 0.01 0.00 0.00 0.00 0.01 0.02 0.06 0.07 0.03 0.03 0.03 0.02 0.01 0.02 0.02 0.01 0.00 0.00 0.01 0.00 0.01 0.01 0.01 0.01 0.00 0.00 0.00 0.01
0.00 0.00 0.00 0.00 0.00 0.01 0.00 0.02 0.07 0.06 0.01 0.01 0.01 0.02 0.02 0.01 0.01 0.00 0.00 0.00 0.02 0.02 0.01 0.01 0.01 0.01 0.00 0.00 0.00 0.00 0.00 0.00 0.00 0.00 0.00 0.00 0.01 0.00 0.00 0.00 0.00 0.00 0.00
0.00 0.00 0.00 0.00 0.00 0.00 0.00 0.00 0.02 0.02 0.00 0.00 0.00 0.00 0.00 0.00 0.00 0.00 0.00 0.01 0.02 0.01 0.01 0.00 0.00 0.00 0.00 0.00 0.00 0.00 0.00 0.00 0.00 0.00 0.00 0.00 0.00 0.00 0.00 0.00 0.00 0.00 0.00
0.01 0.02 0.00 0.00 0.00 0.00 0.00 0.00 0.01 0.01 0.01 0.01 0.01 0.00 0.01 0.02 0.00 0.00 0.00 0.00 0.00 0.01 0.01 0.00 0.00 0.00 0.00 0.00 0.00 0.00 0.00 0.00 0.00 0.00 0.00 0.00 0.00 0.01 0.00 0.00 0.00 0.00 0.00
0.00 0.01 0.01 0.00 0.00 0.00 0.00 0.00 0.00 0.00 0.01 0.00 0.01 0.01 0.01 0.00 0.00 0.00 0.00 0.00 0.00 0.00 0.00 0.00 0.00 0.00 0.00 0.00 0.00 0.00 0.00 0.00 0.00 0.00 0.00 0.00 0.00 0.00 0.00 0.01 0.01 0.00 0.00
0.00 0.00 0.00 0.00 0.00 0.01 0.01 0.00 0.00 0.00 0.00 0.00 0.01 0.01 0.00 0.00 0.00 0.00 0.00 0.00 0.00 0.00 0.00 0.00 0.00 0.00 0.00 0.00 0.00 0.00 0.00 0.00 0.00 0.00 0.00 0.00 0.00 0.00 0.00 0.02 0.03 0.03 0.03

GFSGL_prec_precacc12_060.txt.gz
Total_Precipitation_Accumulation
0.00 0.00 0.00 0.00 0.00 0.00 0.00 0.00 0.00 0.00 0.00 0.00 0.00 0.00 0.00 0.00 0.00 0.00 0.00 0.01 0.01 0.01 0.00 0.00 0.00 0.00 0.00 0.00 0.00 0.00 0.00 0.00 0.00 0.00 0.00 0.00 0.00 0.00 0.00 0.00 0.00 0.00 0.00
0.00 0.00 0.00 0.00 0.00 0.00 0.00 0.00 0.00 0.00 0.00 0.00 0.00 0.00 0.00 0.00 0.00 0.00 0.00 0.00 0.00 0.00 0.00 0.00 0.00 0.00 0.00 0.00 0.00 0.00 0.00 0.00 0.00 0.00 0.00 0.00 0.00 0.00 0.00 0.00 0.00 0.00 0.00
0.00 0.00 0.00 0.00 0.00 0.00 0.00 0.00 0.00 0.00 0.00 0.00 0.00 0.00 0.00 0.00 0.00 0.00 0.00 0.00 0.00 0.00 0.00 0.00 0.00 0.00 0.00 0.00 0.00 0.00 0.00 0.00 0.00 0.00 0.00 0.00 0.00 0.00 0.00 0.00 0.00 0.00 0.00
0.00 0.00 0.00 0.00 0.00 0.00 0.00 0.00 0.00 0.00 0.00 0.00 0.00 0.00 0.00 0.00 0.00 0.00 0.00 0.00 0.00 0.00 0.00 0.00 0.00 0.00 0.00 0.00 0.00 0.00 0.00 0.00 0.00 0.00 0.00 0.00 0.00 0.00 0.00 0.00 0.00 0.00 0.00
0.00 0.00 0.00 0.00 0.00 0.00 0.00 0.00 0.00 0.00 0.00 0.00 0.00 0.00 0.00 0.00 0.00 0.00 0.00 0.00 0.00 0.00 0.00 0.00 0.00 0.00 0.00 0.00 0.00 0.00 0.00 0.00 0.00 0.00 0.00 0.00 0.00 0.00 0.00 0.00 0.00 0.00 0.00
0.00 0.00 0.00 0.00 0.00 0.00 0.00 0.00 0.00 0.00 0.00 0.00 0.00 0.00 0.00 0.00 0.00 0.00 0.00 0.00 0.00 0.00 0.00 0.00 0.00 0.00 0.00 0.00 0.00 0.00 0.00 0.00 0.00 0.00 0.00 0.00 0.00 0.00 0.00 0.00 0.00 0.00 0.00
0.00 0.00 0.00 0.00 0.00 0.00 0.00 0.00 0.00 0.00 0.00 0.00 0.00 0.00 0.00 0.00 0.00 0.00 0.00 0.00 0.00 0.00 0.00 0.00 0.00 0.00 0.00 0.00 0.00 0.00 0.00 0.00 0.00 0.00 0.00 0.00 0.00 0.00 0.00 0.00 0.00 0.01 0.01
0.00 0.00 0.00 0.00 0.00 0.00 0.00 0.00 0.00 0.00 0.00 0.00 0.00 0.00 0.00 0.00 0.00 0.00 0.00 0.00 0.00 0.00 0.00 0.00 0.00 0.00 0.00 0.00 0.00 0.00 0.00 0.00 0.00 0.00 0.00 0.00 0.00 0.00 0.00 0.02 0.03 0.02 0.01
0.00 0.00 0.00 0.00 0.00 0.00 0.00 0.00 0.00 0.00 0.00 0.00 0.00 0.00 0.00 0.00 0.00 0.00 0.00 0.00 0.00 0.00 0.00 0.00 0.00 0.00 0.00 0.00 0.00 0.00 0.00 0.00 0.00 0.00 0.00 0.00 0.00 0.00 0.00 0.00 0.00 0.01 0.01
0.00 0.00 0.00 0.00 0.00 0.00 0.00 0.00 0.00 0.00 0.00 0.00 0.00 0.00 0.00 0.00 0.00 0.00 0.00 0.00 0.00 0.00 0.00 0.00 0.00 0.00 0.00 0.00 0.00 0.00 0.00 0.00 0.00 0.00 0.00 0.00 0.01 0.01 0.01 0.01 0.03 0.04 0.05
0.00 0.00 0.00 0.00 0.00 0.00 0.00 0.00 0.00 0.00 0.00 0.00 0.00 0.00 0.00 0.00 0.00 0.00 0.00 0.00 0.00 0.00 0.00 0.00 0.00 0.00 0.00 0.00 0.00 0.00 0.00 0.00 0.00 0.00 0.01 0.01 0.01 0.01 0.08 0.09 0.07 0.09 0.07
0.00 0.00 0.00 0.00 0.00 0.00 0.00 0.00 0.00 0.00 0.00 0.00 0.00 0.00 0.00 0.00 0.00 0.00 0.00 0.00 0.00 0.00 0.00 0.00 0.00 0.00 0.00 0.00 0.00 0.00 0.00 0.00 0.00 0.01 0.01 0.02 0.03 0.05 0.03 0.04 0.06 0.08 0.10
0.00 0.00 0.00 0.00 0.00 0.00 0.00 0.00 0.00 0.00 0.00 0.00 0.00 0.00 0.00 0.00 0.00 0.00 0.00 0.00 0.00 0.00 0.00 0.00 0.00 0.00 0.00 0.00 0.00 0.00 0.00 0.01 0.03 0.08 0.09 0.08 0.06 0.04 0.02 0.02 0.02 0.02 0.03
0.00 0.00 0.00 0.00 0.00 0.00 0.00 0.00 0.00 0.00 0.00 0.00 0.00 0.00 0.00 0.00 0.00 0.00 0.00 0.00 0.00 0.00 0.00 0.00 0.00 0.00 0.00 0.00 0.01 0.01 0.00 0.02 0.09 0.08 0.07 0.04 0.02 0.01 0.00 0.01 0.01 0.01 0.01
0.00 0.00 0.00 0.00 0.00 0.00 0.00 0.00 0.00 0.00 0.00 0.00 0.00 0.00 0.00 0.00 0.00 0.00 0.00 0.00 0.00 0.00 0.00 0.00 0.01 0.01 0.01 0.01 0.01 0.01 0.02 0.03 0.02 0.01 0.01 0.01 0.00 0.00 0.00 0.01 0.01 0.00 0.01
0.01 0.00 0.00 0.00 0.00 0.01 0.00 0.00 0.01 0.02 0.02 0.01 0.03 0.06 0.05 0.01 0.04 0.02 0.02 0.01 0.01 0.07 0.01 0.01 0.01 0.01 0.00 0.00 0.00 0.01 0.01 0.02 0.01 0.01 0.01 0.00 0.00 0.00 0.00 0.00 0.00 0.00 0.00
0.06 0.03 0.01 0.03 0.09 0.09 0.06 0.03 0.01 0.06 0.05 0.01 0.05 0.13 0.19 0.22 0.12 0.15 0.20 0.06 0.01 0.03 0.02 0.02 0.01 0.01 0.00 0.00 0.01 0.00 0.00 0.00 0.00 0.01 0.00 0.00 0.00 0.00 0.00 0.00 0.00 0.00 0.00
0.06 0.08 0.04 0.04 0.13 0.18 0.15 0.06 0.08 0.09 0.04 0.02 0.01 0.01 0.04 0.12 0.25 0.29 0.24 0.13 0.03 0.01 0.00 0.01 0.02 0.01 0.01 0.01 0.01 0.00 0.00 0.00 0.00 0.00 0.00 0.00 0.00 0.00 0.00 0.00 0.00 0.00 0.00
0.21 0.13 0.14 0.26 0.39 0.36 0.30 0.13 0.07 0.06 0.10 0.07 0.10 0.06 0.08 0.09 0.13 0.09 0.09 0.01 0.01 0.02 0.04 0.03 0.02 0.06 0.02 0.01 0.00 0.01 0.00 0.00 0.01 0.00 0.00 0.00 0.00 0.00 0.00 0.00 0.00 0.00 0.00
0.28 0.33 0.26 0.25 0.39 0.39 0.36 0.38 0.16 0.13 0.09 0.10 0.07 0.03 0.07 0.02 0.07 0.04 0.02 0.00 0.04 0.15 0.16 0.16 0.03 0.13 0.11 0.08 0.06 0.03 0.00 0.00 0.00 0.00 0.00 0.00 0.01 0.01 0.00 0.00 0.00 0.00 0.00
0.28 0.22 0.21 0.23 0.24 0.25 0.21 0.21 0.14 0.06 0.06 0.04 0.06 0.06 0.04 0.02 0.00 0.00 0.00 0.01 0.02 0.06 0.17 0.16 0.09 0.11 0.15 0.09 0.09 0.05 0.01 0.00 0.01 0.01 0.01 0.01 0.01 0.01 0.01 0.00 0.00 0.00 0.01
0.06 0.08 0.10 0.10 0.12 0.20 0.20 0.09 0.11 0.09 0.04 0.03 0.02 0.04 0.05 0.02 0.00 0.00 0.00 0.00 0.01 0.02 0.03 0.06 0.08 0.04 0.04 0.05 0.03 0.01 0.00 0.00 0.00 0.00 0.00 0.00 0.01 0.00 0.00 0.00 0.00 0.00 0.00
0.01 0.01 0.03 0.03 0.03 0.06 0.13 0.15 0.13 0.10 0.07 0.03 0.01 0.01 0.02 0.03 0.02 0.01 0.02 0.03 0.03 0.02 0.02 0.01 0.00 0.00 0.00 0.00 0.00 0.00 0.00 0.00 0.00 0.00 0.00 0.00 0.00 0.00 0.00 0.00 0.00 0.00 0.00
0.01 0.02 0.01 0.00 0.00 0.00 0.01 0.02 0.09 0.18 0.19 0.07 0.03 0.01 0.03 0.03 0.01 0.02 0.02 0.02 0.02 0.02 0.02 0.01 0.01 0.00 0.00 0.00 0.00 0.01 0.00 0.00 0.00 0.00 0.00 0.00 0.00 0.00 0.00 0.00 0.00 0.00 0.00
0.00 0.01 0.04 0.04 0.01 0.00 0.00 0.00 0.01 0.06 0.10 0.10 0.08 0.06 0.06 0.03 0.02 0.02 0.02 0.02 0.01 0.00 0.00 0.00 0.00 0.00 0.00 0.00 0.00 0.00 0.00 0.00 0.00 0.00 0.00 0.00 0.00 0.00 0.00 0.01 0.01 0.00 0.00
0.00 0.00 0.00 0.00 0.01 0.01 0.00 0.00 0.00 0.00 0.00 0.01 0.04 0.06 0.07 0.06 0.05 0.04 0.02 0.02 0.02 0.01 0.00 0.00 0.00 0.00 0.00 0.00 0.00 0.00 0.00 0.00 0.00 0.00 0.00 0.00 0.00 0.00 0.00 0.00 0.01 0.02 0.03

GFSGL_prec_precacc12_066.txt.gz
Total_Precipitation_Accumulation
0.00 0.00 0.00 0.00 0.00 0.00 0.00 0.00 0.00 0.00 0.00 0.00 0.00 0.00 0.00 0.00 0.00 0.00 0.00 0.01 0.01 0.01 0.00 0.00 0.00 0.00 0.00 0.00 0.00 0.00 0.00 0.00 0.00 0.00 0.00 0.00 0.00 0.00 0.00 0.00 0.00 0.00 0.00
0.00 0.00 0.00 0.00 0.00 0.00 0.00 0.00 0.00 0.00 0.00 0.00 0.00 0.00 0.00 0.00 0.00 0.00 0.00 0.00 0.00 0.00 0.00 0.00 0.00 0.00 0.00 0.00 0.00 0.00 0.00 0.00 0.00 0.00 0.00 0.00 0.00 0.00 0.00 0.00 0.00 0.00 0.00
0.00 0.00 0.00 0.00 0.00 0.00 0.00 0.00 0.00 0.00 0.00 0.00 0.00 0.00 0.00 0.00 0.00 0.00 0.00 0.00 0.00 0.00 0.00 0.00 0.00 0.00 0.00 0.00 0.00 0.00 0.00 0.00 0.00 0.00 0.00 0.00 0.00 0.00 0.00 0.00 0.00 0.00 0.00
0.00 0.00 0.00 0.00 0.00 0.00 0.00 0.00 0.00 0.00 0.00 0.00 0.00 0.00 0.00 0.00 0.00 0.00 0.00 0.00 0.00 0.00 0.00 0.00 0.00 0.00 0.00 0.00 0.00 0.00 0.00 0.00 0.00 0.00 0.00 0.00 0.00 0.00 0.00 0.00 0.00 0.00 0.00
0.00 0.00 0.00 0.00 0.00 0.00 0.00 0.00 0.00 0.00 0.00 0.00 0.00 0.00 0.00 0.00 0.00 0.00 0.00 0.00 0.00 0.00 0.00 0.00 0.00 0.00 0.00 0.00 0.00 0.00 0.00 0.00 0.00 0.00 0.00 0.00 0.00 0.00 0.00 0.00 0.00 0.00 0.00
0.00 0.00 0.00 0.00 0.00 0.00 0.00 0.00 0.00 0.00 0.00 0.00 0.00 0.00 0.00 0.00 0.00 0.00 0.00 0.00 0.00 0.00 0.00 0.00 0.00 0.00 0.00 0.00 0.00 0.00 0.00 0.00 0.00 0.00 0.00 0.00 0.00 0.00 0.00 0.00 0.00 0.00 0.00
0.01 0.00 0.00 0.00 0.00 0.00 0.00 0.00 0.00 0.00 0.00 0.00 0.00 0.00 0.00 0.00 0.00 0.00 0.00 0.00 0.00 0.00 0.00 0.00 0.00 0.00 0.00 0.00 0.00 0.00 0.00 0.00 0.00 0.00 0.00 0.00 0.00 0.00 0.00 0.00 0.00 0.00 0.00
0.02 0.00 0.00 0.00 0.00 0.00 0.00 0.00 0.00 0.00 0.00 0.00 0.00 0.00 0.00 0.00 0.00 0.00 0.00 0.00 0.00 0.00 0.00 0.00 0.00 0.00 0.00 0.00 0.00 0.00 0.00 0.00 0.00 0.00 0.00 0.00 0.00 0.00 0.00 0.00 0.01 0.01 0.00
0.00 0.00 0.00 0.00 0.00 0.00 0.00 0.00 0.00 0.00 0.00 0.00 0.00 0.00 0.00 0.00 0.00 0.00 0.00 0.00 0.00 0.00 0.00 0.00 0.00 0.00 0.00 0.00 0.00 0.00 0.00 0.00 0.00 0.00 0.00 0.00 0.00 0.00 0.00 0.00 0.00 0.00 0.01
0.03 0.07 0.04 0.00 0.00 0.00 0.00 0.00 0.00 0.00 0.00 0.00 0.00 0.00 0.00 0.00 0.00 0.00 0.00 0.00 0.00 0.00 0.00 0.00 0.00 0.00 0.00 0.00 0.00 0.00 0.00 0.00 0.00 0.00 0.00 0.00 0.00 0.00 0.00 0.00 0.01 0.03 0.04
0.03 0.03 0.02 0.00 0.00 0.00 0.00 0.00 0.00 0.00 0.00 0.00 0.00 0.00 0.00 0.00 0.00 0.00 0.00 0.00 0.00 0.00 0.00 0.00 0.00 0.00 0.00 0.00 0.00 0.00 0.00 0.00 0.00 0.00 0.00 0.00 0.00 0.00 0.07 0.08 0.06 0.06 0.06
0.02 0.08 0.05 0.02 0.01 0.00 0.00 0.00 0.00 0.00 0.00 0.00 0.00 0.00 0.00 0.00 0.00 0.00 0.00 0.00 0.00 0.00 0.00 0.00 0.00 0.00 0.00 0.00 0.00 0.00 0.00 0.00 0.00 0.00 0.00 0.00 0.00 0.01 0.02 0.03 0.03 0.05 0.09
0.09 0.06 0.06 0.01 0.05 0.05 0.00 0.00 0.00 0.00 0.00 0.00 0.00 0.00 0.00 0.00 0.00 0.00 0.00 0.00 0.00 0.00 0.00 0.00 0.00 0.00 0.00 0.00 0.00 0.00 0.00 0.00 0.00 0.00 0.00 0.00 0.00 0.01 0.01 0.00 0.00 0.01 0.02
0.13 0.09 0.07 0.01 0.01 0.03 0.02 0.00 0.00 0.00 0.00 0.00 0.00 0.00 0.00 0.00 0.00 0.00 0.00 0.00 0.00 0.00 0.00 0.00 0.00 0.00 0.00 0.00 0.00 0.00 0.00 0.00 0.00 0.00 0.01 0.01 0.01 0.00 0.00 0.00 0.00 0.01 0.00
0.03 0.07 0.08 0.05 0.03 0.01 0.02 0.01 0.00 0.00 0.00 0.00 0.00 0.00 0.00 0.00 0.00 0.00 0.00 0.00 0.00 0.00 0.01 0.01 0.00 0.00 0.00 0.00 0.00 0.00 0.00 0.01 0.01 0.00 0.01 0.01 0.00 0.00 0.00 0.01 0.01 0.00 0.00
0.02 0.03 0.06 0.05 0.05 0.02 0.00 0.01 0.01 0.02 0.02 0.00 0.02 0.05 0.05 0.01 0.04 0.02 0.02 0.00 0.01 0.07 0.11 0.02 0.00 0.00 0.00 0.00 0.00 0.00 0.01 0.01 0.01 0.01 0.01 0.00 0.00 0.00 0.01 0.01 0.00 0.00 0.00
0.09 0.07 0.05 0.04 0.04 0.03 0.01 0.00 0.00 0.06 0.04 0.01 0.05 0.12 0.18 0.22 0.11 0.14 0.20 0.07 0.01 0.08 0.08 0.05 0.01 0.00 0.00 0.00 0.00 0.00 0.00 0.00 0.01 0.01 0.01 0.01 0.01 0.01 0.01 0.00 0.00 0.00 0.00
0.10 0.11 0.09 0.09 0.10 0.09 0.07 0.05 0.03 0.06 0.03 0.01 0.03 0.02 0.04 0.12 0.24 0.29 0.26 0.18 0.04 0.04 0.02 0.07 0.06 0.04 0.03 0.03 0.02 0.01 0.01 0.00 0.00 0.00 0.01 0.01 0.00 0.00 0.00 0.00 0.00 0.00 0.00
0.23 0.15 0.18 0.30 0.45 0.44 0.53 0.39 0.16 0.06 0.10 0.09 0.15 0.14 0.18 0.15 0.18 0.17 0.14 0.04 0.04 0.06 0.14 0.15 0.20 0.33 0.34 0.26 0.29 0.21 0.16 0.13 0.10 0.05 0.02 0.01 0.01 0.00 0.00 0.00 0.00 0.00 0.00
0.41 0.44 0.35 0.31 0.43 0.46 0.54 0.76 0.66 0.43 0.41 0.23 0.22 0.18 0.25 0.16 0.13 0.09 0.03 0.05 0.11 0.36 0.51 0.60 0.56 0.62 0.73 0.67 0.75 0.82 0.70 0.76 0.66 0.32 0.13 0.03 0.02 0.02 0.00 0.00 0.00 0.00 0.00
0.61 0.52 0.54 0.40 0.38 0.43 0.45 0.49 0.50 0.47 0.41 0.36 0.46 0.43 0.42 0.34 0.13 0.07 0.06 0.05 0.13 0.35 0.75 1.08 1.38 1.82 1.91 1.86 1.73 1.70 1.55 1.57 1.08 0.64 0.31 0.19 0.12 0.04 0.00 0.00 0.00 0.00 0.00
0.21 0.55 0.80 1.01 0.56 0.48 0.46 0.34 0.41 0.47 0.44 0.44 0.41 0.55 0.66 0.47 0.26 0.13 0.10 0.09 0.08 0.06 0.13 0.23 0.39 0.49 0.61 0.80 0.71 0.44 0.43 0.55 0.63 0.54 0.28 0.13 0.07 0.01 0.00 0.00 0.00 0.00 0.00
0.14 0.23 0.32 0.66 1.13 1.04 1.18 1.12 0.93 0.53 0.46 0.47 0.60 0.48 0.29 0.25 0.23 0.17 0.12 0.08 0.06 0.04 0.03 0.05 0.07 0.05 0.03 0.04 0.04 0.04 0.06 0.08 0.08 0.10 0.06 0.03 0.02 0.00 0.00 0.00 0.00 0.00 0.00
0.05 0.33 0.67 0.48 0.33 0.31 0.36 0.89 1.67 1.82 1.22 0.92 0.72 0.81 0.85 0.59 0.41 0.37 0.33 0.18 0.09 0.07 0.05 0.03 0.03 0.04 0.05 0.06 0.04 0.04 0.04 0.05 0.03 0.03 0.02 0.01 0.00 0.00 0.00 0.01 0.01 0.00 0.00
0.03 0.04 0.26 0.74 0.82 0.59 0.49 0.50 0.44 0.51 0.70 0.85 0.84 0.69 0.76 0.75 0.67 0.56 0.46 0.36 0.23 0.14 0.09 0.04 0.03 0.04 0.06 0.06 0.05 0.05 0.03 0.03 0.02 0.03 0.02 0.01 0.01 0.01 0.00 0.00 0.00 0.00 0.00
0.02 0.04 0.04 0.07 0.26 0.39 0.25 0.28 0.53 0.49 0.42 0.37 0.36 0.36 0.48 0.61 0.60 0.44 0.35 0.31 0.32 0.31 0.21 0.10 0.06 0.06 0.06 0.05 0.04 0.04 0.02 0.02 0.01 0.00 0.00 0.00 0.00 0.00 0.00 0.00 0.00 0.00 0.00

GFSGL_prec_precacc12_069.txt.gz
Total_Precipitation_Accumulation
0.00 0.00 0.00 0.00 0.00 0.00 0.00 0.00 0.00 0.00 0.00 0.00 0.00 0.00 0.00 0.00 0.00 0.00 0.00 0.01 0.01 0.01 0.00 0.00 0.00 0.00 0.00 0.00 0.00 0.00 0.00 0.00 0.00 0.00 0.00 0.00 0.00 0.00 0.00 0.00 0.00 0.00 0.00
0.00 0.00 0.00 0.00 0.00 0.00 0.00 0.00 0.00 0.00 0.00 0.00 0.00 0.00 0.00 0.00 0.00 0.00 0.00 0.00 0.00 0.00 0.00 0.00 0.00 0.00 0.00 0.00 0.00 0.00 0.00 0.00 0.00 0.00 0.00 0.00 0.00 0.00 0.00 0.00 0.00 0.00 0.00
0.00 0.00 0.00 0.00 0.00 0.00 0.00 0.00 0.00 0.00 0.00 0.00 0.00 0.00 0.00 0.00 0.00 0.00 0.00 0.00 0.00 0.00 0.00 0.00 0.00 0.00 0.00 0.00 0.00 0.00 0.00 0.00 0.00 0.00 0.00 0.00 0.00 0.00 0.00 0.00 0.00 0.00 0.00
0.00 0.00 0.00 0.00 0.00 0.00 0.00 0.00 0.00 0.00 0.00 0.00 0.00 0.00 0.00 0.00 0.00 0.00 0.00 0.00 0.00 0.00 0.00 0.00 0.00 0.00 0.00 0.00 0.00 0.00 0.00 0.00 0.00 0.00 0.00 0.00 0.00 0.00 0.00 0.00 0.00 0.00 0.00
0.01 0.00 0.00 0.00 0.00 0.00 0.00 0.00 0.00 0.00 0.00 0.00 0.00 0.00 0.00 0.00 0.00 0.00 0.00 0.00 0.00 0.00 0.00 0.00 0.00 0.00 0.00 0.00 0.00 0.00 0.00 0.00 0.00 0.00 0.00 0.00 0.00 0.00 0.00 0.00 0.00 0.00 0.00
0.00 0.01 0.00 0.00 0.00 0.00 0.00 0.00 0.00 0.00 0.00 0.00 0.00 0.00 0.00 0.00 0.00 0.00 0.00 0.00 0.00 0.00 0.00 0.00 0.00 0.00 0.00 0.00 0.00 0.00 0.00 0.00 0.00 0.00 0.00 0.00 0.00 0.00 0.00 0.00 0.00 0.00 0.00
0.01 0.00 0.00 0.01 0.00 0.00 0.00 0.00 0.00 0.00 0.00 0.00 0.00 0.00 0.00 0.00 0.00 0.00 0.00 0.00 0.00 0.00 0.00 0.00 0.00 0.00 0.00 0.00 0.00 0.00 0.00 0.00 0.00 0.00 0.00 0.00 0.00 0.00 0.00 0.00 0.00 0.00 0.00
0.02 0.00 0.00 0.00 0.01 0.01 0.00 0.00 0.00 0.00 0.00 0.00 0.00 0.00 0.00 0.00 0.00 0.00 0.00 0.00 0.00 0.00 0.00 0.00 0.00 0.00 0.00 0.00 0.00 0.00 0.00 0.00 0.00 0.00 0.00 0.00 0.00 0.00 0.00 0.00 0.00 0.00 0.00
0.00 0.04 0.01 0.00 0.00 0.00 0.00 0.00 0.00 0.00 0.00 0.00 0.00 0.00 0.00 0.00 0.00 0.00 0.00 0.00 0.00 0.00 0.00 0.00 0.00 0.00 0.00 0.00 0.00 0.00 0.00 0.00 0.00 0.00 0.00 0.00 0.00 0.00 0.00 0.00 0.00 0.00 0.01
0.04 0.12 0.09 0.04 0.03 0.00 0.00 0.00 0.01 0.01 0.00 0.00 0.00 0.00 0.00 0.00 0.00 0.00 0.00 0.00 0.00 0.00 0.00 0.00 0.00 0.00 0.00 0.00 0.00 0.00 0.00 0.00 0.00 0.00 0.00 0.00 0.00 0.00 0.00 0.00 0.01 0.01 0.02
0.06 0.04 0.06 0.09 0.12 0.03 0.00 0.00 0.00 0.00 0.00 0.00 0.00 0.00 0.00 0.00 0.00 0.00 0.00 0.00 0.00 0.00 0.00 0.00 0.00 0.00 0.00 0.00 0.00 0.00 0.00 0.00 0.00 0.00 0.00 0.00 0.00 0.00 0.04 0.02 0.02 0.03 0.04
0.05 0.10 0.06 0.05 0.08 0.02 0.00 0.00 0.00 0.00 0.00 0.00 0.00 0.00 0.00 0.00 0.00 0.00 0.00 0.00 0.00 0.00 0.00 0.00 0.00 0.00 0.00 0.00 0.00 0.00 0.00 0.00 0.00 0.00 0.00 0.00 0.00 0.00 0.01 0.01 0.02 0.05 0.07
0.10 0.06 0.06 0.02 0.07 0.13 0.02 0.00 0.02 0.02 0.02 0.01 0.00 0.00 0.00 0.00 0.00 0.00 0.00 0.00 0.00 0.00 0.00 0.00 0.00 0.00 0.00 0.00 0.00 0.00 0.00 0.00 0.00 0.00 0.00 0.00 0.00 0.00 0.00 0.00 0.00 0.00 0.02
0.13 0.10 0.07 0.02 0.01 0.05 0.10 0.08 0.06 0.05 0.02 0.03 0.01 0.01 0.03 0.00 0.00 0.00 0.00 0.00 0.00 0.00 0.00 0.00 0.00 0.00 0.00 0.00 0.00 0.00 0.00 0.00 0.00 0.00 0.00 0.00 0.00 0.00 0.00 0.00 0.00 0.01 0.00
0.03 0.08 0.08 0.05 0.03 0.04 0.06 0.06 0.03 0.02 0.01 0.02 0.01 0.03 0.02 0.00 0.00 0.00 0.00 0.00 0.00 0.00 0.03 0.01 0.00 0.00 0.00 0.00 0.00 0.00 0.00 0.00 0.00 0.00 0.01 0.01 0.00 0.00 0.00 0.01 0.02 0.01 0.01
0.02 0.03 0.06 0.05 0.05 0.03 0.02 0.01 0.01 0.01 0.01 0.01 0.02 0.01 0.01 0.00 0.01 0.03 0.02 0.00 0.01 0.09 0.15 0.02 0.00 0.00 0.00 0.00 0.00 0.00 0.00 0.00 0.01 0.01 0.01 0.00 0.00 0.00 0.01 0.01 0.01 0.02 0.01
0.08 0.06 0.05 0.05 0.07 0.06 0.04 0.02 0.01 0.01 0.01 0.01 0.01 0.02 0.00 0.01 0.01 0.04 0.11 0.05 0.02 0.15 0.12 0.06 0.01 0.00 0.00 0.00 0.00 0.00 0.00 0.00 0.01 0.01 0.01 0.01 0.01 0.01 0.01 0.00 0.01 0.01 0.00
0.09 0.10 0.08 0.09 0.10 0.09 0.07 0.05 0.01 0.01 0.02 0.01 0.02 0.02 0.01 0.01 0.06 0.12 0.11 0.14 0.09 0.18 0.08 0.16 0.06 0.04 0.03 0.03 0.03 0.02 0.01 0.01 0.00 0.00 0.01 0.01 0.00 0.01 0.01 0.01 0.02 0.02 0.02
0.18 0.11 0.16 0.26 0.41 0.40 0.49 0.37 0.16 0.05 0.04 0.04 0.13 0.14 0.18 0.13 0.12 0.14 0.09 0.08 0.12 0.12 0.20 0.18 0.20 0.32 0.33 0.27 0.30 0.22 0.16 0.13 0.16 0.10 0.11 0.11 0.17 0.22 0.22 0.18 0.14 0.09 0.04
0.34 0.36 0.32 0.29 0.40 0.45 0.53 0.75 0.68 0.46 0.41 0.19 0.20 0.20 0.28 0.24 0.16 0.16 0.14 0.21 0.18 0.34 0.58 0.57 0.56 0.62 0.74 0.71 0.83 0.88 0.78 0.79 0.79 0.73 0.58 0.49 0.46 0.40 0.33 0.30 0.26 0.18 0.06
0.57 0.49 0.53 0.37 0.34 0.42 0.45 0.48 0.49 0.46 0.41 0.35 0.47 0.46 0.50 0.52 0.18 0.12 0.19 0.21 0.23 0.39 0.82 1.11 1.42 1.83 1.96 1.96 1.85 1.83 1.63 1.61 1.42 1.28 1.25 1.32 1.28 1.02 0.81 0.67 0.55 0.47 0.10
0.21 0.54 0.80 1.01 0.55 0.48 0.46 0.33 0.35 0.41 0.43 0.44 0.41 0.56 0.75 0.63 0.31 0.28 0.23 0.22 0.18 0.16 0.28 0.35 0.48 0.53 0.63 0.84 0.75 0.45 0.43 0.57 0.73 0.69 0.70 0.79 0.94 1.15 1.28 1.18 0.74 0.38 0.06
0.14 0.24 0.33 0.66 1.13 1.05 1.18 1.11 0.91 0.53 0.46 0.48 0.60 0.50 0.32 0.29 0.26 0.25 0.24 0.25 0.22 0.18 0.16 0.13 0.12 0.07 0.03 0.04 0.04 0.05 0.07 0.08 0.08 0.10 0.09 0.10 0.13 0.18 0.25 0.23 0.18 0.09 0.02
0.04 0.35 0.69 0.49 0.35 0.33 0.36 0.89 1.65 1.91 1.59 1.32 1.00 0.95 0.92 0.64 0.49 0.47 0.44 0.31 0.23 0.17 0.13 0.09 0.08 0.07 0.05 0.06 0.04 0.04 0.04 0.05 0.03 0.04 0.08 0.09 0.11 0.12 0.09 0.03 0.02 0.01 0.00
0.04 0.08 0.31 0.78 0.88 0.65 0.61 0.60 0.49 0.53 0.71 0.95 1.12 1.03 1.02 0.95 0.83 0.71 0.57 0.47 0.36 0.28 0.22 0.18 0.19 0.14 0.09 0.07 0.06 0.06 0.06 0.06 0.05 0.10 0.10 0.08 0.07 0.08 0.06 0.03 0.01 0.00 0.00
0.03 0.06 0.11 0.16 0.33 0.48 0.47 0.52 0.87 0.88 0.68 0.53 0.53 0.63 0.83 0.87 0.78 0.64 0.62 0.65 0.63 0.59 0.57 0.53 0.51 0.41 0.28 0.21 0.16 0.13 0.08 0.05 0.03 0.02 0.02 0.03 0.05 0.04 0.01 0.01 0.01 0.00 0.00

GFSGL_prec_precacc12_072.txt.gz
Total_Precipitation_Accumulation
0.00 0.00 0.00 0.00 0.00 0.00 0.00 0.00 0.00 0.00 0.00 0.00 0.00 0.00 0.01 0.02 0.02 0.04 0.01 0.00 0.00 0.00 0.00 0.00 0.00 0.00 0.00 0.00 0.00 0.00 0.00 0.00 0.00 0.00 0.00 0.00 0.00 0.00 0.00 0.00 0.00 0.00 0.00
0.00 0.00 0.00 0.00 0.00 0.00 0.00 0.00 0.00 0.00 0.00 0.00 0.00 0.00 0.00 0.00 0.00 0.00 0.00 0.00 0.00 0.00 0.00 0.00 0.00 0.00 0.00 0.00 0.00 0.00 0.00 0.00 0.00 0.00 0.00 0.00 0.00 0.00 0.00 0.00 0.00 0.00 0.00
0.00 0.00 0.00 0.00 0.00 0.00 0.00 0.00 0.00 0.00 0.00 0.00 0.00 0.00 0.00 0.00 0.00 0.00 0.00 0.00 0.00 0.00 0.00 0.00 0.00 0.00 0.00 0.00 0.00 0.00 0.00 0.00 0.00 0.00 0.00 0.00 0.00 0.00 0.00 0.00 0.00 0.00 0.00
0.00 0.00 0.00 0.00 0.00 0.00 0.00 0.00 0.00 0.00 0.00 0.00 0.00 0.00 0.00 0.00 0.00 0.00 0.00 0.00 0.00 0.00 0.00 0.00 0.00 0.00 0.00 0.00 0.00 0.00 0.00 0.00 0.00 0.00 0.00 0.00 0.00 0.00 0.00 0.00 0.00 0.00 0.00
0.01 0.00 0.00 0.00 0.00 0.00 0.00 0.00 0.00 0.00 0.00 0.00 0.00 0.00 0.00 0.00 0.00 0.00 0.00 0.00 0.00 0.00 0.00 0.00 0.00 0.00 0.00 0.00 0.00 0.00 0.00 0.00 0.00 0.00 0.00 0.00 0.00 0.00 0.00 0.00 0.00 0.00 0.00
0.01 0.01 0.01 0.00 0.00 0.00 0.00 0.00 0.00 0.00 0.00 0.00 0.00 0.00 0.00 0.00 0.00 0.00 0.00 0.00 0.00 0.00 0.00 0.00 0.00 0.00 0.00 0.00 0.00 0.00 0.00 0.00 0.00 0.00 0.00 0.00 0.00 0.00 0.00 0.00 0.00 0.00 0.00
0.01 0.02 0.02 0.01 0.00 0.00 0.00 0.00 0.00 0.00 0.00 0.00 0.00 0.00 0.00 0.00 0.00 0.00 0.00 0.00 0.00 0.00 0.00 0.00 0.00 0.00 0.00 0.00 0.00 0.00 0.00 0.00 0.00 0.00 0.00 0.00 0.00 0.00 0.00 0.00 0.00 0.00 0.00
0.02 0.00 0.00 0.01 0.01 0.02 0.00 0.00 0.00 0.00 0.00 0.00 0.00 0.00 0.00 0.00 0.00 0.00 0.00 0.00 0.00 0.00 0.00 0.00 0.00 0.00 0.00 0.00 0.00 0.00 0.00 0.00 0.00 0.00 0.00 0.00 0.00 0.00 0.00 0.00 0.00 0.00 0.00
0.00 0.04 0.01 0.00 0.00 0.00 0.00 0.02 0.02 0.00 0.00 0.00 0.00 0.00 0.00 0.00 0.00 0.00 0.00 0.00 0.00 0.00 0.00 0.00 0.00 0.00 0.00 0.00 0.00 0.00 0.00 0.00 0.00 0.00 0.00 0.00 0.00 0.00 0.00 0.00 0.00 0.00 0.00
0.07 0.12 0.09 0.04 0.05 0.03 0.03 0.05 0.07 0.02 0.00 0.00 0.00 0.00 0.00 0.00 0.00 0.00 0.00 0.00 0.00 0.00 0.00 0.00 0.00 0.00 0.00 0.00 0.00 0.00 0.00 0.00 0.00 0.00 0.00 0.00 0.00 0.00 0.00 0.00 0.00 0.00 0.00
0.14 0.11 0.09 0.10 0.16 0.09 0.06 0.13 0.16 0.08 0.04 0.00 0.00 0.00 0.00 0.00 0.00 0.00 0.00 0.00 0.00 0.00 0.00 0.00 0.00 0.00 0.00 0.00 0.00 0.00 0.00 0.00 0.00 0.00 0.00 0.00 0.00 0.00 0.00 0.00 0.00 0.00 0.02
0.08 0.17 0.13 0.08 0.16 0.16 0.05 0.06 0.01 0.01 0.03 0.01 0.00 0.00 0.00 0.00 0.00 0.00 0.00 0.00 0.00 0.00 0.00 0.00 0.00 0.00 0.00 0.00 0.00 0.00 0.00 0.00 0.00 0.00 0.00 0.00 0.00 0.00 0.00 0.00 0.00 0.01 0.02
0.10 0.08 0.09 0.05 0.09 0.15 0.04 0.01 0.03 0.04 0.02 0.02 0.01 0.00 0.00 0.00 0.00 0.00 0.00 0.00 0.00 0.00 0.00 0.00 0.00 0.00 0.00 0.00 0.00 0.00 0.00 0.00 0.00 0.00 0.00 0.00 0.00 0.00 0.00 0.00 0.00 0.00 0.00
0.14 0.11 0.08 0.03 0.02 0.05 0.10 0.08 0.06 0.05 0.04 0.04 0.01 0.01 0.03 0.00 0.00 0.00 0.00 0.00 0.00 0.00 0.00 0.00 0.00 0.00 0.00 0.00 0.00 0.00 0.00 0.00 0.00 0.00 0.00 0.00 0.00 0.00 0.00 0.00 0.00 0.01 0.00
0.03 0.08 0.09 0.06 0.03 0.04 0.06 0.06 0.03 0.01 0.02 0.03 0.01 0.03 0.03 0.00 0.02 0.05 0.05 0.03 0.03 0.03 0.09 0.02 0.00 0.00 0.00 0.00 0.00 0.00 0.00 0.00 0.00 0.00 0.00 0.00 0.00 0.00 0.00 0.00 0.01 0.01 0.01
0.01 0.03 0.07 0.06 0.05 0.03 0.01 0.01 0.02 0.03 0.02 0.03 0.06 0.02 0.01 0.00 0.07 0.11 0.12 0.09 0.11 0.13 0.17 0.02 0.00 0.00 0.00 0.00 0.00 0.00 0.00 0.00 0.00 0.00 0.00 0.00 0.00 0.00 0.00 0.01 0.01 0.02 0.02
0.05 0.04 0.05 0.05 0.07 0.06 0.04 0.02 0.01 0.01 0.02 0.04 0.06 0.02 0.00 0.01 0.01 0.03 0.13 0.22 0.10 0.17 0.11 0.05 0.01 0.00 0.00 0.00 0.00 0.00 0.00 0.00 0.00 0.00 0.01 0.01 0.01 0.01 0.01 0.00 0.01 0.02 0.02
0.04 0.05 0.05 0.07 0.09 0.09 0.06 0.04 0.01 0.01 0.02 0.01 0.02 0.02 0.01 0.01 0.03 0.05 0.10 0.13 0.08 0.18 0.08 0.15 0.04 0.04 0.03 0.03 0.03 0.02 0.01 0.01 0.00 0.00 0.00 0.00 0.00 0.01 0.01 0.01 0.03 0.05 0.10
0.01 0.02 0.05 0.06 0.09 0.14 0.26 0.28 0.13 0.03 0.02 0.02 0.05 0.10 0.12 0.09 0.10 0.14 0.07 0.08 0.12 0.13 0.22 0.20 0.21 0.29 0.32 0.28 0.31 0.22 0.16 0.13 0.15 0.10 0.11 0.11 0.17 0.22 0.22 0.18 0.18 0.19 0.18
0.13 0.12 0.09 0.06 0.04 0.09 0.21 0.39 0.53 0.36 0.34 0.14 0.16 0.17 0.21 0.24 0.14 0.17 0.18 0.27 0.18 0.35 0.59 0.55 0.64 0.57 0.68 0.65 0.81 0.87 0.78 0.79 0.78 0.74 0.59 0.50 0.48 0.40 0.33 0.31 0.31 0.25 0.22
0.33 0.31 0.33 0.17 0.14 0.18 0.25 0.30 0.37 0.43 0.38 0.33 0.41 0.41 0.47 0.50 0.18 0.14 0.21 0.24 0.23 0.38 0.72 1.02 1.40 1.78 1.85 1.92 1.82 1.82 1.63 1.61 1.41 1.29 1.26 1.35 1.28 1.03 0.90 0.76 0.62 0.55 0.51
0.15 0.46 0.70 0.91 0.44 0.29 0.26 0.26 0.31 0.38 0.41 0.42 0.40 0.52 0.71 0.62 0.31 0.28 0.23 0.22 0.18 0.17 0.26 0.31 0.44 0.56 0.62 0.82 0.74 0.47 0.45 0.58 0.73 0.69 0.70 0.79 0.94 1.16 1.36 1.32 1.14 0.94 0.78
0.13 0.23 0.30 0.63 1.10 0.99 1.05 0.96 0.80 0.45 0.40 0.46 0.59 0.49 0.30 0.27 0.24 0.24 0.23 0.23 0.22 0.20 0.21 0.20 0.19 0.16 0.10 0.10 0.09 0.06 0.07 0.09 0.08 0.10 0.09 0.10 0.14 0.19 0.26 0.24 0.23 0.21 0.24
0.04 0.35 0.69 0.48 0.34 0.33 0.35 0.87 1.58 1.75 1.41 1.26 1.00 0.97 0.94 0.64 0.49 0.46 0.44 0.33 0.26 0.21 0.19 0.16 0.13 0.14 0.15 0.17 0.15 0.11 0.10 0.09 0.05 0.05 0.08 0.09 0.11 0.13 0.11 0.08 0.06 0.04 0.03
0.04 0.08 0.28 0.76 0.87 0.66 0.61 0.60 0.48 0.49 0.63 0.87 1.05 0.99 1.00 0.97 0.86 0.74 0.61 0.52 0.43 0.35 0.29 0.25 0.26 0.27 0.24 0.18 0.16 0.14 0.11 0.08 0.06 0.10 0.10 0.08 0.07 0.08 0.10 0.08 0.05 0.04 0.01
0.06 0.10 0.12 0.16 0.35 0.49 0.48 0.53 0.90 0.95 0.74 0.54 0.52 0.59 0.80 0.88 0.81 0.73 0.74 0.76 0.71 0.68 0.65 0.61 0.60 0.53 0.47 0.44 0.39 0.34 0.26 0.20 0.17 0.16 0.12 0.12 0.13 0.10 0.07 0.05 0.05 0.06 0.04

GFSGL_prec_precacc12_075.txt.gz
Total_Precipitation_Accumulation
0.00 0.00 0.00 0.00 0.00 0.00 0.00 0.00 0.00 0.00 0.00 0.00 0.00 0.00 0.01 0.03 0.02 0.05 0.02 0.00 0.00 0.00 0.00 0.00 0.00 0.00 0.00 0.00 0.00 0.00 0.00 0.00 0.00 0.00 0.00 0.00 0.00 0.00 0.00 0.00 0.00 0.00 0.00
0.00 0.00 0.00 0.00 0.00 0.00 0.00 0.00 0.00 0.00 0.00 0.00 0.00 0.00 0.00 0.00 0.00 0.00 0.01 0.02 0.03 0.01 0.00 0.00 0.00 0.00 0.00 0.00 0.00 0.00 0.00 0.00 0.00 0.00 0.00 0.00 0.00 0.00 0.00 0.00 0.00 0.00 0.00
0.00 0.00 0.00 0.00 0.00 0.00 0.00 0.00 0.00 0.00 0.00 0.00 0.00 0.00 0.00 0.00 0.00 0.00 0.01 0.03 0.01 0.00 0.00 0.00 0.00 0.00 0.00 0.00 0.00 0.00 0.00 0.00 0.00 0.00 0.00 0.00 0.00 0.00 0.00 0.00 0.00 0.00 0.00
0.00 0.00 0.00 0.00 0.00 0.00 0.00 0.00 0.00 0.00 0.00 0.00 0.00 0.00 0.00 0.00 0.00 0.00 0.00 0.00 0.00 0.00 0.00 0.00 0.00 0.00 0.00 0.00 0.00 0.00 0.00 0.00 0.00 0.00 0.00 0.00 0.00 0.00 0.00 0.00 0.00 0.00 0.00
0.01 0.00 0.00 0.00 0.00 0.00 0.00 0.00 0.00 0.00 0.00 0.00 0.00 0.00 0.00 0.00 0.00 0.00 0.00 0.00 0.00 0.00 0.00 0.00 0.00 0.00 0.00 0.00 0.00 0.00 0.00 0.00 0.00 0.00 0.00 0.00 0.00 0.00 0.00 0.00 0.00 0.00 0.00
0.01 0.01 0.01 0.00 0.00 0.00 0.00 0.00 0.00 0.00 0.00 0.00 0.00 0.00 0.00 0.00 0.00 0.00 0.00 0.00 0.00 0.00 0.00 0.00 0.00 0.00 0.00 0.00 0.00 0.00 0.00 0.00 0.00 0.00 0.00 0.00 0.00 0.00 0.00 0.00 0.00 0.00 0.00
0.01 0.02 0.02 0.01 0.00 0.00 0.00 0.00 0.00 0.00 0.00 0.00 0.00 0.00 0.00 0.00 0.00 0.00 0.00 0.00 0.00 0.00 0.00 0.00 0.00 0.00 0.00 0.00 0.00 0.00 0.00 0.00 0.00 0.00 0.00 0.00 0.00 0.00 0.00 0.00 0.00 0.00 0.00
0.02 0.00 0.00 0.01 0.01 0.02 0.00 0.00 0.00 0.00 0.00 0.00 0.00 0.00 0.00 0.00 0.00 0.00 0.00 0.00 0.00 0.00 0.00 0.00 0.00 0.00 0.00 0.00 0.00 0.00 0.00 0.00 0.00 0.00 0.00 0.00 0.00 0.00 0.00 0.00 0.00 0.00 0.00
0.00 0.05 0.02 0.00 0.00 0.00 0.00 0.02 0.02 0.00 0.00 0.00 0.00 0.00 0.00 0.00 0.00 0.00 0.00 0.00 0.00 0.00 0.00 0.00 0.00 0.00 0.00 0.00 0.00 0.00 0.00 0.00 0.00 0.00 0.00 0.00 0.00 0.00 0.00 0.00 0.00 0.00 0.00
0.09 0.14 0.10 0.04 0.05 0.03 0.03 0.05 0.08 0.02 0.00 0.00 0.00 0.00 0.00 0.00 0.00 0.00 0.00 0.00 0.00 0.00 0.00 0.00 0.00 0.00 0.00 0.00 0.00 0.00 0.00 0.00 0.00 0.00 0.00 0.00 0.00 0.00 0.00 0.00 0.00 0.00 0.00
0.14 0.13 0.12 0.11 0.16 0.11 0.07 0.14 0.17 0.10 0.07 0.00 0.00 0.00 0.00 0.00 0.00 0.00 0.00 0.00 0.00 0.00 0.00 0.00 0.00 0.00 0.00 0.00 0.00 0.00 0.00 0.00 0.00 0.00 0.00 0.00 0.00 0.00 0.00 0.00 0.00 0.00 0.00
0.07 0.14 0.13 0.12 0.19 0.20 0.11 0.14 0.09 0.02 0.03 0.01 0.01 0.00 0.00 0.00 0.00 0.00 0.00 0.00 0.00 0.00 0.00 0.00 0.00 0.00 0.00 0.00 0.00 0.00 0.00 0.00 0.00 0.00 0.00 0.00 0.00 0.00 0.00 0.00 0.00 0.00 0.01
0.10 0.07 0.06 0.06 0.12 0.19 0.10 0.10 0.07 0.05 0.03 0.03 0.01 0.00 0.00 0.00 0.00 0.00 0.00 0.00 0.00 0.00 0.00 0.00 0.00 0.00 0.00 0.00 0.00 0.00 0.00 0.00 0.00 0.00 0.00 0.00 0.00 0.00 0.00 0.00 0.00 0.00 0.00
0.14 0.11 0.08 0.03 0.02 0.06 0.11 0.11 0.11 0.07 0.05 0.04 0.01 0.01 0.03 0.00 0.00 0.00 0.00 0.01 0.02 0.00 0.00 0.00 0.00 0.00 0.00 0.00 0.00 0.00 0.00 0.00 0.00 0.00 0.00 0.00 0.00 0.00 0.00 0.00 0.00 0.00 0.00
0.03 0.08 0.09 0.06 0.03 0.04 0.06 0.05 0.04 0.03 0.03 0.04 0.01 0.04 0.03 0.00 0.02 0.06 0.07 0.06 0.09 0.08 0.12 0.02 0.00 0.00 0.00 0.00 0.00 0.00 0.00 0.00 0.00 0.00 0.00 0.00 0.00 0.00 0.00 0.00 0.00 0.01 0.01
0.00 0.02 0.07 0.06 0.05 0.03 0.01 0.01 0.02 0.03 0.02 0.03 0.08 0.05 0.02 0.01 0.09 0.15 0.30 0.25 0.28 0.23 0.18 0.02 0.00 0.00 0.00 0.00 0.00 0.00 0.00 0.00 0.00 0.00 0.00 0.00 0.00 0.00 0.00 0.00 0.01 0.02 0.02
0.01 0.01 0.03 0.04 0.06 0.05 0.03 0.02 0.01 0.01 0.02 0.04 0.08 0.07 0.03 0.02 0.10 0.18 0.40 0.46 0.29 0.26 0.10 0.02 0.01 0.00 0.00 0.00 0.00 0.00 0.00 0.00 0.00 0.00 0.00 0.00 0.00 0.00 0.00 0.00 0.01 0.02 0.02
0.00 0.01 0.01 0.02 0.04 0.05 0.05 0.03 0.01 0.00 0.01 0.01 0.00 0.02 0.03 0.07 0.21 0.26 0.31 0.21 0.10 0.18 0.08 0.10 0.01 0.02 0.02 0.02 0.02 0.02 0.01 0.01 0.00 0.00 0.00 0.00 0.00 0.00 0.01 0.01 0.03 0.05 0.10
0.00 0.00 0.00 0.02 0.05 0.07 0.13 0.17 0.10 0.02 0.01 0.01 0.01 0.02 0.03 0.07 0.16 0.19 0.19 0.12 0.14 0.13 0.15 0.12 0.12 0.19 0.25 0.25 0.23 0.16 0.13 0.13 0.15 0.10 0.11 0.11 0.17 0.22 0.22 0.18 0.18 0.19 0.18
0.00 0.01 0.01 0.00 0.00 0.03 0.07 0.13 0.19 0.09 0.09 0.03 0.02 0.05 0.08 0.17 0.09 0.18 0.27 0.38 0.24 0.26 0.36 0.24 0.34 0.41 0.61 0.61 0.73 0.71 0.71 0.79 0.78 0.74 0.59 0.50 0.48 0.41 0.34 0.31 0.31 0.26 0.23
0.01 0.01 0.03 0.01 0.00 0.01 0.05 0.09 0.14 0.13 0.07 0.05 0.16 0.13 0.23 0.35 0.15 0.14 0.22 0.28 0.24 0.28 0.32 0.31 0.37 0.46 1.05 1.57 1.62 1.64 1.53 1.60 1.42 1.29 1.26 1.35 1.28 1.04 0.91 0.78 0.66 0.60 0.53
0.01 0.02 0.01 0.02 0.09 0.12 0.04 0.04 0.06 0.12 0.14 0.13 0.23 0.40 0.60 0.55 0.31 0.29 0.24 0.22 0.15 0.18 0.28 0.25 0.24 0.21 0.16 0.43 0.58 0.45 0.44 0.57 0.72 0.69 0.71 0.80 0.94 1.16 1.36 1.34 1.17 1.00 0.86
0.02 0.06 0.05 0.10 0.47 0.75 0.84 0.58 0.37 0.21 0.23 0.19 0.20 0.26 0.24 0.24 0.23 0.24 0.22 0.22 0.21 0.20 0.21 0.18 0.16 0.14 0.08 0.11 0.10 0.10 0.10 0.12 0.12 0.15 0.13 0.12 0.15 0.20 0.26 0.25 0.24 0.23 0.26
0.03 0.18 0.54 0.37 0.16 0.15 0.24 0.71 1.14 1.02 0.90 0.77 0.55 0.59 0.79 0.58 0.42 0.39 0.39 0.28 0.23 0.19 0.18 0.15 0.13 0.13 0.14 0.16 0.15 0.13 0.12 0.19 0.20 0.16 0.12 0.13 0.13 0.14 0.12 0.10 0.09 0.06 0.05
0.04 0.07 0.27 0.73 0.86 0.58 0.52 0.55 0.41 0.33 0.34 0.44 0.62 0.66 0.67 0.73 0.75 0.68 0.54 0.48 0.43 0.35 0.30 0.25 0.27 0.29 0.26 0.19 0.16 0.15 0.15 0.16 0.15 0.19 0.19 0.15 0.13 0.12 0.13 0.10 0.07 0.05 0.03
0.08 0.11 0.14 0.18 0.36 0.51 0.48 0.53 0.90 0.95 0.72 0.50 0.46 0.48 0.68 0.80 0.77 0.72 0.75 0.78 0.73 0.69 0.65 0.63 0.62 0.55 0.50 0.49 0.44 0.38 0.30 0.22 0.22 0.22 0.18 0.17 0.18 0.18 0.16 0.12 0.09 0.09 0.10

GFSGL_prec_precacc12_078.txt.gz
Total_Precipitation_Accumulation
0.00 0.00 0.00 0.00 0.00 0.00 0.00 0.00 0.00 0.00 0.00 0.00 0.00 0.07 0.10 0.04 0.02 0.05 0.02 0.00 0.02 0.02 0.00 0.00 0.00 0.00 0.00 0.00 0.00 0.00 0.00 0.00 0.00 0.00 0.00 0.00 0.00 0.00 0.00 0.00 0.00 0.00 0.00
0.00 0.00 0.00 0.00 0.00 0.00 0.00 0.00 0.00 0.00 0.00 0.00 0.00 0.11 0.07 0.03 0.03 0.02 0.01 0.03 0.07 0.02 0.00 0.00 0.00 0.00 0.00 0.00 0.00 0.00 0.00 0.00 0.00 0.00 0.00 0.00 0.00 0.00 0.00 0.00 0.00 0.00 0.00
0.00 0.00 0.00 0.00 0.00 0.00 0.00 0.00 0.00 0.00 0.00 0.00 0.00 0.03 0.07 0.03 0.01 0.00 0.02 0.05 0.01 0.02 0.00 0.00 0.00 0.00 0.00 0.00 0.00 0.00 0.00 0.00 0.00 0.00 0.00 0.00 0.00 0.00 0.00 0.00 0.00 0.00 0.00
0.00 0.00 0.00 0.00 0.00 0.00 0.00 0.00 0.00 0.00 0.00 0.00 0.00 0.00 0.02 0.03 0.02 0.01 0.00 0.04 0.02 0.01 0.01 0.00 0.00 0.00 0.00 0.00 0.00 0.00 0.00 0.00 0.00 0.00 0.00 0.00 0.00 0.00 0.00 0.00 0.00 0.00 0.00
0.01 0.00 0.00 0.00 0.00 0.00 0.00 0.00 0.00 0.00 0.00 0.00 0.00 0.00 0.00 0.00 0.00 0.00 0.00 0.01 0.02 0.03 0.01 0.00 0.00 0.00 0.00 0.00 0.00 0.00 0.00 0.00 0.00 0.00 0.00 0.00 0.00 0.00 0.00 0.00 0.00 0.00 0.00
0.01 0.01 0.01 0.00 0.00 0.00 0.00 0.00 0.00 0.00 0.00 0.00 0.00 0.00 0.00 0.00 0.00 0.00 0.00 0.00 0.00 0.00 0.00 0.00 0.00 0.00 0.00 0.00 0.00 0.00 0.00 0.00 0.00 0.00 0.00 0.00 0.00 0.00 0.00 0.00 0.00 0.00 0.00
0.01 0.02 0.02 0.01 0.00 0.00 0.00 0.00 0.00 0.00 0.00 0.00 0.00 0.00 0.00 0.00 0.00 0.00 0.00 0.00 0.00 0.00 0.00 0.00 0.00 0.00 0.00 0.00 0.00 0.00 0.00 0.00 0.00 0.00 0.00 0.00 0.00 0.00 0.00 0.00 0.00 0.00 0.00
0.00 0.00 0.01 0.01 0.02 0.02 0.00 0.00 0.00 0.00 0.00 0.00 0.00 0.00 0.00 0.00 0.00 0.00 0.00 0.00 0.00 0.00 0.00 0.00 0.00 0.00 0.00 0.00 0.00 0.00 0.00 0.00 0.00 0.00 0.00 0.00 0.00 0.00 0.00 0.00 0.00 0.00 0.00
0.02 0.08 0.05 0.01 0.01 0.02 0.02 0.03 0.02 0.00 0.00 0.00 0.00 0.00 0.00 0.00 0.00 0.00 0.00 0.00 0.00 0.00 0.00 0.00 0.00 0.00 0.00 0.00 0.00 0.00 0.00 0.00 0.00 0.00 0.00 0.00 0.00 0.00 0.00 0.00 0.00 0.00 0.00
0.09 0.13 0.15 0.11 0.10 0.06 0.07 0.11 0.13 0.04 0.01 0.00 0.00 0.00 0.00 0.00 0.00 0.00 0.00 0.00 0.00 0.00 0.00 0.00 0.00 0.00 0.00 0.00 0.00 0.00 0.00 0.00 0.00 0.00 0.00 0.00 0.00 0.00 0.00 0.00 0.00 0.00 0.00
0.12 0.10 0.10 0.14 0.22 0.19 0.14 0.19 0.28 0.21 0.15 0.05 0.02 0.00 0.00 0.00 0.00 0.00 0.00 0.00 0.00 0.00 0.00 0.00 0.00 0.00 0.00 0.00 0.00 0.00 0.00 0.00 0.00 0.00 0.00 0.00 0.00 0.00 0.00 0.00 0.00 0.00 0.00
0.06 0.09 0.10 0.10 0.19 0.23 0.17 0.20 0.13 0.10 0.15 0.13 0.12 0.05 0.01 0.00 0.00 0.00 0.00 0.00 0.00 0.00 0.00 0.00 0.00 0.00 0.00 0.00 0.00 0.00 0.00 0.00 0.00 0.00 0.00 0.00 0.00 0.00 0.00 0.00 0.00 0.00 0.00
0.01 0.02 0.03 0.04 0.06 0.14 0.13 0.16 0.14 0.09 0.06 0.07 0.09 0.06 0.04 0.02 0.00 0.00 0.01 0.00 0.00 0.00 0.00 0.00 0.00 0.00 0.00 0.00 0.00 0.00 0.00 0.00 0.00 0.00 0.00 0.00 0.00 0.00 0.00 0.00 0.00 0.00 0.00
0.00 0.01 0.01 0.01 0.02 0.03 0.09 0.11 0.12 0.09 0.06 0.05 0.05 0.08 0.11 0.09 0.04 0.01 0.05 0.15 0.09 0.00 0.00 0.00 0.00 0.00 0.00 0.00 0.00 0.00 0.00 0.00 0.00 0.00 0.00 0.00 0.00 0.00 0.00 0.00 0.00 0.00 0.00
0.00 0.01 0.01 0.00 0.00 0.03 0.05 0.05 0.04 0.03 0.03 0.06 0.04 0.07 0.07 0.04 0.10 0.17 0.17 0.20 0.24 0.24 0.21 0.02 0.00 0.00 0.00 0.00 0.00 0.00 0.00 0.00 0.00 0.00 0.00 0.00 0.00 0.00 0.00 0.00 0.00 0.01 0.01
0.00 0.00 0.01 0.01 0.00 0.01 0.01 0.01 0.01 0.02 0.02 0.03 0.09 0.07 0.03 0.03 0.18 0.26 0.42 0.58 0.60 0.59 0.17 0.00 0.00 0.00 0.00 0.00 0.00 0.00 0.00 0.00 0.00 0.00 0.00 0.00 0.00 0.00 0.00 0.00 0.01 0.02 0.02
0.00 0.00 0.00 0.01 0.02 0.03 0.03 0.02 0.01 0.01 0.01 0.04 0.08 0.07 0.03 0.03 0.13 0.24 0.49 0.77 0.68 0.34 0.05 0.01 0.01 0.00 0.00 0.00 0.00 0.00 0.00 0.00 0.00 0.00 0.00 0.00 0.00 0.00 0.00 0.00 0.01 0.02 0.02
0.00 0.00 0.00 0.00 0.01 0.03 0.02 0.01 0.00 0.00 0.00 0.00 0.00 0.01 0.03 0.07 0.22 0.30 0.48 0.39 0.14 0.17 0.06 0.10 0.01 0.01 0.00 0.01 0.01 0.01 0.01 0.01 0.00 0.00 0.00 0.00 0.00 0.00 0.01 0.01 0.03 0.05 0.10
0.00 0.00 0.00 0.00 0.00 0.01 0.01 0.01 0.03 0.01 0.00 0.00 0.00 0.01 0.01 0.06 0.16 0.19 0.25 0.23 0.19 0.13 0.13 0.08 0.03 0.02 0.01 0.02 0.02 0.02 0.01 0.01 0.06 0.06 0.09 0.10 0.16 0.22 0.22 0.18 0.18 0.19 0.18
0.00 0.01 0.01 0.00 0.00 0.00 0.00 0.00 0.03 0.04 0.02 0.01 0.01 0.02 0.03 0.11 0.08 0.17 0.26 0.40 0.25 0.17 0.24 0.12 0.12 0.08 0.06 0.06 0.13 0.10 0.12 0.06 0.15 0.42 0.47 0.47 0.46 0.39 0.34 0.32 0.31 0.26 0.25
0.01 0.01 0.02 0.01 0.00 0.00 0.01 0.01 0.01 0.01 0.01 0.02 0.01 0.04 0.09 0.19 0.06 0.09 0.17 0.25 0.24 0.22 0.18 0.11 0.12 0.08 0.09 0.17 0.23 0.22 0.13 0.07 0.36 0.66 0.96 1.17 1.17 1.01 0.91 0.78 0.66 0.60 0.54
0.01 0.00 0.00 0.01 0.00 0.00 0.01 0.00 0.00 0.00 0.01 0.01 0.00 0.01 0.10 0.17 0.06 0.16 0.15 0.15 0.12 0.17 0.25 0.27 0.29 0.25 0.12 0.13 0.12 0.09 0.05 0.06 0.11 0.16 0.44 0.67 0.88 1.15 1.36 1.35 1.19 1.02 0.88
0.02 0.02 0.01 0.01 0.01 0.03 0.02 0.00 0.00 0.02 0.01 0.01 0.01 0.02 0.03 0.05 0.04 0.08 0.13 0.18 0.19 0.19 0.21 0.19 0.18 0.18 0.12 0.13 0.14 0.11 0.06 0.06 0.06 0.07 0.09 0.10 0.16 0.23 0.28 0.27 0.28 0.26 0.28
0.01 0.05 0.04 0.01 0.03 0.03 0.01 0.01 0.01 0.12 0.39 0.42 0.31 0.18 0.12 0.09 0.11 0.12 0.14 0.17 0.20 0.17 0.17 0.14 0.11 0.11 0.11 0.13 0.16 0.17 0.16 0.21 0.23 0.19 0.17 0.20 0.19 0.23 0.15 0.12 0.12 0.10 0.08
0.02 0.06 0.07 0.07 0.08 0.08 0.13 0.11 0.06 0.04 0.04 0.12 0.30 0.36 0.31 0.26 0.23 0.23 0.20 0.20 0.24 0.24 0.23 0.24 0.26 0.26 0.21 0.15 0.12 0.12 0.17 0.20 0.16 0.21 0.20 0.18 0.19 0.19 0.20 0.18 0.16 0.14 0.10
0.08 0.09 0.11 0.13 0.12 0.13 0.24 0.25 0.38 0.47 0.32 0.20 0.21 0.32 0.41 0.35 0.29 0.36 0.45 0.52 0.46 0.42 0.49 0.57 0.59 0.53 0.47 0.45 0.42 0.39 0.33 0.26 0.26 0.28 0.23 0.20 0.22 0.24 0.23 0.20 0.18 0.17 0.16

GFSGL_prec_precacc12_081.txt.gz
Total_Precipitation_Accumulation
0.00 0.00 0.00 0.00 0.00 0.00 0.00 0.00 0.00 0.00 0.00 0.00 0.00 0.12 0.10 0.04 0.02 0.07 0.02 0.02 0.03 0.02 0.00 0.00 0.00 0.00 0.00 0.00 0.00 0.00 0.00 0.00 0.00 0.00 0.00 0.00 0.00 0.00 0.00 0.00 0.00 0.00 0.00
0.00 0.00 0.00 0.00 0.00 0.00 0.00 0.00 0.00 0.00 0.00 0.00 0.02 0.15 0.07 0.03 0.03 0.02 0.01 0.03 0.07 0.02 0.00 0.00 0.00 0.00 0.00 0.00 0.00 0.00 0.00 0.00 0.00 0.00 0.00 0.00 0.00 0.00 0.00 0.00 0.00 0.00 0.00
0.00 0.00 0.00 0.00 0.00 0.00 0.00 0.00 0.00 0.00 0.00 0.00 0.00 0.05 0.07 0.03 0.01 0.00 0.02 0.05 0.01 0.02 0.00 0.00 0.00 0.00 0.00 0.00 0.00 0.00 0.00 0.00 0.00 0.00 0.00 0.00 0.00 0.00 0.00 0.00 0.00 0.00 0.00
0.00 0.00 0.00 0.00 0.00 0.00 0.00 0.00 0.00 0.00 0.00 0.00 0.00 0.00 0.03 0.03 0.02 0.01 0.01 0.12 0.04 0.01 0.01 0.00 0.00 0.00 0.00 0.00 0.00 0.00 0.00 0.00 0.00 0.00 0.00 0.00 0.00 0.00 0.00 0.00 0.00 0.00 0.00
0.01 0.00 0.00 0.00 0.00 0.00 0.00 0.00 0.00 0.00 0.00 0.00 0.00 0.00 0.00 0.00 0.00 0.00 0.00 0.02 0.03 0.03 0.01 0.00 0.00 0.00 0.00 0.00 0.00 0.00 0.01 0.00 0.00 0.00 0.00 0.00 0.00 0.00 0.00 0.00 0.00 0.00 0.00
0.04 0.02 0.01 0.03 0.02 0.01 0.00 0.00 0.00 0.00 0.00 0.00 0.00 0.00 0.00 0.00 0.00 0.00 0.00 0.00 0.00 0.03 0.01 0.00 0.00 0.00 0.00 0.00 0.00 0.00 0.00 0.00 0.00 0.00 0.00 0.00 0.00 0.00 0.00 0.00 0.00 0.00 0.00
0.02 0.04 0.03 0.01 0.02 0.02 0.01 0.00 0.00 0.00 0.00 0.00 0.00 0.00 0.00 0.00 0.00 0.00 0.00 0.00 0.00 0.00 0.01 0.01 0.00 0.00 0.00 0.00 0.00 0.00 0.00 0.00 0.00 0.00 0.00 0.00 0.00 0.00 0.00 0.00 0.00 0.00 0.00
0.01 0.01 0.01 0.02 0.02 0.03 0.03 0.02 0.01 0.00 0.00 0.00 0.00 0.00 0.00 0.00 0.00 0.00 0.00 0.00 0.00 0.00 0.00 0.00 0.00 0.00 0.00 0.00 0.00 0.00 0.00 0.00 0.00 0.00 0.00 0.00 0.00 0.00 0.00 0.00 0.00 0.00 0.00
0.02 0.04 0.04 0.03 0.07 0.04 0.04 0.09 0.11 0.07 0.02 0.01 0.01 0.02 0.02 0.00 0.00 0.00 0.00 0.00 0.00 0.00 0.00 0.00 0.00 0.00 0.00 0.00 0.00 0.00 0.00 0.00 0.00 0.00 0.00 0.00 0.00 0.00 0.00 0.00 0.00 0.00 0.00
0.09 0.11 0.15 0.13 0.11 0.09 0.08 0.15 0.20 0.16 0.12 0.09 0.05 0.04 0.02 0.01 0.00 0.00 0.00 0.00 0.00 0.00 0.00 0.00 0.00 0.00 0.00 0.00 0.00 0.00 0.00 0.00 0.00 0.00 0.00 0.00 0.00 0.00 0.00 0.00 0.00 0.00 0.00
0.09 0.09 0.05 0.06 0.12 0.20 0.19 0.23 0.30 0.27 0.25 0.18 0.15 0.10 0.06 0.04 0.02 0.00 0.00 0.00 0.00 0.00 0.00 0.00 0.00 0.00 0.00 0.00 0.00 0.00 0.00 0.00 0.00 0.00 0.00 0.00 0.00 0.00 0.00 0.00 0.00 0.00 0.00
0.03 0.07 0.09 0.07 0.12 0.21 0.19 0.23 0.16 0.12 0.17 0.21 0.26 0.17 0.16 0.14 0.07 0.01 0.02 0.01 0.01 0.00 0.00 0.00 0.00 0.00 0.00 0.00 0.00 0.00 0.00 0.00 0.00 0.00 0.00 0.00 0.00 0.00 0.00 0.00 0.00 0.00 0.00
0.00 0.01 0.02 0.04 0.05 0.06 0.11 0.17 0.14 0.10 0.08 0.09 0.15 0.14 0.15 0.20 0.13 0.10 0.15 0.14 0.12 0.05 0.00 0.00 0.00 0.00 0.00 0.00 0.00 0.00 0.00 0.00 0.00 0.00 0.00 0.00 0.00 0.00 0.00 0.00 0.00 0.00 0.00
0.00 0.00 0.01 0.01 0.02 0.01 0.01 0.04 0.06 0.05 0.04 0.03 0.06 0.11 0.16 0.19 0.16 0.22 0.35 0.45 0.34 0.12 0.05 0.00 0.00 0.00 0.00 0.00 0.00 0.00 0.00 0.00 0.00 0.00 0.00 0.00 0.00 0.00 0.00 0.00 0.00 0.00 0.00
0.00 0.00 0.01 0.00 0.00 0.00 0.00 0.00 0.01 0.01 0.02 0.04 0.04 0.05 0.07 0.07 0.19 0.41 0.50 0.59 0.60 0.56 0.41 0.03 0.01 0.00 0.00 0.00 0.00 0.00 0.00 0.00 0.00 0.00 0.00 0.00 0.00 0.00 0.00 0.00 0.00 0.00 0.00
0.00 0.00 0.00 0.01 0.00 0.00 0.00 0.00 0.01 0.02 0.01 0.02 0.07 0.06 0.03 0.04 0.21 0.30 0.56 0.82 0.92 0.87 0.54 0.16 0.06 0.03 0.00 0.00 0.00 0.00 0.00 0.00 0.00 0.00 0.00 0.00 0.00 0.00 0.00 0.00 0.00 0.00 0.00
0.00 0.00 0.00 0.00 0.00 0.00 0.00 0.00 0.00 0.01 0.01 0.04 0.07 0.06 0.03 0.04 0.14 0.24 0.51 0.82 0.78 0.39 0.07 0.06 0.06 0.04 0.03 0.05 0.01 0.00 0.00 0.00 0.00 0.00 0.00 0.00 0.00 0.00 0.00 0.00 0.00 0.00 0.01
0.00 0.00 0.00 0.00 0.00 0.00 0.00 0.00 0.00 0.00 0.00 0.00 0.00 0.01 0.03 0.07 0.22 0.31 0.48 0.40 0.13 0.07 0.04 0.04 0.04 0.03 0.04 0.05 0.01 0.00 0.00 0.00 0.00 0.00 0.00 0.00 0.00 0.00 0.01 0.00 0.01 0.03 0.07
0.00 0.00 0.00 0.00 0.00 0.00 0.00 0.00 0.00 0.00 0.00 0.00 0.00 0.00 0.00 0.05 0.16 0.19 0.24 0.18 0.11 0.08 0.05 0.04 0.03 0.05 0.04 0.08 0.10 0.05 0.03 0.01 0.02 0.08 0.06 0.05 0.05 0.03 0.03 0.03 0.05 0.10 0.14
0.00 0.02 0.01 0.00 0.00 0.00 0.00 0.00 0.00 0.01 0.00 0.00 0.00 0.00 0.00 0.02 0.02 0.09 0.14 0.23 0.15 0.04 0.06 0.09 0.13 0.10 0.08 0.10 0.18 0.17 0.16 0.11 0.12 0.14 0.13 0.13 0.14 0.10 0.07 0.10 0.11 0.13 0.21
0.01 0.01 0.02 0.01 0.00 0.01 0.00 0.00 0.01 0.01 0.01 0.01 0.01 0.00 0.01 0.01 0.01 0.03 0.04 0.09 0.12 0.14 0.06 0.05 0.07 0.09 0.09 0.12 0.19 0.20 0.15 0.11 0.08 0.06 0.08 0.12 0.11 0.10 0.18 0.17 0.18 0.21 0.55
0.01 0.01 0.01 0.01 0.01 0.01 0.01 0.00 0.01 0.00 0.00 0.01 0.00 0.00 0.01 0.00 0.01 0.01 0.01 0.01 0.01 0.05 0.10 0.16 0.22 0.25 0.13 0.12 0.13 0.14 0.13 0.14 0.10 0.06 0.04 0.09 0.10 0.10 0.18 0.24 0.49 0.67 0.84
0.02 0.02 0.01 0.01 0.01 0.03 0.03 0.01 0.01 0.00 0.00 0.00 0.00 0.00 0.00 0.00 0.01 0.01 0.01 0.01 0.02 0.04 0.08 0.11 0.13 0.16 0.12 0.13 0.16 0.12 0.08 0.10 0.10 0.12 0.14 0.10 0.10 0.09 0.09 0.11 0.16 0.21 0.29
0.01 0.01 0.02 0.01 0.02 0.03 0.01 0.01 0.01 0.03 0.02 0.01 0.02 0.03 0.04 0.02 0.02 0.02 0.03 0.04 0.05 0.06 0.08 0.08 0.06 0.08 0.10 0.13 0.17 0.18 0.17 0.27 0.29 0.21 0.15 0.17 0.14 0.19 0.12 0.15 0.15 0.13 0.13
0.02 0.02 0.02 0.03 0.03 0.02 0.03 0.02 0.01 0.01 0.01 0.01 0.01 0.02 0.03 0.06 0.07 0.09 0.08 0.09 0.10 0.10 0.09 0.09 0.10 0.16 0.18 0.14 0.12 0.11 0.17 0.21 0.19 0.22 0.18 0.17 0.17 0.17 0.18 0.18 0.16 0.16 0.12
0.07 0.07 0.05 0.05 0.05 0.05 0.03 0.02 0.04 0.09 0.07 0.03 0.03 0.04 0.05 0.09 0.11 0.16 0.18 0.18 0.15 0.14 0.14 0.13 0.14 0.19 0.25 0.29 0.30 0.31 0.27 0.23 0.25 0.28 0.23 0.17 0.17 0.20 0.22 0.19 0.18 0.18 0.17

GFSGL_prec_precacc12_084.txt.gz
Total_Precipitation_Accumulation
0.00 0.00 0.00 0.00 0.00 0.00 0.00 0.00 0.00 0.00 0.03 0.06 0.28 0.16 0.11 0.02 0.02 0.06 0.04 0.05 0.09 0.03 0.02 0.04 0.02 0.00 0.00 0.00 0.00 0.00 0.00 0.00 0.00 0.00 0.00 0.00 0.00 0.00 0.00 0.00 0.00 0.00 0.00
0.00 0.00 0.00 0.00 0.00 0.00 0.00 0.00 0.00 0.00 0.00 0.01 0.03 0.18 0.11 0.06 0.06 0.09 0.02 0.04 0.12 0.05 0.01 0.01 0.01 0.00 0.01 0.00 0.00 0.00 0.00 0.00 0.00 0.00 0.00 0.00 0.00 0.00 0.00 0.00 0.00 0.00 0.00
0.02 0.00 0.00 0.00 0.00 0.00 0.00 0.00 0.00 0.00 0.00 0.00 0.00 0.07 0.09 0.03 0.04 0.04 0.06 0.06 0.05 0.05 0.02 0.03 0.00 0.00 0.02 0.00 0.01 0.00 0.00 0.00 0.00 0.00 0.00 0.00 0.00 0.00 0.00 0.00 0.00 0.00 0.00
0.31 0.35 0.04 0.01 0.00 0.00 0.01 0.01 0.00 0.00 0.00 0.00 0.00 0.00 0.03 0.03 0.02 0.02 0.06 0.18 0.07 0.05 0.04 0.01 0.00 0.00 0.01 0.01 0.00 0.00 0.00 0.00 0.00 0.00 0.00 0.00 0.00 0.00 0.00 0.00 0.00 0.00 0.00
0.14 0.28 0.25 0.09 0.02 0.02 0.02 0.02 0.03 0.01 0.00 0.00 0.00 0.00 0.00 0.00 0.00 0.00 0.00 0.03 0.05 0.04 0.03 0.01 0.00 0.00 0.00 0.00 0.00 0.01 0.01 0.00 0.00 0.00 0.00 0.00 0.00 0.00 0.00 0.00 0.00 0.00 0.00
0.30 0.28 0.29 0.19 0.08 0.08 0.07 0.05 0.04 0.02 0.01 0.01 0.00 0.00 0.00 0.00 0.00 0.00 0.00 0.00 0.02 0.06 0.02 0.00 0.00 0.00 0.00 0.00 0.00 0.00 0.00 0.00 0.00 0.00 0.00 0.00 0.00 0.00 0.00 0.00 0.00 0.00 0.00
0.09 0.09 0.13 0.12 0.12 0.08 0.06 0.08 0.08 0.05 0.02 0.02 0.01 0.01 0.00 0.00 0.00 0.00 0.00 0.00 0.01 0.03 0.03 0.02 0.01 0.00 0.00 0.00 0.00 0.00 0.00 0.00 0.00 0.00 0.00 0.00 0.00 0.00 0.00 0.00 0.00 0.00 0.00
0.08 0.04 0.05 0.08 0.11 0.10 0.08 0.05 0.06 0.07 0.07 0.05 0.02 0.03 0.03 0.00 0.00 0.00 0.00 0.00 0.00 0.00 0.00 0.01 0.01 0.00 0.00 0.01 0.02 0.00 0.00 0.00 0.00 0.00 0.00 0.00 0.00 0.00 0.00 0.00 0.00 0.00 0.00
0.02 0.05 0.05 0.04 0.11 0.10 0.09 0.10 0.13 0.10 0.05 0.04 0.05 0.08 0.06 0.02 0.00 0.00 0.01 0.03 0.00 0.00 0.00 0.00 0.00 0.00 0.00 0.00 0.00 0.00 0.00 0.00 0.00 0.00 0.00 0.00 0.00 0.00 0.00 0.00 0.00 0.00 0.00
0.05 0.10 0.15 0.13 0.11 0.10 0.10 0.14 0.20 0.22 0.23 0.21 0.09 0.09 0.07 0.03 0.02 0.00 0.01 0.01 0.00 0.00 0.00 0.00 0.00 0.00 0.00 0.00 0.00 0.00 0.00 0.00 0.00 0.00 0.00 0.00 0.00 0.00 0.00 0.00 0.00 0.00 0.00
0.01 0.02 0.03 0.05 0.09 0.14 0.15 0.12 0.16 0.22 0.24 0.22 0.20 0.17 0.13 0.11 0.09 0.05 0.04 0.03 0.01 0.00 0.00 0.00 0.00 0.00 0.00 0.00 0.00 0.00 0.00 0.00 0.00 0.00 0.00 0.00 0.00 0.00 0.00 0.00 0.00 0.00 0.00
0.00 0.00 0.02 0.03 0.03 0.07 0.15 0.17 0.15 0.12 0.16 0.20 0.26 0.19 0.23 0.31 0.29 0.22 0.26 0.24 0.20 0.10 0.03 0.02 0.01 0.02 0.00 0.00 0.00 0.00 0.00 0.00 0.00 0.00 0.00 0.00 0.00 0.00 0.00 0.00 0.00 0.00 0.00
0.00 0.00 0.00 0.00 0.02 0.04 0.10 0.17 0.13 0.08 0.07 0.08 0.15 0.14 0.15 0.23 0.22 0.36 0.49 0.33 0.28 0.17 0.10 0.04 0.01 0.03 0.04 0.01 0.00 0.00 0.00 0.00 0.00 0.00 0.00 0.00 0.00 0.00 0.00 0.00 0.00 0.00 0.00
0.00 0.00 0.00 0.00 0.00 0.00 0.01 0.03 0.06 0.04 0.02 0.03 0.06 0.11 0.15 0.21 0.21 0.31 0.50 0.57 0.54 0.27 0.20 0.07 0.01 0.00 0.01 0.01 0.01 0.00 0.00 0.00 0.00 0.00 0.00 0.00 0.00 0.00 0.00 0.00 0.00 0.00 0.00
0.00 0.00 0.00 0.00 0.00 0.00 0.00 0.00 0.01 0.01 0.02 0.03 0.04 0.04 0.06 0.08 0.20 0.38 0.48 0.62 0.69 0.66 0.46 0.13 0.08 0.03 0.01 0.00 0.00 0.01 0.01 0.00 0.00 0.00 0.00 0.00 0.00 0.00 0.00 0.00 0.00 0.00 0.00
0.00 0.00 0.00 0.00 0.00 0.00 0.00 0.00 0.00 0.00 0.00 0.00 0.04 0.04 0.02 0.04 0.14 0.22 0.46 0.75 0.85 0.83 0.58 0.41 0.49 0.28 0.12 0.11 0.10 0.07 0.07 0.04 0.01 0.02 0.00 0.01 0.01 0.00 0.00 0.00 0.00 0.00 0.00
0.00 0.00 0.00 0.00 0.00 0.00 0.00 0.00 0.00 0.00 0.00 0.00 0.02 0.04 0.03 0.04 0.13 0.22 0.43 0.64 0.71 0.36 0.10 0.13 0.15 0.13 0.14 0.24 0.26 0.23 0.16 0.06 0.07 0.11 0.12 0.07 0.02 0.00 0.00 0.00 0.00 0.00 0.00
0.00 0.00 0.00 0.00 0.00 0.00 0.00 0.00 0.00 0.00 0.00 0.00 0.00 0.01 0.02 0.07 0.20 0.27 0.42 0.33 0.12 0.07 0.04 0.04 0.05 0.04 0.04 0.07 0.14 0.19 0.14 0.12 0.20 0.24 0.22 0.08 0.08 0.12 0.08 0.06 0.04 0.02 0.01
0.00 0.00 0.00 0.00 0.00 0.00 0.00 0.00 0.00 0.00 0.00 0.00 0.00 0.00 0.00 0.04 0.13 0.16 0.24 0.17 0.11 0.06 0.03 0.02 0.01 0.05 0.05 0.12 0.14 0.15 0.18 0.44 0.57 0.78 0.43 0.18 0.16 0.15 0.12 0.11 0.09 0.16 0.17
0.00 0.01 0.01 0.00 0.00 0.00 0.00 0.00 0.00 0.00 0.00 0.00 0.00 0.00 0.00 0.00 0.01 0.05 0.10 0.18 0.14 0.03 0.01 0.02 0.04 0.05 0.08 0.14 0.19 0.24 0.24 0.25 0.29 0.38 0.35 0.27 0.24 0.24 0.18 0.22 0.27 0.27 0.25
0.00 0.01 0.01 0.01 0.00 0.00 0.00 0.01 0.01 0.00 0.00 0.00 0.00 0.00 0.00 0.01 0.01 0.01 0.02 0.06 0.12 0.13 0.05 0.01 0.02 0.05 0.08 0.12 0.22 0.28 0.23 0.24 0.32 0.26 0.24 0.26 0.28 0.25 0.33 0.22 0.22 0.28 0.28
0.01 0.01 0.01 0.01 0.01 0.01 0.01 0.01 0.01 0.01 0.00 0.00 0.00 0.00 0.00 0.00 0.01 0.01 0.01 0.01 0.01 0.04 0.10 0.14 0.18 0.19 0.12 0.11 0.13 0.18 0.22 0.26 0.30 0.37 0.33 0.35 0.30 0.26 0.36 0.32 0.24 0.21 0.20
0.02 0.02 0.01 0.01 0.01 0.03 0.03 0.01 0.01 0.01 0.01 0.00 0.00 0.00 0.00 0.00 0.01 0.01 0.01 0.01 0.00 0.00 0.01 0.03 0.05 0.07 0.04 0.06 0.11 0.11 0.09 0.11 0.13 0.19 0.26 0.28 0.30 0.32 0.30 0.25 0.22 0.14 0.11
0.01 0.01 0.02 0.01 0.02 0.03 0.01 0.01 0.01 0.03 0.02 0.01 0.01 0.01 0.01 0.02 0.02 0.02 0.01 0.01 0.01 0.01 0.01 0.01 0.01 0.00 0.00 0.01 0.06 0.10 0.12 0.24 0.28 0.22 0.17 0.19 0.17 0.24 0.15 0.16 0.17 0.13 0.14
0.02 0.02 0.02 0.02 0.03 0.02 0.03 0.02 0.01 0.01 0.01 0.01 0.01 0.01 0.01 0.01 0.02 0.04 0.03 0.02 0.02 0.03 0.02 0.02 0.02 0.02 0.02 0.02 0.02 0.03 0.12 0.18 0.18 0.22 0.19 0.17 0.17 0.17 0.16 0.15 0.14 0.14 0.12
0.03 0.04 0.04 0.04 0.03 0.03 0.02 0.02 0.02 0.02 0.01 0.01 0.02 0.03 0.02 0.02 0.03 0.04 0.04 0.05 0.05 0.04 0.05 0.06 0.06 0.07 0.07 0.06 0.08 0.10 0.10 0.08 0.11 0.14 0.13 0.09 0.10 0.14 0.16 0.16 0.15 0.14 0.15

GFSGL_prec_precacc12_087.txt.gz
Total_Precipitation_Accumulation
0.00 0.01 0.01 0.00 0.01 0.01 0.00 0.00 0.00 0.01 0.04 0.07 0.29 0.16 0.12 0.03 0.02 0.05 0.04 0.05 0.09 0.03 0.02 0.04 0.02 0.00 0.00 0.00 0.00 0.00 0.00 0.00 0.00 0.00 0.00 0.00 0.00 0.00 0.00 0.00 0.00 0.00 0.00
0.03 0.00 0.00 0.00 0.00 0.00 0.00 0.00 0.00 0.00 0.00 0.01 0.04 0.19 0.12 0.06 0.07 0.09 0.02 0.03 0.09 0.04 0.01 0.01 0.01 0.00 0.01 0.00 0.00 0.00 0.00 0.00 0.00 0.00 0.00 0.00 0.00 0.00 0.00 0.00 0.00 0.00 0.00
0.21 0.16 0.15 0.06 0.02 0.00 0.00 0.00 0.00 0.00 0.00 0.00 0.00 0.07 0.09 0.03 0.04 0.04 0.05 0.04 0.05 0.04 0.03 0.03 0.00 0.00 0.02 0.00 0.01 0.00 0.00 0.00 0.00 0.00 0.00 0.00 0.00 0.00 0.00 0.00 0.00 0.00 0.00
0.50 0.66 0.35 0.24 0.15 0.06 0.04 0.02 0.00 0.00 0.00 0.00 0.00 0.00 0.03 0.03 0.02 0.02 0.06 0.18 0.07 0.05 0.04 0.01 0.00 0.00 0.01 0.01 0.00 0.00 0.00 0.00 0.00 0.00 0.00 0.00 0.00 0.00 0.00 0.00 0.00 0.00 0.00
0.45 0.81 0.86 0.49 0.35 0.23 0.16 0.11 0.12 0.07 0.01 0.00 0.00 0.00 0.00 0.00 0.00 0.00 0.01 0.03 0.05 0.05 0.03 0.01 0.00 0.00 0.00 0.00 0.00 0.01 0.01 0.00 0.00 0.00 0.00 0.00 0.00 0.00 0.00 0.00 0.00 0.00 0.00
0.57 0.57 0.47 0.42 0.47 0.36 0.21 0.12 0.08 0.07 0.08 0.08 0.03 0.02 0.00 0.00 0.00 0.00 0.00 0.00 0.02 0.06 0.02 0.00 0.00 0.00 0.00 0.00 0.00 0.00 0.00 0.00 0.00 0.00 0.00 0.00 0.00 0.00 0.00 0.00 0.00 0.00 0.00
0.21 0.32 0.27 0.38 0.37 0.41 0.38 0.27 0.27 0.18 0.06 0.05 0.07 0.07 0.03 0.03 0.03 0.01 0.00 0.00 0.01 0.04 0.04 0.02 0.01 0.00 0.00 0.00 0.00 0.00 0.00 0.00 0.00 0.00 0.00 0.00 0.00 0.00 0.00 0.00 0.00 0.00 0.00
0.09 0.06 0.06 0.11 0.22 0.23 0.27 0.16 0.15 0.17 0.15 0.09 0.05 0.07 0.07 0.04 0.06 0.08 0.14 0.04 0.00 0.00 0.00 0.01 0.01 0.00 0.00 0.01 0.02 0.00 0.00 0.00 0.00 0.00 0.00 0.00 0.00 0.00 0.00 0.00 0.00 0.00 0.00
0.02 0.05 0.06 0.04 0.12 0.13 0.18 0.21 0.19 0.13 0.07 0.06 0.07 0.09 0.10 0.06 0.07 0.07 0.15 0.23 0.05 0.00 0.00 0.00 0.00 0.00 0.00 0.00 0.00 0.00 0.00 0.00 0.00 0.00 0.00 0.00 0.00 0.00 0.00 0.00 0.00 0.00 0.00
0.03 0.08 0.14 0.13 0.11 0.09 0.10 0.16 0.21 0.24 0.25 0.24 0.13 0.11 0.07 0.05 0.12 0.13 0.14 0.06 0.02 0.00 0.00 0.01 0.01 0.00 0.00 0.00 0.00 0.00 0.00 0.00 0.00 0.00 0.00 0.00 0.00 0.00 0.00 0.00 0.00 0.00 0.00
0.00 0.00 0.00 0.04 0.08 0.13 0.13 0.11 0.15 0.20 0.23 0.24 0.23 0.21 0.15 0.16 0.16 0.23 0.19 0.12 0.09 0.07 0.05 0.02 0.00 0.01 0.00 0.00 0.00 0.00 0.00 0.00 0.00 0.00 0.00 0.00 0.00 0.00 0.00 0.00 0.00 0.00 0.00
0.00 0.00 0.00 0.00 0.00 0.03 0.09 0.10 0.07 0.11 0.15 0.20 0.25 0.19 0.26 0.35 0.30 0.24 0.29 0.25 0.25 0.12 0.04 0.09 0.10 0.04 0.04 0.00 0.00 0.00 0.00 0.00 0.00 0.00 0.00 0.00 0.00 0.00 0.00 0.00 0.00 0.00 0.00
0.00 0.00 0.00 0.00 0.00 0.00 0.03 0.07 0.08 0.08 0.06 0.08 0.15 0.14 0.15 0.23 0.22 0.36 0.53 0.42 0.37 0.24 0.14 0.08 0.09 0.08 0.05 0.01 0.00 0.00 0.00 0.00 0.00 0.00 0.00 0.00 0.00 0.00 0.00 0.00 0.00 0.00 0.00
0.00 0.00 0.00 0.00 0.00 0.00 0.00 0.00 0.01 0.02 0.02 0.02 0.06 0.11 0.15 0.21 0.21 0.31 0.50 0.56 0.52 0.29 0.26 0.14 0.05 0.01 0.01 0.01 0.01 0.00 0.00 0.00 0.00 0.00 0.00 0.00 0.00 0.00 0.00 0.00 0.00 0.00 0.00
0.00 0.00 0.00 0.00 0.00 0.00 0.00 0.00 0.00 0.00 0.01 0.02 0.03 0.04 0.06 0.08 0.20 0.38 0.46 0.59 0.63 0.61 0.43 0.14 0.09 0.03 0.01 0.00 0.00 0.01 0.01 0.00 0.00 0.00 0.00 0.00 0.00 0.00 0.00 0.00 0.00 0.00 0.00
0.00 0.00 0.00 0.00 0.00 0.00 0.00 0.00 0.00 0.00 0.00 0.00 0.01 0.02 0.02 0.04 0.13 0.18 0.27 0.59 0.69 0.73 0.57 0.41 0.49 0.28 0.12 0.11 0.10 0.07 0.07 0.04 0.01 0.04 0.04 0.06 0.05 0.06 0.02 0.01 0.00 0.00 0.00
0.00 0.00 0.00 0.00 0.00 0.00 0.00 0.00 0.00 0.00 0.00 0.00 0.00 0.00 0.01 0.02 0.04 0.08 0.15 0.39 0.51 0.28 0.10 0.13 0.15 0.13 0.14 0.24 0.26 0.23 0.16 0.06 0.11 0.17 0.18 0.18 0.16 0.13 0.12 0.08 0.07 0.05 0.00
0.00 0.00 0.00 0.00 0.00 0.00 0.00 0.00 0.00 0.00 0.00 0.00 0.00 0.00 0.00 0.00 0.02 0.04 0.18 0.24 0.08 0.06 0.04 0.04 0.05 0.04 0.04 0.07 0.14 0.19 0.15 0.13 0.23 0.33 0.37 0.28 0.34 0.37 0.29 0.22 0.19 0.14 0.08
0.00 0.00 0.00 0.00 0.00 0.00 0.00 0.00 0.00 0.00 0.00 0.00 0.00 0.00 0.00 0.00 0.00 0.01 0.07 0.12 0.09 0.05 0.02 0.02 0.01 0.05 0.05 0.13 0.14 0.16 0.22 0.54 0.71 1.02 1.20 1.10 1.10 1.16 1.04 0.90 0.80 0.48 0.36
0.00 0.00 0.00 0.00 0.00 0.00 0.00 0.00 0.00 0.00 0.00 0.00 0.00 0.00 0.00 0.00 0.00 0.00 0.00 0.07 0.08 0.02 0.01 0.02 0.03 0.05 0.08 0.14 0.19 0.25 0.27 0.27 0.32 0.50 0.65 0.51 0.40 0.48 0.43 0.46 0.58 0.57 0.50
0.00 0.00 0.00 0.00 0.00 0.00 0.00 0.00 0.00 0.00 0.00 0.00 0.00 0.00 0.00 0.00 0.00 0.00 0.00 0.00 0.04 0.06 0.03 0.01 0.02 0.04 0.08 0.12 0.22 0.28 0.25 0.29 0.36 0.34 0.41 0.47 0.50 0.47 0.60 0.52 0.38 0.46 0.51
0.01 0.01 0.01 0.01 0.00 0.01 0.01 0.01 0.01 0.01 0.00 0.00 0.00 0.00 0.00 0.00 0.00 0.00 0.00 0.01 0.01 0.02 0.06 0.12 0.13 0.11 0.10 0.10 0.13 0.18 0.22 0.26 0.32 0.42 0.41 0.47 0.47 0.48 0.64 0.61 0.47 0.41 0.46
0.02 0.01 0.01 0.01 0.01 0.02 0.02 0.01 0.01 0.01 0.01 0.00 0.00 0.00 0.01 0.01 0.01 0.01 0.01 0.01 0.00 0.00 0.01 0.03 0.05 0.06 0.04 0.05 0.09 0.07 0.05 0.08 0.09 0.15 0.23 0.30 0.36 0.43 0.46 0.44 0.41 0.32 0.27
0.01 0.01 0.01 0.01 0.02 0.02 0.01 0.01 0.01 0.02 0.02 0.01 0.01 0.01 0.01 0.01 0.01 0.01 0.01 0.00 0.00 0.00 0.00 0.00 0.00 0.00 0.00 0.01 0.04 0.08 0.10 0.13 0.13 0.12 0.14 0.16 0.15 0.24 0.18 0.24 0.29 0.31 0.33
0.01 0.02 0.02 0.02 0.02 0.02 0.03 0.02 0.01 0.01 0.01 0.01 0.01 0.01 0.01 0.01 0.01 0.01 0.00 0.00 0.01 0.01 0.01 0.00 0.01 0.00 0.00 0.00 0.01 0.02 0.08 0.11 0.10 0.13 0.10 0.10 0.12 0.14 0.14 0.14 0.15 0.18 0.17
0.01 0.02 0.02 0.02 0.02 0.02 0.02 0.02 0.01 0.02 0.01 0.01 0.01 0.01 0.01 0.01 0.01 0.01 0.01 0.01 0.01 0.01 0.02 0.02 0.01 0.01 0.01 0.00 0.02 0.05 0.05 0.04 0.06 0.08 0.07 0.04 0.04 0.06 0.07 0.10 0.12 0.12 0.11

GFSGL_prec_precacc12_090.txt.gz
Total_Precipitation_Accumulation
0.01 0.01 0.01 0.01 0.02 0.01 0.01 0.02 0.00 0.01 0.04 0.08 0.29 0.09 0.03 0.01 0.02 0.05 0.03 0.05 0.07 0.02 0.02 0.04 0.02 0.00 0.00 0.00 0.00 0.00 0.00 0.00 0.00 0.00 0.00 0.00 0.00 0.00 0.00 0.00 0.00 0.00 0.00
0.14 0.08 0.04 0.05 0.05 0.01 0.00 0.00 0.00 0.00 0.00 0.02 0.04 0.08 0.05 0.03 0.04 0.07 0.01 0.02 0.05 0.03 0.00 0.01 0.01 0.00 0.01 0.00 0.00 0.00 0.00 0.00 0.00 0.00 0.00 0.00 0.00 0.00 0.00 0.00 0.00 0.00 0.00
0.28 0.30 0.31 0.24 0.18 0.11 0.04 0.03 0.02 0.01 0.00 0.00 0.00 0.04 0.02 0.01 0.03 0.04 0.05 0.02 0.04 0.03 0.02 0.03 0.00 0.00 0.02 0.00 0.01 0.00 0.00 0.00 0.00 0.00 0.00 0.00 0.00 0.00 0.00 0.00 0.00 0.00 0.00
0.64 0.89 0.59 0.40 0.25 0.15 0.14 0.13 0.10 0.06 0.02 0.00 0.00 0.00 0.01 0.00 0.00 0.00 0.07 0.16 0.05 0.03 0.03 0.01 0.00 0.00 0.01 0.01 0.00 0.00 0.00 0.00 0.00 0.00 0.00 0.00 0.00 0.00 0.00 0.00 0.00 0.00 0.00
0.60 0.99 1.07 0.70 0.51 0.33 0.25 0.22 0.24 0.23 0.15 0.08 0.02 0.00 0.00 0.00 0.00 0.00 0.01 0.02 0.04 0.03 0.02 0.02 0.00 0.00 0.00 0.00 0.00 0.01 0.01 0.00 0.00 0.00 0.00 0.00 0.00 0.00 0.00 0.00 0.00 0.00 0.00
0.65 0.72 0.60 0.47 0.52 0.53 0.48 0.40 0.19 0.14 0.18 0.16 0.06 0.09 0.05 0.01 0.04 0.05 0.02 0.00 0.02 0.05 0.01 0.00 0.00 0.00 0.00 0.00 0.00 0.00 0.01 0.00 0.00 0.00 0.00 0.00 0.00 0.00 0.00 0.00 0.00 0.00 0.00
0.29 0.60 0.69 0.62 0.64 0.58 0.54 0.52 0.50 0.44 0.24 0.22 0.21 0.18 0.12 0.11 0.10 0.07 0.06 0.02 0.01 0.04 0.04 0.02 0.01 0.00 0.00 0.00 0.00 0.00 0.00 0.00 0.00 0.00 0.00 0.00 0.00 0.00 0.00 0.00 0.00 0.00 0.00
0.10 0.14 0.33 0.32 0.48 0.53 0.51 0.31 0.36 0.35 0.31 0.19 0.17 0.17 0.16 0.09 0.10 0.15 0.31 0.10 0.00 0.00 0.00 0.01 0.01 0.00 0.00 0.01 0.02 0.00 0.00 0.00 0.00 0.00 0.00 0.00 0.00 0.00 0.00 0.00 0.00 0.00 0.00
0.01 0.02 0.02 0.04 0.13 0.16 0.28 0.37 0.30 0.34 0.27 0.20 0.17 0.21 0.15 0.11 0.17 0.10 0.19 0.32 0.08 0.00 0.00 0.00 0.00 0.00 0.00 0.00 0.01 0.00 0.00 0.00 0.00 0.00 0.00 0.00 0.00 0.00 0.01 0.00 0.00 0.00 0.00
0.00 0.03 0.05 0.05 0.07 0.08 0.07 0.11 0.18 0.26 0.30 0.27 0.16 0.13 0.08 0.05 0.15 0.16 0.16 0.06 0.02 0.03 0.02 0.04 0.07 0.01 0.00 0.00 0.00 0.00 0.00 0.00 0.00 0.00 0.00 0.00 0.00 0.00 0.00 0.00 0.00 0.00 0.00
0.00 0.00 0.00 0.01 0.02 0.04 0.06 0.06 0.04 0.09 0.15 0.20 0.23 0.21 0.15 0.16 0.18 0.34 0.28 0.21 0.14 0.11 0.07 0.03 0.03 0.02 0.05 0.08 0.03 0.00 0.00 0.00 0.00 0.00 0.00 0.00 0.00 0.00 0.00 0.00 0.00 0.00 0.00
0.00 0.00 0.00 0.00 0.00 0.01 0.02 0.03 0.03 0.03 0.04 0.09 0.14 0.15 0.26 0.35 0.31 0.28 0.33 0.28 0.26 0.13 0.05 0.09 0.14 0.12 0.16 0.16 0.12 0.08 0.06 0.01 0.00 0.00 0.00 0.00 0.00 0.00 0.00 0.00 0.00 0.00 0.00
0.00 0.00 0.00 0.00 0.00 0.00 0.00 0.01 0.02 0.03 0.04 0.04 0.06 0.08 0.11 0.22 0.22 0.36 0.52 0.41 0.37 0.24 0.14 0.08 0.11 0.15 0.11 0.07 0.07 0.04 0.03 0.00 0.00 0.00 0.00 0.00 0.00 0.00 0.00 0.00 0.00 0.00 0.00
0.00 0.00 0.00 0.00 0.00 0.00 0.00 0.00 0.00 0.00 0.00 0.01 0.02 0.04 0.07 0.12 0.16 0.31 0.46 0.42 0.46 0.29 0.26 0.14 0.04 0.01 0.01 0.01 0.03 0.01 0.00 0.00 0.00 0.00 0.00 0.00 0.00 0.00 0.00 0.00 0.00 0.00 0.00
0.00 0.00 0.00 0.00 0.00 0.00 0.00 0.00 0.00 0.00 0.00 0.00 0.00 0.00 0.02 0.04 0.12 0.27 0.36 0.45 0.48 0.45 0.34 0.13 0.09 0.03 0.01 0.00 0.00 0.01 0.01 0.01 0.02 0.04 0.03 0.05 0.04 0.02 0.00 0.02 0.00 0.00 0.00
0.00 0.00 0.00 0.00 0.00 0.00 0.00 0.00 0.00 0.00 0.00 0.00 0.00 0.00 0.00 0.01 0.03 0.07 0.15 0.26 0.37 0.36 0.48 0.41 0.49 0.28 0.12 0.11 0.10 0.07 0.07 0.04 0.01 0.05 0.06 0.10 0.08 0.09 0.05 0.06 0.06 0.03 0.00
0.00 0.00 0.00 0.00 0.00 0.00 0.00 0.00 0.00 0.00 0.00 0.00 0.00 0.00 0.00 0.00 0.01 0.02 0.05 0.07 0.12 0.13 0.09 0.12 0.15 0.13 0.14 0.24 0.25 0.23 0.16 0.06 0.10 0.17 0.18 0.18 0.17 0.15 0.14 0.12 0.12 0.11 0.06
0.00 0.00 0.00 0.00 0.00 0.00 0.00 0.00 0.00 0.00 0.00 0.00 0.00 0.00 0.00 0.00 0.00 0.00 0.00 0.02 0.04 0.05 0.03 0.04 0.04 0.03 0.04 0.07 0.14 0.19 0.15 0.13 0.23 0.34 0.39 0.30 0.35 0.39 0.31 0.24 0.23 0.20 0.17
0.00 0.00 0.00 0.00 0.00 0.00 0.00 0.00 0.00 0.00 0.00 0.00 0.00 0.00 0.00 0.00 0.00 0.00 0.00 0.00 0.00 0.01 0.01 0.01 0.01 0.04 0.05 0.13 0.15 0.16 0.22 0.55 0.72 1.04 1.22 1.12 1.11 1.17 1.06 0.93 0.95 1.00 0.71
0.00 0.00 0.00 0.00 0.00 0.00 0.00 0.00 0.00 0.00 0.00 0.00 0.00 0.00 0.00 0.00 0.00 0.00 0.00 0.00 0.00 0.00 0.01 0.02 0.03 0.05 0.07 0.13 0.18 0.25 0.24 0.25 0.31 0.50 0.65 0.52 0.41 0.49 0.46 0.47 0.61 0.79 0.80
0.00 0.00 0.00 0.00 0.00 0.00 0.00 0.00 0.00 0.00 0.00 0.00 0.00 0.00 0.00 0.00 0.00 0.00 0.00 0.00 0.00 0.00 0.00 0.00 0.01 0.04 0.07 0.10 0.17 0.22 0.21 0.25 0.34 0.33 0.40 0.47 0.52 0.50 0.65 0.68 0.71 0.88 0.98
0.00 0.00 0.00 0.00 0.00 0.00 0.01 0.00 0.00 0.00 0.00 0.00 0.00 0.00 0.00 0.00 0.00 0.00 0.00 0.00 0.00 0.00 0.00 0.01 0.01 0.03 0.05 0.06 0.08 0.14 0.20 0.23 0.31 0.41 0.40 0.46 0.46 0.49 0.67 0.66 0.56 0.51 0.59
0.00 0.00 0.00 0.00 0.01 0.01 0.02 0.01 0.01 0.01 0.01 0.00 0.00 0.00 0.01 0.01 0.00 0.00 0.00 0.00 0.00 0.00 0.00 0.01 0.00 0.01 0.01 0.01 0.02 0.02 0.03 0.05 0.08 0.13 0.21 0.29 0.33 0.40 0.44 0.43 0.40 0.34 0.33
0.00 0.00 0.01 0.01 0.01 0.01 0.01 0.01 0.01 0.02 0.02 0.01 0.01 0.01 0.01 0.01 0.01 0.01 0.01 0.00 0.00 0.00 0.00 0.00 0.00 0.00 0.00 0.00 0.00 0.02 0.02 0.07 0.07 0.06 0.06 0.08 0.08 0.15 0.14 0.20 0.26 0.29 0.32
0.00 0.00 0.00 0.01 0.01 0.01 0.02 0.02 0.01 0.01 0.01 0.01 0.01 0.01 0.01 0.01 0.01 0.01 0.01 0.01 0.01 0.01 0.01 0.01 0.01 0.01 0.00 0.00 0.00 0.01 0.03 0.06 0.06 0.09 0.08 0.06 0.05 0.05 0.06 0.05 0.06 0.10 0.11
0.00 0.01 0.00 0.01 0.01 0.01 0.01 0.01 0.01 0.02 0.01 0.01 0.01 0.01 0.01 0.01 0.01 0.01 0.01 0.01 0.01 0.01 0.01 0.01 0.01 0.01 0.01 0.00 0.01 0.03 0.03 0.01 0.01 0.02 0.02 0.01 0.00 0.00 0.01 0.01 0.03 0.04 0.05

GFSGL_prec_precacc12_093.txt.gz
Total_Precipitation_Accumulation
0.01 0.01 0.01 0.01 0.02 0.02 0.01 0.02 0.00 0.01 0.05 0.08 0.29 0.04 0.03 0.01 0.02 0.03 0.03 0.03 0.07 0.02 0.02 0.04 0.02 0.00 0.00 0.00 0.00 0.00 0.00 0.00 0.00 0.00 0.00 0.00 0.00 0.00 0.00 0.00 0.00 0.00 0.00
0.16 0.09 0.05 0.05 0.05 0.01 0.03 0.00 0.00 0.01 0.03 0.06 0.05 0.10 0.05 0.03 0.04 0.07 0.01 0.02 0.05 0.03 0.01 0.03 0.02 0.00 0.00 0.00 0.00 0.00 0.00 0.00 0.00 0.00 0.00 0.00 0.00 0.00 0.00 0.00 0.00 0.00 0.00
0.31 0.33 0.34 0.26 0.19 0.11 0.06 0.07 0.04 0.04 0.02 0.02 0.01 0.03 0.03 0.01 0.03 0.05 0.08 0.11 0.07 0.03 0.02 0.04 0.01 0.00 0.02 0.00 0.01 0.00 0.00 0.00 0.00 0.00 0.00 0.00 0.00 0.00 0.00 0.00 0.00 0.00 0.00
0.74 0.92 0.60 0.41 0.25 0.15 0.16 0.20 0.14 0.07 0.04 0.01 0.00 0.00 0.00 0.00 0.00 0.00 0.06 0.11 0.04 0.04 0.04 0.01 0.01 0.02 0.03 0.03 0.00 0.00 0.00 0.00 0.00 0.00 0.00 0.00 0.00 0.00 0.00 0.00 0.00 0.00 0.00
0.80 1.03 1.11 0.77 0.54 0.40 0.34 0.33 0.35 0.29 0.17 0.10 0.04 0.00 0.00 0.00 0.00 0.00 0.01 0.02 0.04 0.04 0.02 0.03 0.03 0.04 0.03 0.04 0.03 0.02 0.01 0.00 0.00 0.00 0.00 0.00 0.00 0.00 0.00 0.00 0.00 0.00 0.00
0.76 0.77 0.62 0.46 0.52 0.64 0.59 0.57 0.37 0.35 0.37 0.29 0.13 0.19 0.12 0.03 0.05 0.06 0.02 0.00 0.02 0.03 0.04 0.04 0.02 0.01 0.01 0.01 0.01 0.01 0.03 0.01 0.00 0.00 0.00 0.00 0.00 0.00 0.00 0.00 0.00 0.00 0.00
0.30 0.62 0.74 0.68 0.67 0.60 0.58 0.62 0.64 0.68 0.42 0.44 0.37 0.37 0.23 0.26 0.16 0.12 0.09 0.02 0.04 0.05 0.03 0.02 0.01 0.00 0.00 0.00 0.01 0.02 0.00 0.00 0.01 0.00 0.00 0.00 0.00 0.00 0.00 0.00 0.00 0.00 0.00
0.10 0.14 0.38 0.55 0.75 0.65 0.57 0.36 0.43 0.44 0.39 0.31 0.32 0.33 0.39 0.29 0.24 0.29 0.47 0.16 0.04 0.03 0.01 0.01 0.01 0.00 0.00 0.02 0.03 0.00 0.00 0.00 0.00 0.00 0.00 0.00 0.00 0.00 0.00 0.00 0.00 0.00 0.00
0.01 0.02 0.03 0.04 0.18 0.25 0.33 0.40 0.28 0.34 0.28 0.22 0.29 0.37 0.31 0.27 0.25 0.17 0.23 0.41 0.11 0.04 0.07 0.05 0.01 0.00 0.02 0.02 0.01 0.00 0.00 0.00 0.00 0.00 0.00 0.00 0.00 0.00 0.01 0.00 0.00 0.00 0.00
0.00 0.00 0.00 0.00 0.02 0.06 0.07 0.11 0.13 0.14 0.20 0.19 0.13 0.12 0.16 0.19 0.22 0.21 0.17 0.08 0.03 0.04 0.09 0.13 0.12 0.02 0.01 0.01 0.01 0.00 0.00 0.00 0.00 0.00 0.00 0.00 0.00 0.00 0.00 0.00 0.00 0.00 0.00
0.00 0.00 0.00 0.00 0.00 0.00 0.01 0.02 0.02 0.03 0.05 0.09 0.11 0.14 0.13 0.16 0.19 0.35 0.28 0.21 0.14 0.12 0.13 0.15 0.09 0.11 0.14 0.15 0.07 0.01 0.01 0.00 0.00 0.00 0.00 0.00 0.00 0.00 0.00 0.00 0.00 0.00 0.00
0.00 0.00 0.00 0.00 0.00 0.00 0.00 0.00 0.00 0.01 0.01 0.00 0.00 0.03 0.12 0.21 0.24 0.29 0.32 0.27 0.26 0.14 0.06 0.12 0.15 0.18 0.27 0.25 0.20 0.19 0.15 0.04 0.01 0.00 0.00 0.00 0.00 0.00 0.00 0.00 0.00 0.00 0.00
0.00 0.00 0.00 0.00 0.00 0.00 0.00 0.00 0.00 0.00 0.00 0.00 0.00 0.00 0.00 0.03 0.09 0.27 0.38 0.28 0.26 0.19 0.14 0.08 0.12 0.15 0.11 0.08 0.09 0.08 0.07 0.02 0.01 0.00 0.00 0.00 0.00 0.00 0.00 0.00 0.00 0.00 0.00
0.00 0.00 0.00 0.00 0.00 0.00 0.00 0.00 0.00 0.00 0.00 0.00 0.00 0.00 0.00 0.01 0.04 0.09 0.16 0.12 0.20 0.17 0.22 0.14 0.04 0.01 0.01 0.01 0.03 0.02 0.01 0.00 0.00 0.00 0.00 0.00 0.00 0.00 0.00 0.04 0.00 0.02 0.00
0.00 0.00 0.00 0.00 0.00 0.00 0.00 0.00 0.00 0.00 0.00 0.00 0.00 0.00 0.00 0.01 0.03 0.03 0.02 0.06 0.13 0.12 0.12 0.12 0.08 0.03 0.01 0.00 0.00 0.01 0.01 0.01 0.02 0.04 0.03 0.05 0.04 0.02 0.00 0.03 0.00 0.01 0.00
0.00 0.00 0.00 0.00 0.00 0.00 0.00 0.00 0.00 0.00 0.00 0.00 0.00 0.00 0.00 0.00 0.00 0.00 0.00 0.01 0.05 0.07 0.08 0.25 0.44 0.25 0.11 0.11 0.10 0.07 0.07 0.04 0.01 0.05 0.06 0.10 0.08 0.10 0.05 0.06 0.06 0.03 0.00
0.00 0.00 0.00 0.00 0.00 0.00 0.00 0.00 0.00 0.00 0.00 0.00 0.00 0.00 0.00 0.00 0.00 0.00 0.00 0.00 0.00 0.01 0.03 0.07 0.09 0.09 0.10 0.20 0.25 0.23 0.16 0.06 0.10 0.18 0.19 0.19 0.17 0.15 0.14 0.12 0.13 0.12 0.07
0.00 0.00 0.00 0.00 0.00 0.00 0.00 0.00 0.00 0.00 0.00 0.00 0.00 0.00 0.00 0.00 0.00 0.00 0.00 0.00 0.00 0.00 0.00 0.00 0.01 0.00 0.01 0.03 0.13 0.19 0.15 0.13 0.24 0.35 0.40 0.31 0.36 0.40 0.32 0.25 0.24 0.21 0.17
0.00 0.00 0.00 0.00 0.00 0.00 0.00 0.00 0.00 0.00 0.00 0.00 0.00 0.00 0.00 0.00 0.00 0.00 0.00 0.00 0.00 0.00 0.00 0.00 0.00 0.01 0.02 0.06 0.06 0.12 0.21 0.55 0.71 0.97 1.16 1.07 1.07 1.16 1.04 0.91 0.95 1.01 0.72
0.00 0.00 0.00 0.00 0.00 0.00 0.00 0.00 0.00 0.00 0.00 0.00 0.00 0.00 0.00 0.00 0.00 0.00 0.00 0.00 0.00 0.00 0.00 0.00 0.00 0.01 0.04 0.05 0.05 0.10 0.12 0.16 0.20 0.38 0.54 0.40 0.30 0.41 0.39 0.39 0.57 0.76 0.77
0.00 0.00 0.00 0.00 0.00 0.00 0.00 0.00 0.00 0.00 0.00 0.00 0.00 0.00 0.00 0.00 0.00 0.00 0.00 0.00 0.00 0.00 0.00 0.00 0.00 0.01 0.02 0.04 0.08 0.10 0.13 0.18 0.30 0.30 0.33 0.38 0.42 0.43 0.57 0.62 0.64 0.81 0.87
0.00 0.00 0.00 0.00 0.00 0.00 0.00 0.00 0.00 0.00 0.00 0.00 0.00 0.00 0.00 0.00 0.00 0.00 0.00 0.00 0.00 0.00 0.00 0.00 0.00 0.00 0.01 0.02 0.03 0.07 0.11 0.15 0.24 0.37 0.37 0.39 0.38 0.40 0.58 0.59 0.52 0.49 0.57
0.00 0.00 0.00 0.00 0.00 0.00 0.00 0.00 0.00 0.00 0.00 0.00 0.00 0.00 0.01 0.01 0.00 0.00 0.00 0.00 0.00 0.00 0.00 0.00 0.00 0.00 0.00 0.01 0.01 0.02 0.02 0.02 0.04 0.09 0.14 0.22 0.29 0.35 0.38 0.36 0.34 0.30 0.30
0.00 0.00 0.00 0.00 0.00 0.00 0.00 0.00 0.00 0.01 0.01 0.01 0.01 0.01 0.01 0.01 0.01 0.01 0.01 0.00 0.00 0.00 0.00 0.01 0.01 0.00 0.00 0.00 0.00 0.00 0.01 0.01 0.02 0.03 0.03 0.03 0.04 0.07 0.09 0.16 0.22 0.25 0.28
0.00 0.00 0.00 0.00 0.00 0.00 0.00 0.01 0.01 0.01 0.01 0.01 0.01 0.01 0.01 0.01 0.01 0.01 0.01 0.01 0.01 0.01 0.01 0.01 0.01 0.01 0.01 0.01 0.00 0.00 0.03 0.05 0.02 0.02 0.01 0.01 0.00 0.01 0.02 0.03 0.04 0.09 0.09
0.00 0.00 0.00 0.00 0.00 0.00 0.00 0.00 0.00 0.01 0.01 0.01 0.01 0.01 0.01 0.01 0.01 0.01 0.01 0.02 0.01 0.01 0.01 0.01 0.01 0.01 0.01 0.01 0.01 0.03 0.04 0.02 0.01 0.01 0.01 0.00 0.00 0.00 0.01 0.01 0.02 0.03 0.04

GFSGL_prec_precacc12_096.txt.gz
Total_Precipitation_Accumulation
0.01 0.01 0.01 0.01 0.02 0.02 0.02 0.02 0.03 0.05 0.11 0.11 0.06 0.09 0.05 0.02 0.00 0.01 0.02 0.01 0.01 0.00 0.01 0.01 0.01 0.00 0.00 0.00 0.00 0.00 0.00 0.00 0.00 0.00 0.00 0.00 0.00 0.00 0.00 0.00 0.00 0.00 0.00
0.20 0.10 0.05 0.05 0.05 0.02 0.06 0.01 0.00 0.03 0.07 0.13 0.07 0.11 0.06 0.02 0.00 0.00 0.02 0.03 0.07 0.02 0.01 0.04 0.05 0.00 0.00 0.00 0.00 0.00 0.00 0.00 0.00 0.00 0.00 0.00 0.00 0.00 0.00 0.00 0.00 0.00 0.00
0.40 0.38 0.34 0.26 0.19 0.12 0.06 0.08 0.04 0.04 0.05 0.05 0.04 0.11 0.14 0.03 0.00 0.02 0.09 0.13 0.08 0.05 0.07 0.04 0.06 0.01 0.02 0.00 0.00 0.00 0.00 0.00 0.00 0.00 0.00 0.00 0.00 0.00 0.00 0.00 0.00 0.00 0.00
0.54 0.64 0.58 0.40 0.25 0.15 0.16 0.20 0.15 0.08 0.05 0.03 0.02 0.01 0.04 0.02 0.01 0.00 0.01 0.07 0.02 0.04 0.06 0.04 0.04 0.03 0.05 0.05 0.02 0.02 0.00 0.00 0.00 0.00 0.00 0.00 0.00 0.00 0.00 0.00 0.00 0.00 0.00
0.76 0.79 0.88 0.67 0.51 0.38 0.33 0.32 0.34 0.28 0.18 0.11 0.05 0.01 0.01 0.00 0.00 0.00 0.00 0.01 0.02 0.03 0.01 0.03 0.04 0.06 0.05 0.09 0.04 0.03 0.01 0.00 0.00 0.00 0.00 0.00 0.00 0.00 0.00 0.00 0.00 0.00 0.00
0.52 0.58 0.38 0.30 0.47 0.57 0.52 0.51 0.36 0.33 0.37 0.30 0.15 0.22 0.17 0.08 0.10 0.09 0.05 0.01 0.00 0.00 0.03 0.03 0.02 0.01 0.02 0.05 0.02 0.03 0.05 0.01 0.00 0.00 0.00 0.00 0.00 0.00 0.00 0.00 0.00 0.00 0.00
0.24 0.58 0.65 0.60 0.59 0.54 0.52 0.55 0.57 0.65 0.46 0.51 0.47 0.44 0.30 0.35 0.25 0.16 0.16 0.08 0.06 0.04 0.02 0.01 0.00 0.01 0.01 0.01 0.03 0.03 0.00 0.01 0.01 0.00 0.00 0.00 0.00 0.00 0.00 0.00 0.00 0.00 0.00
0.03 0.12 0.34 0.50 0.66 0.59 0.53 0.34 0.38 0.39 0.35 0.30 0.39 0.43 0.52 0.46 0.35 0.39 0.57 0.25 0.10 0.16 0.11 0.06 0.01 0.03 0.03 0.01 0.01 0.00 0.00 0.00 0.00 0.00 0.00 0.00 0.00 0.00 0.00 0.00 0.00 0.00 0.00
0.00 0.03 0.03 0.05 0.15 0.19 0.30 0.40 0.27 0.33 0.31 0.22 0.27 0.34 0.28 0.27 0.30 0.28 0.36 0.50 0.22 0.10 0.19 0.16 0.09 0.07 0.10 0.07 0.02 0.00 0.00 0.00 0.00 0.00 0.00 0.00 0.00 0.00 0.01 0.00 0.00 0.00 0.00
0.00 0.00 0.00 0.00 0.01 0.02 0.02 0.07 0.08 0.09 0.13 0.12 0.13 0.09 0.13 0.18 0.22 0.29 0.27 0.14 0.13 0.13 0.13 0.21 0.22 0.09 0.16 0.12 0.04 0.01 0.00 0.01 0.01 0.00 0.00 0.00 0.00 0.00 0.00 0.00 0.00 0.00 0.00
0.00 0.00 0.00 0.00 0.00 0.00 0.00 0.00 0.00 0.00 0.02 0.07 0.08 0.08 0.07 0.11 0.15 0.33 0.27 0.19 0.15 0.14 0.15 0.16 0.10 0.17 0.22 0.22 0.12 0.03 0.01 0.00 0.00 0.00 0.00 0.00 0.00 0.00 0.00 0.00 0.00 0.00 0.00
0.00 0.00 0.00 0.00 0.00 0.00 0.00 0.00 0.00 0.00 0.00 0.00 0.00 0.01 0.05 0.04 0.03 0.09 0.10 0.06 0.07 0.04 0.03 0.10 0.14 0.18 0.29 0.28 0.23 0.20 0.15 0.04 0.01 0.00 0.00 0.00 0.00 0.00 0.00 0.00 0.00 0.00 0.00
0.00 0.00 0.00 0.00 0.00 0.00 0.00 0.00 0.00 0.00 0.00 0.00 0.00 0.00 0.00 0.00 0.00 0.00 0.04 0.09 0.09 0.07 0.05 0.04 0.11 0.13 0.08 0.07 0.09 0.08 0.07 0.02 0.01 0.00 0.00 0.01 0.01 0.00 0.00 0.01 0.00 0.01 0.00
0.00 0.00 0.00 0.00 0.00 0.00 0.00 0.00 0.00 0.00 0.00 0.00 0.00 0.00 0.00 0.00 0.00 0.00 0.00 0.00 0.00 0.03 0.06 0.07 0.04 0.01 0.00 0.00 0.01 0.01 0.01 0.00 0.00 0.00 0.00 0.00 0.00 0.00 0.00 0.05 0.00 0.04 0.00
0.00 0.00 0.00 0.00 0.00 0.00 0.00 0.00 0.00 0.00 0.00 0.00 0.00 0.00 0.00 0.00 0.00 0.00 0.00 0.00 0.00 0.00 0.01 0.01 0.00 0.00 0.00 0.00 0.00 0.00 0.00 0.01 0.02 0.04 0.03 0.05 0.04 0.02 0.00 0.03 0.01 0.01 0.00
0.00 0.00 0.00 0.00 0.00 0.00 0.00 0.00 0.00 0.00 0.00 0.00 0.00 0.00 0.00 0.00 0.00 0.00 0.00 0.00 0.00 0.00 0.00 0.00 0.00 0.00 0.00 0.00 0.00 0.00 0.00 0.00 0.01 0.03 0.05 0.09 0.08 0.10 0.06 0.07 0.07 0.04 0.02
0.00 0.00 0.00 0.00 0.00 0.00 0.00 0.00 0.00 0.00 0.00 0.00 0.00 0.00 0.00 0.00 0.00 0.00 0.00 0.00 0.00 0.00 0.00 0.00 0.00 0.00 0.00 0.00 0.00 0.00 0.00 0.00 0.04 0.07 0.08 0.13 0.16 0.16 0.16 0.13 0.14 0.14 0.08
0.00 0.00 0.00 0.00 0.00 0.00 0.00 0.00 0.00 0.00 0.00 0.00 0.00 0.00 0.00 0.00 0.00 0.00 0.00 0.00 0.00 0.00 0.00 0.00 0.00 0.00 0.00 0.00 0.00 0.00 0.02 0.02 0.05 0.11 0.19 0.23 0.28 0.28 0.24 0.20 0.20 0.19 0.17
0.00 0.00 0.00 0.00 0.00 0.00 0.00 0.00 0.00 0.00 0.00 0.00 0.00 0.00 0.00 0.00 0.00 0.00 0.00 0.00 0.00 0.00 0.00 0.00 0.00 0.00 0.00 0.01 0.01 0.02 0.06 0.12 0.16 0.27 0.80 0.94 0.96 1.03 0.95 0.83 0.86 0.86 0.55
0.00 0.00 0.00 0.00 0.00 0.00 0.00 0.00 0.00 0.00 0.00 0.00 0.00 0.00 0.00 0.00 0.00 0.00 0.00 0.00 0.00 0.00 0.00 0.00 0.00 0.00 0.00 0.00 0.01 0.02 0.04 0.03 0.04 0.14 0.31 0.26 0.18 0.27 0.28 0.26 0.36 0.55 0.57
0.00 0.00 0.00 0.00 0.00 0.00 0.00 0.00 0.00 0.00 0.00 0.00 0.00 0.00 0.00 0.00 0.00 0.00 0.00 0.00 0.00 0.00 0.00 0.00 0.00 0.00 0.00 0.00 0.01 0.01 0.03 0.05 0.06 0.10 0.17 0.23 0.26 0.27 0.34 0.48 0.54 0.65 0.74
0.00 0.00 0.00 0.00 0.00 0.00 0.00 0.00 0.00 0.00 0.00 0.00 0.00 0.00 0.00 0.00 0.00 0.00 0.00 0.00 0.00 0.00 0.00 0.00 0.00 0.00 0.00 0.01 0.01 0.01 0.01 0.02 0.03 0.06 0.09 0.13 0.19 0.25 0.32 0.38 0.37 0.40 0.49
0.00 0.00 0.00 0.00 0.00 0.00 0.00 0.00 0.00 0.00 0.00 0.00 0.00 0.00 0.00 0.00 0.00 0.00 0.00 0.00 0.00 0.00 0.00 0.00 0.00 0.00 0.00 0.01 0.01 0.01 0.01 0.01 0.01 0.02 0.03 0.05 0.09 0.12 0.18 0.21 0.24 0.25 0.27
0.00 0.00 0.00 0.00 0.00 0.00 0.00 0.00 0.00 0.00 0.00 0.00 0.00 0.00 0.00 0.00 0.00 0.00 0.00 0.00 0.00 0.00 0.00 0.01 0.01 0.00 0.00 0.00 0.00 0.01 0.01 0.01 0.01 0.01 0.01 0.01 0.02 0.04 0.06 0.11 0.17 0.22 0.24
0.00 0.00 0.00 0.00 0.00 0.00 0.00 0.00 0.00 0.00 0.00 0.00 0.00 0.00 0.00 0.00 0.01 0.01 0.01 0.01 0.01 0.01 0.01 0.01 0.01 0.01 0.01 0.01 0.00 0.01 0.03 0.05 0.03 0.02 0.01 0.01 0.00 0.00 0.01 0.01 0.03 0.06 0.08
0.00 0.00 0.00 0.00 0.00 0.00 0.00 0.00 0.00 0.00 0.00 0.00 0.00 0.00 0.01 0.01 0.01 0.01 0.01 0.02 0.01 0.01 0.01 0.01 0.01 0.01 0.01 0.01 0.02 0.03 0.04 0.02 0.01 0.01 0.01 0.00 0.00 0.00 0.00 0.00 0.00 0.01 0.02

GFSGL_prec_precacc12_102.txt.gz
Total_Precipitation_Accumulation
0.00 0.00 0.09 0.05 0.04 0.04 0.08 0.07 0.13 0.23 0.28 0.19 0.17 0.11 0.11 0.11 0.10 0.03 0.05 0.01 0.04 0.02 0.03 0.02 0.02 0.00 0.00 0.00 0.00 0.00 0.00 0.00 0.00 0.00 0.00 0.00 0.00 0.00 0.00 0.00 0.00 0.00 0.00
0.13 0.02 0.12 0.09 0.04 0.03 0.11 0.06 0.09 0.16 0.18 0.23 0.18 0.20 0.18 0.13 0.11 0.08 0.07 0.06 0.14 0.10 0.06 0.07 0.09 0.02 0.03 0.00 0.00 0.00 0.00 0.00 0.00 0.00 0.00 0.00 0.00 0.00 0.00 0.00 0.00 0.00 0.00
0.31 0.28 0.32 0.17 0.04 0.02 0.02 0.05 0.09 0.15 0.09 0.10 0.09 0.19 0.22 0.08 0.11 0.14 0.16 0.16 0.16 0.14 0.13 0.12 0.14 0.07 0.09 0.04 0.05 0.04 0.01 0.00 0.01 0.00 0.00 0.00 0.00 0.00 0.00 0.00 0.00 0.00 0.00
0.38 0.23 0.17 0.13 0.04 0.02 0.02 0.09 0.06 0.10 0.06 0.05 0.03 0.03 0.11 0.11 0.07 0.10 0.06 0.10 0.09 0.13 0.19 0.13 0.14 0.10 0.15 0.14 0.07 0.10 0.03 0.04 0.04 0.02 0.00 0.00 0.00 0.00 0.00 0.00 0.00 0.00 0.00
0.89 0.46 0.20 0.14 0.07 0.08 0.11 0.13 0.13 0.06 0.04 0.04 0.04 0.02 0.04 0.04 0.03 0.01 0.00 0.01 0.02 0.06 0.15 0.13 0.14 0.16 0.14 0.19 0.17 0.21 0.10 0.07 0.05 0.02 0.00 0.00 0.00 0.00 0.00 0.00 0.00 0.00 0.00
0.53 0.51 0.37 0.18 0.10 0.13 0.13 0.17 0.21 0.21 0.19 0.15 0.10 0.14 0.14 0.07 0.07 0.04 0.03 0.03 0.04 0.03 0.09 0.14 0.12 0.14 0.12 0.08 0.05 0.08 0.15 0.17 0.12 0.07 0.00 0.00 0.01 0.02 0.00 0.00 0.00 0.00 0.00
0.09 0.15 0.28 0.30 0.19 0.11 0.08 0.12 0.16 0.27 0.25 0.30 0.26 0.28 0.21 0.27 0.17 0.11 0.12 0.12 0.18 0.14 0.08 0.05 0.07 0.05 0.03 0.02 0.05 0.05 0.05 0.04 0.06 0.09 0.02 0.01 0.01 0.03 0.03 0.02 0.02 0.01 0.00
0.01 0.02 0.10 0.37 0.55 0.45 0.18 0.10 0.10 0.11 0.11 0.16 0.25 0.29 0.39 0.39 0.26 0.25 0.29 0.20 0.15 0.22 0.17 0.10 0.07 0.09 0.12 0.07 0.02 0.00 0.01 0.02 0.04 0.02 0.01 0.02 0.02 0.01 0.01 0.03 0.01 0.01 0.00
0.00 0.03 0.02 0.05 0.17 0.33 0.22 0.13 0.10 0.10 0.09 0.07 0.15 0.21 0.19 0.17 0.14 0.20 0.25 0.31 0.23 0.27 0.32 0.28 0.21 0.14 0.20 0.14 0.04 0.01 0.01 0.02 0.02 0.00 0.00 0.00 0.00 0.00 0.00 0.00 0.00 0.04 0.01
0.01 0.00 0.00 0.00 0.01 0.01 0.01 0.03 0.03 0.04 0.07 0.07 0.06 0.05 0.12 0.16 0.09 0.14 0.17 0.16 0.20 0.21 0.23 0.26 0.22 0.12 0.19 0.16 0.05 0.02 0.01 0.03 0.03 0.01 0.01 0.00 0.00 0.00 0.00 0.00 0.01 0.02 0.03
0.02 0.00 0.00 0.00 0.00 0.00 0.00 0.00 0.00 0.00 0.01 0.04 0.03 0.04 0.05 0.07 0.06 0.04 0.04 0.03 0.04 0.04 0.10 0.14 0.07 0.15 0.17 0.15 0.09 0.03 0.01 0.00 0.00 0.00 0.00 0.00 0.00 0.00 0.00 0.00 0.00 0.01 0.03
0.01 0.00 0.00 0.00 0.00 0.00 0.00 0.00 0.00 0.00 0.00 0.00 0.00 0.00 0.01 0.00 0.01 0.03 0.03 0.02 0.01 0.00 0.01 0.03 0.02 0.08 0.14 0.12 0.11 0.12 0.09 0.03 0.01 0.00 0.00 0.00 0.00 0.00 0.00 0.00 0.00 0.02 0.02
0.00 0.00 0.00 0.00 0.00 0.00 0.00 0.00 0.00 0.00 0.00 0.00 0.00 0.00 0.00 0.00 0.00 0.00 0.00 0.00 0.00 0.00 0.00 0.01 0.01 0.01 0.01 0.01 0.02 0.04 0.04 0.02 0.01 0.00 0.00 0.01 0.01 0.00 0.00 0.01 0.01 0.01 0.00
0.00 0.00 0.00 0.00 0.00 0.00 0.00 0.00 0.00 0.00 0.00 0.00 0.00 0.00 0.00 0.00 0.00 0.00 0.00 0.00 0.00 0.00 0.00 0.00 0.00 0.00 0.00 0.00 0.00 0.00 0.00 0.00 0.00 0.00 0.00 0.00 0.00 0.00 0.01 0.05 0.01 0.05 0.01
0.00 0.00 0.00 0.00 0.00 0.00 0.00 0.00 0.00 0.00 0.00 0.00 0.00 0.00 0.00 0.00 0.00 0.00 0.00 0.00 0.00 0.00 0.00 0.00 0.00 0.00 0.00 0.00 0.00 0.00 0.00 0.00 0.00 0.00 0.00 0.00 0.00 0.00 0.00 0.01 0.01 0.01 0.01
0.00 0.00 0.00 0.00 0.00 0.00 0.00 0.00 0.00 0.00 0.00 0.00 0.00 0.00 0.00 0.00 0.00 0.00 0.00 0.00 0.00 0.00 0.00 0.00 0.00 0.00 0.00 0.00 0.00 0.00 0.00 0.00 0.00 0.00 0.00 0.00 0.01 0.01 0.01 0.01 0.01 0.01 0.02
0.00 0.00 0.00 0.00 0.00 0.00 0.00 0.00 0.00 0.00 0.00 0.00 0.00 0.00 0.00 0.00 0.00 0.00 0.00 0.00 0.00 0.00 0.00 0.00 0.00 0.00 0.00 0.00 0.00 0.00 0.00 0.00 0.00 0.01 0.01 0.01 0.02 0.02 0.02 0.02 0.02 0.03 0.02
0.00 0.00 0.00 0.00 0.00 0.00 0.00 0.00 0.00 0.00 0.00 0.00 0.00 0.00 0.00 0.00 0.00 0.00 0.00 0.00 0.00 0.00 0.00 0.00 0.00 0.00 0.00 0.00 0.00 0.00 0.00 0.01 0.01 0.01 0.01 0.02 0.02 0.01 0.02 0.02 0.02 0.01 0.01
0.00 0.00 0.00 0.00 0.00 0.00 0.00 0.00 0.00 0.00 0.00 0.00 0.00 0.00 0.00 0.00 0.00 0.00 0.00 0.00 0.00 0.00 0.00 0.00 0.00 0.00 0.00 0.00 0.00 0.00 0.01 0.01 0.01 0.01 0.01 0.00 0.01 0.01 0.01 0.01 0.01 0.01 0.01
0.00 0.00 0.00 0.00 0.00 0.00 0.00 0.00 0.00 0.00 0.00 0.00 0.00 0.00 0.00 0.00 0.00 0.00 0.00 0.00 0.00 0.00 0.00 0.00 0.00 0.00 0.00 0.00 0.00 0.00 0.00 0.00 0.00 0.00 0.00 0.00 0.00 0.01 0.00 0.01 0.01 0.01 0.01
0.00 0.00 0.00 0.00 0.00 0.00 0.00 0.00 0.00 0.00 0.00 0.00 0.00 0.00 0.00 0.00 0.00 0.00 0.00 0.00 0.00 0.00 0.00 0.00 0.00 0.00 0.00 0.00 0.00 0.01 0.01 0.01 0.01 0.01 0.01 0.01 0.01 0.01 0.01 0.01 0.01 0.01 0.02
0.00 0.00 0.00 0.00 0.00 0.00 0.00 0.00 0.00 0.00 0.00 0.00 0.00 0.00 0.00 0.00 0.00 0.00 0.00 0.00 0.00 0.00 0.00 0.00 0.00 0.00 0.00 0.00 0.01 0.01 0.01 0.01 0.01 0.01 0.01 0.01 0.01 0.01 0.01 0.01 0.01 0.01 0.01
0.00 0.00 0.00 0.00 0.00 0.00 0.00 0.00 0.00 0.00 0.00 0.00 0.00 0.00 0.00 0.00 0.00 0.00 0.00 0.00 0.00 0.00 0.00 0.00 0.00 0.00 0.00 0.00 0.01 0.01 0.01 0.01 0.02 0.03 0.02 0.02 0.02 0.02 0.02 0.02 0.01 0.01 0.01
0.00 0.00 0.00 0.00 0.00 0.00 0.00 0.00 0.00 0.00 0.00 0.00 0.00 0.00 0.00 0.00 0.00 0.00 0.00 0.00 0.00 0.00 0.00 0.00 0.00 0.00 0.00 0.00 0.00 0.01 0.01 0.02 0.02 0.02 0.02 0.02 0.02 0.04 0.02 0.02 0.01 0.01 0.01
0.00 0.00 0.00 0.00 0.00 0.00 0.00 0.00 0.00 0.00 0.00 0.00 0.00 0.00 0.00 0.00 0.00 0.00 0.00 0.00 0.00 0.00 0.00 0.00 0.00 0.00 0.00 0.01 0.00 0.01 0.02 0.03 0.02 0.02 0.01 0.01 0.01 0.00 0.01 0.00 0.00 0.00 0.00
0.00 0.00 0.00 0.00 0.00 0.00 0.00 0.00 0.00 0.00 0.00 0.00 0.00 0.00 0.00 0.00 0.00 0.00 0.00 0.00 0.00 0.00 0.00 0.00 0.00 0.00 0.01 0.01 0.01 0.01 0.02 0.01 0.01 0.01 0.00 0.00 0.00 0.00 0.00 0.00 0.00 0.00 0.00

GFSGL_prec_precacc12_105.txt.gz
Total_Precipitation_Accumulation
0.00 0.00 0.09 0.05 0.04 0.04 0.07 0.07 0.13 0.23 0.29 0.20 0.28 0.24 0.18 0.11 0.11 0.11 0.06 0.04 0.04 0.02 0.02 0.02 0.02 0.00 0.00 0.00 0.00 0.00 0.00 0.00 0.00 0.00 0.00 0.00 0.00 0.00 0.00 0.00 0.00 0.00 0.00
0.11 0.01 0.12 0.09 0.04 0.03 0.08 0.06 0.09 0.15 0.23 0.20 0.16 0.19 0.19 0.13 0.11 0.10 0.07 0.06 0.14 0.10 0.06 0.06 0.08 0.02 0.03 0.00 0.00 0.00 0.00 0.00 0.00 0.00 0.00 0.00 0.00 0.00 0.00 0.00 0.00 0.00 0.00
0.29 0.28 0.33 0.15 0.03 0.01 0.00 0.01 0.08 0.12 0.09 0.09 0.14 0.26 0.23 0.08 0.11 0.13 0.13 0.08 0.13 0.14 0.13 0.11 0.13 0.07 0.09 0.04 0.05 0.04 0.01 0.00 0.02 0.00 0.00 0.00 0.00 0.00 0.00 0.00 0.00 0.00 0.00
0.29 0.26 0.22 0.13 0.04 0.02 0.00 0.01 0.02 0.09 0.05 0.04 0.03 0.04 0.11 0.11 0.07 0.10 0.05 0.06 0.08 0.12 0.18 0.13 0.13 0.08 0.13 0.13 0.08 0.11 0.04 0.06 0.04 0.02 0.00 0.00 0.00 0.00 0.00 0.00 0.00 0.00 0.00
0.73 0.46 0.22 0.13 0.08 0.05 0.05 0.04 0.02 0.01 0.01 0.03 0.02 0.03 0.05 0.04 0.03 0.04 0.03 0.03 0.04 0.05 0.14 0.12 0.12 0.16 0.12 0.17 0.16 0.21 0.11 0.08 0.05 0.02 0.00 0.00 0.00 0.00 0.00 0.00 0.00 0.00 0.00
0.40 0.46 0.37 0.20 0.10 0.07 0.08 0.06 0.06 0.02 0.02 0.04 0.06 0.09 0.12 0.10 0.11 0.06 0.06 0.07 0.11 0.10 0.07 0.10 0.11 0.13 0.12 0.08 0.04 0.07 0.14 0.17 0.13 0.08 0.00 0.01 0.02 0.03 0.00 0.00 0.00 0.00 0.00
0.08 0.12 0.24 0.27 0.18 0.13 0.10 0.11 0.09 0.08 0.11 0.15 0.20 0.17 0.16 0.14 0.12 0.07 0.09 0.13 0.21 0.19 0.12 0.12 0.12 0.08 0.05 0.02 0.04 0.04 0.08 0.07 0.12 0.10 0.04 0.04 0.05 0.12 0.08 0.04 0.05 0.04 0.01
0.04 0.05 0.05 0.15 0.30 0.32 0.13 0.14 0.14 0.08 0.08 0.14 0.13 0.15 0.16 0.18 0.12 0.11 0.15 0.17 0.21 0.26 0.19 0.13 0.09 0.10 0.11 0.06 0.01 0.00 0.03 0.07 0.10 0.04 0.05 0.05 0.05 0.04 0.02 0.03 0.01 0.01 0.00
0.06 0.06 0.03 0.04 0.07 0.28 0.26 0.09 0.06 0.08 0.14 0.17 0.03 0.02 0.01 0.01 0.06 0.14 0.26 0.23 0.21 0.25 0.27 0.23 0.20 0.14 0.18 0.13 0.03 0.01 0.01 0.02 0.02 0.00 0.00 0.00 0.00 0.00 0.00 0.00 0.01 0.10 0.05
0.02 0.01 0.00 0.00 0.02 0.02 0.03 0.02 0.01 0.03 0.07 0.09 0.05 0.02 0.01 0.02 0.01 0.08 0.18 0.15 0.19 0.19 0.16 0.17 0.18 0.11 0.19 0.15 0.05 0.02 0.01 0.03 0.03 0.01 0.01 0.00 0.00 0.00 0.00 0.00 0.02 0.05 0.04
0.07 0.01 0.00 0.00 0.00 0.00 0.00 0.00 0.00 0.00 0.00 0.02 0.02 0.01 0.01 0.03 0.03 0.03 0.04 0.03 0.04 0.03 0.04 0.02 0.01 0.06 0.08 0.08 0.06 0.03 0.00 0.00 0.00 0.00 0.00 0.00 0.00 0.00 0.00 0.00 0.00 0.01 0.03
0.07 0.03 0.00 0.00 0.00 0.00 0.00 0.00 0.00 0.00 0.00 0.00 0.00 0.00 0.00 0.00 0.01 0.01 0.03 0.02 0.00 0.00 0.00 0.00 0.01 0.01 0.03 0.03 0.02 0.01 0.00 0.00 0.00 0.00 0.00 0.00 0.00 0.00 0.00 0.00 0.00 0.02 0.01
0.03 0.02 0.01 0.00 0.00 0.00 0.00 0.00 0.00 0.00 0.00 0.00 0.00 0.00 0.00 0.00 0.00 0.00 0.00 0.00 0.00 0.00 0.00 0.00 0.00 0.00 0.00 0.00 0.00 0.00 0.00 0.00 0.00 0.00 0.00 0.01 0.01 0.00 0.00 0.01 0.01 0.01 0.00
0.00 0.00 0.00 0.00 0.00 0.00 0.00 0.00 0.00 0.00 0.00 0.00 0.00 0.00 0.00 0.00 0.00 0.00 0.00 0.00 0.00 0.00 0.00 0.00 0.00 0.00 0.00 0.00 0.00 0.00 0.00 0.00 0.00 0.00 0.00 0.00 0.00 0.00 0.00 0.01 0.01 0.03 0.01
0.00 0.00 0.00 0.00 0.00 0.00 0.00 0.00 0.00 0.00 0.00 0.00 0.00 0.00 0.00 0.00 0.00 0.00 0.00 0.00 0.00 0.00 0.00 0.00 0.00 0.00 0.00 0.00 0.00 0.00 0.00 0.00 0.00 0.00 0.00 0.00 0.00 0.00 0.00 0.00 0.01 0.01 0.01
0.00 0.00 0.00 0.00 0.00 0.00 0.00 0.00 0.00 0.00 0.00 0.00 0.00 0.00 0.00 0.00 0.00 0.00 0.00 0.00 0.00 0.00 0.00 0.00 0.00 0.00 0.00 0.00 0.00 0.00 0.00 0.00 0.00 0.00 0.00 0.00 0.01 0.00 0.01 0.01 0.01 0.01 0.02
0.00 0.00 0.00 0.00 0.00 0.00 0.00 0.00 0.00 0.00 0.00 0.00 0.00 0.00 0.00 0.00 0.00 0.00 0.00 0.00 0.00 0.00 0.00 0.00 0.00 0.00 0.00 0.00 0.00 0.00 0.00 0.00 0.00 0.00 0.01 0.01 0.01 0.01 0.01 0.01 0.01 0.02 0.02
0.00 0.00 0.00 0.00 0.00 0.00 0.00 0.00 0.00 0.00 0.00 0.00 0.00 0.00 0.00 0.00 0.00 0.00 0.00 0.00 0.00 0.00 0.00 0.00 0.00 0.00 0.00 0.00 0.00 0.00 0.00 0.00 0.00 0.00 0.00 0.01 0.00 0.00 0.00 0.00 0.00 0.01 0.01
0.00 0.00 0.00 0.00 0.00 0.00 0.00 0.00 0.00 0.00 0.00 0.00 0.00 0.00 0.00 0.00 0.00 0.00 0.00 0.00 0.00 0.00 0.00 0.00 0.00 0.00 0.00 0.00 0.00 0.00 0.00 0.00 0.00 0.00 0.01 0.00 0.00 0.00 0.00 0.00 0.00 0.00 0.00
0.00 0.00 0.00 0.00 0.00 0.00 0.00 0.00 0.00 0.00 0.00 0.00 0.00 0.00 0.00 0.00 0.00 0.00 0.00 0.00 0.00 0.00 0.00 0.00 0.00 0.00 0.00 0.00 0.00 0.00 0.00 0.00 0.00 0.00 0.00 0.00 0.00 0.00 0.00 0.00 0.00 0.00 0.00
0.00 0.00 0.00 0.00 0.00 0.00 0.00 0.00 0.00 0.00 0.00 0.00 0.00 0.00 0.00 0.00 0.00 0.00 0.00 0.00 0.00 0.00 0.00 0.00 0.00 0.00 0.00 0.00 0.00 0.00 0.00 0.00 0.00 0.00 0.01 0.01 0.01 0.01 0.01 0.01 0.00 0.00 0.00
0.00 0.00 0.00 0.00 0.00 0.00 0.00 0.00 0.00 0.00 0.00 0.00 0.00 0.00 0.00 0.00 0.00 0.00 0.00 0.00 0.00 0.00 0.00 0.00 0.00 0.00 0.00 0.00 0.00 0.00 0.00 0.00 0.00 0.01 0.01 0.01 0.01 0.01 0.01 0.01 0.01 0.01 0.01
0.00 0.00 0.00 0.00 0.00 0.00 0.00 0.00 0.00 0.00 0.00 0.00 0.00 0.00 0.00 0.00 0.00 0.00 0.00 0.00 0.00 0.00 0.00 0.00 0.00 0.00 0.00 0.00 0.00 0.00 0.00 0.01 0.01 0.02 0.02 0.02 0.01 0.01 0.02 0.02 0.01 0.01 0.01
0.00 0.00 0.00 0.00 0.00 0.00 0.00 0.00 0.00 0.00 0.00 0.00 0.00 0.00 0.00 0.00 0.00 0.00 0.00 0.00 0.00 0.00 0.00 0.00 0.00 0.00 0.00 0.00 0.00 0.00 0.01 0.01 0.01 0.01 0.01 0.02 0.02 0.03 0.02 0.02 0.01 0.02 0.01
0.00 0.00 0.00 0.00 0.00 0.00 0.00 0.00 0.00 0.00 0.00 0.00 0.00 0.00 0.00 0.00 0.00 0.00 0.00 0.00 0.00 0.00 0.00 0.00 0.00 0.00 0.00 0.00 0.00 0.00 0.01 0.01 0.00 0.00 0.00 0.01 0.00 0.00 0.01 0.00 0.00 0.00 0.00
0.00 0.00 0.00 0.00 0.00 0.00 0.00 0.00 0.00 0.00 0.00 0.00 0.00 0.00 0.00 0.00 0.00 0.00 0.00 0.00 0.00 0.00 0.00 0.00 0.00 0.00 0.00 0.00 0.00 0.01 0.01 0.00 0.00 0.00 0.00 0.00 0.00 0.00 0.00 0.00 0.00 0.00 0.00

GFSGL_prec_precacc12_108.txt.gz
Total_Precipitation_Accumulation
0.00 0.00 0.09 0.05 0.04 0.03 0.07 0.08 0.13 0.22 0.23 0.25 0.29 0.17 0.14 0.12 0.12 0.12 0.10 0.09 0.07 0.02 0.02 0.01 0.01 0.00 0.00 0.00 0.00 0.00 0.00 0.00 0.00 0.00 0.00 0.00 0.00 0.00 0.00 0.00 0.00 0.00 0.00
0.07 0.01 0.12 0.09 0.04 0.02 0.05 0.05 0.09 0.14 0.22 0.19 0.21 0.21 0.16 0.13 0.13 0.14 0.09 0.07 0.08 0.08 0.05 0.04 0.04 0.02 0.04 0.01 0.00 0.01 0.00 0.00 0.00 0.00 0.00 0.00 0.00 0.00 0.00 0.00 0.00 0.00 0.00
0.25 0.32 0.37 0.16 0.03 0.00 0.00 0.00 0.07 0.12 0.06 0.06 0.15 0.26 0.16 0.14 0.17 0.13 0.14 0.08 0.10 0.10 0.06 0.08 0.09 0.07 0.10 0.06 0.07 0.05 0.01 0.01 0.02 0.01 0.00 0.00 0.00 0.00 0.00 0.00 0.00 0.00 0.00
0.27 0.22 0.28 0.19 0.05 0.02 0.01 0.00 0.01 0.09 0.04 0.04 0.07 0.13 0.13 0.13 0.08 0.10 0.06 0.08 0.10 0.10 0.13 0.09 0.10 0.08 0.14 0.16 0.11 0.13 0.06 0.06 0.04 0.03 0.00 0.00 0.00 0.02 0.12 0.00 0.00 0.00 0.00
0.66 0.45 0.28 0.18 0.11 0.09 0.07 0.03 0.01 0.02 0.03 0.03 0.03 0.07 0.09 0.10 0.04 0.05 0.06 0.07 0.16 0.09 0.16 0.12 0.11 0.16 0.17 0.17 0.16 0.21 0.11 0.09 0.06 0.02 0.00 0.00 0.00 0.00 0.00 0.00 0.00 0.00 0.00
0.36 0.40 0.40 0.29 0.20 0.26 0.21 0.20 0.14 0.09 0.05 0.03 0.05 0.11 0.13 0.12 0.14 0.04 0.05 0.12 0.22 0.14 0.15 0.16 0.16 0.16 0.13 0.06 0.03 0.06 0.12 0.17 0.14 0.09 0.00 0.01 0.03 0.03 0.00 0.02 0.00 0.00 0.00
0.07 0.10 0.23 0.30 0.29 0.21 0.25 0.34 0.31 0.21 0.15 0.13 0.15 0.16 0.19 0.13 0.07 0.03 0.02 0.07 0.23 0.21 0.17 0.16 0.27 0.14 0.09 0.03 0.03 0.03 0.09 0.12 0.13 0.10 0.05 0.10 0.08 0.16 0.09 0.06 0.07 0.06 0.02
0.05 0.05 0.05 0.14 0.32 0.32 0.14 0.25 0.35 0.27 0.22 0.24 0.10 0.11 0.03 0.01 0.01 0.01 0.05 0.11 0.21 0.19 0.16 0.14 0.17 0.12 0.11 0.06 0.01 0.00 0.03 0.08 0.12 0.05 0.07 0.07 0.05 0.05 0.02 0.03 0.01 0.01 0.01
0.18 0.10 0.04 0.07 0.10 0.28 0.24 0.07 0.08 0.21 0.22 0.25 0.09 0.02 0.00 0.00 0.00 0.02 0.18 0.16 0.13 0.29 0.27 0.19 0.16 0.10 0.10 0.07 0.02 0.01 0.01 0.02 0.02 0.00 0.00 0.00 0.00 0.00 0.00 0.00 0.01 0.11 0.06
0.10 0.07 0.02 0.01 0.02 0.02 0.03 0.03 0.01 0.03 0.08 0.08 0.04 0.01 0.00 0.00 0.00 0.01 0.10 0.18 0.13 0.16 0.13 0.10 0.07 0.04 0.04 0.04 0.02 0.00 0.00 0.02 0.02 0.01 0.01 0.00 0.00 0.00 0.00 0.00 0.02 0.05 0.04
0.10 0.03 0.01 0.00 0.00 0.00 0.00 0.01 0.01 0.00 0.00 0.00 0.01 0.01 0.00 0.01 0.01 0.01 0.01 0.03 0.05 0.01 0.01 0.01 0.00 0.00 0.00 0.01 0.00 0.00 0.00 0.00 0.00 0.00 0.00 0.00 0.00 0.00 0.00 0.00 0.01 0.01 0.03
0.11 0.06 0.02 0.00 0.00 0.00 0.00 0.00 0.00 0.00 0.00 0.00 0.00 0.00 0.00 0.00 0.00 0.00 0.00 0.00 0.00 0.00 0.00 0.00 0.00 0.00 0.00 0.00 0.00 0.00 0.00 0.00 0.00 0.00 0.00 0.00 0.00 0.00 0.00 0.00 0.00 0.02 0.01
0.06 0.04 0.02 0.01 0.00 0.00 0.00 0.00 0.00 0.00 0.00 0.00 0.00 0.00 0.00 0.00 0.00 0.00 0.00 0.00 0.00 0.00 0.00 0.00 0.00 0.00 0.00 0.00 0.00 0.00 0.00 0.00 0.00 0.00 0.00 0.00 0.00 0.00 0.00 0.00 0.00 0.00 0.00
0.03 0.03 0.02 0.02 0.01 0.00 0.00 0.00 0.00 0.00 0.00 0.00 0.00 0.00 0.00 0.00 0.00 0.00 0.00 0.00 0.00 0.00 0.00 0.00 0.00 0.00 0.00 0.00 0.00 0.00 0.00 0.00 0.00 0.00 0.00 0.00 0.00 0.00 0.00 0.00 0.01 0.01 0.01
0.01 0.01 0.01 0.01 0.00 0.00 0.00 0.00 0.00 0.00 0.00 0.00 0.00 0.00 0.00 0.00 0.00 0.00 0.00 0.00 0.00 0.00 0.00 0.00 0.00 0.00 0.00 0.00 0.00 0.00 0.00 0.00 0.00 0.00 0.00 0.00 0.00 0.00 0.00 0.00 0.01 0.01 0.01
0.01 0.00 0.00 0.00 0.00 0.00 0.00 0.00 0.00 0.00 0.00 0.00 0.00 0.00 0.00 0.00 0.00 0.00 0.00 0.00 0.00 0.00 0.00 0.00 0.00 0.00 0.00 0.00 0.00 0.00 0.00 0.00 0.00 0.00 0.00 0.00 0.00 0.00 0.00 0.00 0.00 0.01 0.01
0.00 0.00 0.00 0.00 0.00 0.00 0.00 0.00 0.00 0.00 0.00 0.00 0.00 0.00 0.00 0.00 0.00 0.00 0.00 0.00 0.00 0.00 0.00 0.00 0.00 0.00 0.00 0.00 0.00 0.00 0.00 0.00 0.00 0.00 0.00 0.00 0.00 0.00 0.00 0.00 0.00 0.00 0.00
0.00 0.00 0.00 0.00 0.00 0.00 0.00 0.00 0.00 0.00 0.00 0.00 0.00 0.00 0.00 0.00 0.00 0.00 0.00 0.00 0.00 0.00 0.00 0.00 0.00 0.00 0.00 0.00 0.00 0.00 0.00 0.00 0.00 0.00 0.00 0.00 0.00 0.00 0.00 0.00 0.00 0.00 0.00
0.00 0.00 0.00 0.00 0.00 0.00 0.00 0.00 0.00 0.00 0.00 0.00 0.00 0.00 0.00 0.00 0.00 0.00 0.00 0.00 0.00 0.00 0.00 0.00 0.00 0.00 0.00 0.00 0.00 0.00 0.00 0.00 0.00 0.00 0.00 0.00 0.00 0.00 0.00 0.00 0.00 0.00 0.00
0.00 0.00 0.00 0.00 0.00 0.00 0.00 0.00 0.00 0.00 0.00 0.00 0.00 0.00 0.00 0.00 0.00 0.00 0.00 0.00 0.00 0.00 0.00 0.00 0.00 0.00 0.00 0.00 0.00 0.00 0.00 0.00 0.00 0.00 0.00 0.00 0.00 0.00 0.00 0.00 0.00 0.00 0.00
0.00 0.00 0.00 0.00 0.00 0.00 0.00 0.00 0.00 0.00 0.00 0.00 0.00 0.00 0.00 0.00 0.00 0.00 0.00 0.00 0.00 0.00 0.00 0.00 0.00 0.00 0.00 0.00 0.00 0.00 0.00 0.00 0.00 0.00 0.00 0.00 0.00 0.00 0.00 0.00 0.00 0.00 0.00
0.00 0.00 0.00 0.00 0.00 0.00 0.00 0.00 0.00 0.00 0.00 0.00 0.00 0.00 0.00 0.00 0.00 0.00 0.00 0.00 0.00 0.00 0.00 0.00 0.00 0.00 0.00 0.00 0.00 0.00 0.00 0.00 0.00 0.00 0.00 0.00 0.00 0.00 0.00 0.00 0.00 0.00 0.00
0.00 0.00 0.00 0.00 0.00 0.00 0.00 0.00 0.00 0.00 0.00 0.00 0.00 0.00 0.00 0.00 0.00 0.00 0.00 0.00 0.00 0.00 0.00 0.00 0.00 0.00 0.00 0.00 0.00 0.00 0.00 0.00 0.00 0.01 0.01 0.01 0.01 0.01 0.01 0.01 0.01 0.01 0.00
0.00 0.00 0.00 0.00 0.00 0.00 0.00 0.00 0.00 0.00 0.00 0.00 0.00 0.00 0.00 0.00 0.00 0.00 0.00 0.00 0.00 0.00 0.00 0.00 0.00 0.00 0.00 0.00 0.00 0.00 0.00 0.00 0.00 0.00 0.01 0.01 0.01 0.01 0.01 0.00 0.01 0.01 0.01
0.00 0.00 0.00 0.00 0.00 0.00 0.00 0.00 0.00 0.00 0.00 0.00 0.00 0.00 0.00 0.00 0.00 0.00 0.00 0.00 0.00 0.00 0.00 0.00 0.00 0.00 0.00 0.00 0.00 0.00 0.00 0.00 0.00 0.00 0.00 0.00 0.00 0.00 0.00 0.00 0.00 0.00 0.00
0.00 0.00 0.00 0.00 0.00 0.00 0.00 0.00 0.00 0.00 0.00 0.00 0.00 0.00 0.00 0.00 0.00 0.00 0.00 0.00 0.00 0.00 0.00 0.00 0.00 0.00 0.00 0.00 0.00 0.00 0.00 0.00 0.00 0.00 0.00 0.00 0.00 0.00 0.00 0.00 0.00 0.00 0.00

GFSGL_prec_precacc12_111.txt.gz
Total_Precipitation_Accumulation
0.00 0.00 0.06 0.04 0.04 0.04 0.06 0.06 0.13 0.18 0.25 0.28 0.31 0.25 0.16 0.13 0.09 0.12 0.08 0.09 0.06 0.01 0.01 0.01 0.01 0.00 0.00 0.00 0.00 0.00 0.00 0.00 0.00 0.00 0.00 0.00 0.00 0.00 0.00 0.00 0.00 0.00 0.00
0.03 0.01 0.12 0.05 0.02 0.02 0.04 0.03 0.09 0.08 0.25 0.23 0.21 0.23 0.15 0.15 0.15 0.22 0.09 0.05 0.04 0.02 0.00 0.01 0.01 0.01 0.04 0.01 0.00 0.01 0.00 0.02 0.01 0.01 0.00 0.00 0.00 0.00 0.01 0.02 0.00 0.00 0.00
0.13 0.16 0.22 0.08 0.01 0.00 0.00 0.00 0.08 0.09 0.06 0.11 0.19 0.27 0.14 0.15 0.19 0.14 0.12 0.06 0.05 0.02 0.00 0.03 0.02 0.03 0.06 0.04 0.04 0.01 0.00 0.02 0.03 0.04 0.01 0.01 0.01 0.01 0.03 0.00 0.00 0.00 0.00
0.19 0.15 0.19 0.14 0.04 0.02 0.01 0.00 0.01 0.09 0.03 0.07 0.09 0.13 0.16 0.16 0.12 0.12 0.08 0.09 0.07 0.03 0.03 0.02 0.01 0.03 0.09 0.09 0.09 0.06 0.03 0.04 0.01 0.01 0.03 0.03 0.04 0.05 0.16 0.03 0.00 0.00 0.00
0.35 0.31 0.27 0.21 0.21 0.15 0.08 0.05 0.02 0.05 0.05 0.04 0.04 0.11 0.25 0.31 0.08 0.08 0.07 0.08 0.17 0.07 0.09 0.09 0.06 0.12 0.13 0.12 0.11 0.10 0.04 0.04 0.01 0.00 0.00 0.01 0.03 0.03 0.02 0.03 0.01 0.00 0.00
0.33 0.45 0.42 0.34 0.27 0.38 0.36 0.36 0.26 0.21 0.14 0.07 0.08 0.13 0.20 0.15 0.22 0.10 0.06 0.13 0.21 0.14 0.16 0.13 0.12 0.15 0.10 0.05 0.01 0.02 0.06 0.10 0.08 0.05 0.00 0.01 0.04 0.06 0.04 0.04 0.00 0.00 0.00
0.24 0.19 0.19 0.20 0.29 0.26 0.37 0.53 0.52 0.43 0.35 0.37 0.27 0.25 0.27 0.14 0.07 0.02 0.01 0.04 0.18 0.14 0.20 0.25 0.30 0.16 0.16 0.08 0.02 0.02 0.08 0.12 0.12 0.06 0.05 0.10 0.08 0.16 0.09 0.06 0.07 0.06 0.02
0.11 0.05 0.05 0.12 0.31 0.33 0.17 0.34 0.47 0.39 0.42 0.41 0.27 0.23 0.07 0.01 0.01 0.00 0.04 0.10 0.23 0.20 0.22 0.21 0.23 0.16 0.09 0.04 0.01 0.00 0.03 0.07 0.11 0.05 0.07 0.07 0.05 0.05 0.02 0.03 0.01 0.01 0.01
0.26 0.12 0.05 0.08 0.10 0.28 0.25 0.07 0.10 0.25 0.26 0.28 0.13 0.03 0.00 0.00 0.00 0.00 0.16 0.15 0.16 0.20 0.24 0.14 0.06 0.05 0.02 0.00 0.01 0.00 0.00 0.00 0.00 0.00 0.00 0.00 0.00 0.00 0.00 0.00 0.01 0.10 0.06
0.14 0.11 0.03 0.02 0.03 0.02 0.03 0.03 0.01 0.03 0.08 0.08 0.05 0.00 0.00 0.00 0.00 0.00 0.06 0.16 0.07 0.05 0.01 0.00 0.00 0.00 0.00 0.00 0.00 0.00 0.00 0.00 0.00 0.00 0.00 0.00 0.00 0.00 0.00 0.00 0.02 0.05 0.04
0.13 0.04 0.01 0.01 0.00 0.00 0.00 0.01 0.01 0.01 0.00 0.00 0.00 0.01 0.00 0.00 0.00 0.00 0.00 0.03 0.05 0.01 0.00 0.00 0.01 0.00 0.00 0.00 0.00 0.00 0.00 0.00 0.00 0.00 0.00 0.00 0.00 0.00 0.00 0.00 0.01 0.01 0.02
0.20 0.13 0.04 0.01 0.01 0.01 0.00 0.00 0.00 0.00 0.00 0.00 0.00 0.00 0.00 0.00 0.00 0.00 0.00 0.00 0.00 0.00 0.00 0.00 0.00 0.00 0.00 0.00 0.00 0.00 0.00 0.00 0.00 0.00 0.00 0.00 0.00 0.00 0.00 0.00 0.00 0.00 0.01
0.10 0.11 0.10 0.06 0.01 0.00 0.01 0.00 0.00 0.00 0.00 0.00 0.00 0.00 0.00 0.00 0.00 0.00 0.00 0.00 0.00 0.00 0.00 0.00 0.00 0.00 0.00 0.00 0.00 0.00 0.00 0.00 0.00 0.00 0.00 0.00 0.00 0.00 0.00 0.00 0.00 0.00 0.00
0.05 0.09 0.11 0.10 0.05 0.01 0.00 0.00 0.00 0.00 0.00 0.00 0.00 0.00 0.00 0.00 0.00 0.00 0.00 0.00 0.00 0.00 0.00 0.00 0.00 0.00 0.00 0.00 0.00 0.00 0.00 0.00 0.00 0.00 0.00 0.00 0.00 0.00 0.00 0.00 0.00 0.00 0.00
0.02 0.02 0.04 0.05 0.05 0.02 0.01 0.01 0.00 0.00 0.00 0.00 0.00 0.00 0.00 0.00 0.00 0.00 0.00 0.00 0.00 0.00 0.00 0.00 0.00 0.00 0.00 0.00 0.00 0.00 0.00 0.00 0.00 0.00 0.00 0.00 0.00 0.00 0.00 0.00 0.00 0.00 0.00
0.01 0.01 0.02 0.02 0.02 0.01 0.01 0.01 0.00 0.00 0.00 0.00 0.00 0.00 0.00 0.00 0.00 0.00 0.00 0.00 0.00 0.00 0.00 0.00 0.00 0.00 0.00 0.00 0.00 0.00 0.00 0.00 0.00 0.00 0.00 0.00 0.00 0.00 0.00 0.00 0.00 0.00 0.00
0.00 0.00 0.01 0.01 0.01 0.01 0.00 0.00 0.00 0.00 0.00 0.00 0.00 0.00 0.00 0.00 0.00 0.00 0.00 0.00 0.00 0.00 0.00 0.00 0.00 0.00 0.00 0.00 0.00 0.00 0.00 0.00 0.00 0.00 0.00 0.00 0.00 0.00 0.00 0.00 0.00 0.00 0.00
0.00 0.00 0.00 0.00 0.00 0.00 0.00 0.00 0.00 0.00 0.00 0.00 0.00 0.00 0.00 0.00 0.00 0.00 0.00 0.00 0.00 0.00 0.00 0.00 0.00 0.00 0.00 0.00 0.00 0.00 0.00 0.00 0.00 0.00 0.00 0.00 0.00 0.00 0.00 0.00 0.00 0.00 0.00
0.00 0.00 0.00 0.00 0.00 0.00 0.00 0.00 0.00 0.00 0.00 0.00 0.00 0.00 0.00 0.00 0.00 0.00 0.00 0.00 0.00 0.00 0.00 0.00 0.00 0.00 0.00 0.00 0.00 0.00 0.00 0.00 0.00 0.00 0.00 0.00 0.00 0.00 0.00 0.00 0.00 0.00 0.00
0.00 0.00 0.00 0.00 0.00 0.00 0.00 0.00 0.00 0.00 0.00 0.00 0.00 0.00 0.00 0.00 0.00 0.00 0.00 0.00 0.00 0.00 0.00 0.00 0.00 0.00 0.00 0.00 0.00 0.00 0.00 0.00 0.00 0.00 0.00 0.00 0.00 0.00 0.00 0.00 0.00 0.00 0.00
0.00 0.00 0.00 0.00 0.00 0.00 0.00 0.00 0.00 0.00 0.00 0.00 0.00 0.00 0.00 0.00 0.00 0.00 0.00 0.00 0.00 0.00 0.00 0.00 0.00 0.00 0.00 0.00 0.00 0.00 0.00 0.00 0.00 0.00 0.00 0.00 0.00 0.00 0.00 0.00 0.00 0.00 0.00
0.00 0.00 0.00 0.00 0.00 0.00 0.00 0.00 0.00 0.00 0.00 0.00 0.00 0.00 0.00 0.00 0.00 0.00 0.00 0.00 0.00 0.00 0.00 0.00 0.00 0.00 0.00 0.00 0.00 0.00 0.00 0.00 0.00 0.00 0.00 0.00 0.00 0.00 0.00 0.00 0.00 0.00 0.00
0.00 0.00 0.00 0.00 0.00 0.00 0.00 0.00 0.00 0.00 0.00 0.00 0.00 0.00 0.00 0.00 0.00 0.00 0.00 0.00 0.00 0.00 0.00 0.00 0.00 0.00 0.00 0.00 0.00 0.00 0.00 0.00 0.00 0.00 0.00 0.00 0.00 0.00 0.00 0.00 0.00 0.00 0.00
0.00 0.00 0.00 0.00 0.00 0.00 0.00 0.00 0.00 0.00 0.00 0.00 0.00 0.00 0.00 0.00 0.00 0.00 0.00 0.00 0.00 0.00 0.00 0.00 0.00 0.00 0.00 0.00 0.00 0.00 0.00 0.00 0.00 0.00 0.00 0.00 0.01 0.01 0.00 0.00 0.00 0.00 0.00
0.00 0.00 0.00 0.00 0.00 0.00 0.00 0.00 0.00 0.00 0.00 0.00 0.00 0.00 0.00 0.00 0.00 0.00 0.00 0.00 0.00 0.00 0.00 0.00 0.00 0.00 0.00 0.00 0.00 0.00 0.00 0.00 0.00 0.00 0.00 0.00 0.00 0.00 0.00 0.00 0.00 0.00 0.00
0.00 0.00 0.00 0.00 0.00 0.00 0.00 0.00 0.00 0.00 0.00 0.00 0.00 0.00 0.00 0.00 0.00 0.00 0.00 0.00 0.00 0.00 0.00 0.00 0.00 0.00 0.00 0.00 0.00 0.00 0.00 0.00 0.00 0.00 0.00 0.00 0.00 0.00 0.00 0.00 0.00 0.00 0.00

GFSGL_prec_precacc12_114.txt.gz
Total_Precipitation_Accumulation
0.00 0.00 0.00 0.00 0.01 0.01 0.01 0.01 0.03 0.05 0.13 0.19 0.23 0.24 0.11 0.03 0.06 0.17 0.10 0.09 0.05 0.02 0.00 0.01 0.00 0.00 0.00 0.00 0.00 0.02 0.01 0.01 0.01 0.00 0.01 0.00 0.00 0.01 0.01 0.02 0.00 0.00 0.00
0.00 0.00 0.02 0.00 0.00 0.00 0.00 0.00 0.01 0.03 0.18 0.14 0.12 0.16 0.06 0.05 0.09 0.24 0.11 0.06 0.03 0.03 0.00 0.01 0.00 0.00 0.01 0.01 0.00 0.01 0.00 0.02 0.01 0.02 0.02 0.00 0.03 0.02 0.05 0.04 0.00 0.00 0.00
0.11 0.15 0.08 0.00 0.00 0.00 0.00 0.00 0.01 0.01 0.05 0.08 0.19 0.26 0.11 0.21 0.26 0.15 0.17 0.12 0.04 0.08 0.05 0.01 0.01 0.04 0.06 0.04 0.02 0.01 0.01 0.06 0.02 0.05 0.04 0.02 0.02 0.02 0.04 0.00 0.00 0.00 0.00
0.22 0.16 0.20 0.14 0.04 0.02 0.01 0.00 0.01 0.01 0.01 0.05 0.12 0.26 0.27 0.23 0.14 0.21 0.29 0.12 0.05 0.10 0.14 0.07 0.04 0.02 0.08 0.12 0.09 0.07 0.05 0.03 0.00 0.01 0.03 0.05 0.04 0.05 0.16 0.03 0.00 0.00 0.00
0.30 0.26 0.41 0.34 0.24 0.30 0.29 0.18 0.12 0.13 0.09 0.05 0.05 0.22 0.35 0.39 0.15 0.24 0.24 0.14 0.20 0.10 0.10 0.11 0.08 0.19 0.13 0.12 0.08 0.04 0.02 0.03 0.01 0.00 0.00 0.01 0.03 0.03 0.02 0.03 0.01 0.00 0.00
0.28 0.42 0.39 0.41 0.31 0.54 0.44 0.48 0.43 0.44 0.30 0.17 0.20 0.14 0.20 0.14 0.25 0.25 0.14 0.19 0.22 0.17 0.25 0.15 0.10 0.15 0.22 0.13 0.03 0.00 0.00 0.01 0.04 0.03 0.00 0.04 0.03 0.04 0.03 0.04 0.00 0.00 0.00
0.28 0.25 0.32 0.24 0.26 0.25 0.40 0.60 0.62 0.64 0.54 0.50 0.38 0.36 0.33 0.14 0.07 0.02 0.01 0.03 0.15 0.13 0.22 0.27 0.26 0.15 0.18 0.14 0.07 0.01 0.05 0.10 0.10 0.02 0.03 0.09 0.07 0.13 0.05 0.04 0.05 0.05 0.02
0.15 0.09 0.10 0.17 0.19 0.14 0.12 0.36 0.52 0.49 0.51 0.50 0.34 0.34 0.12 0.03 0.01 0.00 0.03 0.07 0.19 0.15 0.16 0.17 0.18 0.12 0.03 0.00 0.00 0.00 0.03 0.06 0.08 0.03 0.06 0.05 0.03 0.03 0.01 0.00 0.00 0.00 0.01
0.39 0.24 0.22 0.23 0.20 0.21 0.18 0.06 0.11 0.30 0.32 0.35 0.23 0.12 0.04 0.01 0.00 0.00 0.17 0.14 0.15 0.18 0.21 0.12 0.04 0.03 0.00 0.00 0.00 0.00 0.00 0.00 0.00 0.00 0.00 0.00 0.00 0.00 0.00 0.00 0.00 0.07 0.05
0.31 0.27 0.14 0.16 0.17 0.10 0.05 0.03 0.01 0.03 0.08 0.09 0.07 0.01 0.00 0.00 0.00 0.00 0.09 0.21 0.10 0.06 0.01 0.00 0.00 0.00 0.00 0.00 0.00 0.00 0.00 0.00 0.00 0.00 0.00 0.00 0.00 0.00 0.00 0.00 0.01 0.03 0.01
0.61 0.32 0.15 0.16 0.14 0.05 0.01 0.01 0.01 0.00 0.00 0.00 0.00 0.00 0.00 0.00 0.00 0.00 0.01 0.05 0.07 0.01 0.00 0.00 0.01 0.00 0.00 0.00 0.00 0.00 0.00 0.00 0.00 0.00 0.00 0.00 0.00 0.00 0.00 0.00 0.01 0.00 0.00
0.87 0.53 0.21 0.14 0.10 0.04 0.00 0.00 0.00 0.00 0.00 0.00 0.00 0.00 0.00 0.00 0.00 0.00 0.00 0.01 0.01 0.01 0.00 0.00 0.00 0.00 0.00 0.00 0.00 0.00 0.00 0.00 0.00 0.00 0.00 0.00 0.00 0.00 0.00 0.00 0.00 0.00 0.00
0.29 0.28 0.30 0.24 0.15 0.08 0.03 0.01 0.00 0.00 0.00 0.00 0.00 0.00 0.00 0.00 0.00 0.00 0.00 0.00 0.00 0.00 0.00 0.00 0.00 0.00 0.00 0.00 0.00 0.00 0.00 0.00 0.00 0.00 0.00 0.00 0.00 0.00 0.00 0.00 0.00 0.00 0.00
0.09 0.13 0.17 0.16 0.13 0.08 0.07 0.04 0.01 0.00 0.00 0.00 0.00 0.00 0.00 0.00 0.00 0.00 0.00 0.00 0.00 0.00 0.00 0.00 0.00 0.00 0.00 0.00 0.00 0.00 0.00 0.00 0.00 0.00 0.00 0.00 0.00 0.00 0.00 0.00 0.00 0.00 0.00
0.04 0.04 0.05 0.08 0.12 0.09 0.06 0.04 0.03 0.01 0.01 0.00 0.00 0.00 0.00 0.00 0.00 0.00 0.00 0.00 0.00 0.00 0.00 0.00 0.00 0.00 0.00 0.00 0.00 0.00 0.00 0.00 0.00 0.00 0.00 0.00 0.00 0.00 0.00 0.00 0.00 0.00 0.00
0.01 0.02 0.02 0.02 0.02 0.02 0.04 0.03 0.02 0.02 0.02 0.00 0.00 0.00 0.00 0.00 0.00 0.00 0.00 0.00 0.00 0.00 0.00 0.00 0.00 0.00 0.00 0.00 0.00 0.00 0.00 0.00 0.00 0.00 0.00 0.00 0.00 0.00 0.00 0.00 0.00 0.00 0.00
0.00 0.00 0.01 0.01 0.01 0.01 0.01 0.00 0.00 0.00 0.01 0.01 0.00 0.00 0.00 0.00 0.00 0.00 0.00 0.00 0.00 0.00 0.00 0.00 0.00 0.00 0.00 0.00 0.00 0.00 0.00 0.00 0.00 0.00 0.00 0.00 0.00 0.00 0.00 0.00 0.00 0.00 0.00
0.00 0.00 0.00 0.00 0.00 0.00 0.00 0.00 0.00 0.00 0.00 0.00 0.00 0.00 0.00 0.00 0.00 0.00 0.00 0.00 0.00 0.00 0.00 0.00 0.00 0.00 0.00 0.00 0.00 0.00 0.00 0.00 0.00 0.00 0.00 0.00 0.00 0.00 0.00 0.00 0.00 0.00 0.00
0.00 0.00 0.00 0.00 0.00 0.00 0.00 0.00 0.00 0.00 0.00 0.00 0.00 0.00 0.00 0.00 0.00 0.00 0.00 0.00 0.00 0.00 0.00 0.00 0.00 0.00 0.00 0.00 0.00 0.00 0.00 0.00 0.00 0.00 0.00 0.00 0.00 0.00 0.00 0.00 0.00 0.00 0.00
0.00 0.00 0.00 0.00 0.00 0.00 0.00 0.00 0.00 0.00 0.00 0.00 0.00 0.00 0.00 0.00 0.00 0.00 0.00 0.00 0.00 0.00 0.00 0.00 0.00 0.00 0.00 0.00 0.00 0.00 0.00 0.00 0.00 0.00 0.00 0.00 0.00 0.00 0.00 0.00 0.00 0.00 0.00
0.00 0.00 0.00 0.00 0.00 0.00 0.00 0.00 0.00 0.00 0.00 0.00 0.00 0.00 0.00 0.00 0.00 0.00 0.00 0.00 0.00 0.00 0.00 0.00 0.00 0.00 0.00 0.00 0.00 0.00 0.00 0.00 0.00 0.00 0.00 0.00 0.00 0.00 0.00 0.00 0.00 0.00 0.00
0.00 0.00 0.00 0.00 0.00 0.00 0.00 0.00 0.00 0.00 0.00 0.00 0.00 0.00 0.00 0.00 0.00 0.00 0.00 0.00 0.00 0.00 0.00 0.00 0.00 0.00 0.00 0.00 0.00 0.00 0.00 0.00 0.00 0.00 0.00 0.00 0.00 0.00 0.00 0.00 0.00 0.00 0.00
0.00 0.00 0.00 0.00 0.00 0.00 0.00 0.00 0.00 0.00 0.00 0.00 0.00 0.00 0.00 0.00 0.00 0.00 0.00 0.00 0.00 0.00 0.00 0.00 0.00 0.00 0.00 0.00 0.00 0.00 0.00 0.00 0.00 0.00 0.00 0.00 0.00 0.00 0.00 0.00 0.00 0.00 0.00
0.00 0.00 0.00 0.00 0.00 0.00 0.00 0.00 0.00 0.00 0.00 0.00 0.00 0.00 0.00 0.00 0.00 0.00 0.00 0.00 0.00 0.00 0.00 0.00 0.00 0.00 0.00 0.00 0.00 0.00 0.00 0.00 0.00 0.00 0.00 0.00 0.00 0.00 0.00 0.00 0.00 0.00 0.00
0.00 0.00 0.00 0.00 0.00 0.00 0.00 0.00 0.00 0.00 0.00 0.00 0.00 0.00 0.00 0.00 0.00 0.00 0.00 0.00 0.00 0.00 0.00 0.00 0.00 0.00 0.00 0.00 0.00 0.00 0.00 0.00 0.00 0.00 0.00 0.00 0.00 0.00 0.00 0.00 0.00 0.00 0.00
0.01 0.00 0.00 0.00 0.00 0.00 0.00 0.00 0.00 0.00 0.00 0.00 0.00 0.00 0.00 0.00 0.00 0.00 0.00 0.00 0.00 0.00 0.00 0.00 0.00 0.00 0.00 0.00 0.00 0.00 0.00 0.00 0.00 0.00 0.00 0.00 0.00 0.00 0.00 0.00 0.00 0.00 0.00

GFSGL_prec_precacc12_117.txt.gz
Total_Precipitation_Accumulation
0.00 0.00 0.00 0.00 0.01 0.01 0.01 0.01 0.03 0.05 0.11 0.17 0.12 0.11 0.04 0.03 0.05 0.10 0.09 0.07 0.05 0.03 0.01 0.01 0.00 0.00 0.00 0.01 0.00 0.02 0.02 0.01 0.01 0.00 0.01 0.00 0.01 0.01 0.01 0.02 0.00 0.00 0.00
0.00 0.00 0.02 0.00 0.00 0.00 0.00 0.00 0.01 0.03 0.10 0.13 0.10 0.12 0.06 0.06 0.17 0.27 0.13 0.09 0.04 0.05 0.01 0.01 0.00 0.00 0.01 0.01 0.00 0.01 0.00 0.02 0.01 0.03 0.03 0.02 0.07 0.03 0.05 0.04 0.00 0.00 0.00
0.11 0.12 0.05 0.00 0.00 0.00 0.00 0.00 0.00 0.01 0.04 0.07 0.13 0.21 0.16 0.23 0.27 0.16 0.19 0.18 0.07 0.12 0.06 0.02 0.02 0.04 0.06 0.04 0.02 0.01 0.01 0.06 0.02 0.07 0.05 0.02 0.08 0.04 0.04 0.00 0.00 0.00 0.00
0.20 0.10 0.15 0.12 0.04 0.02 0.01 0.00 0.00 0.01 0.01 0.05 0.11 0.26 0.29 0.23 0.13 0.21 0.39 0.23 0.13 0.20 0.16 0.11 0.06 0.04 0.12 0.13 0.09 0.06 0.04 0.02 0.00 0.01 0.03 0.05 0.05 0.05 0.16 0.03 0.00 0.00 0.00
0.26 0.22 0.34 0.30 0.24 0.29 0.26 0.16 0.11 0.15 0.11 0.06 0.06 0.23 0.38 0.39 0.15 0.22 0.37 0.27 0.26 0.12 0.10 0.12 0.12 0.21 0.19 0.16 0.11 0.04 0.02 0.02 0.01 0.00 0.00 0.01 0.03 0.03 0.02 0.03 0.01 0.00 0.00
0.31 0.41 0.40 0.42 0.37 0.56 0.42 0.45 0.43 0.57 0.45 0.25 0.20 0.09 0.17 0.10 0.22 0.36 0.20 0.32 0.29 0.18 0.24 0.15 0.11 0.19 0.31 0.20 0.04 0.00 0.00 0.01 0.02 0.02 0.00 0.03 0.03 0.03 0.03 0.03 0.00 0.00 0.00
0.40 0.30 0.34 0.30 0.34 0.29 0.41 0.56 0.65 0.68 0.59 0.54 0.37 0.35 0.32 0.12 0.06 0.04 0.02 0.06 0.23 0.28 0.25 0.19 0.21 0.12 0.17 0.15 0.09 0.01 0.02 0.06 0.03 0.01 0.02 0.06 0.02 0.03 0.01 0.01 0.01 0.02 0.01
0.19 0.13 0.18 0.25 0.27 0.21 0.16 0.33 0.55 0.58 0.58 0.56 0.45 0.39 0.14 0.04 0.01 0.00 0.01 0.03 0.10 0.11 0.21 0.18 0.17 0.12 0.03 0.01 0.01 0.00 0.01 0.02 0.02 0.01 0.02 0.02 0.00 0.00 0.00 0.00 0.00 0.00 0.01
0.35 0.22 0.27 0.31 0.26 0.24 0.17 0.14 0.17 0.38 0.36 0.31 0.37 0.32 0.15 0.06 0.02 0.00 0.12 0.13 0.15 0.19 0.25 0.19 0.10 0.06 0.01 0.01 0.01 0.00 0.00 0.00 0.00 0.00 0.00 0.00 0.00 0.00 0.00 0.00 0.00 0.01 0.01
0.37 0.34 0.24 0.28 0.27 0.27 0.21 0.18 0.10 0.10 0.09 0.09 0.09 0.06 0.08 0.06 0.03 0.02 0.07 0.21 0.11 0.09 0.04 0.02 0.01 0.01 0.01 0.01 0.01 0.00 0.00 0.00 0.00 0.00 0.00 0.00 0.00 0.00 0.00 0.00 0.00 0.00 0.00
1.27 1.06 0.58 0.44 0.40 0.35 0.31 0.26 0.13 0.03 0.00 0.00 0.01 0.01 0.01 0.00 0.00 0.00 0.02 0.05 0.07 0.02 0.00 0.00 0.01 0.00 0.00 0.00 0.00 0.00 0.00 0.00 0.00 0.00 0.00 0.00 0.00 0.00 0.00 0.00 0.01 0.00 0.00
1.29 1.48 1.92 1.28 0.83 0.46 0.24 0.11 0.04 0.00 0.01 0.00 0.00 0.00 0.00 0.00 0.00 0.00 0.00 0.01 0.02 0.01 0.01 0.00 0.00 0.00 0.00 0.00 0.00 0.00 0.00 0.00 0.00 0.00 0.00 0.00 0.00 0.00 0.00 0.00 0.00 0.00 0.00
0.34 0.41 0.59 0.62 0.50 0.44 0.25 0.10 0.05 0.03 0.01 0.01 0.00 0.00 0.00 0.00 0.00 0.00 0.00 0.00 0.00 0.00 0.00 0.00 0.00 0.00 0.00 0.00 0.00 0.00 0.00 0.00 0.00 0.00 0.00 0.00 0.00 0.00 0.00 0.00 0.00 0.00 0.00
0.16 0.26 0.34 0.39 0.35 0.27 0.22 0.14 0.06 0.03 0.01 0.01 0.01 0.00 0.00 0.00 0.00 0.00 0.00 0.00 0.00 0.00 0.00 0.00 0.00 0.00 0.00 0.00 0.00 0.00 0.00 0.00 0.00 0.00 0.00 0.00 0.00 0.00 0.00 0.00 0.00 0.00 0.00
0.04 0.06 0.09 0.12 0.17 0.15 0.16 0.12 0.07 0.04 0.04 0.02 0.02 0.01 0.00 0.00 0.00 0.00 0.00 0.00 0.00 0.00 0.00 0.00 0.00 0.00 0.00 0.00 0.00 0.00 0.00 0.00 0.00 0.00 0.00 0.00 0.00 0.00 0.00 0.00 0.00 0.00 0.00
0.01 0.02 0.04 0.03 0.03 0.04 0.08 0.10 0.07 0.06 0.05 0.01 0.02 0.02 0.00 0.00 0.00 0.00 0.00 0.00 0.00 0.00 0.00 0.00 0.00 0.00 0.00 0.00 0.00 0.00 0.00 0.00 0.00 0.00 0.00 0.00 0.00 0.00 0.00 0.00 0.00 0.00 0.00
0.00 0.00 0.01 0.01 0.01 0.01 0.01 0.00 0.00 0.00 0.01 0.01 0.01 0.01 0.01 0.00 0.00 0.00 0.00 0.00 0.00 0.00 0.00 0.00 0.00 0.00 0.00 0.00 0.00 0.00 0.00 0.00 0.00 0.00 0.00 0.00 0.00 0.00 0.00 0.00 0.00 0.00 0.00
0.00 0.00 0.00 0.00 0.00 0.00 0.00 0.00 0.00 0.00 0.00 0.00 0.00 0.00 0.00 0.00 0.00 0.00 0.00 0.00 0.00 0.00 0.00 0.00 0.00 0.00 0.00 0.00 0.00 0.00 0.00 0.00 0.00 0.00 0.00 0.00 0.00 0.00 0.00 0.00 0.00 0.00 0.00
0.00 0.00 0.00 0.00 0.00 0.00 0.00 0.00 0.00 0.00 0.00 0.00 0.00 0.00 0.00 0.00 0.00 0.00 0.00 0.00 0.00 0.00 0.00 0.00 0.00 0.00 0.00 0.00 0.00 0.00 0.00 0.00 0.00 0.00 0.00 0.00 0.00 0.00 0.00 0.00 0.00 0.00 0.00
0.00 0.00 0.00 0.00 0.00 0.00 0.00 0.00 0.00 0.00 0.00 0.00 0.00 0.00 0.00 0.00 0.00 0.00 0.00 0.00 0.00 0.00 0.00 0.00 0.00 0.00 0.00 0.00 0.00 0.00 0.00 0.00 0.00 0.00 0.00 0.00 0.00 0.00 0.00 0.00 0.00 0.00 0.00
0.00 0.00 0.00 0.00 0.00 0.00 0.00 0.00 0.00 0.00 0.00 0.00 0.00 0.00 0.00 0.00 0.00 0.00 0.00 0.00 0.00 0.00 0.00 0.00 0.00 0.00 0.00 0.00 0.00 0.00 0.00 0.00 0.00 0.00 0.00 0.00 0.00 0.00 0.00 0.00 0.00 0.00 0.00
0.00 0.00 0.00 0.00 0.00 0.00 0.00 0.00 0.00 0.00 0.00 0.00 0.00 0.00 0.00 0.00 0.00 0.00 0.00 0.00 0.00 0.00 0.00 0.00 0.00 0.00 0.00 0.00 0.00 0.00 0.00 0.00 0.00 0.00 0.00 0.00 0.00 0.00 0.00 0.00 0.00 0.00 0.00
0.00 0.00 0.00 0.00 0.00 0.00 0.00 0.00 0.00 0.00 0.00 0.00 0.00 0.00 0.00 0.00 0.00 0.00 0.00 0.00 0.00 0.00 0.00 0.00 0.00 0.00 0.00 0.00 0.00 0.00 0.00 0.00 0.00 0.00 0.00 0.00 0.00 0.00 0.00 0.00 0.00 0.00 0.00
0.00 0.00 0.00 0.00 0.00 0.00 0.00 0.00 0.00 0.00 0.00 0.00 0.00 0.00 0.00 0.00 0.00 0.00 0.00 0.00 0.00 0.00 0.00 0.00 0.00 0.00 0.00 0.00 0.00 0.00 0.00 0.00 0.00 0.00 0.00 0.00 0.00 0.00 0.00 0.00 0.00 0.00 0.00
0.00 0.00 0.00 0.00 0.00 0.00 0.00 0.00 0.00 0.00 0.00 0.00 0.00 0.00 0.00 0.00 0.00 0.00 0.00 0.00 0.00 0.00 0.00 0.00 0.00 0.00 0.00 0.00 0.00 0.00 0.00 0.00 0.00 0.00 0.00 0.00 0.00 0.00 0.00 0.00 0.00 0.00 0.00
0.02 0.01 0.01 0.00 0.00 0.00 0.00 0.00 0.00 0.00 0.00 0.00 0.00 0.00 0.00 0.00 0.00 0.00 0.00 0.00 0.00 0.00 0.00 0.00 0.00 0.00 0.00 0.00 0.00 0.00 0.00 0.00 0.00 0.00 0.00 0.00 0.00 0.00 0.00 0.00 0.00 0.00 0.00

GFSGL_prec_precacc12_120.txt.gz
Total_Precipitation_Accumulation
0.00 0.00 0.00 0.00 0.01 0.01 0.00 0.01 0.01 0.01 0.08 0.04 0.06 0.14 0.08 0.02 0.03 0.07 0.03 0.00 0.02 0.03 0.00 0.00 0.00 0.00 0.00 0.01 0.00 0.02 0.02 0.01 0.01 0.00 0.01 0.00 0.01 0.02 0.01 0.02 0.00 0.00 0.00
0.00 0.00 0.02 0.00 0.00 0.00 0.00 0.00 0.00 0.02 0.07 0.05 0.02 0.05 0.08 0.05 0.15 0.28 0.11 0.06 0.03 0.05 0.01 0.01 0.00 0.00 0.00 0.00 0.00 0.00 0.00 0.02 0.01 0.03 0.03 0.02 0.07 0.04 0.05 0.04 0.01 0.00 0.00
0.04 0.03 0.00 0.00 0.00 0.00 0.00 0.00 0.00 0.01 0.04 0.06 0.08 0.12 0.10 0.14 0.22 0.21 0.20 0.17 0.06 0.12 0.06 0.01 0.01 0.03 0.03 0.01 0.00 0.01 0.01 0.06 0.01 0.06 0.04 0.02 0.08 0.04 0.04 0.00 0.00 0.00 0.00
0.12 0.07 0.05 0.06 0.03 0.02 0.00 0.00 0.00 0.00 0.00 0.04 0.06 0.16 0.24 0.21 0.12 0.25 0.43 0.20 0.10 0.19 0.16 0.11 0.07 0.07 0.10 0.09 0.04 0.03 0.02 0.01 0.00 0.00 0.03 0.05 0.04 0.04 0.04 0.03 0.00 0.00 0.00
0.23 0.18 0.27 0.25 0.21 0.24 0.22 0.15 0.10 0.13 0.10 0.05 0.04 0.18 0.38 0.39 0.24 0.32 0.38 0.23 0.14 0.08 0.08 0.11 0.12 0.19 0.13 0.13 0.10 0.04 0.03 0.00 0.00 0.00 0.00 0.01 0.03 0.03 0.02 0.03 0.01 0.06 0.02
0.33 0.40 0.33 0.33 0.29 0.40 0.30 0.31 0.33 0.53 0.54 0.30 0.21 0.07 0.12 0.05 0.23 0.46 0.25 0.29 0.18 0.14 0.16 0.09 0.05 0.16 0.28 0.19 0.08 0.05 0.00 0.00 0.02 0.01 0.00 0.03 0.02 0.03 0.03 0.02 0.00 0.01 0.01
0.57 0.51 0.47 0.38 0.33 0.29 0.36 0.42 0.47 0.60 0.60 0.54 0.39 0.35 0.25 0.06 0.04 0.07 0.04 0.08 0.19 0.29 0.24 0.16 0.06 0.06 0.12 0.13 0.09 0.05 0.03 0.01 0.01 0.00 0.00 0.00 0.00 0.00 0.00 0.00 0.00 0.00 0.00
0.42 0.38 0.38 0.46 0.48 0.39 0.29 0.32 0.45 0.52 0.59 0.55 0.49 0.44 0.19 0.07 0.03 0.00 0.00 0.01 0.03 0.06 0.17 0.14 0.08 0.08 0.02 0.01 0.01 0.01 0.01 0.00 0.00 0.00 0.00 0.00 0.00 0.00 0.00 0.00 0.00 0.00 0.00
0.44 0.48 0.70 0.82 0.64 0.42 0.28 0.20 0.28 0.41 0.40 0.39 0.49 0.46 0.28 0.13 0.09 0.04 0.06 0.09 0.12 0.09 0.14 0.12 0.07 0.04 0.03 0.02 0.03 0.00 0.00 0.00 0.00 0.00 0.00 0.00 0.00 0.00 0.00 0.00 0.00 0.00 0.00
0.65 0.59 0.51 0.56 0.47 0.43 0.35 0.31 0.24 0.30 0.25 0.19 0.19 0.15 0.22 0.26 0.26 0.15 0.10 0.12 0.08 0.05 0.04 0.02 0.01 0.01 0.02 0.02 0.02 0.00 0.00 0.00 0.00 0.00 0.00 0.00 0.00 0.00 0.00 0.00 0.00 0.00 0.00
1.37 1.18 0.72 0.56 0.50 0.49 0.45 0.49 0.50 0.41 0.28 0.14 0.13 0.15 0.28 0.28 0.18 0.15 0.09 0.06 0.06 0.04 0.01 0.00 0.00 0.00 0.00 0.00 0.00 0.00 0.00 0.00 0.00 0.00 0.00 0.00 0.00 0.00 0.00 0.00 0.00 0.00 0.00
1.33 1.56 2.07 1.52 1.24 1.11 1.00 0.76 0.61 0.44 0.35 0.19 0.12 0.05 0.02 0.03 0.03 0.02 0.01 0.01 0.02 0.02 0.02 0.00 0.00 0.00 0.00 0.00 0.00 0.00 0.00 0.00 0.00 0.00 0.00 0.00 0.00 0.00 0.00 0.00 0.00 0.00 0.00
0.39 0.42 0.61 0.67 0.66 0.90 0.76 0.41 0.35 0.31 0.20 0.15 0.07 0.01 0.01 0.00 0.00 0.00 0.00 0.00 0.00 0.00 0.00 0.00 0.00 0.00 0.00 0.00 0.00 0.00 0.00 0.00 0.00 0.00 0.00 0.00 0.00 0.00 0.00 0.00 0.00 0.00 0.00
0.21 0.31 0.38 0.42 0.44 0.39 0.41 0.41 0.30 0.29 0.17 0.09 0.07 0.06 0.02 0.02 0.01 0.00 0.00 0.00 0.01 0.00 0.00 0.00 0.00 0.00 0.00 0.00 0.00 0.00 0.00 0.00 0.00 0.00 0.00 0.00 0.00 0.00 0.00 0.00 0.00 0.00 0.00
0.04 0.09 0.18 0.22 0.27 0.26 0.28 0.38 0.48 0.23 0.16 0.09 0.06 0.04 0.02 0.01 0.01 0.00 0.00 0.00 0.00 0.00 0.00 0.00 0.00 0.00 0.00 0.00 0.00 0.00 0.00 0.00 0.00 0.00 0.00 0.00 0.00 0.00 0.00 0.00 0.00 0.00 0.00
0.00 0.02 0.06 0.05 0.03 0.07 0.16 0.20 0.19 0.20 0.21 0.15 0.14 0.08 0.02 0.02 0.01 0.00 0.00 0.00 0.00 0.00 0.00 0.00 0.00 0.00 0.00 0.00 0.00 0.00 0.00 0.00 0.00 0.00 0.00 0.00 0.00 0.00 0.00 0.00 0.00 0.00 0.00
0.00 0.00 0.01 0.01 0.01 0.01 0.01 0.01 0.01 0.01 0.01 0.02 0.03 0.05 0.04 0.03 0.01 0.00 0.00 0.00 0.00 0.00 0.00 0.00 0.00 0.00 0.00 0.00 0.00 0.00 0.00 0.00 0.00 0.00 0.00 0.00 0.00 0.00 0.00 0.00 0.00 0.00 0.00
0.00 0.00 0.00 0.00 0.00 0.00 0.00 0.00 0.00 0.00 0.00 0.00 0.00 0.00 0.00 0.00 0.00 0.00 0.00 0.00 0.00 0.00 0.00 0.00 0.00 0.00 0.00 0.00 0.00 0.00 0.00 0.00 0.00 0.00 0.00 0.00 0.00 0.00 0.00 0.00 0.00 0.00 0.00
0.00 0.00 0.00 0.00 0.00 0.00 0.00 0.00 0.00 0.00 0.00 0.00 0.00 0.00 0.00 0.00 0.00 0.00 0.00 0.00 0.00 0.00 0.00 0.00 0.00 0.00 0.00 0.00 0.00 0.00 0.00 0.00 0.00 0.00 0.00 0.00 0.00 0.00 0.00 0.00 0.00 0.00 0.00
0.00 0.00 0.00 0.00 0.00 0.00 0.00 0.00 0.00 0.00 0.00 0.00 0.00 0.00 0.00 0.00 0.00 0.00 0.00 0.00 0.00 0.00 0.00 0.00 0.00 0.00 0.00 0.00 0.00 0.00 0.00 0.00 0.00 0.00 0.00 0.00 0.00 0.00 0.00 0.00 0.00 0.00 0.00
0.00 0.00 0.00 0.00 0.00 0.00 0.00 0.00 0.00 0.00 0.00 0.00 0.00 0.00 0.00 0.00 0.00 0.00 0.00 0.00 0.00 0.00 0.00 0.00 0.00 0.00 0.00 0.00 0.00 0.00 0.00 0.00 0.00 0.00 0.00 0.00 0.00 0.00 0.00 0.00 0.00 0.00 0.00
0.00 0.00 0.00 0.00 0.00 0.00 0.00 0.00 0.00 0.00 0.00 0.00 0.00 0.00 0.00 0.00 0.00 0.00 0.00 0.00 0.00 0.00 0.00 0.00 0.00 0.00 0.00 0.00 0.00 0.00 0.00 0.00 0.00 0.00 0.00 0.00 0.00 0.00 0.00 0.00 0.00 0.00 0.00
0.00 0.00 0.00 0.00 0.00 0.00 0.00 0.00 0.00 0.00 0.00 0.00 0.00 0.00 0.00 0.00 0.00 0.00 0.00 0.00 0.00 0.00 0.00 0.00 0.00 0.00 0.00 0.00 0.00 0.00 0.00 0.00 0.00 0.00 0.00 0.00 0.00 0.00 0.00 0.00 0.00 0.00 0.00
0.00 0.00 0.00 0.00 0.00 0.00 0.00 0.00 0.00 0.00 0.00 0.00 0.00 0.00 0.00 0.00 0.00 0.00 0.00 0.00 0.00 0.00 0.00 0.00 0.00 0.00 0.00 0.00 0.00 0.00 0.00 0.00 0.00 0.00 0.00 0.00 0.00 0.00 0.00 0.00 0.00 0.00 0.00
0.00 0.00 0.00 0.00 0.00 0.00 0.00 0.00 0.00 0.00 0.00 0.00 0.00 0.00 0.00 0.00 0.00 0.00 0.00 0.00 0.00 0.00 0.00 0.00 0.00 0.00 0.00 0.00 0.00 0.00 0.00 0.00 0.00 0.00 0.00 0.00 0.00 0.00 0.00 0.00 0.00 0.00 0.00
0.02 0.01 0.01 0.00 0.00 0.00 0.00 0.00 0.00 0.00 0.00 0.00 0.00 0.00 0.00 0.00 0.00 0.00 0.00 0.00 0.00 0.00 0.00 0.00 0.00 0.00 0.00 0.00 0.00 0.00 0.00 0.00 0.00 0.00 0.00 0.00 0.00 0.00 0.00 0.00 0.00 0.00 0.00

GFSGL_prec_precacc12_123.txt.gz
Total_Precipitation_Accumulation
0.00 0.00 0.00 0.00 0.01 0.00 0.00 0.00 0.00 0.00 0.00 0.00 0.00 0.04 0.06 0.01 0.03 0.09 0.09 0.05 0.03 0.05 0.01 0.01 0.00 0.00 0.00 0.00 0.00 0.03 0.02 0.02 0.01 0.01 0.01 0.01 0.06 0.04 0.01 0.02 0.00 0.00 0.00
0.00 0.00 0.00 0.00 0.00 0.00 0.00 0.00 0.00 0.00 0.00 0.00 0.00 0.02 0.07 0.01 0.13 0.23 0.13 0.12 0.08 0.06 0.02 0.02 0.03 0.00 0.01 0.01 0.02 0.03 0.03 0.02 0.00 0.03 0.05 0.06 0.14 0.07 0.04 0.01 0.01 0.00 0.00
0.04 0.03 0.00 0.00 0.00 0.00 0.00 0.00 0.00 0.00 0.01 0.01 0.04 0.09 0.10 0.12 0.21 0.21 0.23 0.24 0.13 0.17 0.09 0.02 0.04 0.04 0.07 0.05 0.04 0.05 0.02 0.09 0.04 0.09 0.05 0.01 0.07 0.04 0.01 0.00 0.00 0.00 0.00
0.06 0.06 0.05 0.02 0.01 0.02 0.00 0.00 0.00 0.00 0.00 0.00 0.03 0.15 0.17 0.13 0.08 0.24 0.45 0.22 0.12 0.22 0.23 0.17 0.12 0.14 0.21 0.15 0.08 0.12 0.10 0.09 0.08 0.02 0.00 0.01 0.00 0.00 0.00 0.00 0.00 0.00 0.00
0.09 0.08 0.19 0.17 0.09 0.18 0.21 0.14 0.09 0.11 0.08 0.03 0.03 0.15 0.21 0.17 0.20 0.30 0.43 0.28 0.19 0.11 0.05 0.06 0.09 0.25 0.19 0.20 0.14 0.11 0.13 0.09 0.07 0.04 0.00 0.01 0.00 0.00 0.00 0.00 0.00 0.06 0.02
0.11 0.19 0.22 0.24 0.22 0.28 0.16 0.16 0.21 0.42 0.45 0.26 0.18 0.04 0.04 0.03 0.15 0.43 0.25 0.27 0.17 0.13 0.13 0.07 0.05 0.13 0.24 0.18 0.08 0.06 0.08 0.08 0.08 0.06 0.04 0.05 0.01 0.00 0.00 0.00 0.00 0.03 0.01
0.41 0.43 0.48 0.47 0.39 0.37 0.40 0.38 0.34 0.46 0.46 0.33 0.27 0.27 0.19 0.05 0.03 0.07 0.04 0.08 0.18 0.28 0.20 0.09 0.04 0.03 0.04 0.07 0.08 0.06 0.05 0.06 0.08 0.05 0.05 0.02 0.00 0.00 0.00 0.00 0.00 0.00 0.00
0.39 0.44 0.47 0.54 0.66 0.66 0.55 0.48 0.55 0.60 0.54 0.48 0.36 0.37 0.29 0.16 0.06 0.01 0.00 0.00 0.01 0.04 0.11 0.06 0.04 0.04 0.02 0.01 0.00 0.01 0.00 0.00 0.00 0.00 0.00 0.00 0.00 0.00 0.00 0.00 0.00 0.00 0.00
0.47 0.57 0.80 0.96 0.98 1.07 0.96 0.85 0.92 0.72 0.48 0.48 0.62 0.69 0.57 0.45 0.29 0.08 0.04 0.04 0.02 0.03 0.06 0.09 0.06 0.04 0.03 0.02 0.03 0.00 0.00 0.00 0.00 0.00 0.00 0.00 0.00 0.00 0.00 0.00 0.00 0.00 0.00
0.67 0.61 0.57 0.68 0.70 0.76 0.88 0.82 0.55 0.58 0.42 0.27 0.25 0.19 0.27 0.35 0.41 0.30 0.21 0.10 0.05 0.05 0.04 0.02 0.01 0.01 0.02 0.02 0.02 0.01 0.00 0.00 0.00 0.00 0.00 0.00 0.00 0.00 0.00 0.00 0.00 0.00 0.00
1.33 1.17 0.75 0.68 0.70 0.64 0.59 0.67 0.76 0.79 0.66 0.35 0.25 0.24 0.39 0.57 0.58 0.51 0.40 0.23 0.15 0.07 0.04 0.03 0.01 0.00 0.00 0.00 0.00 0.00 0.00 0.00 0.00 0.00 0.00 0.00 0.00 0.00 0.00 0.00 0.00 0.00 0.00
1.24 1.50 2.06 1.55 1.31 1.31 1.27 0.97 0.78 0.63 0.64 0.44 0.27 0.16 0.12 0.13 0.32 0.37 0.33 0.28 0.16 0.09 0.04 0.04 0.03 0.01 0.00 0.00 0.00 0.00 0.00 0.00 0.00 0.00 0.00 0.00 0.00 0.00 0.00 0.00 0.00 0.00 0.00
0.35 0.36 0.53 0.63 0.68 0.93 0.80 0.46 0.44 0.39 0.29 0.27 0.20 0.10 0.04 0.01 0.01 0.01 0.01 0.02 0.01 0.01 0.00 0.01 0.00 0.00 0.00 0.00 0.01 0.01 0.00 0.00 0.00 0.00 0.00 0.00 0.00 0.00 0.00 0.00 0.00 0.00 0.00
0.19 0.26 0.30 0.37 0.45 0.40 0.43 0.43 0.32 0.36 0.31 0.20 0.19 0.18 0.12 0.08 0.05 0.06 0.10 0.05 0.02 0.01 0.01 0.01 0.01 0.00 0.00 0.00 0.00 0.00 0.00 0.00 0.00 0.00 0.00 0.00 0.00 0.00 0.00 0.00 0.00 0.00 0.00
0.04 0.09 0.17 0.23 0.28 0.30 0.35 0.46 0.58 0.36 0.26 0.23 0.19 0.11 0.09 0.11 0.06 0.02 0.05 0.06 0.01 0.00 0.00 0.00 0.00 0.00 0.00 0.00 0.00 0.00 0.00 0.00 0.00 0.00 0.00 0.00 0.00 0.00 0.00 0.00 0.00 0.00 0.00
0.00 0.02 0.05 0.05 0.04 0.08 0.18 0.23 0.24 0.26 0.28 0.24 0.30 0.23 0.17 0.16 0.16 0.05 0.00 0.00 0.01 0.00 0.00 0.00 0.00 0.00 0.00 0.00 0.00 0.00 0.00 0.00 0.00 0.00 0.00 0.00 0.00 0.00 0.00 0.00 0.00 0.00 0.00
0.00 0.00 0.00 0.00 0.01 0.00 0.00 0.01 0.01 0.01 0.02 0.04 0.08 0.15 0.14 0.11 0.05 0.02 0.01 0.00 0.00 0.00 0.00 0.00 0.00 0.00 0.00 0.00 0.00 0.00 0.00 0.00 0.00 0.00 0.00 0.00 0.00 0.00 0.00 0.00 0.00 0.00 0.00
0.00 0.00 0.00 0.00 0.00 0.00 0.00 0.00 0.00 0.00 0.00 0.00 0.00 0.00 0.00 0.00 0.00 0.00 0.00 0.00 0.00 0.00 0.00 0.00 0.00 0.00 0.00 0.00 0.00 0.00 0.00 0.00 0.00 0.00 0.00 0.00 0.00 0.00 0.00 0.00 0.00 0.00 0.00
0.00 0.00 0.00 0.00 0.00 0.00 0.00 0.00 0.00 0.00 0.00 0.00 0.00 0.00 0.00 0.00 0.00 0.00 0.00 0.00 0.00 0.00 0.00 0.00 0.00 0.00 0.00 0.00 0.00 0.00 0.00 0.00 0.00 0.00 0.00 0.00 0.00 0.00 0.00 0.00 0.00 0.00 0.00
0.00 0.00 0.00 0.00 0.00 0.00 0.00 0.00 0.00 0.00 0.00 0.00 0.00 0.00 0.00 0.00 0.00 0.00 0.00 0.00 0.00 0.00 0.00 0.00 0.00 0.00 0.00 0.00 0.00 0.00 0.00 0.00 0.00 0.00 0.00 0.00 0.00 0.00 0.00 0.00 0.00 0.00 0.00
0.00 0.00 0.00 0.00 0.00 0.00 0.00 0.00 0.00 0.00 0.00 0.00 0.00 0.00 0.00 0.00 0.00 0.00 0.00 0.00 0.00 0.00 0.00 0.00 0.00 0.00 0.00 0.00 0.00 0.00 0.00 0.00 0.00 0.00 0.00 0.00 0.00 0.00 0.00 0.00 0.00 0.00 0.00
0.00 0.00 0.00 0.00 0.00 0.00 0.00 0.00 0.00 0.00 0.00 0.00 0.00 0.00 0.00 0.00 0.00 0.00 0.00 0.00 0.00 0.00 0.00 0.00 0.00 0.00 0.00 0.00 0.00 0.00 0.00 0.00 0.00 0.00 0.00 0.00 0.00 0.00 0.00 0.00 0.00 0.00 0.00
0.00 0.00 0.00 0.00 0.00 0.00 0.00 0.00 0.00 0.00 0.00 0.00 0.00 0.00 0.00 0.00 0.00 0.00 0.00 0.00 0.00 0.00 0.00 0.00 0.00 0.00 0.00 0.00 0.00 0.00 0.00 0.00 0.00 0.00 0.00 0.00 0.00 0.00 0.00 0.00 0.00 0.00 0.00
0.00 0.00 0.00 0.00 0.00 0.00 0.00 0.00 0.00 0.00 0.00 0.00 0.00 0.00 0.00 0.00 0.00 0.00 0.00 0.00 0.00 0.00 0.00 0.00 0.00 0.00 0.00 0.00 0.00 0.00 0.00 0.00 0.00 0.00 0.00 0.00 0.00 0.00 0.00 0.00 0.00 0.00 0.00
0.01 0.01 0.00 0.00 0.00 0.00 0.00 0.00 0.00 0.00 0.00 0.00 0.00 0.00 0.00 0.00 0.00 0.00 0.00 0.00 0.00 0.00 0.00 0.00 0.00 0.00 0.00 0.00 0.00 0.00 0.00 0.00 0.00 0.00 0.00 0.00 0.00 0.00 0.00 0.00 0.00 0.00 0.00
0.01 0.01 0.01 0.00 0.00 0.00 0.00 0.00 0.00 0.00 0.00 0.00 0.00 0.00 0.00 0.00 0.00 0.00 0.00 0.00 0.00 0.00 0.00 0.00 0.00 0.00 0.00 0.00 0.00 0.00 0.00 0.00 0.00 0.00 0.00 0.00 0.00 0.00 0.00 0.00 0.00 0.00 0.00

GFSGL_prec_precacc12_126.txt.gz
Total_Precipitation_Accumulation
0.00 0.00 0.00 0.00 0.00 0.00 0.00 0.05 0.00 0.00 0.00 0.00 0.00 0.04 0.06 0.03 0.02 0.11 0.12 0.05 0.04 0.06 0.01 0.02 0.01 0.01 0.00 0.00 0.00 0.01 0.01 0.01 0.00 0.00 0.00 0.03 0.07 0.05 0.01 0.00 0.01 0.02 0.00
0.00 0.00 0.00 0.00 0.00 0.00 0.00 0.00 0.00 0.00 0.00 0.00 0.00 0.01 0.04 0.01 0.10 0.23 0.14 0.11 0.08 0.05 0.02 0.03 0.06 0.02 0.03 0.01 0.02 0.04 0.03 0.03 0.01 0.03 0.04 0.07 0.13 0.09 0.01 0.00 0.01 0.00 0.00
0.01 0.00 0.00 0.00 0.00 0.00 0.00 0.00 0.00 0.00 0.00 0.00 0.00 0.04 0.07 0.03 0.03 0.17 0.22 0.19 0.12 0.12 0.05 0.03 0.07 0.06 0.10 0.05 0.06 0.06 0.02 0.10 0.08 0.10 0.04 0.02 0.08 0.03 0.00 0.00 0.00 0.01 0.00
0.00 0.00 0.00 0.00 0.00 0.00 0.00 0.00 0.00 0.00 0.00 0.00 0.00 0.01 0.03 0.02 0.02 0.05 0.26 0.21 0.16 0.18 0.16 0.13 0.10 0.14 0.25 0.19 0.13 0.16 0.10 0.17 0.17 0.08 0.04 0.00 0.00 0.01 0.00 0.03 0.01 0.02 0.00
0.01 0.00 0.00 0.02 0.04 0.02 0.00 0.00 0.00 0.02 0.03 0.01 0.00 0.02 0.08 0.06 0.11 0.13 0.29 0.31 0.19 0.10 0.08 0.11 0.13 0.24 0.23 0.20 0.17 0.18 0.24 0.17 0.11 0.08 0.00 0.01 0.03 0.01 0.00 0.01 0.04 0.07 0.04
0.07 0.03 0.04 0.06 0.12 0.12 0.11 0.15 0.16 0.29 0.36 0.21 0.09 0.03 0.04 0.03 0.11 0.27 0.17 0.20 0.15 0.11 0.05 0.08 0.08 0.15 0.15 0.11 0.09 0.14 0.19 0.18 0.17 0.09 0.05 0.04 0.06 0.01 0.00 0.01 0.06 0.06 0.02
0.35 0.32 0.28 0.37 0.34 0.33 0.40 0.46 0.37 0.40 0.43 0.33 0.27 0.20 0.14 0.08 0.03 0.08 0.03 0.06 0.16 0.28 0.17 0.10 0.08 0.05 0.08 0.02 0.04 0.06 0.05 0.06 0.09 0.11 0.10 0.05 0.04 0.00 0.00 0.00 0.04 0.05 0.02
0.36 0.40 0.40 0.45 0.58 0.59 0.54 0.51 0.69 0.77 0.77 0.68 0.47 0.29 0.27 0.16 0.07 0.02 0.01 0.00 0.01 0.04 0.11 0.06 0.08 0.07 0.04 0.02 0.00 0.01 0.00 0.00 0.00 0.00 0.01 0.01 0.00 0.00 0.00 0.01 0.06 0.03 0.00
0.38 0.46 0.62 0.79 0.83 0.94 0.91 0.86 0.99 0.99 0.86 0.77 0.75 0.73 0.61 0.49 0.32 0.13 0.05 0.01 0.01 0.03 0.06 0.08 0.06 0.04 0.06 0.04 0.03 0.00 0.00 0.00 0.00 0.00 0.00 0.00 0.00 0.00 0.00 0.00 0.05 0.05 0.09
0.53 0.46 0.46 0.53 0.55 0.68 0.88 0.84 0.62 0.70 0.68 0.60 0.52 0.36 0.36 0.38 0.45 0.36 0.25 0.09 0.04 0.05 0.04 0.02 0.01 0.01 0.02 0.02 0.02 0.01 0.00 0.00 0.00 0.00 0.00 0.00 0.00 0.00 0.00 0.00 0.01 0.01 0.01
0.85 0.89 0.61 0.53 0.57 0.61 0.61 0.72 0.85 0.94 0.90 0.80 0.69 0.62 0.71 0.79 0.66 0.55 0.48 0.38 0.26 0.16 0.09 0.04 0.01 0.01 0.00 0.00 0.00 0.00 0.00 0.00 0.00 0.00 0.00 0.00 0.00 0.00 0.00 0.00 0.00 0.00 0.00
0.56 1.09 1.90 1.43 1.23 1.28 1.33 1.11 0.97 0.81 0.85 0.77 0.79 0.76 0.52 0.36 0.44 0.42 0.38 0.36 0.27 0.20 0.16 0.10 0.06 0.05 0.02 0.01 0.00 0.00 0.00 0.00 0.00 0.00 0.00 0.00 0.00 0.00 0.00 0.00 0.00 0.00 0.00
0.17 0.21 0.36 0.47 0.55 0.86 0.85 0.47 0.45 0.40 0.32 0.31 0.24 0.16 0.11 0.06 0.05 0.05 0.04 0.06 0.07 0.03 0.03 0.03 0.03 0.03 0.02 0.02 0.01 0.01 0.01 0.00 0.00 0.00 0.00 0.00 0.00 0.00 0.00 0.00 0.00 0.00 0.00
0.18 0.27 0.25 0.32 0.38 0.32 0.37 0.40 0.31 0.36 0.32 0.21 0.19 0.18 0.13 0.10 0.10 0.11 0.12 0.11 0.07 0.03 0.02 0.02 0.01 0.00 0.00 0.00 0.00 0.00 0.00 0.00 0.00 0.00 0.00 0.00 0.00 0.00 0.00 0.00 0.00 0.00 0.00
0.03 0.08 0.16 0.19 0.22 0.24 0.31 0.45 0.57 0.36 0.29 0.25 0.23 0.14 0.12 0.16 0.18 0.13 0.12 0.19 0.13 0.04 0.01 0.01 0.01 0.01 0.01 0.01 0.00 0.00 0.00 0.00 0.00 0.00 0.00 0.00 0.00 0.00 0.00 0.00 0.00 0.00 0.00
0.00 0.01 0.05 0.05 0.03 0.06 0.16 0.24 0.25 0.27 0.31 0.27 0.34 0.30 0.21 0.18 0.20 0.15 0.10 0.10 0.12 0.07 0.05 0.03 0.02 0.00 0.00 0.00 0.00 0.00 0.00 0.00 0.00 0.00 0.00 0.00 0.00 0.00 0.00 0.00 0.00 0.00 0.00
0.00 0.00 0.00 0.00 0.00 0.00 0.00 0.00 0.01 0.01 0.01 0.03 0.08 0.15 0.15 0.12 0.06 0.03 0.02 0.01 0.01 0.02 0.05 0.06 0.04 0.00 0.00 0.00 0.00 0.00 0.00 0.00 0.00 0.00 0.00 0.00 0.00 0.00 0.00 0.00 0.00 0.00 0.00
0.00 0.00 0.00 0.00 0.00 0.00 0.00 0.00 0.00 0.00 0.00 0.00 0.00 0.00 0.00 0.00 0.00 0.00 0.00 0.00 0.00 0.00 0.01 0.01 0.00 0.00 0.00 0.00 0.00 0.00 0.00 0.00 0.00 0.00 0.00 0.00 0.00 0.00 0.00 0.00 0.00 0.00 0.00
0.00 0.00 0.00 0.00 0.00 0.00 0.00 0.00 0.00 0.00 0.00 0.00 0.00 0.00 0.00 0.00 0.00 0.00 0.00 0.00 0.00 0.00 0.00 0.00 0.00 0.00 0.00 0.00 0.00 0.00 0.00 0.00 0.00 0.00 0.00 0.00 0.00 0.00 0.00 0.00 0.00 0.00 0.00
0.00 0.00 0.00 0.00 0.00 0.00 0.00 0.00 0.00 0.00 0.00 0.00 0.00 0.00 0.00 0.00 0.00 0.00 0.00 0.00 0.00 0.00 0.00 0.00 0.00 0.00 0.00 0.00 0.00 0.00 0.00 0.00 0.00 0.00 0.00 0.00 0.00 0.00 0.00 0.00 0.00 0.00 0.00
0.00 0.00 0.00 0.00 0.00 0.00 0.00 0.00 0.00 0.00 0.00 0.00 0.00 0.00 0.00 0.00 0.00 0.00 0.00 0.00 0.00 0.00 0.00 0.00 0.00 0.00 0.00 0.00 0.00 0.00 0.00 0.00 0.00 0.00 0.00 0.00 0.00 0.00 0.00 0.00 0.00 0.00 0.00
0.00 0.00 0.00 0.00 0.00 0.00 0.00 0.00 0.00 0.00 0.00 0.00 0.00 0.00 0.00 0.00 0.00 0.00 0.00 0.00 0.00 0.00 0.00 0.00 0.00 0.00 0.00 0.00 0.00 0.00 0.00 0.00 0.00 0.00 0.00 0.00 0.00 0.00 0.00 0.00 0.00 0.00 0.00
0.00 0.00 0.00 0.00 0.00 0.00 0.00 0.00 0.00 0.00 0.00 0.00 0.00 0.00 0.00 0.00 0.00 0.00 0.00 0.00 0.00 0.00 0.00 0.00 0.00 0.00 0.00 0.00 0.00 0.00 0.00 0.00 0.00 0.00 0.00 0.00 0.00 0.00 0.00 0.00 0.00 0.00 0.00
0.00 0.00 0.00 0.00 0.00 0.00 0.00 0.00 0.00 0.00 0.00 0.00 0.00 0.00 0.00 0.00 0.00 0.00 0.00 0.00 0.00 0.00 0.00 0.00 0.00 0.00 0.00 0.00 0.00 0.00 0.00 0.00 0.00 0.00 0.00 0.00 0.00 0.00 0.00 0.00 0.00 0.00 0.00
0.01 0.01 0.00 0.00 0.00 0.00 0.00 0.00 0.00 0.00 0.00 0.00 0.00 0.00 0.00 0.00 0.00 0.00 0.00 0.00 0.00 0.00 0.00 0.00 0.00 0.00 0.00 0.00 0.00 0.00 0.00 0.00 0.00 0.00 0.00 0.00 0.00 0.00 0.00 0.00 0.00 0.00 0.00
0.01 0.02 0.01 0.01 0.00 0.00 0.01 0.01 0.00 0.01 0.01 0.01 0.00 0.00 0.00 0.00 0.00 0.00 0.00 0.00 0.00 0.00 0.00 0.00 0.00 0.00 0.00 0.00 0.00 0.00 0.00 0.00 0.00 0.00 0.00 0.00 0.00 0.00 0.00 0.00 0.00 0.00 0.00

GFSGL_prec_precacc12_129.txt.gz
Total_Precipitation_Accumulation
0.00 0.00 0.00 0.00 0.00 0.00 0.00 0.05 0.00 0.00 0.00 0.03 0.01 0.04 0.06 0.09 0.10 0.20 0.17 0.05 0.05 0.05 0.01 0.02 0.01 0.01 0.00 0.00 0.00 0.01 0.01 0.01 0.00 0.00 0.00 0.05 0.07 0.05 0.01 0.00 0.13 0.05 0.00
0.00 0.00 0.00 0.00 0.00 0.00 0.00 0.00 0.00 0.00 0.00 0.00 0.01 0.00 0.03 0.00 0.02 0.24 0.16 0.09 0.14 0.04 0.01 0.03 0.06 0.02 0.05 0.01 0.02 0.04 0.03 0.03 0.01 0.03 0.03 0.09 0.11 0.08 0.01 0.00 0.02 0.00 0.00
0.01 0.00 0.00 0.00 0.00 0.00 0.00 0.00 0.00 0.00 0.00 0.00 0.00 0.02 0.01 0.01 0.02 0.16 0.21 0.16 0.10 0.09 0.04 0.06 0.10 0.09 0.14 0.08 0.09 0.07 0.02 0.13 0.09 0.11 0.04 0.02 0.02 0.02 0.02 0.01 0.02 0.01 0.00
0.00 0.00 0.00 0.00 0.00 0.00 0.00 0.00 0.00 0.00 0.00 0.00 0.00 0.02 0.03 0.02 0.02 0.05 0.16 0.11 0.13 0.08 0.15 0.10 0.08 0.15 0.30 0.22 0.15 0.19 0.13 0.24 0.25 0.18 0.10 0.00 0.00 0.03 0.00 0.06 0.06 0.04 0.00
0.00 0.00 0.00 0.00 0.00 0.00 0.00 0.00 0.00 0.02 0.02 0.00 0.01 0.04 0.08 0.07 0.11 0.12 0.12 0.17 0.13 0.11 0.11 0.14 0.09 0.20 0.28 0.27 0.22 0.25 0.35 0.26 0.19 0.13 0.02 0.02 0.08 0.09 0.02 0.04 0.09 0.10 0.06
0.03 0.01 0.01 0.02 0.04 0.05 0.08 0.15 0.16 0.17 0.22 0.17 0.15 0.15 0.12 0.04 0.10 0.14 0.10 0.05 0.05 0.08 0.13 0.15 0.12 0.16 0.06 0.04 0.08 0.17 0.28 0.29 0.27 0.20 0.11 0.11 0.21 0.12 0.01 0.01 0.14 0.12 0.08
0.22 0.26 0.24 0.28 0.23 0.24 0.32 0.40 0.29 0.34 0.37 0.27 0.27 0.23 0.19 0.13 0.04 0.06 0.02 0.02 0.03 0.09 0.12 0.16 0.12 0.11 0.20 0.09 0.13 0.05 0.04 0.06 0.11 0.14 0.13 0.11 0.10 0.04 0.02 0.04 0.13 0.14 0.10
0.32 0.34 0.32 0.36 0.48 0.51 0.46 0.43 0.56 0.64 0.66 0.58 0.44 0.36 0.35 0.25 0.16 0.09 0.01 0.00 0.02 0.05 0.07 0.06 0.12 0.14 0.13 0.16 0.08 0.05 0.04 0.00 0.00 0.00 0.03 0.04 0.07 0.04 0.00 0.07 0.15 0.11 0.05
0.45 0.58 0.66 0.78 0.84 0.92 0.85 0.75 0.91 0.92 0.79 0.71 0.69 0.67 0.63 0.58 0.40 0.17 0.05 0.01 0.01 0.02 0.04 0.03 0.05 0.05 0.15 0.13 0.10 0.08 0.09 0.01 0.00 0.00 0.00 0.00 0.00 0.00 0.00 0.01 0.14 0.17 0.23
0.50 0.41 0.39 0.43 0.45 0.49 0.69 0.67 0.54 0.65 0.72 0.63 0.53 0.35 0.32 0.39 0.49 0.39 0.26 0.09 0.04 0.02 0.01 0.00 0.00 0.01 0.02 0.01 0.03 0.04 0.05 0.03 0.00 0.00 0.00 0.00 0.00 0.00 0.00 0.01 0.04 0.09 0.11
0.16 0.17 0.18 0.26 0.32 0.33 0.34 0.50 0.76 0.94 0.95 0.85 0.71 0.64 0.75 0.87 0.77 0.65 0.52 0.40 0.30 0.21 0.14 0.08 0.03 0.02 0.00 0.00 0.00 0.00 0.00 0.00 0.00 0.00 0.00 0.00 0.00 0.00 0.00 0.00 0.00 0.00 0.00
0.10 0.13 0.19 0.29 0.50 0.87 1.09 1.00 0.94 0.83 0.88 0.82 0.90 0.94 0.86 0.70 0.83 0.63 0.47 0.44 0.36 0.28 0.30 0.30 0.27 0.25 0.08 0.04 0.01 0.00 0.00 0.00 0.00 0.00 0.00 0.00 0.00 0.00 0.00 0.00 0.00 0.00 0.00
0.09 0.07 0.06 0.09 0.20 0.50 0.63 0.39 0.40 0.38 0.31 0.31 0.26 0.18 0.13 0.11 0.12 0.11 0.06 0.08 0.11 0.11 0.10 0.09 0.09 0.11 0.11 0.09 0.06 0.04 0.04 0.03 0.01 0.02 0.02 0.02 0.01 0.00 0.00 0.00 0.00 0.00 0.00
0.10 0.14 0.09 0.09 0.16 0.14 0.21 0.30 0.26 0.33 0.31 0.21 0.19 0.18 0.13 0.10 0.10 0.11 0.13 0.12 0.07 0.04 0.04 0.03 0.02 0.01 0.01 0.01 0.02 0.02 0.02 0.00 0.00 0.00 0.00 0.00 0.00 0.00 0.00 0.00 0.00 0.00 0.00
0.02 0.07 0.13 0.16 0.18 0.18 0.21 0.37 0.53 0.33 0.26 0.23 0.21 0.15 0.12 0.17 0.26 0.20 0.18 0.24 0.16 0.10 0.05 0.03 0.02 0.01 0.01 0.01 0.00 0.01 0.01 0.00 0.00 0.00 0.00 0.00 0.00 0.00 0.00 0.00 0.00 0.00 0.00
0.00 0.01 0.03 0.04 0.03 0.05 0.11 0.17 0.20 0.22 0.29 0.26 0.32 0.29 0.22 0.19 0.22 0.19 0.14 0.12 0.18 0.22 0.17 0.15 0.13 0.09 0.08 0.06 0.05 0.05 0.05 0.02 0.00 0.00 0.00 0.00 0.00 0.00 0.00 0.00 0.00 0.00 0.00
0.00 0.00 0.00 0.00 0.00 0.00 0.00 0.00 0.01 0.01 0.01 0.03 0.07 0.14 0.14 0.12 0.06 0.03 0.02 0.01 0.01 0.02 0.05 0.06 0.06 0.06 0.06 0.03 0.01 0.00 0.01 0.00 0.00 0.00 0.00 0.00 0.00 0.00 0.00 0.00 0.00 0.00 0.00
0.00 0.00 0.00 0.00 0.00 0.00 0.00 0.00 0.00 0.00 0.00 0.00 0.00 0.00 0.00 0.00 0.00 0.00 0.00 0.00 0.00 0.00 0.01 0.01 0.00 0.00 0.00 0.00 0.00 0.00 0.00 0.00 0.00 0.00 0.00 0.00 0.00 0.00 0.00 0.00 0.00 0.00 0.00
0.00 0.00 0.00 0.00 0.00 0.00 0.00 0.00 0.00 0.00 0.00 0.00 0.00 0.00 0.00 0.00 0.00 0.00 0.00 0.00 0.00 0.00 0.00 0.00 0.00 0.00 0.00 0.00 0.00 0.00 0.00 0.00 0.00 0.00 0.00 0.00 0.00 0.00 0.00 0.00 0.00 0.00 0.00
0.00 0.00 0.00 0.00 0.00 0.00 0.00 0.00 0.00 0.00 0.00 0.00 0.00 0.00 0.00 0.00 0.00 0.00 0.00 0.00 0.00 0.00 0.00 0.00 0.00 0.00 0.00 0.00 0.00 0.00 0.00 0.00 0.00 0.00 0.00 0.00 0.00 0.00 0.00 0.00 0.00 0.00 0.00
0.00 0.00 0.00 0.00 0.00 0.00 0.00 0.00 0.00 0.00 0.00 0.00 0.00 0.00 0.00 0.00 0.00 0.00 0.00 0.00 0.00 0.00 0.00 0.00 0.00 0.00 0.00 0.00 0.00 0.00 0.00 0.00 0.00 0.00 0.00 0.00 0.00 0.00 0.00 0.00 0.00 0.00 0.00
0.00 0.00 0.00 0.00 0.00 0.00 0.00 0.00 0.00 0.00 0.00 0.00 0.00 0.00 0.00 0.00 0.00 0.00 0.00 0.00 0.00 0.00 0.00 0.00 0.00 0.00 0.00 0.00 0.00 0.00 0.00 0.00 0.00 0.00 0.00 0.00 0.00 0.00 0.00 0.00 0.00 0.00 0.00
0.00 0.00 0.00 0.00 0.00 0.00 0.00 0.00 0.00 0.00 0.00 0.00 0.00 0.00 0.00 0.00 0.00 0.00 0.00 0.00 0.00 0.00 0.00 0.00 0.00 0.00 0.00 0.00 0.00 0.00 0.00 0.00 0.00 0.00 0.00 0.00 0.00 0.00 0.00 0.00 0.00 0.00 0.00
0.00 0.00 0.00 0.00 0.00 0.00 0.00 0.00 0.00 0.00 0.00 0.00 0.00 0.00 0.00 0.00 0.00 0.00 0.00 0.00 0.00 0.00 0.00 0.00 0.00 0.00 0.00 0.00 0.00 0.00 0.00 0.00 0.00 0.00 0.00 0.00 0.00 0.00 0.00 0.00 0.00 0.00 0.00
0.00 0.00 0.00 0.00 0.00 0.00 0.00 0.00 0.00 0.00 0.00 0.00 0.00 0.00 0.00 0.00 0.00 0.00 0.00 0.00 0.00 0.00 0.00 0.00 0.00 0.00 0.00 0.00 0.00 0.00 0.00 0.00 0.00 0.00 0.00 0.00 0.00 0.00 0.00 0.00 0.00 0.00 0.00
0.00 0.01 0.01 0.01 0.00 0.00 0.01 0.01 0.00 0.01 0.01 0.01 0.00 0.00 0.00 0.00 0.00 0.00 0.00 0.00 0.00 0.00 0.00 0.00 0.00 0.00 0.00 0.00 0.00 0.00 0.00 0.00 0.00 0.00 0.00 0.00 0.00 0.00 0.00 0.00 0.00 0.00 0.00

GFSGL_prec_precacc12_132.txt.gz
Total_Precipitation_Accumulation
0.00 0.00 0.00 0.00 0.00 0.01 0.04 0.10 0.02 0.05 0.09 0.07 0.05 0.02 0.01 0.11 0.14 0.26 0.22 0.12 0.14 0.11 0.03 0.04 0.02 0.02 0.00 0.00 0.00 0.01 0.01 0.01 0.00 0.00 0.01 0.06 0.09 0.05 0.02 0.05 0.15 0.07 0.00
0.00 0.00 0.00 0.00 0.00 0.00 0.00 0.01 0.02 0.03 0.05 0.02 0.07 0.06 0.04 0.03 0.06 0.24 0.17 0.16 0.27 0.11 0.06 0.04 0.07 0.02 0.07 0.01 0.03 0.04 0.03 0.03 0.01 0.03 0.03 0.10 0.13 0.08 0.02 0.05 0.04 0.00 0.00
0.00 0.00 0.00 0.00 0.00 0.00 0.00 0.00 0.01 0.04 0.04 0.01 0.07 0.16 0.11 0.07 0.03 0.12 0.16 0.16 0.14 0.14 0.12 0.12 0.12 0.14 0.19 0.10 0.11 0.08 0.05 0.15 0.15 0.14 0.05 0.02 0.03 0.02 0.08 0.08 0.07 0.02 0.00
0.00 0.00 0.00 0.00 0.00 0.00 0.00 0.00 0.00 0.00 0.02 0.01 0.01 0.07 0.05 0.03 0.02 0.00 0.12 0.11 0.15 0.12 0.26 0.17 0.10 0.21 0.39 0.26 0.16 0.23 0.16 0.27 0.32 0.22 0.11 0.01 0.05 0.07 0.13 0.16 0.15 0.09 0.01
0.00 0.00 0.00 0.00 0.00 0.00 0.00 0.00 0.01 0.03 0.01 0.01 0.02 0.05 0.06 0.01 0.01 0.02 0.10 0.17 0.15 0.17 0.19 0.21 0.12 0.28 0.35 0.33 0.26 0.31 0.36 0.30 0.25 0.16 0.08 0.11 0.13 0.27 0.58 0.32 0.25 0.15 0.07
0.01 0.01 0.01 0.05 0.07 0.06 0.12 0.21 0.19 0.15 0.10 0.11 0.13 0.14 0.10 0.02 0.10 0.08 0.04 0.04 0.06 0.09 0.15 0.18 0.18 0.28 0.21 0.16 0.06 0.13 0.28 0.30 0.30 0.24 0.19 0.18 0.31 0.43 0.24 0.17 0.26 0.21 0.14
0.06 0.06 0.09 0.18 0.19 0.19 0.28 0.35 0.26 0.28 0.29 0.22 0.20 0.19 0.17 0.17 0.10 0.05 0.02 0.00 0.02 0.07 0.10 0.16 0.13 0.13 0.28 0.18 0.24 0.07 0.02 0.06 0.11 0.17 0.16 0.14 0.17 0.16 0.13 0.12 0.19 0.21 0.19
0.15 0.10 0.14 0.18 0.29 0.38 0.37 0.38 0.50 0.54 0.54 0.50 0.40 0.32 0.41 0.34 0.16 0.10 0.03 0.00 0.04 0.08 0.10 0.08 0.19 0.20 0.21 0.36 0.22 0.16 0.10 0.06 0.03 0.00 0.04 0.07 0.15 0.08 0.06 0.13 0.21 0.18 0.15
0.33 0.33 0.31 0.41 0.69 0.93 0.92 0.81 0.85 0.83 0.74 0.66 0.61 0.62 0.59 0.57 0.34 0.15 0.08 0.02 0.02 0.07 0.07 0.07 0.07 0.07 0.19 0.23 0.19 0.19 0.28 0.12 0.05 0.00 0.00 0.00 0.01 0.00 0.00 0.02 0.16 0.24 0.34
0.18 0.15 0.19 0.21 0.33 0.44 0.62 0.57 0.41 0.44 0.53 0.52 0.45 0.30 0.23 0.21 0.28 0.29 0.23 0.09 0.04 0.04 0.01 0.01 0.00 0.01 0.02 0.01 0.05 0.14 0.24 0.15 0.03 0.00 0.00 0.00 0.00 0.00 0.00 0.01 0.04 0.11 0.14
0.11 0.06 0.05 0.17 0.25 0.22 0.25 0.28 0.37 0.57 0.67 0.72 0.59 0.50 0.49 0.61 0.61 0.57 0.58 0.49 0.40 0.27 0.17 0.11 0.05 0.05 0.02 0.01 0.01 0.02 0.05 0.04 0.03 0.01 0.00 0.00 0.00 0.00 0.00 0.00 0.00 0.00 0.01
0.02 0.05 0.07 0.05 0.09 0.21 0.33 0.35 0.38 0.40 0.53 0.63 0.79 0.91 0.88 0.73 0.87 0.72 0.55 0.49 0.41 0.32 0.34 0.37 0.38 0.49 0.25 0.14 0.08 0.04 0.02 0.01 0.01 0.01 0.00 0.01 0.01 0.01 0.02 0.01 0.01 0.02 0.03
0.03 0.04 0.03 0.02 0.04 0.04 0.12 0.07 0.11 0.10 0.12 0.16 0.19 0.17 0.13 0.11 0.13 0.13 0.07 0.08 0.11 0.11 0.12 0.12 0.15 0.20 0.16 0.12 0.10 0.08 0.07 0.04 0.03 0.03 0.04 0.03 0.03 0.02 0.02 0.02 0.01 0.01 0.01
0.03 0.06 0.02 0.04 0.07 0.01 0.02 0.02 0.02 0.07 0.16 0.13 0.13 0.13 0.11 0.08 0.09 0.11 0.13 0.12 0.07 0.04 0.04 0.03 0.02 0.02 0.02 0.02 0.03 0.03 0.02 0.01 0.01 0.00 0.00 0.00 0.00 0.00 0.00 0.00 0.00 0.00 0.00
0.01 0.03 0.03 0.05 0.07 0.06 0.09 0.11 0.12 0.15 0.15 0.16 0.17 0.12 0.10 0.16 0.25 0.20 0.18 0.25 0.16 0.11 0.07 0.04 0.03 0.02 0.01 0.01 0.01 0.02 0.04 0.07 0.07 0.06 0.02 0.02 0.02 0.01 0.00 0.00 0.00 0.00 0.00
0.00 0.00 0.01 0.02 0.02 0.02 0.04 0.07 0.08 0.09 0.13 0.13 0.20 0.23 0.20 0.17 0.20 0.19 0.15 0.13 0.18 0.23 0.18 0.16 0.14 0.12 0.11 0.09 0.09 0.10 0.09 0.05 0.03 0.01 0.01 0.00 0.00 0.00 0.00 0.00 0.00 0.00 0.00
0.00 0.00 0.00 0.00 0.00 0.00 0.00 0.00 0.00 0.00 0.01 0.02 0.05 0.10 0.11 0.09 0.05 0.03 0.02 0.01 0.01 0.02 0.05 0.06 0.06 0.07 0.06 0.04 0.02 0.01 0.01 0.00 0.00 0.00 0.00 0.00 0.00 0.00 0.00 0.00 0.00 0.00 0.00
0.00 0.00 0.00 0.00 0.00 0.00 0.00 0.00 0.00 0.00 0.00 0.00 0.00 0.00 0.00 0.00 0.00 0.00 0.00 0.00 0.00 0.00 0.01 0.01 0.00 0.00 0.00 0.00 0.00 0.00 0.00 0.00 0.00 0.00 0.00 0.00 0.00 0.00 0.00 0.00 0.00 0.00 0.00
0.00 0.00 0.00 0.00 0.00 0.00 0.00 0.00 0.00 0.00 0.00 0.00 0.00 0.00 0.00 0.00 0.00 0.00 0.00 0.00 0.00 0.00 0.00 0.00 0.00 0.00 0.00 0.00 0.00 0.00 0.00 0.00 0.00 0.00 0.00 0.00 0.00 0.00 0.00 0.00 0.00 0.00 0.00
0.00 0.00 0.00 0.00 0.00 0.00 0.00 0.00 0.00 0.00 0.00 0.00 0.00 0.00 0.00 0.00 0.00 0.00 0.00 0.00 0.00 0.00 0.00 0.00 0.00 0.00 0.00 0.00 0.00 0.00 0.00 0.00 0.00 0.00 0.00 0.00 0.00 0.00 0.00 0.00 0.00 0.00 0.00
0.00 0.00 0.00 0.00 0.00 0.00 0.00 0.00 0.00 0.00 0.00 0.00 0.00 0.00 0.00 0.00 0.00 0.00 0.00 0.00 0.00 0.00 0.00 0.00 0.00 0.00 0.00 0.00 0.00 0.00 0.00 0.00 0.00 0.00 0.00 0.00 0.00 0.00 0.00 0.00 0.00 0.00 0.00
0.00 0.00 0.00 0.00 0.00 0.00 0.00 0.00 0.00 0.00 0.00 0.00 0.00 0.00 0.00 0.00 0.00 0.00 0.00 0.00 0.00 0.00 0.00 0.00 0.00 0.00 0.00 0.00 0.00 0.00 0.00 0.00 0.00 0.00 0.00 0.00 0.00 0.00 0.00 0.00 0.00 0.00 0.00
0.00 0.00 0.00 0.00 0.00 0.00 0.00 0.00 0.00 0.00 0.00 0.00 0.00 0.00 0.00 0.00 0.00 0.00 0.00 0.00 0.00 0.00 0.00 0.00 0.00 0.00 0.00 0.00 0.00 0.00 0.00 0.00 0.00 0.00 0.00 0.00 0.00 0.00 0.00 0.00 0.00 0.00 0.00
0.00 0.00 0.00 0.00 0.00 0.00 0.00 0.00 0.00 0.00 0.00 0.00 0.00 0.00 0.00 0.00 0.00 0.00 0.00 0.00 0.00 0.00 0.00 0.00 0.00 0.00 0.00 0.00 0.00 0.00 0.00 0.00 0.00 0.00 0.00 0.00 0.00 0.00 0.00 0.00 0.00 0.00 0.00
0.00 0.00 0.00 0.00 0.00 0.00 0.00 0.00 0.00 0.00 0.00 0.00 0.00 0.00 0.00 0.00 0.00 0.00 0.00 0.00 0.00 0.00 0.00 0.00 0.00 0.00 0.00 0.00 0.00 0.00 0.00 0.00 0.00 0.00 0.00 0.00 0.00 0.00 0.00 0.00 0.00 0.00 0.00
0.00 0.01 0.01 0.01 0.00 0.00 0.01 0.01 0.00 0.01 0.01 0.01 0.00 0.00 0.00 0.00 0.00 0.00 0.00 0.00 0.00 0.00 0.00 0.00 0.00 0.00 0.00 0.00 0.00 0.00 0.00 0.00 0.00 0.00 0.00 0.00 0.00 0.00 0.00 0.00 0.00 0.00 0.00

GFSGL_prec_precacc12_135.txt.gz
Total_Precipitation_Accumulation
0.00 0.00 0.00 0.00 0.00 0.02 0.07 0.12 0.06 0.08 0.11 0.10 0.13 0.07 0.05 0.13 0.14 0.23 0.16 0.08 0.11 0.09 0.03 0.06 0.03 0.02 0.00 0.00 0.00 0.01 0.01 0.01 0.00 0.01 0.03 0.06 0.06 0.08 0.06 0.06 0.15 0.07 0.00
0.00 0.00 0.00 0.00 0.00 0.00 0.02 0.02 0.04 0.05 0.05 0.05 0.11 0.10 0.05 0.04 0.06 0.20 0.11 0.09 0.21 0.10 0.07 0.04 0.04 0.03 0.07 0.00 0.02 0.03 0.02 0.03 0.01 0.02 0.01 0.07 0.07 0.12 0.10 0.10 0.05 0.01 0.00
0.00 0.00 0.00 0.00 0.00 0.00 0.00 0.00 0.02 0.05 0.05 0.04 0.10 0.19 0.13 0.07 0.03 0.10 0.11 0.07 0.05 0.07 0.10 0.11 0.08 0.13 0.15 0.06 0.08 0.04 0.04 0.10 0.12 0.08 0.04 0.02 0.02 0.10 0.29 0.31 0.20 0.07 0.01
0.00 0.00 0.00 0.00 0.00 0.00 0.00 0.00 0.00 0.00 0.02 0.02 0.02 0.07 0.05 0.03 0.02 0.00 0.08 0.08 0.12 0.08 0.17 0.09 0.04 0.13 0.27 0.19 0.11 0.16 0.11 0.19 0.26 0.21 0.11 0.02 0.08 0.10 0.26 0.48 0.66 0.25 0.04
0.07 0.01 0.00 0.00 0.00 0.00 0.01 0.01 0.01 0.03 0.01 0.01 0.02 0.05 0.06 0.01 0.01 0.03 0.05 0.12 0.09 0.14 0.18 0.19 0.11 0.21 0.34 0.28 0.23 0.24 0.30 0.25 0.20 0.14 0.11 0.12 0.16 0.32 0.67 0.67 0.60 0.36 0.13
0.16 0.06 0.05 0.07 0.08 0.06 0.11 0.21 0.20 0.16 0.11 0.12 0.14 0.16 0.12 0.04 0.14 0.12 0.05 0.06 0.08 0.10 0.14 0.16 0.16 0.26 0.22 0.17 0.07 0.12 0.21 0.24 0.26 0.21 0.21 0.22 0.34 0.47 0.28 0.21 0.33 0.34 0.27
0.45 0.16 0.09 0.13 0.13 0.10 0.19 0.23 0.23 0.31 0.32 0.28 0.30 0.28 0.27 0.33 0.27 0.14 0.10 0.01 0.05 0.11 0.11 0.11 0.08 0.12 0.28 0.19 0.27 0.11 0.01 0.00 0.05 0.13 0.14 0.19 0.21 0.23 0.23 0.21 0.30 0.30 0.30
0.49 0.31 0.18 0.23 0.24 0.21 0.25 0.38 0.46 0.48 0.48 0.48 0.42 0.33 0.38 0.37 0.24 0.18 0.07 0.02 0.05 0.11 0.14 0.11 0.20 0.19 0.22 0.40 0.24 0.30 0.23 0.16 0.08 0.01 0.04 0.10 0.18 0.09 0.07 0.17 0.24 0.24 0.24
0.32 0.31 0.28 0.34 0.42 0.33 0.36 0.30 0.27 0.52 0.71 0.63 0.51 0.44 0.43 0.32 0.24 0.17 0.08 0.02 0.02 0.08 0.09 0.09 0.09 0.07 0.19 0.23 0.19 0.20 0.35 0.20 0.11 0.02 0.00 0.00 0.01 0.00 0.00 0.02 0.17 0.28 0.42
0.30 0.25 0.22 0.16 0.22 0.20 0.18 0.14 0.18 0.23 0.42 0.46 0.39 0.26 0.20 0.14 0.14 0.15 0.13 0.07 0.04 0.04 0.01 0.01 0.01 0.01 0.02 0.01 0.05 0.14 0.29 0.19 0.04 0.03 0.03 0.01 0.00 0.00 0.00 0.01 0.04 0.11 0.15
0.26 0.17 0.11 0.13 0.13 0.16 0.19 0.16 0.15 0.19 0.29 0.51 0.47 0.41 0.39 0.32 0.21 0.21 0.27 0.31 0.32 0.33 0.23 0.11 0.05 0.07 0.04 0.03 0.03 0.04 0.10 0.12 0.10 0.05 0.02 0.01 0.01 0.00 0.00 0.00 0.00 0.00 0.01
0.04 0.16 0.15 0.04 0.02 0.02 0.07 0.14 0.21 0.21 0.24 0.39 0.63 0.79 0.77 0.64 0.59 0.38 0.23 0.22 0.27 0.25 0.32 0.34 0.38 0.53 0.32 0.21 0.12 0.09 0.08 0.05 0.03 0.01 0.01 0.01 0.01 0.01 0.02 0.02 0.02 0.02 0.04
0.05 0.07 0.04 0.02 0.00 0.01 0.07 0.02 0.02 0.02 0.03 0.04 0.06 0.08 0.09 0.10 0.12 0.11 0.05 0.06 0.10 0.10 0.11 0.12 0.16 0.21 0.18 0.14 0.11 0.09 0.07 0.05 0.03 0.03 0.04 0.03 0.03 0.02 0.02 0.02 0.02 0.01 0.01
0.05 0.06 0.02 0.01 0.02 0.00 0.00 0.00 0.00 0.00 0.02 0.01 0.01 0.01 0.01 0.02 0.05 0.05 0.03 0.07 0.06 0.04 0.03 0.02 0.01 0.01 0.02 0.02 0.03 0.03 0.02 0.01 0.01 0.01 0.02 0.01 0.00 0.00 0.00 0.01 0.01 0.00 0.00
0.00 0.02 0.01 0.00 0.01 0.00 0.01 0.02 0.01 0.01 0.04 0.02 0.04 0.04 0.03 0.06 0.20 0.18 0.14 0.19 0.15 0.11 0.07 0.04 0.03 0.02 0.01 0.01 0.01 0.02 0.04 0.07 0.08 0.08 0.05 0.02 0.02 0.02 0.02 0.01 0.00 0.00 0.00
0.00 0.00 0.00 0.00 0.00 0.00 0.01 0.03 0.03 0.03 0.06 0.04 0.04 0.08 0.05 0.03 0.06 0.14 0.14 0.12 0.17 0.22 0.18 0.16 0.14 0.12 0.11 0.09 0.09 0.10 0.09 0.06 0.03 0.01 0.01 0.00 0.00 0.00 0.00 0.00 0.00 0.00 0.00
0.00 0.00 0.00 0.00 0.00 0.00 0.00 0.00 0.00 0.00 0.00 0.00 0.00 0.01 0.01 0.00 0.01 0.01 0.01 0.01 0.01 0.02 0.05 0.06 0.06 0.07 0.06 0.04 0.02 0.01 0.01 0.00 0.00 0.00 0.00 0.00 0.00 0.00 0.00 0.00 0.00 0.00 0.00
0.00 0.00 0.00 0.00 0.00 0.00 0.00 0.00 0.00 0.00 0.00 0.00 0.00 0.00 0.00 0.00 0.00 0.00 0.00 0.00 0.00 0.00 0.01 0.01 0.00 0.00 0.00 0.00 0.00 0.00 0.00 0.00 0.00 0.00 0.00 0.00 0.00 0.00 0.00 0.00 0.00 0.00 0.00
0.00 0.00 0.00 0.00 0.00 0.00 0.00 0.00 0.00 0.00 0.00 0.00 0.00 0.00 0.00 0.00 0.00 0.00 0.00 0.00 0.00 0.00 0.00 0.00 0.00 0.00 0.00 0.00 0.00 0.00 0.00 0.00 0.00 0.00 0.00 0.00 0.00 0.00 0.00 0.00 0.00 0.00 0.00
0.00 0.00 0.00 0.00 0.00 0.00 0.00 0.00 0.00 0.00 0.00 0.00 0.00 0.00 0.00 0.00 0.00 0.00 0.00 0.00 0.00 0.00 0.00 0.00 0.00 0.00 0.00 0.00 0.00 0.00 0.00 0.00 0.00 0.00 0.00 0.00 0.00 0.00 0.00 0.00 0.00 0.00 0.00
0.00 0.00 0.00 0.00 0.00 0.00 0.00 0.00 0.00 0.00 0.00 0.00 0.00 0.00 0.00 0.00 0.00 0.00 0.00 0.00 0.00 0.00 0.00 0.00 0.00 0.00 0.00 0.00 0.00 0.00 0.00 0.00 0.00 0.00 0.00 0.00 0.00 0.00 0.00 0.00 0.00 0.00 0.00
0.00 0.00 0.00 0.00 0.00 0.00 0.00 0.00 0.00 0.00 0.00 0.00 0.00 0.00 0.00 0.00 0.00 0.00 0.00 0.00 0.00 0.00 0.00 0.00 0.00 0.00 0.00 0.00 0.00 0.00 0.00 0.00 0.00 0.00 0.00 0.00 0.00 0.00 0.00 0.00 0.00 0.00 0.00
0.00 0.00 0.00 0.00 0.00 0.00 0.00 0.00 0.00 0.00 0.00 0.00 0.00 0.00 0.00 0.00 0.00 0.00 0.00 0.00 0.00 0.00 0.00 0.00 0.00 0.00 0.00 0.00 0.00 0.00 0.00 0.00 0.00 0.00 0.00 0.00 0.00 0.00 0.00 0.00 0.00 0.00 0.00
0.00 0.00 0.00 0.00 0.00 0.00 0.00 0.00 0.00 0.00 0.00 0.00 0.00 0.00 0.00 0.00 0.00 0.00 0.00 0.00 0.00 0.00 0.00 0.00 0.00 0.00 0.00 0.00 0.00 0.00 0.00 0.00 0.00 0.00 0.00 0.00 0.00 0.00 0.00 0.00 0.00 0.00 0.00
0.00 0.00 0.00 0.00 0.00 0.00 0.00 0.00 0.00 0.00 0.00 0.00 0.00 0.00 0.00 0.00 0.00 0.00 0.00 0.00 0.00 0.00 0.00 0.00 0.00 0.00 0.00 0.00 0.00 0.00 0.00 0.00 0.00 0.00 0.00 0.00 0.00 0.00 0.00 0.00 0.00 0.00 0.00
0.00 0.01 0.01 0.01 0.00 0.00 0.01 0.01 0.00 0.01 0.01 0.01 0.00 0.00 0.00 0.00 0.00 0.00 0.00 0.00 0.00 0.00 0.00 0.00 0.00 0.00 0.00 0.00 0.00 0.00 0.00 0.00 0.00 0.00 0.00 0.00 0.00 0.00 0.00 0.00 0.00 0.00 0.00

GFSGL_prec_precacc12_138.txt.gz
Total_Precipitation_Accumulation
0.00 0.00 0.00 0.00 0.00 0.02 0.06 0.07 0.06 0.08 0.11 0.10 0.13 0.07 0.04 0.11 0.12 0.15 0.12 0.08 0.10 0.07 0.02 0.04 0.03 0.02 0.01 0.03 0.00 0.02 0.02 0.04 0.02 0.02 0.04 0.04 0.07 0.09 0.10 0.11 0.16 0.05 0.00
0.00 0.00 0.00 0.00 0.00 0.00 0.02 0.02 0.04 0.05 0.05 0.05 0.11 0.10 0.05 0.04 0.04 0.11 0.07 0.09 0.20 0.09 0.06 0.02 0.01 0.01 0.05 0.00 0.02 0.03 0.02 0.04 0.05 0.03 0.05 0.09 0.11 0.12 0.16 0.21 0.08 0.01 0.00
0.00 0.00 0.00 0.00 0.00 0.00 0.00 0.00 0.02 0.05 0.05 0.04 0.10 0.19 0.13 0.07 0.03 0.02 0.03 0.04 0.04 0.06 0.08 0.09 0.05 0.08 0.12 0.07 0.06 0.03 0.03 0.05 0.08 0.06 0.02 0.04 0.04 0.14 0.36 0.43 0.27 0.10 0.02
0.00 0.00 0.00 0.00 0.00 0.00 0.00 0.00 0.00 0.00 0.02 0.02 0.02 0.07 0.06 0.04 0.02 0.00 0.01 0.03 0.10 0.05 0.12 0.08 0.04 0.12 0.25 0.18 0.09 0.18 0.13 0.16 0.19 0.16 0.09 0.04 0.11 0.12 0.34 0.53 0.68 0.31 0.08
0.12 0.02 0.00 0.00 0.00 0.00 0.01 0.01 0.01 0.03 0.01 0.01 0.02 0.06 0.12 0.11 0.05 0.09 0.05 0.06 0.09 0.11 0.16 0.13 0.05 0.10 0.26 0.24 0.16 0.19 0.26 0.31 0.23 0.12 0.11 0.12 0.14 0.31 0.72 0.72 0.56 0.36 0.14
0.29 0.13 0.06 0.06 0.07 0.04 0.06 0.10 0.08 0.07 0.09 0.13 0.17 0.23 0.20 0.16 0.25 0.23 0.10 0.11 0.13 0.12 0.16 0.13 0.12 0.19 0.20 0.15 0.03 0.04 0.10 0.16 0.18 0.17 0.21 0.20 0.30 0.50 0.31 0.21 0.30 0.31 0.27
0.62 0.30 0.21 0.13 0.12 0.11 0.17 0.10 0.12 0.22 0.24 0.25 0.33 0.33 0.35 0.36 0.33 0.25 0.20 0.05 0.06 0.10 0.11 0.09 0.07 0.09 0.21 0.19 0.26 0.11 0.00 0.00 0.02 0.07 0.10 0.17 0.19 0.24 0.24 0.22 0.27 0.32 0.40
1.29 1.05 0.45 0.44 0.39 0.31 0.35 0.50 0.48 0.32 0.20 0.22 0.25 0.30 0.36 0.43 0.39 0.33 0.22 0.11 0.06 0.11 0.14 0.11 0.17 0.16 0.20 0.39 0.24 0.30 0.24 0.17 0.09 0.01 0.03 0.09 0.18 0.09 0.07 0.17 0.19 0.25 0.31
0.99 0.72 0.69 0.53 0.61 0.63 0.62 0.53 0.35 0.27 0.37 0.40 0.37 0.33 0.45 0.31 0.33 0.21 0.12 0.04 0.04 0.09 0.09 0.10 0.09 0.08 0.16 0.22 0.19 0.20 0.35 0.20 0.11 0.02 0.01 0.00 0.01 0.00 0.00 0.02 0.12 0.23 0.34
0.67 0.62 0.46 0.43 0.40 0.32 0.31 0.31 0.23 0.21 0.25 0.19 0.16 0.11 0.14 0.12 0.11 0.09 0.05 0.03 0.02 0.03 0.01 0.01 0.02 0.02 0.02 0.00 0.05 0.14 0.29 0.20 0.05 0.03 0.03 0.01 0.00 0.00 0.01 0.01 0.03 0.10 0.14
0.72 0.69 0.31 0.26 0.36 0.25 0.25 0.21 0.15 0.11 0.09 0.07 0.04 0.04 0.07 0.10 0.13 0.17 0.18 0.14 0.18 0.24 0.18 0.10 0.06 0.08 0.04 0.03 0.03 0.04 0.10 0.14 0.17 0.10 0.07 0.07 0.04 0.01 0.01 0.00 0.00 0.00 0.02
0.09 0.47 0.44 0.15 0.07 0.06 0.05 0.03 0.02 0.04 0.03 0.05 0.12 0.20 0.38 0.41 0.47 0.33 0.18 0.14 0.15 0.13 0.19 0.28 0.35 0.50 0.30 0.21 0.12 0.09 0.08 0.06 0.06 0.07 0.06 0.04 0.02 0.02 0.02 0.02 0.02 0.02 0.04
0.16 0.25 0.16 0.11 0.04 0.01 0.00 0.00 0.00 0.00 0.00 0.00 0.02 0.02 0.02 0.04 0.07 0.07 0.03 0.02 0.05 0.08 0.09 0.10 0.13 0.18 0.15 0.12 0.10 0.09 0.07 0.05 0.03 0.03 0.04 0.03 0.03 0.02 0.02 0.02 0.02 0.01 0.01
0.06 0.06 0.03 0.03 0.01 0.00 0.00 0.00 0.00 0.00 0.00 0.00 0.00 0.00 0.00 0.00 0.00 0.00 0.01 0.01 0.01 0.01 0.02 0.02 0.01 0.01 0.02 0.02 0.03 0.03 0.02 0.01 0.01 0.01 0.02 0.01 0.00 0.00 0.00 0.01 0.01 0.00 0.00
0.00 0.02 0.01 0.00 0.00 0.00 0.00 0.00 0.00 0.00 0.00 0.00 0.00 0.01 0.01 0.01 0.08 0.07 0.07 0.06 0.03 0.07 0.06 0.03 0.02 0.01 0.00 0.00 0.01 0.02 0.04 0.07 0.08 0.08 0.05 0.02 0.02 0.02 0.02 0.01 0.00 0.00 0.00
0.00 0.00 0.00 0.00 0.00 0.00 0.00 0.00 0.00 0.00 0.00 0.00 0.00 0.01 0.01 0.01 0.02 0.04 0.05 0.03 0.06 0.15 0.13 0.12 0.11 0.11 0.11 0.09 0.09 0.10 0.09 0.06 0.03 0.01 0.01 0.00 0.00 0.00 0.00 0.00 0.00 0.00 0.00
0.00 0.00 0.00 0.00 0.00 0.00 0.00 0.00 0.00 0.00 0.00 0.00 0.00 0.00 0.00 0.00 0.00 0.00 0.00 0.00 0.00 0.00 0.00 0.00 0.02 0.06 0.06 0.04 0.02 0.01 0.00 0.00 0.00 0.00 0.00 0.00 0.00 0.00 0.00 0.00 0.00 0.00 0.00
0.00 0.00 0.00 0.00 0.00 0.00 0.00 0.00 0.00 0.00 0.00 0.00 0.00 0.00 0.00 0.00 0.00 0.00 0.00 0.00 0.00 0.00 0.00 0.00 0.00 0.00 0.00 0.00 0.00 0.00 0.00 0.00 0.00 0.00 0.00 0.00 0.00 0.00 0.00 0.00 0.00 0.00 0.00
0.00 0.00 0.00 0.00 0.00 0.00 0.00 0.00 0.00 0.00 0.00 0.00 0.00 0.00 0.00 0.00 0.00 0.00 0.00 0.00 0.00 0.00 0.00 0.00 0.00 0.00 0.00 0.00 0.00 0.00 0.00 0.00 0.00 0.00 0.00 0.00 0.00 0.00 0.00 0.00 0.00 0.00 0.00
0.00 0.00 0.00 0.00 0.00 0.00 0.00 0.00 0.00 0.00 0.00 0.00 0.00 0.00 0.00 0.00 0.00 0.00 0.00 0.00 0.00 0.00 0.00 0.00 0.00 0.00 0.00 0.00 0.00 0.00 0.00 0.00 0.00 0.00 0.00 0.00 0.00 0.00 0.00 0.00 0.00 0.00 0.00
0.00 0.00 0.00 0.00 0.00 0.00 0.00 0.00 0.00 0.00 0.00 0.00 0.00 0.00 0.00 0.00 0.00 0.00 0.00 0.00 0.00 0.00 0.00 0.00 0.00 0.00 0.00 0.00 0.00 0.00 0.00 0.00 0.00 0.00 0.00 0.00 0.00 0.00 0.00 0.00 0.00 0.00 0.00
0.00 0.00 0.00 0.00 0.00 0.00 0.00 0.00 0.00 0.00 0.00 0.00 0.00 0.00 0.00 0.00 0.00 0.00 0.00 0.00 0.00 0.00 0.00 0.00 0.00 0.00 0.00 0.00 0.00 0.00 0.00 0.00 0.00 0.00 0.00 0.00 0.00 0.00 0.00 0.00 0.00 0.00 0.00
0.00 0.00 0.00 0.00 0.00 0.00 0.00 0.00 0.00 0.00 0.00 0.00 0.00 0.00 0.00 0.00 0.00 0.00 0.00 0.00 0.00 0.00 0.00 0.00 0.00 0.00 0.00 0.00 0.00 0.00 0.00 0.00 0.00 0.00 0.00 0.00 0.00 0.00 0.00 0.00 0.00 0.00 0.00
0.00 0.00 0.00 0.00 0.00 0.00 0.00 0.00 0.00 0.00 0.00 0.00 0.00 0.00 0.00 0.00 0.00 0.00 0.00 0.00 0.00 0.00 0.00 0.00 0.00 0.00 0.00 0.00 0.00 0.00 0.00 0.00 0.00 0.00 0.00 0.00 0.00 0.00 0.00 0.00 0.00 0.00 0.00
0.00 0.00 0.00 0.00 0.00 0.00 0.00 0.00 0.00 0.00 0.00 0.00 0.00 0.00 0.00 0.00 0.00 0.00 0.00 0.00 0.00 0.00 0.00 0.00 0.00 0.00 0.00 0.00 0.00 0.00 0.00 0.00 0.00 0.00 0.00 0.00 0.00 0.00 0.00 0.00 0.00 0.00 0.00
0.00 0.00 0.00 0.00 0.00 0.00 0.00 0.00 0.00 0.00 0.00 0.00 0.00 0.00 0.00 0.00 0.00 0.00 0.00 0.00 0.00 0.00 0.00 0.00 0.00 0.00 0.00 0.00 0.00 0.00 0.00 0.00 0.00 0.00 0.00 0.00 0.00 0.00 0.00 0.00 0.00 0.00 0.00

GFSGL_prec_precacc12_144.txt.gz
Total_Precipitation_Accumulation
0.00 0.00 0.00 0.00 0.00 0.01 0.03 0.01 0.03 0.03 0.02 0.04 0.08 0.05 0.03 0.03 0.01 0.00 0.04 0.02 0.00 0.00 0.00 0.03 0.04 0.04 0.01 0.04 0.04 0.03 0.02 0.04 0.02 0.03 0.06 0.04 0.06 0.10 0.12 0.06 0.04 0.02 0.00
0.00 0.00 0.00 0.00 0.00 0.00 0.02 0.01 0.03 0.02 0.00 0.03 0.03 0.04 0.02 0.01 0.00 0.01 0.01 0.00 0.00 0.01 0.01 0.01 0.00 0.01 0.01 0.04 0.03 0.06 0.02 0.04 0.04 0.02 0.05 0.06 0.07 0.11 0.15 0.17 0.11 0.04 0.00
0.00 0.00 0.00 0.00 0.00 0.00 0.00 0.00 0.01 0.01 0.01 0.03 0.04 0.06 0.02 0.01 0.05 0.06 0.07 0.03 0.00 0.00 0.00 0.00 0.00 0.00 0.03 0.06 0.05 0.05 0.00 0.00 0.01 0.01 0.02 0.03 0.03 0.14 0.28 0.36 0.24 0.11 0.02
0.00 0.00 0.00 0.00 0.00 0.00 0.00 0.00 0.00 0.00 0.00 0.01 0.00 0.00 0.03 0.08 0.08 0.05 0.00 0.01 0.03 0.00 0.01 0.00 0.00 0.00 0.05 0.08 0.06 0.13 0.09 0.10 0.14 0.08 0.14 0.10 0.08 0.08 0.22 0.40 0.56 0.25 0.08
0.21 0.05 0.00 0.00 0.00 0.00 0.00 0.00 0.00 0.00 0.00 0.00 0.00 0.05 0.18 0.19 0.12 0.14 0.06 0.05 0.04 0.01 0.12 0.04 0.01 0.03 0.11 0.03 0.02 0.10 0.11 0.20 0.13 0.06 0.07 0.05 0.04 0.06 0.15 0.42 0.36 0.23 0.09
0.59 0.35 0.18 0.05 0.01 0.00 0.00 0.00 0.01 0.01 0.06 0.07 0.08 0.12 0.18 0.22 0.22 0.24 0.13 0.13 0.10 0.08 0.11 0.09 0.10 0.09 0.22 0.12 0.05 0.02 0.02 0.05 0.05 0.02 0.07 0.07 0.06 0.08 0.08 0.04 0.10 0.15 0.14
0.94 0.59 0.45 0.35 0.15 0.12 0.11 0.05 0.08 0.17 0.20 0.21 0.28 0.25 0.29 0.25 0.26 0.30 0.41 0.16 0.06 0.08 0.12 0.10 0.06 0.05 0.09 0.06 0.06 0.05 0.00 0.00 0.00 0.01 0.03 0.09 0.10 0.13 0.15 0.14 0.14 0.17 0.23
1.74 1.81 0.79 0.66 0.56 0.42 0.39 0.46 0.41 0.30 0.19 0.17 0.14 0.17 0.25 0.45 0.50 0.41 0.33 0.21 0.04 0.04 0.06 0.05 0.04 0.04 0.02 0.06 0.04 0.15 0.14 0.11 0.06 0.01 0.00 0.04 0.05 0.04 0.04 0.08 0.06 0.11 0.19
1.25 1.11 0.98 0.77 0.85 0.81 0.68 0.57 0.47 0.31 0.31 0.46 0.48 0.38 0.52 0.34 0.53 0.33 0.14 0.04 0.02 0.03 0.03 0.04 0.03 0.02 0.02 0.02 0.02 0.02 0.07 0.09 0.07 0.04 0.01 0.00 0.00 0.00 0.00 0.01 0.01 0.06 0.11
0.71 0.80 0.54 0.54 0.61 0.66 0.73 0.75 0.73 0.68 0.57 0.45 0.36 0.29 0.29 0.25 0.19 0.17 0.07 0.01 0.02 0.03 0.00 0.00 0.02 0.03 0.02 0.02 0.01 0.01 0.06 0.06 0.02 0.03 0.04 0.03 0.04 0.07 0.11 0.12 0.19 0.23 0.24
0.75 1.15 0.82 0.89 0.74 0.76 0.70 0.90 0.76 0.73 0.62 0.46 0.33 0.22 0.12 0.08 0.03 0.01 0.01 0.00 0.02 0.10 0.09 0.03 0.02 0.06 0.03 0.03 0.02 0.02 0.06 0.10 0.17 0.09 0.08 0.11 0.12 0.09 0.07 0.06 0.04 0.04 0.04
0.09 0.52 0.80 0.72 0.71 0.69 0.77 1.02 1.57 1.62 1.52 1.08 0.75 0.49 0.18 0.06 0.03 0.01 0.00 0.00 0.02 0.00 0.00 0.01 0.03 0.07 0.08 0.08 0.05 0.06 0.06 0.05 0.05 0.07 0.06 0.05 0.03 0.02 0.02 0.01 0.01 0.01 0.01
0.29 0.46 0.22 0.32 0.34 0.29 0.41 0.46 0.53 0.72 0.65 0.74 0.42 0.31 0.19 0.07 0.02 0.00 0.00 0.00 0.00 0.00 0.00 0.00 0.01 0.01 0.02 0.02 0.01 0.01 0.00 0.00 0.00 0.00 0.00 0.00 0.00 0.00 0.00 0.00 0.01 0.00 0.00
0.22 0.28 0.11 0.11 0.12 0.12 0.09 0.10 0.08 0.09 0.10 0.10 0.09 0.05 0.03 0.02 0.00 0.00 0.00 0.00 0.00 0.00 0.00 0.00 0.00 0.00 0.00 0.00 0.00 0.00 0.00 0.00 0.00 0.00 0.02 0.01 0.00 0.00 0.00 0.01 0.00 0.00 0.00
0.18 0.27 0.17 0.08 0.07 0.03 0.02 0.00 0.01 0.01 0.03 0.02 0.02 0.01 0.00 0.00 0.00 0.00 0.00 0.00 0.00 0.00 0.00 0.00 0.00 0.00 0.00 0.00 0.00 0.00 0.00 0.00 0.01 0.02 0.03 0.00 0.00 0.01 0.02 0.01 0.00 0.00 0.00
0.09 0.10 0.08 0.03 0.01 0.00 0.01 0.00 0.00 0.00 0.01 0.01 0.00 0.00 0.00 0.00 0.00 0.00 0.00 0.00 0.00 0.00 0.00 0.00 0.00 0.00 0.00 0.00 0.00 0.00 0.00 0.00 0.00 0.00 0.00 0.00 0.00 0.00 0.00 0.00 0.00 0.00 0.00
0.01 0.01 0.00 0.00 0.00 0.00 0.00 0.00 0.00 0.00 0.00 0.00 0.00 0.00 0.00 0.00 0.00 0.00 0.00 0.00 0.00 0.00 0.00 0.00 0.00 0.00 0.00 0.00 0.00 0.00 0.00 0.00 0.00 0.00 0.00 0.00 0.00 0.00 0.00 0.00 0.00 0.00 0.00
0.00 0.01 0.01 0.01 0.00 0.00 0.00 0.00 0.00 0.00 0.00 0.00 0.00 0.00 0.00 0.00 0.00 0.00 0.00 0.00 0.00 0.00 0.00 0.00 0.00 0.00 0.00 0.00 0.00 0.00 0.00 0.00 0.00 0.00 0.00 0.00 0.00 0.00 0.00 0.00 0.00 0.00 0.00
0.00 0.00 0.00 0.00 0.00 0.00 0.00 0.00 0.00 0.00 0.00 0.00 0.00 0.00 0.00 0.00 0.00 0.00 0.00 0.00 0.00 0.00 0.00 0.00 0.00 0.00 0.00 0.00 0.00 0.00 0.00 0.00 0.00 0.00 0.00 0.00 0.00 0.00 0.00 0.00 0.00 0.00 0.00
0.00 0.00 0.00 0.00 0.00 0.00 0.00 0.00 0.00 0.00 0.00 0.00 0.00 0.00 0.00 0.00 0.00 0.00 0.00 0.00 0.00 0.00 0.00 0.00 0.00 0.00 0.00 0.00 0.00 0.00 0.00 0.00 0.00 0.00 0.00 0.00 0.00 0.00 0.00 0.00 0.00 0.00 0.00
0.00 0.00 0.00 0.00 0.00 0.00 0.00 0.00 0.00 0.00 0.00 0.00 0.00 0.00 0.00 0.00 0.00 0.00 0.00 0.00 0.00 0.00 0.00 0.00 0.00 0.00 0.00 0.00 0.00 0.00 0.00 0.00 0.00 0.00 0.00 0.00 0.00 0.00 0.00 0.00 0.00 0.00 0.00
0.00 0.00 0.00 0.00 0.00 0.00 0.00 0.00 0.00 0.00 0.00 0.00 0.00 0.00 0.00 0.00 0.00 0.00 0.00 0.00 0.00 0.00 0.00 0.00 0.00 0.00 0.00 0.00 0.00 0.00 0.00 0.00 0.00 0.00 0.00 0.00 0.00 0.00 0.00 0.00 0.00 0.00 0.00
0.00 0.00 0.00 0.00 0.00 0.00 0.00 0.00 0.00 0.00 0.00 0.00 0.00 0.00 0.00 0.00 0.00 0.00 0.00 0.00 0.00 0.00 0.00 0.00 0.00 0.00 0.00 0.00 0.00 0.00 0.00 0.00 0.00 0.00 0.00 0.00 0.00 0.00 0.00 0.00 0.00 0.00 0.00
0.00 0.00 0.00 0.00 0.00 0.00 0.00 0.00 0.00 0.00 0.00 0.00 0.00 0.00 0.00 0.00 0.00 0.00 0.00 0.00 0.00 0.00 0.00 0.00 0.00 0.00 0.00 0.00 0.00 0.00 0.00 0.00 0.00 0.00 0.00 0.00 0.00 0.00 0.00 0.00 0.00 0.00 0.00
0.00 0.00 0.00 0.00 0.00 0.00 0.00 0.00 0.00 0.00 0.00 0.00 0.00 0.00 0.00 0.00 0.00 0.00 0.00 0.00 0.00 0.00 0.00 0.00 0.00 0.00 0.00 0.00 0.00 0.00 0.00 0.00 0.00 0.00 0.00 0.00 0.00 0.00 0.00 0.00 0.00 0.00 0.00
0.00 0.00 0.00 0.00 0.00 0.00 0.00 0.00 0.00 0.00 0.00 0.00 0.00 0.00 0.00 0.00 0.00 0.00 0.00 0.00 0.00 0.00 0.00 0.00 0.00 0.00 0.00 0.00 0.00 0.00 0.00 0.00 0.00 0.00 0.00 0.00 0.00 0.00 0.00 0.00 0.00 0.00 0.00